<?xml version="1.0" encoding="UTF-8" standalone="no" ?>
<gpx xmlns="http://www.topografix.com/GPX/1/1" xmlns:xsi="http://www.w3.org/2001/XMLSchema-instance" xsi:schemaLocation="http://www.topografix.com/GPX/1/1 http://www.topografix.com/GPX/1/1/gpx.xsd" version="1.1" creator="VisuGPX - https://www.visugpx.com">
  <metadata>
    <name>13814299-BPF 69 depuis clairvaux étape 2</name>
  </metadata>
  <trk>
    <name><![CDATA[13814299-BPF 69 depuis clairvaux]]></name>
    <trkseg>
      <trkpt lat="45.90832" lon="4.42875">
        <ele>420</ele>
        <time>2021-10-14T22:11:40Z</time>
      </trkpt>
      <trkpt lat="45.90895" lon="4.42801">
        <ele>424</ele>
        <time>2021-10-14T22:11:54Z</time>
      </trkpt>
      <trkpt lat="45.90931" lon="4.42775">
        <ele>425</ele>
        <time>2021-10-14T22:12:02Z</time>
      </trkpt>
      <trkpt lat="45.90966" lon="4.4276">
        <ele>428</ele>
        <time>2021-10-14T22:12:08Z</time>
      </trkpt>
      <trkpt lat="45.91056" lon="4.42747">
        <ele>434</ele>
        <time>2021-10-14T22:12:24Z</time>
      </trkpt>
      <trkpt lat="45.91097" lon="4.42738">
        <ele>437</ele>
        <time>2021-10-14T22:12:32Z</time>
      </trkpt>
      <trkpt lat="45.91142" lon="4.42708">
        <ele>438</ele>
        <time>2021-10-14T22:12:40Z</time>
      </trkpt>
      <trkpt lat="45.91248" lon="4.42619">
        <ele>437</ele>
        <time>2021-10-14T22:13:02Z</time>
      </trkpt>
      <trkpt lat="45.91301" lon="4.42588">
        <ele>437</ele>
        <time>2021-10-14T22:13:12Z</time>
      </trkpt>
      <trkpt lat="45.91411" lon="4.42554">
        <ele>446</ele>
        <time>2021-10-14T22:13:32Z</time>
      </trkpt>
      <trkpt lat="45.91504" lon="4.42534">
        <ele>446</ele>
        <time>2021-10-14T22:13:49Z</time>
      </trkpt>
      <trkpt lat="45.91516" lon="4.4251">
        <ele>444</ele>
        <time>2021-10-14T22:13:53Z</time>
      </trkpt>
      <trkpt lat="45.91514" lon="4.42491">
        <ele>444</ele>
        <time>2021-10-14T22:13:55Z</time>
      </trkpt>
      <trkpt lat="45.91508" lon="4.42477">
        <ele>446</ele>
        <time>2021-10-14T22:13:57Z</time>
      </trkpt>
      <trkpt lat="45.91498" lon="4.42466">
        <ele>447</ele>
        <time>2021-10-14T22:14:00Z</time>
      </trkpt>
      <trkpt lat="45.91485" lon="4.42462">
        <ele>448</ele>
        <time>2021-10-14T22:14:02Z</time>
      </trkpt>
      <trkpt lat="45.91359" lon="4.42398">
        <ele>449</ele>
        <time>2021-10-14T22:14:26Z</time>
      </trkpt>
      <trkpt lat="45.9135" lon="4.42387">
        <ele>449</ele>
        <time>2021-10-14T22:14:28Z</time>
      </trkpt>
      <trkpt lat="45.91344" lon="4.42373">
        <ele>450</ele>
        <time>2021-10-14T22:14:30Z</time>
      </trkpt>
      <trkpt lat="45.9134" lon="4.42353">
        <ele>452</ele>
        <time>2021-10-14T22:14:32Z</time>
      </trkpt>
      <trkpt lat="45.91338" lon="4.42331">
        <ele>454</ele>
        <time>2021-10-14T22:14:35Z</time>
      </trkpt>
      <trkpt lat="45.91339" lon="4.42312">
        <ele>454</ele>
        <time>2021-10-14T22:14:37Z</time>
      </trkpt>
      <trkpt lat="45.91344" lon="4.42277">
        <ele>456</ele>
        <time>2021-10-14T22:14:42Z</time>
      </trkpt>
      <trkpt lat="45.91367" lon="4.42179">
        <ele>461</ele>
        <time>2021-10-14T22:14:55Z</time>
      </trkpt>
      <trkpt lat="45.91372" lon="4.42162">
        <ele>462</ele>
        <time>2021-10-14T22:14:57Z</time>
      </trkpt>
      <trkpt lat="45.91394" lon="4.42122">
        <ele>465</ele>
        <time>2021-10-14T22:15:03Z</time>
      </trkpt>
      <trkpt lat="45.91434" lon="4.42052">
        <ele>470</ele>
        <time>2021-10-14T22:15:15Z</time>
      </trkpt>
      <trkpt lat="45.91458" lon="4.42016">
        <ele>472</ele>
        <time>2021-10-14T22:15:21Z</time>
      </trkpt>
      <trkpt lat="45.91488" lon="4.41977">
        <ele>475</ele>
        <time>2021-10-14T22:15:28Z</time>
      </trkpt>
      <trkpt lat="45.91551" lon="4.41905">
        <ele>483</ele>
        <time>2021-10-14T22:15:42Z</time>
      </trkpt>
      <trkpt lat="45.9174" lon="4.41644">
        <ele>497</ele>
        <time>2021-10-14T22:16:29Z</time>
      </trkpt>
      <trkpt lat="45.91846" lon="4.41506">
        <ele>508</ele>
        <time>2021-10-14T22:16:54Z</time>
      </trkpt>
      <trkpt lat="45.91953" lon="4.41341">
        <ele>520</ele>
        <time>2021-10-14T22:17:22Z</time>
      </trkpt>
      <trkpt lat="45.92008" lon="4.41285">
        <ele>524</ele>
        <time>2021-10-14T22:17:34Z</time>
      </trkpt>
      <trkpt lat="45.92115" lon="4.41198">
        <ele>532</ele>
        <time>2021-10-14T22:17:56Z</time>
      </trkpt>
      <trkpt lat="45.92201" lon="4.41146">
        <ele>545</ele>
        <time>2021-10-14T22:18:13Z</time>
      </trkpt>
      <trkpt lat="45.92211" lon="4.4113">
        <ele>548</ele>
        <time>2021-10-14T22:18:15Z</time>
      </trkpt>
      <trkpt lat="45.92215" lon="4.41102">
        <ele>550</ele>
        <time>2021-10-14T22:18:19Z</time>
      </trkpt>
      <trkpt lat="45.9221" lon="4.4108">
        <ele>551</ele>
        <time>2021-10-14T22:18:22Z</time>
      </trkpt>
      <trkpt lat="45.92197" lon="4.41063">
        <ele>553</ele>
        <time>2021-10-14T22:18:25Z</time>
      </trkpt>
      <trkpt lat="45.92118" lon="4.41014">
        <ele>561</ele>
        <time>2021-10-14T22:18:40Z</time>
      </trkpt>
      <trkpt lat="45.92044" lon="4.41008">
        <ele>557</ele>
        <time>2021-10-14T22:18:53Z</time>
      </trkpt>
      <trkpt lat="45.92017" lon="4.40984">
        <ele>558</ele>
        <time>2021-10-14T22:18:59Z</time>
      </trkpt>
      <trkpt lat="45.92009" lon="4.40944">
        <ele>561</ele>
        <time>2021-10-14T22:19:04Z</time>
      </trkpt>
      <trkpt lat="45.92005" lon="4.40902">
        <ele>563</ele>
        <time>2021-10-14T22:19:09Z</time>
      </trkpt>
      <trkpt lat="45.92024" lon="4.40785">
        <ele>568</ele>
        <time>2021-10-14T22:19:24Z</time>
      </trkpt>
      <trkpt lat="45.92041" lon="4.40751">
        <ele>571</ele>
        <time>2021-10-14T22:19:29Z</time>
      </trkpt>
      <trkpt lat="45.92063" lon="4.40719">
        <ele>575</ele>
        <time>2021-10-14T22:19:35Z</time>
      </trkpt>
      <trkpt lat="45.92106" lon="4.40676">
        <ele>580</ele>
        <time>2021-10-14T22:19:44Z</time>
      </trkpt>
      <trkpt lat="45.92354" lon="4.4056">
        <ele>604</ele>
        <time>2021-10-14T22:20:31Z</time>
      </trkpt>
      <trkpt lat="45.92373" lon="4.40517">
        <ele>602</ele>
        <time>2021-10-14T22:20:37Z</time>
      </trkpt>
      <trkpt lat="45.92402" lon="4.40435">
        <ele>603</ele>
        <time>2021-10-14T22:20:48Z</time>
      </trkpt>
      <trkpt lat="45.92478" lon="4.40331">
        <ele>617</ele>
        <time>2021-10-14T22:21:07Z</time>
      </trkpt>
      <trkpt lat="45.92583" lon="4.40117">
        <ele>630</ele>
        <time>2021-10-14T22:21:40Z</time>
      </trkpt>
      <trkpt lat="45.92694" lon="4.3998">
        <ele>635</ele>
        <time>2021-10-14T22:22:06Z</time>
      </trkpt>
      <trkpt lat="45.92775" lon="4.39917">
        <ele>642</ele>
        <time>2021-10-14T22:22:22Z</time>
      </trkpt>
      <trkpt lat="45.92868" lon="4.39866">
        <ele>653</ele>
        <time>2021-10-14T22:22:40Z</time>
      </trkpt>
      <trkpt lat="45.92891" lon="4.39846">
        <ele>656</ele>
        <time>2021-10-14T22:22:44Z</time>
      </trkpt>
      <trkpt lat="45.929" lon="4.39825">
        <ele>657</ele>
        <time>2021-10-14T22:22:47Z</time>
      </trkpt>
      <trkpt lat="45.92903" lon="4.39796">
        <ele>659</ele>
        <time>2021-10-14T22:22:51Z</time>
      </trkpt>
      <trkpt lat="45.92896" lon="4.39726">
        <ele>659</ele>
        <time>2021-10-14T22:23:00Z</time>
      </trkpt>
      <trkpt lat="45.92922" lon="4.39648">
        <ele>665</ele>
        <time>2021-10-14T22:23:11Z</time>
      </trkpt>
      <trkpt lat="45.93074" lon="4.39401">
        <ele>682</ele>
        <time>2021-10-14T22:23:51Z</time>
      </trkpt>
      <trkpt lat="45.93091" lon="4.39353">
        <ele>685</ele>
        <time>2021-10-14T22:23:58Z</time>
      </trkpt>
      <trkpt lat="45.93103" lon="4.39304">
        <ele>693</ele>
        <time>2021-10-14T22:24:04Z</time>
      </trkpt>
      <trkpt lat="45.93101" lon="4.39276">
        <ele>698</ele>
        <time>2021-10-14T22:24:08Z</time>
      </trkpt>
      <trkpt lat="45.93093" lon="4.39261">
        <ele>698</ele>
        <time>2021-10-14T22:24:10Z</time>
      </trkpt>
      <trkpt lat="45.93077" lon="4.39254">
        <ele>697</ele>
        <time>2021-10-14T22:24:13Z</time>
      </trkpt>
      <trkpt lat="45.93025" lon="4.39247">
        <ele>694</ele>
        <time>2021-10-14T22:24:23Z</time>
      </trkpt>
      <trkpt lat="45.93012" lon="4.39242">
        <ele>694</ele>
        <time>2021-10-14T22:24:25Z</time>
      </trkpt>
      <trkpt lat="45.93002" lon="4.39217">
        <ele>697</ele>
        <time>2021-10-14T22:24:29Z</time>
      </trkpt>
      <trkpt lat="45.92992" lon="4.3916">
        <ele>707</ele>
        <time>2021-10-14T22:24:36Z</time>
      </trkpt>
      <trkpt lat="45.92982" lon="4.39145">
        <ele>710</ele>
        <time>2021-10-14T22:24:38Z</time>
      </trkpt>
      <trkpt lat="45.92967" lon="4.39135">
        <ele>712</ele>
        <time>2021-10-14T22:24:41Z</time>
      </trkpt>
      <trkpt lat="45.92952" lon="4.39136">
        <ele>711</ele>
        <time>2021-10-14T22:24:44Z</time>
      </trkpt>
      <trkpt lat="45.92905" lon="4.39166">
        <ele>703</ele>
        <time>2021-10-14T22:24:53Z</time>
      </trkpt>
      <trkpt lat="45.9288" lon="4.39166">
        <ele>703</ele>
        <time>2021-10-14T22:24:58Z</time>
      </trkpt>
      <trkpt lat="45.92864" lon="4.39159">
        <ele>705</ele>
        <time>2021-10-14T22:25:01Z</time>
      </trkpt>
      <trkpt lat="45.92839" lon="4.3913">
        <ele>707</ele>
        <time>2021-10-14T22:25:06Z</time>
      </trkpt>
      <trkpt lat="45.92824" lon="4.39064">
        <ele>710</ele>
        <time>2021-10-14T22:25:15Z</time>
      </trkpt>
      <trkpt lat="45.928" lon="4.38937">
        <ele>715</ele>
        <time>2021-10-14T22:25:31Z</time>
      </trkpt>
      <trkpt lat="45.92805" lon="4.38898">
        <ele>714</ele>
        <time>2021-10-14T22:25:36Z</time>
      </trkpt>
      <trkpt lat="45.92814" lon="4.38876">
        <ele>713</ele>
        <time>2021-10-14T22:25:39Z</time>
      </trkpt>
      <trkpt lat="45.92842" lon="4.38832">
        <ele>713</ele>
        <time>2021-10-14T22:25:47Z</time>
      </trkpt>
      <trkpt lat="45.92851" lon="4.38814">
        <ele>712</ele>
        <time>2021-10-14T22:25:49Z</time>
      </trkpt>
      <trkpt lat="45.92862" lon="4.38781">
        <ele>711</ele>
        <time>2021-10-14T22:25:54Z</time>
      </trkpt>
      <trkpt lat="45.9286" lon="4.38747">
        <ele>709</ele>
        <time>2021-10-14T22:25:58Z</time>
      </trkpt>
      <trkpt lat="45.92848" lon="4.38716">
        <ele>712</ele>
        <time>2021-10-14T22:26:03Z</time>
      </trkpt>
      <trkpt lat="45.92821" lon="4.38666">
        <ele>714</ele>
        <time>2021-10-14T22:26:10Z</time>
      </trkpt>
      <trkpt lat="45.92813" lon="4.38626">
        <ele>713</ele>
        <time>2021-10-14T22:26:15Z</time>
      </trkpt>
      <trkpt lat="45.92814" lon="4.38586">
        <ele>713</ele>
        <time>2021-10-14T22:26:20Z</time>
      </trkpt>
      <trkpt lat="45.92824" lon="4.38544">
        <ele>715</ele>
        <time>2021-10-14T22:26:26Z</time>
      </trkpt>
      <trkpt lat="45.9285" lon="4.38447">
        <ele>720</ele>
        <time>2021-10-14T22:26:39Z</time>
      </trkpt>
      <trkpt lat="45.92847" lon="4.38422">
        <ele>719</ele>
        <time>2021-10-14T22:26:42Z</time>
      </trkpt>
      <trkpt lat="45.92843" lon="4.38399">
        <ele>720</ele>
        <time>2021-10-14T22:26:45Z</time>
      </trkpt>
      <trkpt lat="45.9277" lon="4.38348">
        <ele>717</ele>
        <time>2021-10-14T22:26:59Z</time>
      </trkpt>
      <trkpt lat="45.92752" lon="4.3831">
        <ele>718</ele>
        <time>2021-10-14T22:27:05Z</time>
      </trkpt>
      <trkpt lat="45.92696" lon="4.38125">
        <ele>719</ele>
        <time>2021-10-14T22:27:30Z</time>
      </trkpt>
      <trkpt lat="45.92692" lon="4.38078">
        <ele>720</ele>
        <time>2021-10-14T22:27:36Z</time>
      </trkpt>
      <trkpt lat="45.92695" lon="4.3786">
        <ele>723</ele>
        <time>2021-10-14T22:28:03Z</time>
      </trkpt>
      <trkpt lat="45.92697" lon="4.37842">
        <ele>723</ele>
        <time>2021-10-14T22:28:05Z</time>
      </trkpt>
      <trkpt lat="45.92691" lon="4.37842">
        <ele>723</ele>
        <time>2021-10-14T22:28:06Z</time>
      </trkpt>
      <trkpt lat="45.92684" lon="4.37831">
        <ele>722</ele>
        <time>2021-10-14T22:28:08Z</time>
      </trkpt>
      <trkpt lat="45.92661" lon="4.37765">
        <ele>720</ele>
        <time>2021-10-14T22:28:17Z</time>
      </trkpt>
      <trkpt lat="45.92648" lon="4.37745">
        <ele>721</ele>
        <time>2021-10-14T22:28:21Z</time>
      </trkpt>
      <trkpt lat="45.9263" lon="4.3773">
        <ele>722</ele>
        <time>2021-10-14T22:28:24Z</time>
      </trkpt>
      <trkpt lat="45.92613" lon="4.37723">
        <ele>723</ele>
        <time>2021-10-14T22:28:27Z</time>
      </trkpt>
      <trkpt lat="45.92598" lon="4.37723">
        <ele>724</ele>
        <time>2021-10-14T22:28:30Z</time>
      </trkpt>
      <trkpt lat="45.92613" lon="4.37723">
        <ele>723</ele>
        <time>2021-10-14T22:28:33Z</time>
      </trkpt>
      <trkpt lat="45.9263" lon="4.3773">
        <ele>722</ele>
        <time>2021-10-14T22:28:36Z</time>
      </trkpt>
      <trkpt lat="45.92648" lon="4.37745">
        <ele>721</ele>
        <time>2021-10-14T22:28:40Z</time>
      </trkpt>
      <trkpt lat="45.92661" lon="4.37765">
        <ele>720</ele>
        <time>2021-10-14T22:28:43Z</time>
      </trkpt>
      <trkpt lat="45.92684" lon="4.37831">
        <ele>722</ele>
        <time>2021-10-14T22:28:52Z</time>
      </trkpt>
      <trkpt lat="45.92691" lon="4.37842">
        <ele>723</ele>
        <time>2021-10-14T22:28:54Z</time>
      </trkpt>
      <trkpt lat="45.92697" lon="4.37842">
        <ele>723</ele>
        <time>2021-10-14T22:28:55Z</time>
      </trkpt>
      <trkpt lat="45.92695" lon="4.3786">
        <ele>723</ele>
        <time>2021-10-14T22:28:57Z</time>
      </trkpt>
      <trkpt lat="45.92692" lon="4.38078">
        <ele>720</ele>
        <time>2021-10-14T22:29:24Z</time>
      </trkpt>
      <trkpt lat="45.92696" lon="4.38125">
        <ele>719</ele>
        <time>2021-10-14T22:29:30Z</time>
      </trkpt>
      <trkpt lat="45.92752" lon="4.3831">
        <ele>718</ele>
        <time>2021-10-14T22:29:55Z</time>
      </trkpt>
      <trkpt lat="45.9277" lon="4.38348">
        <ele>717</ele>
        <time>2021-10-14T22:30:01Z</time>
      </trkpt>
      <trkpt lat="45.92843" lon="4.38399">
        <ele>720</ele>
        <time>2021-10-14T22:30:15Z</time>
      </trkpt>
      <trkpt lat="45.92847" lon="4.38422">
        <ele>719</ele>
        <time>2021-10-14T22:30:18Z</time>
      </trkpt>
      <trkpt lat="45.9285" lon="4.38447">
        <ele>720</ele>
        <time>2021-10-14T22:30:21Z</time>
      </trkpt>
      <trkpt lat="45.92824" lon="4.38544">
        <ele>715</ele>
        <time>2021-10-14T22:30:34Z</time>
      </trkpt>
      <trkpt lat="45.92814" lon="4.38586">
        <ele>713</ele>
        <time>2021-10-14T22:30:40Z</time>
      </trkpt>
      <trkpt lat="45.92813" lon="4.38626">
        <ele>713</ele>
        <time>2021-10-14T22:30:45Z</time>
      </trkpt>
      <trkpt lat="45.92821" lon="4.38666">
        <ele>714</ele>
        <time>2021-10-14T22:30:50Z</time>
      </trkpt>
      <trkpt lat="45.92848" lon="4.38716">
        <ele>712</ele>
        <time>2021-10-14T22:30:58Z</time>
      </trkpt>
      <trkpt lat="45.9286" lon="4.38747">
        <ele>709</ele>
        <time>2021-10-14T22:31:02Z</time>
      </trkpt>
      <trkpt lat="45.92862" lon="4.38781">
        <ele>711</ele>
        <time>2021-10-14T22:31:06Z</time>
      </trkpt>
      <trkpt lat="45.92851" lon="4.38814">
        <ele>712</ele>
        <time>2021-10-14T22:31:11Z</time>
      </trkpt>
      <trkpt lat="45.92842" lon="4.38832">
        <ele>713</ele>
        <time>2021-10-14T22:31:13Z</time>
      </trkpt>
      <trkpt lat="45.92814" lon="4.38876">
        <ele>713</ele>
        <time>2021-10-14T22:31:21Z</time>
      </trkpt>
      <trkpt lat="45.92805" lon="4.38898">
        <ele>714</ele>
        <time>2021-10-14T22:31:24Z</time>
      </trkpt>
      <trkpt lat="45.928" lon="4.38937">
        <ele>715</ele>
        <time>2021-10-14T22:31:29Z</time>
      </trkpt>
      <trkpt lat="45.92824" lon="4.39064">
        <ele>710</ele>
        <time>2021-10-14T22:31:45Z</time>
      </trkpt>
      <trkpt lat="45.92839" lon="4.3913">
        <ele>707</ele>
        <time>2021-10-14T22:31:54Z</time>
      </trkpt>
      <trkpt lat="45.92864" lon="4.39159">
        <ele>705</ele>
        <time>2021-10-14T22:31:59Z</time>
      </trkpt>
      <trkpt lat="45.9288" lon="4.39166">
        <ele>703</ele>
        <time>2021-10-14T22:32:02Z</time>
      </trkpt>
      <trkpt lat="45.92905" lon="4.39166">
        <ele>703</ele>
        <time>2021-10-14T22:32:07Z</time>
      </trkpt>
      <trkpt lat="45.92952" lon="4.39136">
        <ele>711</ele>
        <time>2021-10-14T22:32:16Z</time>
      </trkpt>
      <trkpt lat="45.92967" lon="4.39135">
        <ele>712</ele>
        <time>2021-10-14T22:32:19Z</time>
      </trkpt>
      <trkpt lat="45.92982" lon="4.39145">
        <ele>710</ele>
        <time>2021-10-14T22:32:22Z</time>
      </trkpt>
      <trkpt lat="45.92992" lon="4.3916">
        <ele>707</ele>
        <time>2021-10-14T22:32:24Z</time>
      </trkpt>
      <trkpt lat="45.93002" lon="4.39217">
        <ele>697</ele>
        <time>2021-10-14T22:32:32Z</time>
      </trkpt>
      <trkpt lat="45.93012" lon="4.39242">
        <ele>694</ele>
        <time>2021-10-14T22:32:35Z</time>
      </trkpt>
      <trkpt lat="45.93025" lon="4.39247">
        <ele>694</ele>
        <time>2021-10-14T22:32:37Z</time>
      </trkpt>
      <trkpt lat="45.93077" lon="4.39254">
        <ele>697</ele>
        <time>2021-10-14T22:32:47Z</time>
      </trkpt>
      <trkpt lat="45.93093" lon="4.39261">
        <ele>698</ele>
        <time>2021-10-14T22:32:50Z</time>
      </trkpt>
      <trkpt lat="45.93101" lon="4.39276">
        <ele>698</ele>
        <time>2021-10-14T22:32:52Z</time>
      </trkpt>
      <trkpt lat="45.93103" lon="4.39304">
        <ele>693</ele>
        <time>2021-10-14T22:32:56Z</time>
      </trkpt>
      <trkpt lat="45.93091" lon="4.39353">
        <ele>685</ele>
        <time>2021-10-14T22:33:02Z</time>
      </trkpt>
      <trkpt lat="45.93074" lon="4.39401">
        <ele>682</ele>
        <time>2021-10-14T22:33:09Z</time>
      </trkpt>
      <trkpt lat="45.92922" lon="4.39648">
        <ele>665</ele>
        <time>2021-10-14T22:33:49Z</time>
      </trkpt>
      <trkpt lat="45.92896" lon="4.39726">
        <ele>659</ele>
        <time>2021-10-14T22:34:00Z</time>
      </trkpt>
      <trkpt lat="45.92903" lon="4.39796">
        <ele>659</ele>
        <time>2021-10-14T22:34:09Z</time>
      </trkpt>
      <trkpt lat="45.929" lon="4.39825">
        <ele>657</ele>
        <time>2021-10-14T22:34:13Z</time>
      </trkpt>
      <trkpt lat="45.92891" lon="4.39846">
        <ele>656</ele>
        <time>2021-10-14T22:34:16Z</time>
      </trkpt>
      <trkpt lat="45.92868" lon="4.39866">
        <ele>653</ele>
        <time>2021-10-14T22:34:20Z</time>
      </trkpt>
      <trkpt lat="45.92775" lon="4.39917">
        <ele>642</ele>
        <time>2021-10-14T22:34:38Z</time>
      </trkpt>
      <trkpt lat="45.92694" lon="4.3998">
        <ele>635</ele>
        <time>2021-10-14T22:34:55Z</time>
      </trkpt>
      <trkpt lat="45.92583" lon="4.40117">
        <ele>630</ele>
        <time>2021-10-14T22:35:21Z</time>
      </trkpt>
      <trkpt lat="45.92478" lon="4.40331">
        <ele>617</ele>
        <time>2021-10-14T22:35:53Z</time>
      </trkpt>
      <trkpt lat="45.92402" lon="4.40435">
        <ele>603</ele>
        <time>2021-10-14T22:36:12Z</time>
      </trkpt>
      <trkpt lat="45.92373" lon="4.40517">
        <ele>602</ele>
        <time>2021-10-14T22:36:23Z</time>
      </trkpt>
      <trkpt lat="45.92354" lon="4.4056">
        <ele>604</ele>
        <time>2021-10-14T22:36:29Z</time>
      </trkpt>
      <trkpt lat="45.92106" lon="4.40676">
        <ele>580</ele>
        <time>2021-10-14T22:37:16Z</time>
      </trkpt>
      <trkpt lat="45.92063" lon="4.40719">
        <ele>575</ele>
        <time>2021-10-14T22:37:25Z</time>
      </trkpt>
      <trkpt lat="45.92041" lon="4.40751">
        <ele>571</ele>
        <time>2021-10-14T22:37:31Z</time>
      </trkpt>
      <trkpt lat="45.92024" lon="4.40785">
        <ele>568</ele>
        <time>2021-10-14T22:37:36Z</time>
      </trkpt>
      <trkpt lat="45.92005" lon="4.40902">
        <ele>563</ele>
        <time>2021-10-14T22:37:51Z</time>
      </trkpt>
      <trkpt lat="45.92009" lon="4.40944">
        <ele>561</ele>
        <time>2021-10-14T22:37:56Z</time>
      </trkpt>
      <trkpt lat="45.92017" lon="4.40984">
        <ele>558</ele>
        <time>2021-10-14T22:38:01Z</time>
      </trkpt>
      <trkpt lat="45.92044" lon="4.41008">
        <ele>557</ele>
        <time>2021-10-14T22:38:07Z</time>
      </trkpt>
      <trkpt lat="45.92118" lon="4.41014">
        <ele>561</ele>
        <time>2021-10-14T22:38:20Z</time>
      </trkpt>
      <trkpt lat="45.92197" lon="4.41063">
        <ele>553</ele>
        <time>2021-10-14T22:38:35Z</time>
      </trkpt>
      <trkpt lat="45.9221" lon="4.4108">
        <ele>551</ele>
        <time>2021-10-14T22:38:38Z</time>
      </trkpt>
      <trkpt lat="45.92215" lon="4.41102">
        <ele>550</ele>
        <time>2021-10-14T22:38:41Z</time>
      </trkpt>
      <trkpt lat="45.92211" lon="4.4113">
        <ele>548</ele>
        <time>2021-10-14T22:38:45Z</time>
      </trkpt>
      <trkpt lat="45.92201" lon="4.41146">
        <ele>545</ele>
        <time>2021-10-14T22:38:47Z</time>
      </trkpt>
      <trkpt lat="45.92115" lon="4.41198">
        <ele>532</ele>
        <time>2021-10-14T22:39:04Z</time>
      </trkpt>
      <trkpt lat="45.92008" lon="4.41285">
        <ele>524</ele>
        <time>2021-10-14T22:39:26Z</time>
      </trkpt>
      <trkpt lat="45.91953" lon="4.41341">
        <ele>520</ele>
        <time>2021-10-14T22:39:38Z</time>
      </trkpt>
      <trkpt lat="45.91846" lon="4.41506">
        <ele>508</ele>
        <time>2021-10-14T22:40:06Z</time>
      </trkpt>
      <trkpt lat="45.9174" lon="4.41644">
        <ele>497</ele>
        <time>2021-10-14T22:40:31Z</time>
      </trkpt>
      <trkpt lat="45.91551" lon="4.41905">
        <ele>483</ele>
        <time>2021-10-14T22:41:18Z</time>
      </trkpt>
      <trkpt lat="45.91488" lon="4.41977">
        <ele>475</ele>
        <time>2021-10-14T22:41:32Z</time>
      </trkpt>
      <trkpt lat="45.91458" lon="4.42016">
        <ele>472</ele>
        <time>2021-10-14T22:41:39Z</time>
      </trkpt>
      <trkpt lat="45.91434" lon="4.42052">
        <ele>470</ele>
        <time>2021-10-14T22:41:46Z</time>
      </trkpt>
      <trkpt lat="45.91394" lon="4.42122">
        <ele>465</ele>
        <time>2021-10-14T22:41:57Z</time>
      </trkpt>
      <trkpt lat="45.91372" lon="4.42162">
        <ele>462</ele>
        <time>2021-10-14T22:42:03Z</time>
      </trkpt>
      <trkpt lat="45.91367" lon="4.42179">
        <ele>461</ele>
        <time>2021-10-14T22:42:05Z</time>
      </trkpt>
      <trkpt lat="45.91344" lon="4.42277">
        <ele>456</ele>
        <time>2021-10-14T22:42:18Z</time>
      </trkpt>
      <trkpt lat="45.91339" lon="4.42312">
        <ele>454</ele>
        <time>2021-10-14T22:42:23Z</time>
      </trkpt>
      <trkpt lat="45.91338" lon="4.42331">
        <ele>454</ele>
        <time>2021-10-14T22:42:25Z</time>
      </trkpt>
      <trkpt lat="45.9134" lon="4.42353">
        <ele>452</ele>
        <time>2021-10-14T22:42:28Z</time>
      </trkpt>
      <trkpt lat="45.91344" lon="4.42373">
        <ele>450</ele>
        <time>2021-10-14T22:42:30Z</time>
      </trkpt>
      <trkpt lat="45.9135" lon="4.42387">
        <ele>449</ele>
        <time>2021-10-14T22:42:32Z</time>
      </trkpt>
      <trkpt lat="45.91359" lon="4.42398">
        <ele>449</ele>
        <time>2021-10-14T22:42:34Z</time>
      </trkpt>
      <trkpt lat="45.91485" lon="4.42462">
        <ele>448</ele>
        <time>2021-10-14T22:42:58Z</time>
      </trkpt>
      <trkpt lat="45.91498" lon="4.42466">
        <ele>447</ele>
        <time>2021-10-14T22:43:01Z</time>
      </trkpt>
      <trkpt lat="45.91508" lon="4.42477">
        <ele>446</ele>
        <time>2021-10-14T22:43:03Z</time>
      </trkpt>
      <trkpt lat="45.91514" lon="4.42491">
        <ele>444</ele>
        <time>2021-10-14T22:43:05Z</time>
      </trkpt>
      <trkpt lat="45.91516" lon="4.4251">
        <ele>444</ele>
        <time>2021-10-14T22:43:07Z</time>
      </trkpt>
      <trkpt lat="45.91504" lon="4.42534">
        <ele>446</ele>
        <time>2021-10-14T22:43:11Z</time>
      </trkpt>
      <trkpt lat="45.91411" lon="4.42554">
        <ele>446</ele>
        <time>2021-10-14T22:43:28Z</time>
      </trkpt>
      <trkpt lat="45.91301" lon="4.42588">
        <ele>437</ele>
        <time>2021-10-14T22:43:48Z</time>
      </trkpt>
      <trkpt lat="45.91248" lon="4.42619">
        <ele>437</ele>
        <time>2021-10-14T22:43:58Z</time>
      </trkpt>
      <trkpt lat="45.91142" lon="4.42708">
        <ele>438</ele>
        <time>2021-10-14T22:44:20Z</time>
      </trkpt>
      <trkpt lat="45.91097" lon="4.42738">
        <ele>437</ele>
        <time>2021-10-14T22:44:28Z</time>
      </trkpt>
      <trkpt lat="45.91056" lon="4.42747">
        <ele>434</ele>
        <time>2021-10-14T22:44:36Z</time>
      </trkpt>
      <trkpt lat="45.90966" lon="4.4276">
        <ele>428</ele>
        <time>2021-10-14T22:44:52Z</time>
      </trkpt>
      <trkpt lat="45.90931" lon="4.42775">
        <ele>425</ele>
        <time>2021-10-14T22:44:58Z</time>
      </trkpt>
      <trkpt lat="45.90895" lon="4.42801">
        <ele>424</ele>
        <time>2021-10-14T22:45:06Z</time>
      </trkpt>
      <trkpt lat="45.90832" lon="4.42875">
        <ele>420</ele>
        <time>2021-10-14T22:45:20Z</time>
      </trkpt>
      <trkpt lat="45.90787" lon="4.42913">
        <ele>419</ele>
        <time>2021-10-14T22:45:29Z</time>
      </trkpt>
      <trkpt lat="45.90748" lon="4.42957">
        <ele>419</ele>
        <time>2021-10-14T22:45:38Z</time>
      </trkpt>
      <trkpt lat="45.90715" lon="4.42989">
        <ele>418</ele>
        <time>2021-10-14T22:45:45Z</time>
      </trkpt>
      <trkpt lat="45.90674" lon="4.43019">
        <ele>418</ele>
        <time>2021-10-14T22:45:53Z</time>
      </trkpt>
      <trkpt lat="45.90606" lon="4.43061">
        <ele>417</ele>
        <time>2021-10-14T22:46:07Z</time>
      </trkpt>
      <trkpt lat="45.90568" lon="4.43076">
        <ele>414</ele>
        <time>2021-10-14T22:46:14Z</time>
      </trkpt>
      <trkpt lat="45.90515" lon="4.43081">
        <ele>410</ele>
        <time>2021-10-14T22:46:23Z</time>
      </trkpt>
      <trkpt lat="45.90492" lon="4.43064">
        <ele>409</ele>
        <time>2021-10-14T22:46:28Z</time>
      </trkpt>
      <trkpt lat="45.90493" lon="4.43052">
        <ele>409</ele>
        <time>2021-10-14T22:46:29Z</time>
      </trkpt>
      <trkpt lat="45.90489" lon="4.43044">
        <ele>409</ele>
        <time>2021-10-14T22:46:30Z</time>
      </trkpt>
      <trkpt lat="45.90484" lon="4.43041">
        <ele>409</ele>
        <time>2021-10-14T22:46:31Z</time>
      </trkpt>
      <trkpt lat="45.90477" lon="4.43043">
        <ele>409</ele>
        <time>2021-10-14T22:46:33Z</time>
      </trkpt>
      <trkpt lat="45.9046" lon="4.43011">
        <ele>408</ele>
        <time>2021-10-14T22:46:38Z</time>
      </trkpt>
      <trkpt lat="45.90443" lon="4.42988">
        <ele>410</ele>
        <time>2021-10-14T22:46:42Z</time>
      </trkpt>
      <trkpt lat="45.90419" lon="4.42974">
        <ele>411</ele>
        <time>2021-10-14T22:46:46Z</time>
      </trkpt>
      <trkpt lat="45.90402" lon="4.42973">
        <ele>412</ele>
        <time>2021-10-14T22:46:49Z</time>
      </trkpt>
      <trkpt lat="45.90379" lon="4.42979">
        <ele>412</ele>
        <time>2021-10-14T22:46:54Z</time>
      </trkpt>
      <trkpt lat="45.90338" lon="4.43008">
        <ele>409</ele>
        <time>2021-10-14T22:47:02Z</time>
      </trkpt>
      <trkpt lat="45.90204" lon="4.43095">
        <ele>403</ele>
        <time>2021-10-14T22:47:28Z</time>
      </trkpt>
      <trkpt lat="45.90167" lon="4.43101">
        <ele>402</ele>
        <time>2021-10-14T22:47:34Z</time>
      </trkpt>
      <trkpt lat="45.90141" lon="4.43094">
        <ele>402</ele>
        <time>2021-10-14T22:47:39Z</time>
      </trkpt>
      <trkpt lat="45.90093" lon="4.43073">
        <ele>405</ele>
        <time>2021-10-14T22:47:48Z</time>
      </trkpt>
      <trkpt lat="45.90055" lon="4.43076">
        <ele>403</ele>
        <time>2021-10-14T22:47:55Z</time>
      </trkpt>
      <trkpt lat="45.90032" lon="4.43084">
        <ele>401</ele>
        <time>2021-10-14T22:47:59Z</time>
      </trkpt>
      <trkpt lat="45.89871" lon="4.43197">
        <ele>394</ele>
        <time>2021-10-14T22:48:31Z</time>
      </trkpt>
      <trkpt lat="45.89867" lon="4.4319">
        <ele>393</ele>
        <time>2021-10-14T22:48:32Z</time>
      </trkpt>
      <trkpt lat="45.89864" lon="4.43188">
        <ele>393</ele>
        <time>2021-10-14T22:48:33Z</time>
      </trkpt>
      <trkpt lat="45.89858" lon="4.43188">
        <ele>393</ele>
        <time>2021-10-14T22:48:34Z</time>
      </trkpt>
      <trkpt lat="45.89855" lon="4.4319">
        <ele>393</ele>
        <time>2021-10-14T22:48:34Z</time>
      </trkpt>
      <trkpt lat="45.89851" lon="4.43197">
        <ele>393</ele>
        <time>2021-10-14T22:48:35Z</time>
      </trkpt>
      <trkpt lat="45.89851" lon="4.43205">
        <ele>393</ele>
        <time>2021-10-14T22:48:36Z</time>
      </trkpt>
      <trkpt lat="45.8984" lon="4.43211">
        <ele>392</ele>
        <time>2021-10-14T22:48:39Z</time>
      </trkpt>
      <trkpt lat="45.89827" lon="4.43208">
        <ele>392</ele>
        <time>2021-10-14T22:48:41Z</time>
      </trkpt>
      <trkpt lat="45.89812" lon="4.43194">
        <ele>393</ele>
        <time>2021-10-14T22:48:44Z</time>
      </trkpt>
      <trkpt lat="45.89805" lon="4.4319">
        <ele>394</ele>
        <time>2021-10-14T22:48:45Z</time>
      </trkpt>
      <trkpt lat="45.89792" lon="4.43193">
        <ele>394</ele>
        <time>2021-10-14T22:48:48Z</time>
      </trkpt>
      <trkpt lat="45.89776" lon="4.43203">
        <ele>394</ele>
        <time>2021-10-14T22:48:51Z</time>
      </trkpt>
      <trkpt lat="45.89729" lon="4.43243">
        <ele>393</ele>
        <time>2021-10-14T22:49:01Z</time>
      </trkpt>
      <trkpt lat="45.89688" lon="4.43271">
        <ele>393</ele>
        <time>2021-10-14T22:49:09Z</time>
      </trkpt>
      <trkpt lat="45.8967" lon="4.43275">
        <ele>394</ele>
        <time>2021-10-14T22:49:12Z</time>
      </trkpt>
      <trkpt lat="45.89576" lon="4.43267">
        <ele>390</ele>
        <time>2021-10-14T22:49:29Z</time>
      </trkpt>
      <trkpt lat="45.89516" lon="4.43249">
        <ele>390</ele>
        <time>2021-10-14T22:49:40Z</time>
      </trkpt>
      <trkpt lat="45.89484" lon="4.43343">
        <ele>390</ele>
        <time>2021-10-14T22:49:53Z</time>
      </trkpt>
      <trkpt lat="45.89473" lon="4.43374">
        <ele>390</ele>
        <time>2021-10-14T22:49:57Z</time>
      </trkpt>
      <trkpt lat="45.89413" lon="4.43512">
        <ele>386</ele>
        <time>2021-10-14T22:50:17Z</time>
      </trkpt>
      <trkpt lat="45.8939" lon="4.43582">
        <ele>387</ele>
        <time>2021-10-14T22:50:27Z</time>
      </trkpt>
      <trkpt lat="45.89355" lon="4.43726">
        <ele>384</ele>
        <time>2021-10-14T22:50:45Z</time>
      </trkpt>
      <trkpt lat="45.89242" lon="4.44044">
        <ele>381</ele>
        <time>2021-10-14T22:51:30Z</time>
      </trkpt>
      <trkpt lat="45.89248" lon="4.44109">
        <ele>381</ele>
        <time>2021-10-14T22:51:38Z</time>
      </trkpt>
      <trkpt lat="45.89248" lon="4.44123">
        <ele>382</ele>
        <time>2021-10-14T22:51:40Z</time>
      </trkpt>
      <trkpt lat="45.89244" lon="4.44137">
        <ele>382</ele>
        <time>2021-10-14T22:51:41Z</time>
      </trkpt>
      <trkpt lat="45.89235" lon="4.44162">
        <ele>383</ele>
        <time>2021-10-14T22:51:45Z</time>
      </trkpt>
      <trkpt lat="45.8909" lon="4.44322">
        <ele>380</ele>
        <time>2021-10-14T22:52:17Z</time>
      </trkpt>
      <trkpt lat="45.89079" lon="4.44342">
        <ele>379</ele>
        <time>2021-10-14T22:52:21Z</time>
      </trkpt>
      <trkpt lat="45.89068" lon="4.44385">
        <ele>382</ele>
        <time>2021-10-14T22:52:26Z</time>
      </trkpt>
      <trkpt lat="45.89052" lon="4.44734">
        <ele>386</ele>
        <time>2021-10-14T22:53:10Z</time>
      </trkpt>
      <trkpt lat="45.8905" lon="4.44894">
        <ele>383</ele>
        <time>2021-10-14T22:53:29Z</time>
      </trkpt>
      <trkpt lat="45.89027" lon="4.4525">
        <ele>377</ele>
        <time>2021-10-14T22:54:14Z</time>
      </trkpt>
      <trkpt lat="45.8901" lon="4.45347">
        <ele>376</ele>
        <time>2021-10-14T22:54:26Z</time>
      </trkpt>
      <trkpt lat="45.88993" lon="4.45416">
        <ele>375</ele>
        <time>2021-10-14T22:54:35Z</time>
      </trkpt>
      <trkpt lat="45.88962" lon="4.4551">
        <ele>373</ele>
        <time>2021-10-14T22:54:48Z</time>
      </trkpt>
      <trkpt lat="45.88904" lon="4.45661">
        <ele>370</ele>
        <time>2021-10-14T22:55:09Z</time>
      </trkpt>
      <trkpt lat="45.88883" lon="4.4572">
        <ele>372</ele>
        <time>2021-10-14T22:55:18Z</time>
      </trkpt>
      <trkpt lat="45.88787" lon="4.46053">
        <ele>371</ele>
        <time>2021-10-14T22:56:02Z</time>
      </trkpt>
      <trkpt lat="45.88744" lon="4.46171">
        <ele>368</ele>
        <time>2021-10-14T22:56:19Z</time>
      </trkpt>
      <trkpt lat="45.88693" lon="4.46299">
        <ele>366</ele>
        <time>2021-10-14T22:56:37Z</time>
      </trkpt>
      <trkpt lat="45.8867" lon="4.46333">
        <ele>361</ele>
        <time>2021-10-14T22:56:43Z</time>
      </trkpt>
      <trkpt lat="45.88657" lon="4.46341">
        <ele>360</ele>
        <time>2021-10-14T22:56:45Z</time>
      </trkpt>
      <trkpt lat="45.88646" lon="4.46341">
        <ele>360</ele>
        <time>2021-10-14T22:56:47Z</time>
      </trkpt>
      <trkpt lat="45.88632" lon="4.46331">
        <ele>360</ele>
        <time>2021-10-14T22:56:50Z</time>
      </trkpt>
      <trkpt lat="45.88633" lon="4.46356">
        <ele>360</ele>
        <time>2021-10-14T22:56:53Z</time>
      </trkpt>
      <trkpt lat="45.88638" lon="4.46405">
        <ele>360</ele>
        <time>2021-10-14T22:56:59Z</time>
      </trkpt>
      <trkpt lat="45.88632" lon="4.46444">
        <ele>361</ele>
        <time>2021-10-14T22:57:04Z</time>
      </trkpt>
      <trkpt lat="45.88577" lon="4.46584">
        <ele>360</ele>
        <time>2021-10-14T22:57:24Z</time>
      </trkpt>
      <trkpt lat="45.88509" lon="4.4679">
        <ele>362</ele>
        <time>2021-10-14T22:57:52Z</time>
      </trkpt>
      <trkpt lat="45.88455" lon="4.46929">
        <ele>361</ele>
        <time>2021-10-14T22:58:12Z</time>
      </trkpt>
      <trkpt lat="45.88422" lon="4.46987">
        <ele>359</ele>
        <time>2021-10-14T22:58:21Z</time>
      </trkpt>
      <trkpt lat="45.88378" lon="4.47044">
        <ele>360</ele>
        <time>2021-10-14T22:58:32Z</time>
      </trkpt>
      <trkpt lat="45.88339" lon="4.47084">
        <ele>359</ele>
        <time>2021-10-14T22:58:40Z</time>
      </trkpt>
      <trkpt lat="45.88259" lon="4.47152">
        <ele>354</ele>
        <time>2021-10-14T22:58:57Z</time>
      </trkpt>
      <trkpt lat="45.88204" lon="4.47197">
        <ele>355</ele>
        <time>2021-10-14T22:59:08Z</time>
      </trkpt>
      <trkpt lat="45.88172" lon="4.47225">
        <ele>355</ele>
        <time>2021-10-14T22:59:15Z</time>
      </trkpt>
      <trkpt lat="45.8808" lon="4.47318">
        <ele>354</ele>
        <time>2021-10-14T22:59:35Z</time>
      </trkpt>
      <trkpt lat="45.87968" lon="4.47441">
        <ele>352</ele>
        <time>2021-10-14T23:00:00Z</time>
      </trkpt>
      <trkpt lat="45.87951" lon="4.47456">
        <ele>352</ele>
        <time>2021-10-14T23:00:04Z</time>
      </trkpt>
      <trkpt lat="45.87937" lon="4.47459">
        <ele>352</ele>
        <time>2021-10-14T23:00:06Z</time>
      </trkpt>
      <trkpt lat="45.87928" lon="4.47455">
        <ele>352</ele>
        <time>2021-10-14T23:00:08Z</time>
      </trkpt>
      <trkpt lat="45.87919" lon="4.47456">
        <ele>352</ele>
        <time>2021-10-14T23:00:09Z</time>
      </trkpt>
      <trkpt lat="45.87911" lon="4.47462">
        <ele>353</ele>
        <time>2021-10-14T23:00:11Z</time>
      </trkpt>
      <trkpt lat="45.87904" lon="4.47473">
        <ele>353</ele>
        <time>2021-10-14T23:00:13Z</time>
      </trkpt>
      <trkpt lat="45.87902" lon="4.47488">
        <ele>353</ele>
        <time>2021-10-14T23:00:15Z</time>
      </trkpt>
      <trkpt lat="45.87906" lon="4.47508">
        <ele>351</ele>
        <time>2021-10-14T23:00:17Z</time>
      </trkpt>
      <trkpt lat="45.87912" lon="4.47516">
        <ele>351</ele>
        <time>2021-10-14T23:00:19Z</time>
      </trkpt>
      <trkpt lat="45.87919" lon="4.47521">
        <ele>350</ele>
        <time>2021-10-14T23:00:20Z</time>
      </trkpt>
      <trkpt lat="45.87918" lon="4.4755">
        <ele>351</ele>
        <time>2021-10-14T23:00:24Z</time>
      </trkpt>
      <trkpt lat="45.87914" lon="4.47559">
        <ele>351</ele>
        <time>2021-10-14T23:00:25Z</time>
      </trkpt>
      <trkpt lat="45.87901" lon="4.47579">
        <ele>350</ele>
        <time>2021-10-14T23:00:28Z</time>
      </trkpt>
      <trkpt lat="45.87876" lon="4.47628">
        <ele>349</ele>
        <time>2021-10-14T23:00:36Z</time>
      </trkpt>
      <trkpt lat="45.87809" lon="4.47791">
        <ele>348</ele>
        <time>2021-10-14T23:00:59Z</time>
      </trkpt>
      <trkpt lat="45.8779" lon="4.47825">
        <ele>347</ele>
        <time>2021-10-14T23:01:05Z</time>
      </trkpt>
      <trkpt lat="45.87764" lon="4.47862">
        <ele>347</ele>
        <time>2021-10-14T23:01:11Z</time>
      </trkpt>
      <trkpt lat="45.87736" lon="4.47891">
        <ele>348</ele>
        <time>2021-10-14T23:01:18Z</time>
      </trkpt>
      <trkpt lat="45.87698" lon="4.47924">
        <ele>348</ele>
        <time>2021-10-14T23:01:25Z</time>
      </trkpt>
      <trkpt lat="45.87597" lon="4.47999">
        <ele>344</ele>
        <time>2021-10-14T23:01:46Z</time>
      </trkpt>
      <trkpt lat="45.87572" lon="4.48022">
        <ele>345</ele>
        <time>2021-10-14T23:01:51Z</time>
      </trkpt>
      <trkpt lat="45.87551" lon="4.48047">
        <ele>346</ele>
        <time>2021-10-14T23:01:56Z</time>
      </trkpt>
      <trkpt lat="45.8752" lon="4.48092">
        <ele>344</ele>
        <time>2021-10-14T23:02:04Z</time>
      </trkpt>
      <trkpt lat="45.87505" lon="4.48131">
        <ele>344</ele>
        <time>2021-10-14T23:02:09Z</time>
      </trkpt>
      <trkpt lat="45.87496" lon="4.48185">
        <ele>345</ele>
        <time>2021-10-14T23:02:16Z</time>
      </trkpt>
      <trkpt lat="45.87487" lon="4.48318">
        <ele>344</ele>
        <time>2021-10-14T23:02:33Z</time>
      </trkpt>
      <trkpt lat="45.87431" lon="4.48974">
        <ele>332</ele>
        <time>2021-10-14T23:03:54Z</time>
      </trkpt>
      <trkpt lat="45.8741" lon="4.48974">
        <ele>332</ele>
        <time>2021-10-14T23:03:58Z</time>
      </trkpt>
      <trkpt lat="45.8739" lon="4.48976">
        <ele>333</ele>
        <time>2021-10-14T23:04:02Z</time>
      </trkpt>
      <trkpt lat="45.87381" lon="4.48964">
        <ele>333</ele>
        <time>2021-10-14T23:04:04Z</time>
      </trkpt>
      <trkpt lat="45.8731" lon="4.48927">
        <ele>336</ele>
        <time>2021-10-14T23:04:17Z</time>
      </trkpt>
      <trkpt lat="45.87286" lon="4.48912">
        <ele>337</ele>
        <time>2021-10-14T23:04:22Z</time>
      </trkpt>
      <trkpt lat="45.8724" lon="4.48878">
        <ele>341</ele>
        <time>2021-10-14T23:04:31Z</time>
      </trkpt>
      <trkpt lat="45.87184" lon="4.4884">
        <ele>344</ele>
        <time>2021-10-14T23:04:42Z</time>
      </trkpt>
      <trkpt lat="45.87141" lon="4.48806">
        <ele>347</ele>
        <time>2021-10-14T23:04:51Z</time>
      </trkpt>
      <trkpt lat="45.87004" lon="4.48713">
        <ele>355</ele>
        <time>2021-10-14T23:05:18Z</time>
      </trkpt>
      <trkpt lat="45.86955" lon="4.48643">
        <ele>358</ele>
        <time>2021-10-14T23:05:30Z</time>
      </trkpt>
      <trkpt lat="45.86893" lon="4.48576">
        <ele>360</ele>
        <time>2021-10-14T23:05:44Z</time>
      </trkpt>
      <trkpt lat="45.8679" lon="4.48494">
        <ele>365</ele>
        <time>2021-10-14T23:06:05Z</time>
      </trkpt>
      <trkpt lat="45.86763" lon="4.48467">
        <ele>367</ele>
        <time>2021-10-14T23:06:11Z</time>
      </trkpt>
      <trkpt lat="45.86734" lon="4.48418">
        <ele>370</ele>
        <time>2021-10-14T23:06:19Z</time>
      </trkpt>
      <trkpt lat="45.86709" lon="4.48364">
        <ele>374</ele>
        <time>2021-10-14T23:06:27Z</time>
      </trkpt>
      <trkpt lat="45.86683" lon="4.48335">
        <ele>376</ele>
        <time>2021-10-14T23:06:33Z</time>
      </trkpt>
      <trkpt lat="45.86631" lon="4.48303">
        <ele>380</ele>
        <time>2021-10-14T23:06:43Z</time>
      </trkpt>
      <trkpt lat="45.8659" lon="4.48303">
        <ele>382</ele>
        <time>2021-10-14T23:06:50Z</time>
      </trkpt>
      <trkpt lat="45.86457" lon="4.48323">
        <ele>383</ele>
        <time>2021-10-14T23:07:14Z</time>
      </trkpt>
      <trkpt lat="45.86418" lon="4.48315">
        <ele>385</ele>
        <time>2021-10-14T23:07:21Z</time>
      </trkpt>
      <trkpt lat="45.86371" lon="4.48291">
        <ele>386</ele>
        <time>2021-10-14T23:07:30Z</time>
      </trkpt>
      <trkpt lat="45.8634" lon="4.4823">
        <ele>394</ele>
        <time>2021-10-14T23:07:39Z</time>
      </trkpt>
      <trkpt lat="45.86269" lon="4.48187">
        <ele>396</ele>
        <time>2021-10-14T23:07:53Z</time>
      </trkpt>
      <trkpt lat="45.86228" lon="4.48152">
        <ele>397</ele>
        <time>2021-10-14T23:08:01Z</time>
      </trkpt>
      <trkpt lat="45.86085" lon="4.47976">
        <ele>399</ele>
        <time>2021-10-14T23:08:35Z</time>
      </trkpt>
      <trkpt lat="45.86074" lon="4.47958">
        <ele>399</ele>
        <time>2021-10-14T23:08:38Z</time>
      </trkpt>
      <trkpt lat="45.86049" lon="4.47892">
        <ele>401</ele>
        <time>2021-10-14T23:08:47Z</time>
      </trkpt>
      <trkpt lat="45.86004" lon="4.47838">
        <ele>399</ele>
        <time>2021-10-14T23:08:58Z</time>
      </trkpt>
      <trkpt lat="45.85993" lon="4.47821">
        <ele>399</ele>
        <time>2021-10-14T23:09:00Z</time>
      </trkpt>
      <trkpt lat="45.85967" lon="4.47768">
        <ele>402</ele>
        <time>2021-10-14T23:09:08Z</time>
      </trkpt>
      <trkpt lat="45.85951" lon="4.47728">
        <ele>403</ele>
        <time>2021-10-14T23:09:14Z</time>
      </trkpt>
      <trkpt lat="45.85926" lon="4.47645">
        <ele>403</ele>
        <time>2021-10-14T23:09:25Z</time>
      </trkpt>
      <trkpt lat="45.85917" lon="4.47596">
        <ele>402</ele>
        <time>2021-10-14T23:09:32Z</time>
      </trkpt>
      <trkpt lat="45.85903" lon="4.47503">
        <ele>398</ele>
        <time>2021-10-14T23:09:43Z</time>
      </trkpt>
      <trkpt lat="45.85909" lon="4.47424">
        <ele>396</ele>
        <time>2021-10-14T23:09:53Z</time>
      </trkpt>
      <trkpt lat="45.85907" lon="4.47411">
        <ele>395</ele>
        <time>2021-10-14T23:09:55Z</time>
      </trkpt>
      <trkpt lat="45.85898" lon="4.47381">
        <ele>392</ele>
        <time>2021-10-14T23:09:59Z</time>
      </trkpt>
      <trkpt lat="45.85893" lon="4.47349">
        <ele>390</ele>
        <time>2021-10-14T23:10:03Z</time>
      </trkpt>
      <trkpt lat="45.85912" lon="4.47281">
        <ele>390</ele>
        <time>2021-10-14T23:10:12Z</time>
      </trkpt>
      <trkpt lat="45.85963" lon="4.47204">
        <ele>390</ele>
        <time>2021-10-14T23:10:25Z</time>
      </trkpt>
      <trkpt lat="45.85976" lon="4.47141">
        <ele>387</ele>
        <time>2021-10-14T23:10:33Z</time>
      </trkpt>
      <trkpt lat="45.8598" lon="4.4706">
        <ele>386</ele>
        <time>2021-10-14T23:10:43Z</time>
      </trkpt>
      <trkpt lat="45.8596" lon="4.46818">
        <ele>389</ele>
        <time>2021-10-14T23:11:14Z</time>
      </trkpt>
      <trkpt lat="45.85953" lon="4.46784">
        <ele>390</ele>
        <time>2021-10-14T23:11:18Z</time>
      </trkpt>
      <trkpt lat="45.85944" lon="4.46774">
        <ele>389</ele>
        <time>2021-10-14T23:11:20Z</time>
      </trkpt>
      <trkpt lat="45.85897" lon="4.46722">
        <ele>388</ele>
        <time>2021-10-14T23:11:31Z</time>
      </trkpt>
      <trkpt lat="45.85826" lon="4.4667">
        <ele>392</ele>
        <time>2021-10-14T23:11:45Z</time>
      </trkpt>
      <trkpt lat="45.85808" lon="4.46646">
        <ele>394</ele>
        <time>2021-10-14T23:11:49Z</time>
      </trkpt>
      <trkpt lat="45.85769" lon="4.46585">
        <ele>396</ele>
        <time>2021-10-14T23:11:59Z</time>
      </trkpt>
      <trkpt lat="45.85739" lon="4.46555">
        <ele>397</ele>
        <time>2021-10-14T23:12:06Z</time>
      </trkpt>
      <trkpt lat="45.85693" lon="4.46498">
        <ele>398</ele>
        <time>2021-10-14T23:12:17Z</time>
      </trkpt>
      <trkpt lat="45.85669" lon="4.46462">
        <ele>400</ele>
        <time>2021-10-14T23:12:23Z</time>
      </trkpt>
      <trkpt lat="45.85616" lon="4.46394">
        <ele>412</ele>
        <time>2021-10-14T23:12:36Z</time>
      </trkpt>
      <trkpt lat="45.85596" lon="4.46386">
        <ele>414</ele>
        <time>2021-10-14T23:12:39Z</time>
      </trkpt>
      <trkpt lat="45.85535" lon="4.46387">
        <ele>411</ele>
        <time>2021-10-14T23:12:50Z</time>
      </trkpt>
      <trkpt lat="45.8547" lon="4.46361">
        <ele>417</ele>
        <time>2021-10-14T23:13:02Z</time>
      </trkpt>
      <trkpt lat="45.8544" lon="4.46364">
        <ele>416</ele>
        <time>2021-10-14T23:13:08Z</time>
      </trkpt>
      <trkpt lat="45.85396" lon="4.46375">
        <ele>413</ele>
        <time>2021-10-14T23:13:15Z</time>
      </trkpt>
      <trkpt lat="45.85374" lon="4.46384">
        <ele>412</ele>
        <time>2021-10-14T23:13:20Z</time>
      </trkpt>
      <trkpt lat="45.85354" lon="4.46374">
        <ele>412</ele>
        <time>2021-10-14T23:13:23Z</time>
      </trkpt>
      <trkpt lat="45.85342" lon="4.46358">
        <ele>412</ele>
        <time>2021-10-14T23:13:26Z</time>
      </trkpt>
      <trkpt lat="45.85299" lon="4.46232">
        <ele>423</ele>
        <time>2021-10-14T23:13:44Z</time>
      </trkpt>
      <trkpt lat="45.85289" lon="4.46216">
        <ele>424</ele>
        <time>2021-10-14T23:13:46Z</time>
      </trkpt>
      <trkpt lat="45.8526" lon="4.46189">
        <ele>423</ele>
        <time>2021-10-14T23:13:52Z</time>
      </trkpt>
      <trkpt lat="45.85213" lon="4.46135">
        <ele>425</ele>
        <time>2021-10-14T23:14:03Z</time>
      </trkpt>
      <trkpt lat="45.85187" lon="4.46112">
        <ele>425</ele>
        <time>2021-10-14T23:14:09Z</time>
      </trkpt>
      <trkpt lat="45.85155" lon="4.46093">
        <ele>424</ele>
        <time>2021-10-14T23:14:15Z</time>
      </trkpt>
      <trkpt lat="45.85129" lon="4.46075">
        <ele>424</ele>
        <time>2021-10-14T23:14:20Z</time>
      </trkpt>
      <trkpt lat="45.8511" lon="4.46056">
        <ele>424</ele>
        <time>2021-10-14T23:14:24Z</time>
      </trkpt>
      <trkpt lat="45.85039" lon="4.45968">
        <ele>426</ele>
        <time>2021-10-14T23:14:41Z</time>
      </trkpt>
      <trkpt lat="45.85013" lon="4.45945">
        <ele>426</ele>
        <time>2021-10-14T23:14:46Z</time>
      </trkpt>
      <trkpt lat="45.84991" lon="4.45936">
        <ele>425</ele>
        <time>2021-10-14T23:14:50Z</time>
      </trkpt>
      <trkpt lat="45.84971" lon="4.45932">
        <ele>424</ele>
        <time>2021-10-14T23:14:54Z</time>
      </trkpt>
      <trkpt lat="45.84878" lon="4.45929">
        <ele>423</ele>
        <time>2021-10-14T23:15:10Z</time>
      </trkpt>
      <trkpt lat="45.84816" lon="4.45918">
        <ele>423</ele>
        <time>2021-10-14T23:15:21Z</time>
      </trkpt>
      <trkpt lat="45.84799" lon="4.45912">
        <ele>424</ele>
        <time>2021-10-14T23:15:25Z</time>
      </trkpt>
      <trkpt lat="45.84784" lon="4.45904">
        <ele>425</ele>
        <time>2021-10-14T23:15:27Z</time>
      </trkpt>
      <trkpt lat="45.84766" lon="4.45885">
        <ele>427</ele>
        <time>2021-10-14T23:15:31Z</time>
      </trkpt>
      <trkpt lat="45.84756" lon="4.45872">
        <ele>428</ele>
        <time>2021-10-14T23:15:34Z</time>
      </trkpt>
      <trkpt lat="45.84746" lon="4.45854">
        <ele>429</ele>
        <time>2021-10-14T23:15:37Z</time>
      </trkpt>
      <trkpt lat="45.84737" lon="4.45835">
        <ele>432</ele>
        <time>2021-10-14T23:15:39Z</time>
      </trkpt>
      <trkpt lat="45.84714" lon="4.45743">
        <ele>445</ele>
        <time>2021-10-14T23:15:52Z</time>
      </trkpt>
      <trkpt lat="45.84704" lon="4.45717">
        <ele>449</ele>
        <time>2021-10-14T23:15:55Z</time>
      </trkpt>
      <trkpt lat="45.84692" lon="4.45691">
        <ele>452</ele>
        <time>2021-10-14T23:15:59Z</time>
      </trkpt>
      <trkpt lat="45.84674" lon="4.45672">
        <ele>450</ele>
        <time>2021-10-14T23:16:03Z</time>
      </trkpt>
      <trkpt lat="45.84661" lon="4.45662">
        <ele>450</ele>
        <time>2021-10-14T23:16:06Z</time>
      </trkpt>
      <trkpt lat="45.84609" lon="4.4564">
        <ele>451</ele>
        <time>2021-10-14T23:16:15Z</time>
      </trkpt>
      <trkpt lat="45.84588" lon="4.45627">
        <ele>451</ele>
        <time>2021-10-14T23:16:19Z</time>
      </trkpt>
      <trkpt lat="45.84543" lon="4.45596">
        <ele>453</ele>
        <time>2021-10-14T23:16:28Z</time>
      </trkpt>
      <trkpt lat="45.84485" lon="4.45562">
        <ele>452</ele>
        <time>2021-10-14T23:16:39Z</time>
      </trkpt>
      <trkpt lat="45.84456" lon="4.45551">
        <ele>453</ele>
        <time>2021-10-14T23:16:45Z</time>
      </trkpt>
      <trkpt lat="45.84409" lon="4.45529">
        <ele>454</ele>
        <time>2021-10-14T23:16:54Z</time>
      </trkpt>
      <trkpt lat="45.84324" lon="4.45473">
        <ele>456</ele>
        <time>2021-10-14T23:17:10Z</time>
      </trkpt>
      <trkpt lat="45.84228" lon="4.45423">
        <ele>457</ele>
        <time>2021-10-14T23:17:28Z</time>
      </trkpt>
      <trkpt lat="45.84195" lon="4.45401">
        <ele>458</ele>
        <time>2021-10-14T23:17:35Z</time>
      </trkpt>
      <trkpt lat="45.84182" lon="4.45388">
        <ele>459</ele>
        <time>2021-10-14T23:17:38Z</time>
      </trkpt>
      <trkpt lat="45.84168" lon="4.4537">
        <ele>459</ele>
        <time>2021-10-14T23:17:41Z</time>
      </trkpt>
      <trkpt lat="45.84158" lon="4.45351">
        <ele>461</ele>
        <time>2021-10-14T23:17:44Z</time>
      </trkpt>
      <trkpt lat="45.84149" lon="4.45325">
        <ele>464</ele>
        <time>2021-10-14T23:17:48Z</time>
      </trkpt>
      <trkpt lat="45.84143" lon="4.45298">
        <ele>465</ele>
        <time>2021-10-14T23:17:51Z</time>
      </trkpt>
      <trkpt lat="45.84141" lon="4.45273">
        <ele>467</ele>
        <time>2021-10-14T23:17:54Z</time>
      </trkpt>
      <trkpt lat="45.84141" lon="4.45245">
        <ele>468</ele>
        <time>2021-10-14T23:17:58Z</time>
      </trkpt>
      <trkpt lat="45.84149" lon="4.45112">
        <ele>475</ele>
        <time>2021-10-14T23:18:14Z</time>
      </trkpt>
      <trkpt lat="45.84145" lon="4.45074">
        <ele>477</ele>
        <time>2021-10-14T23:18:19Z</time>
      </trkpt>
      <trkpt lat="45.84138" lon="4.45047">
        <ele>478</ele>
        <time>2021-10-14T23:18:23Z</time>
      </trkpt>
      <trkpt lat="45.84128" lon="4.45023">
        <ele>477</ele>
        <time>2021-10-14T23:18:26Z</time>
      </trkpt>
      <trkpt lat="45.84058" lon="4.44917">
        <ele>473</ele>
        <time>2021-10-14T23:18:44Z</time>
      </trkpt>
      <trkpt lat="45.84041" lon="4.44899">
        <ele>476</ele>
        <time>2021-10-14T23:18:48Z</time>
      </trkpt>
      <trkpt lat="45.84024" lon="4.44885">
        <ele>477</ele>
        <time>2021-10-14T23:18:51Z</time>
      </trkpt>
      <trkpt lat="45.84002" lon="4.44878">
        <ele>477</ele>
        <time>2021-10-14T23:18:55Z</time>
      </trkpt>
      <trkpt lat="45.83917" lon="4.44867">
        <ele>474</ele>
        <time>2021-10-14T23:19:11Z</time>
      </trkpt>
      <trkpt lat="45.83896" lon="4.4486">
        <ele>474</ele>
        <time>2021-10-14T23:19:14Z</time>
      </trkpt>
      <trkpt lat="45.83882" lon="4.44851">
        <ele>474</ele>
        <time>2021-10-14T23:19:17Z</time>
      </trkpt>
      <trkpt lat="45.83875" lon="4.44859">
        <ele>474</ele>
        <time>2021-10-14T23:19:19Z</time>
      </trkpt>
      <trkpt lat="45.83827" lon="4.44901">
        <ele>479</ele>
        <time>2021-10-14T23:19:29Z</time>
      </trkpt>
      <trkpt lat="45.83804" lon="4.44901">
        <ele>483</ele>
        <time>2021-10-14T23:19:33Z</time>
      </trkpt>
      <trkpt lat="45.83739" lon="4.44876">
        <ele>485</ele>
        <time>2021-10-14T23:19:45Z</time>
      </trkpt>
      <trkpt lat="45.83718" lon="4.44873">
        <ele>485</ele>
        <time>2021-10-14T23:19:49Z</time>
      </trkpt>
      <trkpt lat="45.83693" lon="4.44879">
        <ele>488</ele>
        <time>2021-10-14T23:19:53Z</time>
      </trkpt>
      <trkpt lat="45.83533" lon="4.44972">
        <ele>512</ele>
        <time>2021-10-14T23:20:24Z</time>
      </trkpt>
      <trkpt lat="45.83504" lon="4.44981">
        <ele>514</ele>
        <time>2021-10-14T23:20:29Z</time>
      </trkpt>
      <trkpt lat="45.83473" lon="4.44971">
        <ele>517</ele>
        <time>2021-10-14T23:20:35Z</time>
      </trkpt>
      <trkpt lat="45.83451" lon="4.4496">
        <ele>518</ele>
        <time>2021-10-14T23:20:39Z</time>
      </trkpt>
      <trkpt lat="45.83435" lon="4.44937">
        <ele>517</ele>
        <time>2021-10-14T23:20:43Z</time>
      </trkpt>
      <trkpt lat="45.8342" lon="4.44898">
        <ele>516</ele>
        <time>2021-10-14T23:20:48Z</time>
      </trkpt>
      <trkpt lat="45.83404" lon="4.44868">
        <ele>518</ele>
        <time>2021-10-14T23:20:53Z</time>
      </trkpt>
      <trkpt lat="45.83369" lon="4.44824">
        <ele>521</ele>
        <time>2021-10-14T23:21:01Z</time>
      </trkpt>
      <trkpt lat="45.83278" lon="4.44749">
        <ele>522</ele>
        <time>2021-10-14T23:21:20Z</time>
      </trkpt>
      <trkpt lat="45.83227" lon="4.44731">
        <ele>526</ele>
        <time>2021-10-14T23:21:29Z</time>
      </trkpt>
      <trkpt lat="45.8314" lon="4.4472">
        <ele>531</ele>
        <time>2021-10-14T23:21:45Z</time>
      </trkpt>
      <trkpt lat="45.831" lon="4.44731">
        <ele>534</ele>
        <time>2021-10-14T23:21:52Z</time>
      </trkpt>
      <trkpt lat="45.83071" lon="4.44751">
        <ele>536</ele>
        <time>2021-10-14T23:21:58Z</time>
      </trkpt>
      <trkpt lat="45.82998" lon="4.44807">
        <ele>540</ele>
        <time>2021-10-14T23:22:13Z</time>
      </trkpt>
      <trkpt lat="45.82928" lon="4.44876">
        <ele>545</ele>
        <time>2021-10-14T23:22:28Z</time>
      </trkpt>
      <trkpt lat="45.82869" lon="4.44921">
        <ele>548</ele>
        <time>2021-10-14T23:22:40Z</time>
      </trkpt>
      <trkpt lat="45.8285" lon="4.44933">
        <ele>548</ele>
        <time>2021-10-14T23:22:43Z</time>
      </trkpt>
      <trkpt lat="45.8282" lon="4.44935">
        <ele>547</ele>
        <time>2021-10-14T23:22:49Z</time>
      </trkpt>
      <trkpt lat="45.82805" lon="4.4494">
        <ele>549</ele>
        <time>2021-10-14T23:22:51Z</time>
      </trkpt>
      <trkpt lat="45.8279" lon="4.44959">
        <ele>552</ele>
        <time>2021-10-14T23:22:55Z</time>
      </trkpt>
      <trkpt lat="45.82761" lon="4.4503">
        <ele>557</ele>
        <time>2021-10-14T23:23:05Z</time>
      </trkpt>
      <trkpt lat="45.8274" lon="4.4509">
        <ele>559</ele>
        <time>2021-10-14T23:23:14Z</time>
      </trkpt>
      <trkpt lat="45.82721" lon="4.45125">
        <ele>562</ele>
        <time>2021-10-14T23:23:19Z</time>
      </trkpt>
      <trkpt lat="45.82706" lon="4.45146">
        <ele>562</ele>
        <time>2021-10-14T23:23:23Z</time>
      </trkpt>
      <trkpt lat="45.82695" lon="4.45154">
        <ele>562</ele>
        <time>2021-10-14T23:23:25Z</time>
      </trkpt>
      <trkpt lat="45.82684" lon="4.45151">
        <ele>561</ele>
        <time>2021-10-14T23:23:27Z</time>
      </trkpt>
      <trkpt lat="45.82676" lon="4.45139">
        <ele>561</ele>
        <time>2021-10-14T23:23:29Z</time>
      </trkpt>
      <trkpt lat="45.82677" lon="4.45121">
        <ele>562</ele>
        <time>2021-10-14T23:23:31Z</time>
      </trkpt>
      <trkpt lat="45.82691" lon="4.45012">
        <ele>562</ele>
        <time>2021-10-14T23:23:45Z</time>
      </trkpt>
      <trkpt lat="45.82691" lon="4.44971">
        <ele>561</ele>
        <time>2021-10-14T23:23:50Z</time>
      </trkpt>
      <trkpt lat="45.82683" lon="4.44949">
        <ele>561</ele>
        <time>2021-10-14T23:23:53Z</time>
      </trkpt>
      <trkpt lat="45.82667" lon="4.44934">
        <ele>562</ele>
        <time>2021-10-14T23:23:57Z</time>
      </trkpt>
      <trkpt lat="45.82644" lon="4.44925">
        <ele>564</ele>
        <time>2021-10-14T23:24:01Z</time>
      </trkpt>
      <trkpt lat="45.82538" lon="4.44919">
        <ele>574</ele>
        <time>2021-10-14T23:24:20Z</time>
      </trkpt>
      <trkpt lat="45.82491" lon="4.44913">
        <ele>577</ele>
        <time>2021-10-14T23:24:28Z</time>
      </trkpt>
      <trkpt lat="45.8247" lon="4.44903">
        <ele>578</ele>
        <time>2021-10-14T23:24:32Z</time>
      </trkpt>
      <trkpt lat="45.82444" lon="4.44885">
        <ele>577</ele>
        <time>2021-10-14T23:24:37Z</time>
      </trkpt>
      <trkpt lat="45.82433" lon="4.44885">
        <ele>579</ele>
        <time>2021-10-14T23:24:39Z</time>
      </trkpt>
      <trkpt lat="45.82426" lon="4.44891">
        <ele>581</ele>
        <time>2021-10-14T23:24:41Z</time>
      </trkpt>
      <trkpt lat="45.82424" lon="4.44905">
        <ele>583</ele>
        <time>2021-10-14T23:24:42Z</time>
      </trkpt>
      <trkpt lat="45.82427" lon="4.44921">
        <ele>585</ele>
        <time>2021-10-14T23:24:44Z</time>
      </trkpt>
      <trkpt lat="45.82436" lon="4.44929">
        <ele>586</ele>
        <time>2021-10-14T23:24:46Z</time>
      </trkpt>
      <trkpt lat="45.82466" lon="4.44944">
        <ele>585</ele>
        <time>2021-10-14T23:24:52Z</time>
      </trkpt>
      <trkpt lat="45.82513" lon="4.44975">
        <ele>585</ele>
        <time>2021-10-14T23:25:01Z</time>
      </trkpt>
      <trkpt lat="45.82521" lon="4.44986">
        <ele>586</ele>
        <time>2021-10-14T23:25:03Z</time>
      </trkpt>
      <trkpt lat="45.82527" lon="4.44997">
        <ele>587</ele>
        <time>2021-10-14T23:25:05Z</time>
      </trkpt>
      <trkpt lat="45.82528" lon="4.45009">
        <ele>587</ele>
        <time>2021-10-14T23:25:06Z</time>
      </trkpt>
      <trkpt lat="45.82528" lon="4.45025">
        <ele>588</ele>
        <time>2021-10-14T23:25:08Z</time>
      </trkpt>
      <trkpt lat="45.82519" lon="4.45045">
        <ele>589</ele>
        <time>2021-10-14T23:25:11Z</time>
      </trkpt>
      <trkpt lat="45.82503" lon="4.45054">
        <ele>592</ele>
        <time>2021-10-14T23:25:14Z</time>
      </trkpt>
      <trkpt lat="45.82435" lon="4.45075">
        <ele>597</ele>
        <time>2021-10-14T23:25:27Z</time>
      </trkpt>
      <trkpt lat="45.82407" lon="4.45078">
        <ele>599</ele>
        <time>2021-10-14T23:25:32Z</time>
      </trkpt>
      <trkpt lat="45.82372" lon="4.45074">
        <ele>600</ele>
        <time>2021-10-14T23:25:38Z</time>
      </trkpt>
      <trkpt lat="45.8231" lon="4.4505">
        <ele>602</ele>
        <time>2021-10-14T23:25:49Z</time>
      </trkpt>
      <trkpt lat="45.8229" lon="4.45053">
        <ele>603</ele>
        <time>2021-10-14T23:25:53Z</time>
      </trkpt>
      <trkpt lat="45.82273" lon="4.45063">
        <ele>604</ele>
        <time>2021-10-14T23:25:56Z</time>
      </trkpt>
      <trkpt lat="45.82261" lon="4.45078">
        <ele>605</ele>
        <time>2021-10-14T23:25:59Z</time>
      </trkpt>
      <trkpt lat="45.82235" lon="4.45132">
        <ele>608</ele>
        <time>2021-10-14T23:26:07Z</time>
      </trkpt>
      <trkpt lat="45.82185" lon="4.45224">
        <ele>613</ele>
        <time>2021-10-14T23:26:22Z</time>
      </trkpt>
      <trkpt lat="45.82005" lon="4.45453">
        <ele>631</ele>
        <time>2021-10-14T23:27:04Z</time>
      </trkpt>
      <trkpt lat="45.81976" lon="4.45476">
        <ele>633</ele>
        <time>2021-10-14T23:27:10Z</time>
      </trkpt>
      <trkpt lat="45.8185" lon="4.45553">
        <ele>642</ele>
        <time>2021-10-14T23:27:35Z</time>
      </trkpt>
      <trkpt lat="45.81827" lon="4.45559">
        <ele>644</ele>
        <time>2021-10-14T23:27:39Z</time>
      </trkpt>
      <trkpt lat="45.81767" lon="4.45549">
        <ele>646</ele>
        <time>2021-10-14T23:27:50Z</time>
      </trkpt>
      <trkpt lat="45.81743" lon="4.45547">
        <ele>646</ele>
        <time>2021-10-14T23:27:54Z</time>
      </trkpt>
      <trkpt lat="45.81719" lon="4.45551">
        <ele>645</ele>
        <time>2021-10-14T23:27:58Z</time>
      </trkpt>
      <trkpt lat="45.81618" lon="4.45593">
        <ele>648</ele>
        <time>2021-10-14T23:28:17Z</time>
      </trkpt>
      <trkpt lat="45.816" lon="4.45594">
        <ele>648</ele>
        <time>2021-10-14T23:28:20Z</time>
      </trkpt>
      <trkpt lat="45.81581" lon="4.45585">
        <ele>647</ele>
        <time>2021-10-14T23:28:24Z</time>
      </trkpt>
      <trkpt lat="45.81519" lon="4.45515">
        <ele>647</ele>
        <time>2021-10-14T23:28:38Z</time>
      </trkpt>
      <trkpt lat="45.8148" lon="4.45479">
        <ele>647</ele>
        <time>2021-10-14T23:28:46Z</time>
      </trkpt>
      <trkpt lat="45.81437" lon="4.45453">
        <ele>649</ele>
        <time>2021-10-14T23:28:54Z</time>
      </trkpt>
      <trkpt lat="45.8141" lon="4.45446">
        <ele>651</ele>
        <time>2021-10-14T23:28:59Z</time>
      </trkpt>
      <trkpt lat="45.81372" lon="4.45447">
        <ele>655</ele>
        <time>2021-10-14T23:29:06Z</time>
      </trkpt>
      <trkpt lat="45.81345" lon="4.45442">
        <ele>656</ele>
        <time>2021-10-14T23:29:11Z</time>
      </trkpt>
      <trkpt lat="45.81309" lon="4.45425">
        <ele>659</ele>
        <time>2021-10-14T23:29:17Z</time>
      </trkpt>
      <trkpt lat="45.81273" lon="4.45379">
        <ele>661</ele>
        <time>2021-10-14T23:29:26Z</time>
      </trkpt>
      <trkpt lat="45.81246" lon="4.45317">
        <ele>664</ele>
        <time>2021-10-14T23:29:35Z</time>
      </trkpt>
      <trkpt lat="45.81228" lon="4.45262">
        <ele>665</ele>
        <time>2021-10-14T23:29:43Z</time>
      </trkpt>
      <trkpt lat="45.81216" lon="4.45242">
        <ele>665</ele>
        <time>2021-10-14T23:29:46Z</time>
      </trkpt>
      <trkpt lat="45.81194" lon="4.45232">
        <ele>667</ele>
        <time>2021-10-14T23:29:50Z</time>
      </trkpt>
      <trkpt lat="45.81107" lon="4.45222">
        <ele>668</ele>
        <time>2021-10-14T23:30:06Z</time>
      </trkpt>
      <trkpt lat="45.81023" lon="4.45222">
        <ele>670</ele>
        <time>2021-10-14T23:30:21Z</time>
      </trkpt>
      <trkpt lat="45.8101" lon="4.45216">
        <ele>670</ele>
        <time>2021-10-14T23:30:23Z</time>
      </trkpt>
      <trkpt lat="45.80993" lon="4.45193">
        <ele>672</ele>
        <time>2021-10-14T23:30:27Z</time>
      </trkpt>
      <trkpt lat="45.80984" lon="4.45159">
        <ele>676</ele>
        <time>2021-10-14T23:30:32Z</time>
      </trkpt>
      <trkpt lat="45.8099" lon="4.45091">
        <ele>678</ele>
        <time>2021-10-14T23:30:40Z</time>
      </trkpt>
      <trkpt lat="45.81003" lon="4.44999">
        <ele>678</ele>
        <time>2021-10-14T23:30:52Z</time>
      </trkpt>
      <trkpt lat="45.81006" lon="4.4496">
        <ele>676</ele>
        <time>2021-10-14T23:30:57Z</time>
      </trkpt>
      <trkpt lat="45.80992" lon="4.44896">
        <ele>680</ele>
        <time>2021-10-14T23:31:05Z</time>
      </trkpt>
      <trkpt lat="45.8097" lon="4.44821">
        <ele>683</ele>
        <time>2021-10-14T23:31:15Z</time>
      </trkpt>
      <trkpt lat="45.80935" lon="4.44745">
        <ele>690</ele>
        <time>2021-10-14T23:31:26Z</time>
      </trkpt>
      <trkpt lat="45.80931" lon="4.44702">
        <ele>692</ele>
        <time>2021-10-14T23:31:32Z</time>
      </trkpt>
      <trkpt lat="45.80933" lon="4.44641">
        <ele>692</ele>
        <time>2021-10-14T23:31:39Z</time>
      </trkpt>
      <trkpt lat="45.80925" lon="4.44613">
        <ele>693</ele>
        <time>2021-10-14T23:31:43Z</time>
      </trkpt>
      <trkpt lat="45.80912" lon="4.44591">
        <ele>694</ele>
        <time>2021-10-14T23:31:47Z</time>
      </trkpt>
      <trkpt lat="45.80892" lon="4.44576">
        <ele>695</ele>
        <time>2021-10-14T23:31:51Z</time>
      </trkpt>
      <trkpt lat="45.80855" lon="4.44562">
        <ele>697</ele>
        <time>2021-10-14T23:31:57Z</time>
      </trkpt>
      <trkpt lat="45.80751" lon="4.44543">
        <ele>705</ele>
        <time>2021-10-14T23:32:16Z</time>
      </trkpt>
      <trkpt lat="45.80724" lon="4.44542">
        <ele>706</ele>
        <time>2021-10-14T23:32:21Z</time>
      </trkpt>
      <trkpt lat="45.80674" lon="4.44555">
        <ele>711</ele>
        <time>2021-10-14T23:32:30Z</time>
      </trkpt>
      <trkpt lat="45.80613" lon="4.44539">
        <ele>712</ele>
        <time>2021-10-14T23:32:41Z</time>
      </trkpt>
      <trkpt lat="45.80592" lon="4.44539">
        <ele>714</ele>
        <time>2021-10-14T23:32:45Z</time>
      </trkpt>
      <trkpt lat="45.8058" lon="4.44548">
        <ele>715</ele>
        <time>2021-10-14T23:32:47Z</time>
      </trkpt>
      <trkpt lat="45.8057" lon="4.44563">
        <ele>715</ele>
        <time>2021-10-14T23:32:50Z</time>
      </trkpt>
      <trkpt lat="45.80561" lon="4.44625">
        <ele>718</ele>
        <time>2021-10-14T23:32:58Z</time>
      </trkpt>
      <trkpt lat="45.80556" lon="4.44686">
        <ele>721</ele>
        <time>2021-10-14T23:33:05Z</time>
      </trkpt>
      <trkpt lat="45.80549" lon="4.44716">
        <ele>723</ele>
        <time>2021-10-14T23:33:09Z</time>
      </trkpt>
      <trkpt lat="45.8052" lon="4.44798">
        <ele>727</ele>
        <time>2021-10-14T23:33:20Z</time>
      </trkpt>
      <trkpt lat="45.80506" lon="4.44833">
        <ele>729</ele>
        <time>2021-10-14T23:33:25Z</time>
      </trkpt>
      <trkpt lat="45.8048" lon="4.44849">
        <ele>729</ele>
        <time>2021-10-14T23:33:31Z</time>
      </trkpt>
      <trkpt lat="45.80406" lon="4.44859">
        <ele>723</ele>
        <time>2021-10-14T23:33:44Z</time>
      </trkpt>
      <trkpt lat="45.80382" lon="4.4488">
        <ele>724</ele>
        <time>2021-10-14T23:33:49Z</time>
      </trkpt>
      <trkpt lat="45.80343" lon="4.44937">
        <ele>727</ele>
        <time>2021-10-14T23:33:59Z</time>
      </trkpt>
      <trkpt lat="45.80305" lon="4.45018">
        <ele>728</ele>
        <time>2021-10-14T23:34:11Z</time>
      </trkpt>
      <trkpt lat="45.80279" lon="4.45053">
        <ele>727</ele>
        <time>2021-10-14T23:34:17Z</time>
      </trkpt>
      <trkpt lat="45.80218" lon="4.45139">
        <ele>731</ele>
        <time>2021-10-14T23:34:32Z</time>
      </trkpt>
      <trkpt lat="45.80204" lon="4.45152">
        <ele>734</ele>
        <time>2021-10-14T23:34:35Z</time>
      </trkpt>
      <trkpt lat="45.80195" lon="4.45151">
        <ele>734</ele>
        <time>2021-10-14T23:34:37Z</time>
      </trkpt>
      <trkpt lat="45.80168" lon="4.45136">
        <ele>731</ele>
        <time>2021-10-14T23:34:42Z</time>
      </trkpt>
      <trkpt lat="45.80129" lon="4.45101">
        <ele>724</ele>
        <time>2021-10-14T23:34:50Z</time>
      </trkpt>
      <trkpt lat="45.80111" lon="4.45091">
        <ele>722</ele>
        <time>2021-10-14T23:34:54Z</time>
      </trkpt>
      <trkpt lat="45.80092" lon="4.45087">
        <ele>722</ele>
        <time>2021-10-14T23:34:57Z</time>
      </trkpt>
      <trkpt lat="45.80054" lon="4.45093">
        <ele>723</ele>
        <time>2021-10-14T23:35:04Z</time>
      </trkpt>
      <trkpt lat="45.8001" lon="4.45092">
        <ele>721</ele>
        <time>2021-10-14T23:35:12Z</time>
      </trkpt>
      <trkpt lat="45.79988" lon="4.45094">
        <ele>721</ele>
        <time>2021-10-14T23:35:16Z</time>
      </trkpt>
      <trkpt lat="45.79911" lon="4.45128">
        <ele>720</ele>
        <time>2021-10-14T23:35:30Z</time>
      </trkpt>
      <trkpt lat="45.79861" lon="4.45147">
        <ele>718</ele>
        <time>2021-10-14T23:35:39Z</time>
      </trkpt>
      <trkpt lat="45.79881" lon="4.45197">
        <ele>718</ele>
        <time>2021-10-14T23:35:46Z</time>
      </trkpt>
      <trkpt lat="45.79886" lon="4.45217">
        <ele>718</ele>
        <time>2021-10-14T23:35:49Z</time>
      </trkpt>
      <trkpt lat="45.79891" lon="4.45243">
        <ele>718</ele>
        <time>2021-10-14T23:35:52Z</time>
      </trkpt>
      <trkpt lat="45.79912" lon="4.45604">
        <ele>705</ele>
        <time>2021-10-14T23:36:37Z</time>
      </trkpt>
      <trkpt lat="45.79911" lon="4.45658">
        <ele>705</ele>
        <time>2021-10-14T23:36:44Z</time>
      </trkpt>
      <trkpt lat="45.79901" lon="4.45699">
        <ele>704</ele>
        <time>2021-10-14T23:36:49Z</time>
      </trkpt>
      <trkpt lat="45.79856" lon="4.45832">
        <ele>698</ele>
        <time>2021-10-14T23:37:08Z</time>
      </trkpt>
      <trkpt lat="45.79842" lon="4.4586">
        <ele>698</ele>
        <time>2021-10-14T23:37:12Z</time>
      </trkpt>
      <trkpt lat="45.79824" lon="4.45879">
        <ele>697</ele>
        <time>2021-10-14T23:37:16Z</time>
      </trkpt>
      <trkpt lat="45.79802" lon="4.45887">
        <ele>696</ele>
        <time>2021-10-14T23:37:20Z</time>
      </trkpt>
      <trkpt lat="45.7978" lon="4.45886">
        <ele>694</ele>
        <time>2021-10-14T23:37:24Z</time>
      </trkpt>
      <trkpt lat="45.79688" lon="4.45861">
        <ele>684</ele>
        <time>2021-10-14T23:37:41Z</time>
      </trkpt>
      <trkpt lat="45.79667" lon="4.45862">
        <ele>683</ele>
        <time>2021-10-14T23:37:44Z</time>
      </trkpt>
      <trkpt lat="45.79646" lon="4.45873">
        <ele>682</ele>
        <time>2021-10-14T23:37:48Z</time>
      </trkpt>
      <trkpt lat="45.79545" lon="4.45951">
        <ele>676</ele>
        <time>2021-10-14T23:38:09Z</time>
      </trkpt>
      <trkpt lat="45.79519" lon="4.45983">
        <ele>674</ele>
        <time>2021-10-14T23:38:15Z</time>
      </trkpt>
      <trkpt lat="45.79508" lon="4.46007">
        <ele>674</ele>
        <time>2021-10-14T23:38:18Z</time>
      </trkpt>
      <trkpt lat="45.79495" lon="4.46054">
        <ele>673</ele>
        <time>2021-10-14T23:38:25Z</time>
      </trkpt>
      <trkpt lat="45.79438" lon="4.46299">
        <ele>662</ele>
        <time>2021-10-14T23:38:57Z</time>
      </trkpt>
      <trkpt lat="45.79421" lon="4.46354">
        <ele>661</ele>
        <time>2021-10-14T23:39:04Z</time>
      </trkpt>
      <trkpt lat="45.79411" lon="4.46378">
        <ele>660</ele>
        <time>2021-10-14T23:39:08Z</time>
      </trkpt>
      <trkpt lat="45.79398" lon="4.46402">
        <ele>659</ele>
        <time>2021-10-14T23:39:11Z</time>
      </trkpt>
      <trkpt lat="45.79357" lon="4.46455">
        <ele>659</ele>
        <time>2021-10-14T23:39:21Z</time>
      </trkpt>
      <trkpt lat="45.79329" lon="4.46487">
        <ele>661</ele>
        <time>2021-10-14T23:39:28Z</time>
      </trkpt>
      <trkpt lat="45.79233" lon="4.46573">
        <ele>660</ele>
        <time>2021-10-14T23:39:48Z</time>
      </trkpt>
      <trkpt lat="45.79219" lon="4.46577">
        <ele>660</ele>
        <time>2021-10-14T23:39:50Z</time>
      </trkpt>
      <trkpt lat="45.79198" lon="4.46579">
        <ele>660</ele>
        <time>2021-10-14T23:39:54Z</time>
      </trkpt>
      <trkpt lat="45.79118" lon="4.46566">
        <ele>661</ele>
        <time>2021-10-14T23:40:08Z</time>
      </trkpt>
      <trkpt lat="45.79088" lon="4.46566">
        <ele>662</ele>
        <time>2021-10-14T23:40:14Z</time>
      </trkpt>
      <trkpt lat="45.7907" lon="4.46571">
        <ele>663</ele>
        <time>2021-10-14T23:40:17Z</time>
      </trkpt>
      <trkpt lat="45.79036" lon="4.46597">
        <ele>666</ele>
        <time>2021-10-14T23:40:24Z</time>
      </trkpt>
      <trkpt lat="45.79008" lon="4.46633">
        <ele>667</ele>
        <time>2021-10-14T23:40:30Z</time>
      </trkpt>
      <trkpt lat="45.78988" lon="4.46685">
        <ele>665</ele>
        <time>2021-10-14T23:40:38Z</time>
      </trkpt>
      <trkpt lat="45.78992" lon="4.46732">
        <ele>663</ele>
        <time>2021-10-14T23:40:44Z</time>
      </trkpt>
      <trkpt lat="45.79009" lon="4.46773">
        <ele>662</ele>
        <time>2021-10-14T23:40:50Z</time>
      </trkpt>
      <trkpt lat="45.79013" lon="4.46775">
        <ele>662</ele>
        <time>2021-10-14T23:40:50Z</time>
      </trkpt>
      <trkpt lat="45.79041" lon="4.46806">
        <ele>659</ele>
        <time>2021-10-14T23:40:57Z</time>
      </trkpt>
      <trkpt lat="45.79036" lon="4.46828">
        <ele>656</ele>
        <time>2021-10-14T23:41:00Z</time>
      </trkpt>
      <trkpt lat="45.79014" lon="4.46865">
        <ele>651</ele>
        <time>2021-10-14T23:41:06Z</time>
      </trkpt>
      <trkpt lat="45.78997" lon="4.46889">
        <ele>650</ele>
        <time>2021-10-14T23:41:10Z</time>
      </trkpt>
      <trkpt lat="45.78943" lon="4.4692">
        <ele>648</ele>
        <time>2021-10-14T23:41:20Z</time>
      </trkpt>
      <trkpt lat="45.78929" lon="4.46933">
        <ele>647</ele>
        <time>2021-10-14T23:41:23Z</time>
      </trkpt>
      <trkpt lat="45.78921" lon="4.46929">
        <ele>647</ele>
        <time>2021-10-14T23:41:25Z</time>
      </trkpt>
      <trkpt lat="45.78883" lon="4.46988">
        <ele>647</ele>
        <time>2021-10-14T23:41:35Z</time>
      </trkpt>
      <trkpt lat="45.78815" lon="4.47107">
        <ele>641</ele>
        <time>2021-10-14T23:41:54Z</time>
      </trkpt>
      <trkpt lat="45.78794" lon="4.47139">
        <ele>637</ele>
        <time>2021-10-14T23:41:59Z</time>
      </trkpt>
      <trkpt lat="45.7878" lon="4.47155">
        <ele>637</ele>
        <time>2021-10-14T23:42:02Z</time>
      </trkpt>
      <trkpt lat="45.78761" lon="4.47169">
        <ele>637</ele>
        <time>2021-10-14T23:42:06Z</time>
      </trkpt>
      <trkpt lat="45.7874" lon="4.47177">
        <ele>636</ele>
        <time>2021-10-14T23:42:10Z</time>
      </trkpt>
      <trkpt lat="45.78642" lon="4.47204">
        <ele>630</ele>
        <time>2021-10-14T23:42:28Z</time>
      </trkpt>
      <trkpt lat="45.78628" lon="4.47211">
        <ele>629</ele>
        <time>2021-10-14T23:42:30Z</time>
      </trkpt>
      <trkpt lat="45.78618" lon="4.47222">
        <ele>628</ele>
        <time>2021-10-14T23:42:33Z</time>
      </trkpt>
      <trkpt lat="45.78604" lon="4.47225">
        <ele>628</ele>
        <time>2021-10-14T23:42:35Z</time>
      </trkpt>
      <trkpt lat="45.78536" lon="4.47251">
        <ele>628</ele>
        <time>2021-10-14T23:42:48Z</time>
      </trkpt>
      <trkpt lat="45.78514" lon="4.4725">
        <ele>627</ele>
        <time>2021-10-14T23:42:52Z</time>
      </trkpt>
      <trkpt lat="45.78494" lon="4.47246">
        <ele>627</ele>
        <time>2021-10-14T23:42:55Z</time>
      </trkpt>
      <trkpt lat="45.7847" lon="4.47226">
        <ele>627</ele>
        <time>2021-10-14T23:43:00Z</time>
      </trkpt>
      <trkpt lat="45.78435" lon="4.47179">
        <ele>623</ele>
        <time>2021-10-14T23:43:09Z</time>
      </trkpt>
      <trkpt lat="45.78423" lon="4.47152">
        <ele>621</ele>
        <time>2021-10-14T23:43:13Z</time>
      </trkpt>
      <trkpt lat="45.78406" lon="4.47091">
        <ele>616</ele>
        <time>2021-10-14T23:43:21Z</time>
      </trkpt>
      <trkpt lat="45.78389" lon="4.47065">
        <ele>615</ele>
        <time>2021-10-14T23:43:25Z</time>
      </trkpt>
      <trkpt lat="45.78375" lon="4.47051">
        <ele>614</ele>
        <time>2021-10-14T23:43:28Z</time>
      </trkpt>
      <trkpt lat="45.78281" lon="4.46996">
        <ele>609</ele>
        <time>2021-10-14T23:43:46Z</time>
      </trkpt>
      <trkpt lat="45.78261" lon="4.46995">
        <ele>609</ele>
        <time>2021-10-14T23:43:50Z</time>
      </trkpt>
      <trkpt lat="45.78235" lon="4.4701">
        <ele>609</ele>
        <time>2021-10-14T23:43:55Z</time>
      </trkpt>
      <trkpt lat="45.78218" lon="4.47039">
        <ele>609</ele>
        <time>2021-10-14T23:44:00Z</time>
      </trkpt>
      <trkpt lat="45.78194" lon="4.47101">
        <ele>610</ele>
        <time>2021-10-14T23:44:08Z</time>
      </trkpt>
      <trkpt lat="45.78183" lon="4.47117">
        <ele>610</ele>
        <time>2021-10-14T23:44:11Z</time>
      </trkpt>
      <trkpt lat="45.78162" lon="4.47132">
        <ele>608</ele>
        <time>2021-10-14T23:44:15Z</time>
      </trkpt>
      <trkpt lat="45.78101" lon="4.47165">
        <ele>605</ele>
        <time>2021-10-14T23:44:27Z</time>
      </trkpt>
      <trkpt lat="45.78086" lon="4.47167">
        <ele>604</ele>
        <time>2021-10-14T23:44:30Z</time>
      </trkpt>
      <trkpt lat="45.78069" lon="4.47161">
        <ele>603</ele>
        <time>2021-10-14T23:44:33Z</time>
      </trkpt>
      <trkpt lat="45.78053" lon="4.47151">
        <ele>602</ele>
        <time>2021-10-14T23:44:36Z</time>
      </trkpt>
      <trkpt lat="45.78035" lon="4.4713">
        <ele>599</ele>
        <time>2021-10-14T23:44:40Z</time>
      </trkpt>
      <trkpt lat="45.78013" lon="4.47111">
        <ele>596</ele>
        <time>2021-10-14T23:44:44Z</time>
      </trkpt>
      <trkpt lat="45.77996" lon="4.47108">
        <ele>595</ele>
        <time>2021-10-14T23:44:48Z</time>
      </trkpt>
      <trkpt lat="45.77973" lon="4.47113">
        <ele>594</ele>
        <time>2021-10-14T23:44:52Z</time>
      </trkpt>
      <trkpt lat="45.77959" lon="4.47124">
        <ele>594</ele>
        <time>2021-10-14T23:44:55Z</time>
      </trkpt>
      <trkpt lat="45.77916" lon="4.47171">
        <ele>596</ele>
        <time>2021-10-14T23:45:04Z</time>
      </trkpt>
      <trkpt lat="45.77902" lon="4.47176">
        <ele>595</ele>
        <time>2021-10-14T23:45:07Z</time>
      </trkpt>
      <trkpt lat="45.77878" lon="4.47177">
        <ele>593</ele>
        <time>2021-10-14T23:45:11Z</time>
      </trkpt>
      <trkpt lat="45.77788" lon="4.47166">
        <ele>588</ele>
        <time>2021-10-14T23:45:27Z</time>
      </trkpt>
      <trkpt lat="45.77772" lon="4.47153">
        <ele>586</ele>
        <time>2021-10-14T23:45:30Z</time>
      </trkpt>
      <trkpt lat="45.77739" lon="4.47118">
        <ele>581</ele>
        <time>2021-10-14T23:45:38Z</time>
      </trkpt>
      <trkpt lat="45.77721" lon="4.47107">
        <ele>579</ele>
        <time>2021-10-14T23:45:41Z</time>
      </trkpt>
      <trkpt lat="45.77704" lon="4.47104">
        <ele>579</ele>
        <time>2021-10-14T23:45:44Z</time>
      </trkpt>
      <trkpt lat="45.77681" lon="4.47109">
        <ele>580</ele>
        <time>2021-10-14T23:45:48Z</time>
      </trkpt>
      <trkpt lat="45.77657" lon="4.47118">
        <ele>581</ele>
        <time>2021-10-14T23:45:53Z</time>
      </trkpt>
      <trkpt lat="45.77637" lon="4.47119">
        <ele>580</ele>
        <time>2021-10-14T23:45:56Z</time>
      </trkpt>
      <trkpt lat="45.77589" lon="4.47105">
        <ele>574</ele>
        <time>2021-10-14T23:46:05Z</time>
      </trkpt>
      <trkpt lat="45.77571" lon="4.47111">
        <ele>573</ele>
        <time>2021-10-14T23:46:08Z</time>
      </trkpt>
      <trkpt lat="45.77553" lon="4.47119">
        <ele>572</ele>
        <time>2021-10-14T23:46:12Z</time>
      </trkpt>
      <trkpt lat="45.77499" lon="4.47164">
        <ele>571</ele>
        <time>2021-10-14T23:46:23Z</time>
      </trkpt>
      <trkpt lat="45.77463" lon="4.47214">
        <ele>572</ele>
        <time>2021-10-14T23:46:32Z</time>
      </trkpt>
      <trkpt lat="45.77451" lon="4.47227">
        <ele>572</ele>
        <time>2021-10-14T23:46:34Z</time>
      </trkpt>
      <trkpt lat="45.77441" lon="4.47232">
        <ele>572</ele>
        <time>2021-10-14T23:46:36Z</time>
      </trkpt>
      <trkpt lat="45.77415" lon="4.47228">
        <ele>569</ele>
        <time>2021-10-14T23:46:41Z</time>
      </trkpt>
      <trkpt lat="45.77376" lon="4.47217">
        <ele>567</ele>
        <time>2021-10-14T23:46:48Z</time>
      </trkpt>
      <trkpt lat="45.77349" lon="4.47215">
        <ele>566</ele>
        <time>2021-10-14T23:46:53Z</time>
      </trkpt>
      <trkpt lat="45.7728" lon="4.47222">
        <ele>564</ele>
        <time>2021-10-14T23:47:05Z</time>
      </trkpt>
      <trkpt lat="45.77267" lon="4.47228">
        <ele>564</ele>
        <time>2021-10-14T23:47:07Z</time>
      </trkpt>
      <trkpt lat="45.77254" lon="4.47238">
        <ele>564</ele>
        <time>2021-10-14T23:47:10Z</time>
      </trkpt>
      <trkpt lat="45.77248" lon="4.4725">
        <ele>565</ele>
        <time>2021-10-14T23:47:12Z</time>
      </trkpt>
      <trkpt lat="45.77245" lon="4.47276">
        <ele>564</ele>
        <time>2021-10-14T23:47:15Z</time>
      </trkpt>
      <trkpt lat="45.77257" lon="4.47324">
        <ele>565</ele>
        <time>2021-10-14T23:47:22Z</time>
      </trkpt>
      <trkpt lat="45.77259" lon="4.47349">
        <ele>565</ele>
        <time>2021-10-14T23:47:25Z</time>
      </trkpt>
      <trkpt lat="45.77254" lon="4.47369">
        <ele>565</ele>
        <time>2021-10-14T23:47:27Z</time>
      </trkpt>
      <trkpt lat="45.77244" lon="4.47388">
        <ele>565</ele>
        <time>2021-10-14T23:47:30Z</time>
      </trkpt>
      <trkpt lat="45.77235" lon="4.47396">
        <ele>565</ele>
        <time>2021-10-14T23:47:32Z</time>
      </trkpt>
      <trkpt lat="45.77219" lon="4.47404">
        <ele>566</ele>
        <time>2021-10-14T23:47:35Z</time>
      </trkpt>
      <trkpt lat="45.772" lon="4.47403">
        <ele>565</ele>
        <time>2021-10-14T23:47:39Z</time>
      </trkpt>
      <trkpt lat="45.77165" lon="4.47396">
        <ele>564</ele>
        <time>2021-10-14T23:47:45Z</time>
      </trkpt>
      <trkpt lat="45.77135" lon="4.4738">
        <ele>565</ele>
        <time>2021-10-14T23:47:51Z</time>
      </trkpt>
      <trkpt lat="45.7708" lon="4.47339">
        <ele>560</ele>
        <time>2021-10-14T23:48:02Z</time>
      </trkpt>
      <trkpt lat="45.77067" lon="4.47331">
        <ele>558</ele>
        <time>2021-10-14T23:48:04Z</time>
      </trkpt>
      <trkpt lat="45.77055" lon="4.47331">
        <ele>558</ele>
        <time>2021-10-14T23:48:06Z</time>
      </trkpt>
      <trkpt lat="45.77016" lon="4.47348">
        <ele>560</ele>
        <time>2021-10-14T23:48:13Z</time>
      </trkpt>
      <trkpt lat="45.76998" lon="4.47362">
        <ele>561</ele>
        <time>2021-10-14T23:48:17Z</time>
      </trkpt>
      <trkpt lat="45.76977" lon="4.47385">
        <ele>562</ele>
        <time>2021-10-14T23:48:22Z</time>
      </trkpt>
      <trkpt lat="45.76966" lon="4.47409">
        <ele>563</ele>
        <time>2021-10-14T23:48:25Z</time>
      </trkpt>
      <trkpt lat="45.76954" lon="4.47441">
        <ele>566</ele>
        <time>2021-10-14T23:48:30Z</time>
      </trkpt>
      <trkpt lat="45.76942" lon="4.47463">
        <ele>567</ele>
        <time>2021-10-14T23:48:33Z</time>
      </trkpt>
      <trkpt lat="45.76923" lon="4.47481">
        <ele>566</ele>
        <time>2021-10-14T23:48:37Z</time>
      </trkpt>
      <trkpt lat="45.7688" lon="4.47505">
        <ele>567</ele>
        <time>2021-10-14T23:48:46Z</time>
      </trkpt>
      <trkpt lat="45.76818" lon="4.47532">
        <ele>567</ele>
        <time>2021-10-14T23:48:57Z</time>
      </trkpt>
      <trkpt lat="45.76797" lon="4.47549">
        <ele>566</ele>
        <time>2021-10-14T23:49:01Z</time>
      </trkpt>
      <trkpt lat="45.76756" lon="4.47589">
        <ele>566</ele>
        <time>2021-10-14T23:49:10Z</time>
      </trkpt>
      <trkpt lat="45.76703" lon="4.47654">
        <ele>564</ele>
        <time>2021-10-14T23:49:23Z</time>
      </trkpt>
      <trkpt lat="45.76677" lon="4.47682">
        <ele>562</ele>
        <time>2021-10-14T23:49:28Z</time>
      </trkpt>
      <trkpt lat="45.76619" lon="4.47699">
        <ele>561</ele>
        <time>2021-10-14T23:49:39Z</time>
      </trkpt>
      <trkpt lat="45.76593" lon="4.47711">
        <ele>562</ele>
        <time>2021-10-14T23:49:44Z</time>
      </trkpt>
      <trkpt lat="45.76553" lon="4.47773">
        <ele>561</ele>
        <time>2021-10-14T23:49:54Z</time>
      </trkpt>
      <trkpt lat="45.76523" lon="4.47845">
        <ele>560</ele>
        <time>2021-10-14T23:50:05Z</time>
      </trkpt>
      <trkpt lat="45.76509" lon="4.47863">
        <ele>560</ele>
        <time>2021-10-14T23:50:08Z</time>
      </trkpt>
      <trkpt lat="45.76493" lon="4.47877">
        <ele>560</ele>
        <time>2021-10-14T23:50:11Z</time>
      </trkpt>
      <trkpt lat="45.76467" lon="4.47888">
        <ele>559</ele>
        <time>2021-10-14T23:50:16Z</time>
      </trkpt>
      <trkpt lat="45.76435" lon="4.47905">
        <ele>558</ele>
        <time>2021-10-14T23:50:22Z</time>
      </trkpt>
      <trkpt lat="45.76419" lon="4.47926">
        <ele>557</ele>
        <time>2021-10-14T23:50:26Z</time>
      </trkpt>
      <trkpt lat="45.76409" lon="4.47946">
        <ele>557</ele>
        <time>2021-10-14T23:50:29Z</time>
      </trkpt>
      <trkpt lat="45.76408" lon="4.47962">
        <ele>557</ele>
        <time>2021-10-14T23:50:31Z</time>
      </trkpt>
      <trkpt lat="45.76414" lon="4.48024">
        <ele>560</ele>
        <time>2021-10-14T23:50:39Z</time>
      </trkpt>
      <trkpt lat="45.7641" lon="4.48046">
        <ele>560</ele>
        <time>2021-10-14T23:50:42Z</time>
      </trkpt>
      <trkpt lat="45.76398" lon="4.48068">
        <ele>560</ele>
        <time>2021-10-14T23:50:45Z</time>
      </trkpt>
      <trkpt lat="45.76386" lon="4.4808">
        <ele>560</ele>
        <time>2021-10-14T23:50:48Z</time>
      </trkpt>
      <trkpt lat="45.76296" lon="4.48125">
        <ele>560</ele>
        <time>2021-10-14T23:51:05Z</time>
      </trkpt>
      <trkpt lat="45.76281" lon="4.48127">
        <ele>560</ele>
        <time>2021-10-14T23:51:08Z</time>
      </trkpt>
      <trkpt lat="45.76193" lon="4.48118">
        <ele>559</ele>
        <time>2021-10-14T23:51:23Z</time>
      </trkpt>
      <trkpt lat="45.7616" lon="4.48108">
        <ele>559</ele>
        <time>2021-10-14T23:51:29Z</time>
      </trkpt>
      <trkpt lat="45.76141" lon="4.48109">
        <ele>558</ele>
        <time>2021-10-14T23:51:33Z</time>
      </trkpt>
      <trkpt lat="45.76127" lon="4.48112">
        <ele>558</ele>
        <time>2021-10-14T23:51:35Z</time>
      </trkpt>
      <trkpt lat="45.76102" lon="4.48126">
        <ele>558</ele>
        <time>2021-10-14T23:51:40Z</time>
      </trkpt>
      <trkpt lat="45.76016" lon="4.48192">
        <ele>558</ele>
        <time>2021-10-14T23:51:57Z</time>
      </trkpt>
      <trkpt lat="45.76" lon="4.48209">
        <ele>558</ele>
        <time>2021-10-14T23:52:01Z</time>
      </trkpt>
      <trkpt lat="45.75982" lon="4.48247">
        <ele>558</ele>
        <time>2021-10-14T23:52:07Z</time>
      </trkpt>
      <trkpt lat="45.75974" lon="4.48271">
        <ele>557</ele>
        <time>2021-10-14T23:52:10Z</time>
      </trkpt>
      <trkpt lat="45.75969" lon="4.483">
        <ele>557</ele>
        <time>2021-10-14T23:52:14Z</time>
      </trkpt>
      <trkpt lat="45.75972" lon="4.48366">
        <ele>560</ele>
        <time>2021-10-14T23:52:22Z</time>
      </trkpt>
      <trkpt lat="45.75966" lon="4.48399">
        <ele>560</ele>
        <time>2021-10-14T23:52:26Z</time>
      </trkpt>
      <trkpt lat="45.75955" lon="4.48433">
        <ele>560</ele>
        <time>2021-10-14T23:52:31Z</time>
      </trkpt>
      <trkpt lat="45.75937" lon="4.48569">
        <ele>556</ele>
        <time>2021-10-14T23:52:48Z</time>
      </trkpt>
      <trkpt lat="45.75935" lon="4.48596">
        <ele>554</ele>
        <time>2021-10-14T23:52:51Z</time>
      </trkpt>
      <trkpt lat="45.75935" lon="4.48632">
        <ele>552</ele>
        <time>2021-10-14T23:52:56Z</time>
      </trkpt>
      <trkpt lat="45.75952" lon="4.48683">
        <ele>552</ele>
        <time>2021-10-14T23:53:03Z</time>
      </trkpt>
      <trkpt lat="45.7596" lon="4.48725">
        <ele>552</ele>
        <time>2021-10-14T23:53:08Z</time>
      </trkpt>
      <trkpt lat="45.75958" lon="4.48752">
        <ele>551</ele>
        <time>2021-10-14T23:53:11Z</time>
      </trkpt>
      <trkpt lat="45.75925" lon="4.48854">
        <ele>547</ele>
        <time>2021-10-14T23:53:25Z</time>
      </trkpt>
      <trkpt lat="45.75917" lon="4.48948">
        <ele>545</ele>
        <time>2021-10-14T23:53:37Z</time>
      </trkpt>
      <trkpt lat="45.75917" lon="4.48977">
        <ele>545</ele>
        <time>2021-10-14T23:53:41Z</time>
      </trkpt>
      <trkpt lat="45.75914" lon="4.49009">
        <ele>543</ele>
        <time>2021-10-14T23:53:45Z</time>
      </trkpt>
      <trkpt lat="45.759" lon="4.49096">
        <ele>539</ele>
        <time>2021-10-14T23:53:56Z</time>
      </trkpt>
      <trkpt lat="45.7589" lon="4.49128">
        <ele>539</ele>
        <time>2021-10-14T23:54:00Z</time>
      </trkpt>
      <trkpt lat="45.75866" lon="4.49173">
        <ele>536</ele>
        <time>2021-10-14T23:54:07Z</time>
      </trkpt>
      <trkpt lat="45.75786" lon="4.49302">
        <ele>533</ele>
        <time>2021-10-14T23:54:29Z</time>
      </trkpt>
      <trkpt lat="45.75753" lon="4.4936">
        <ele>531</ele>
        <time>2021-10-14T23:54:38Z</time>
      </trkpt>
      <trkpt lat="45.75739" lon="4.49378">
        <ele>530</ele>
        <time>2021-10-14T23:54:41Z</time>
      </trkpt>
      <trkpt lat="45.75731" lon="4.49382">
        <ele>529</ele>
        <time>2021-10-14T23:54:43Z</time>
      </trkpt>
      <trkpt lat="45.75727" lon="4.49382">
        <ele>529</ele>
        <time>2021-10-14T23:54:43Z</time>
      </trkpt>
      <trkpt lat="45.75685" lon="4.49428">
        <ele>524</ele>
        <time>2021-10-14T23:54:53Z</time>
      </trkpt>
      <trkpt lat="45.75674" lon="4.49444">
        <ele>522</ele>
        <time>2021-10-14T23:54:56Z</time>
      </trkpt>
      <trkpt lat="45.75665" lon="4.49463">
        <ele>520</ele>
        <time>2021-10-14T23:54:59Z</time>
      </trkpt>
      <trkpt lat="45.75657" lon="4.49493">
        <ele>517</ele>
        <time>2021-10-14T23:55:03Z</time>
      </trkpt>
      <trkpt lat="45.75653" lon="4.4953">
        <ele>514</ele>
        <time>2021-10-14T23:55:07Z</time>
      </trkpt>
      <trkpt lat="45.75656" lon="4.4958">
        <ele>510</ele>
        <time>2021-10-14T23:55:13Z</time>
      </trkpt>
      <trkpt lat="45.75662" lon="4.4961">
        <ele>507</ele>
        <time>2021-10-14T23:55:17Z</time>
      </trkpt>
      <trkpt lat="45.7567" lon="4.4963">
        <ele>505</ele>
        <time>2021-10-14T23:55:20Z</time>
      </trkpt>
      <trkpt lat="45.75716" lon="4.49699">
        <ele>498</ele>
        <time>2021-10-14T23:55:32Z</time>
      </trkpt>
      <trkpt lat="45.75743" lon="4.49729">
        <ele>496</ele>
        <time>2021-10-14T23:55:38Z</time>
      </trkpt>
      <trkpt lat="45.75774" lon="4.49749">
        <ele>496</ele>
        <time>2021-10-14T23:55:44Z</time>
      </trkpt>
      <trkpt lat="45.75789" lon="4.49758">
        <ele>497</ele>
        <time>2021-10-14T23:55:47Z</time>
      </trkpt>
      <trkpt lat="45.75794" lon="4.49772">
        <ele>498</ele>
        <time>2021-10-14T23:55:49Z</time>
      </trkpt>
      <trkpt lat="45.75792" lon="4.49785">
        <ele>497</ele>
        <time>2021-10-14T23:55:51Z</time>
      </trkpt>
      <trkpt lat="45.75782" lon="4.49798">
        <ele>495</ele>
        <time>2021-10-14T23:55:53Z</time>
      </trkpt>
      <trkpt lat="45.75754" lon="4.49826">
        <ele>489</ele>
        <time>2021-10-14T23:55:59Z</time>
      </trkpt>
      <trkpt lat="45.75733" lon="4.4985">
        <ele>486</ele>
        <time>2021-10-14T23:56:04Z</time>
      </trkpt>
      <trkpt lat="45.75698" lon="4.4991">
        <ele>485</ele>
        <time>2021-10-14T23:56:14Z</time>
      </trkpt>
      <trkpt lat="45.75661" lon="4.49948">
        <ele>482</ele>
        <time>2021-10-14T23:56:22Z</time>
      </trkpt>
      <trkpt lat="45.7564" lon="4.49967">
        <ele>481</ele>
        <time>2021-10-14T23:56:26Z</time>
      </trkpt>
      <trkpt lat="45.75619" lon="4.49972">
        <ele>478</ele>
        <time>2021-10-14T23:56:30Z</time>
      </trkpt>
      <trkpt lat="45.75597" lon="4.49981">
        <ele>476</ele>
        <time>2021-10-14T23:56:34Z</time>
      </trkpt>
      <trkpt lat="45.75583" lon="4.4999">
        <ele>475</ele>
        <time>2021-10-14T23:56:37Z</time>
      </trkpt>
      <trkpt lat="45.75563" lon="4.5001">
        <ele>473</ele>
        <time>2021-10-14T23:56:41Z</time>
      </trkpt>
      <trkpt lat="45.75533" lon="4.5003">
        <ele>470</ele>
        <time>2021-10-14T23:56:47Z</time>
      </trkpt>
      <trkpt lat="45.75515" lon="4.50048">
        <ele>468</ele>
        <time>2021-10-14T23:56:51Z</time>
      </trkpt>
      <trkpt lat="45.75496" lon="4.50084">
        <ele>466</ele>
        <time>2021-10-14T23:56:56Z</time>
      </trkpt>
      <trkpt lat="45.75483" lon="4.50124">
        <ele>462</ele>
        <time>2021-10-14T23:57:02Z</time>
      </trkpt>
      <trkpt lat="45.75452" lon="4.50275">
        <ele>446</ele>
        <time>2021-10-14T23:57:21Z</time>
      </trkpt>
      <trkpt lat="45.75452" lon="4.50293">
        <ele>445</ele>
        <time>2021-10-14T23:57:24Z</time>
      </trkpt>
      <trkpt lat="45.75471" lon="4.50364">
        <ele>444</ele>
        <time>2021-10-14T23:57:33Z</time>
      </trkpt>
      <trkpt lat="45.75484" lon="4.50424">
        <ele>442</ele>
        <time>2021-10-14T23:57:41Z</time>
      </trkpt>
      <trkpt lat="45.75488" lon="4.50466">
        <ele>439</ele>
        <time>2021-10-14T23:57:46Z</time>
      </trkpt>
      <trkpt lat="45.75488" lon="4.50515">
        <ele>435</ele>
        <time>2021-10-14T23:57:52Z</time>
      </trkpt>
      <trkpt lat="45.75483" lon="4.5063">
        <ele>432</ele>
        <time>2021-10-14T23:58:07Z</time>
      </trkpt>
      <trkpt lat="45.75477" lon="4.5068">
        <ele>431</ele>
        <time>2021-10-14T23:58:13Z</time>
      </trkpt>
      <trkpt lat="45.75476" lon="4.50706">
        <ele>430</ele>
        <time>2021-10-14T23:58:16Z</time>
      </trkpt>
      <trkpt lat="45.7548" lon="4.50729">
        <ele>430</ele>
        <time>2021-10-14T23:58:19Z</time>
      </trkpt>
      <trkpt lat="45.7549" lon="4.50758">
        <ele>430</ele>
        <time>2021-10-14T23:58:23Z</time>
      </trkpt>
      <trkpt lat="45.75507" lon="4.50796">
        <ele>432</ele>
        <time>2021-10-14T23:58:29Z</time>
      </trkpt>
      <trkpt lat="45.75512" lon="4.50817">
        <ele>433</ele>
        <time>2021-10-14T23:58:31Z</time>
      </trkpt>
      <trkpt lat="45.75518" lon="4.50856">
        <ele>433</ele>
        <time>2021-10-14T23:58:36Z</time>
      </trkpt>
      <trkpt lat="45.75522" lon="4.50915">
        <ele>432</ele>
        <time>2021-10-14T23:58:44Z</time>
      </trkpt>
      <trkpt lat="45.75519" lon="4.50976">
        <ele>429</ele>
        <time>2021-10-14T23:58:51Z</time>
      </trkpt>
      <trkpt lat="45.75503" lon="4.511">
        <ele>426</ele>
        <time>2021-10-14T23:59:07Z</time>
      </trkpt>
      <trkpt lat="45.75488" lon="4.51156">
        <ele>425</ele>
        <time>2021-10-14T23:59:14Z</time>
      </trkpt>
      <trkpt lat="45.75479" lon="4.51179">
        <ele>425</ele>
        <time>2021-10-14T23:59:18Z</time>
      </trkpt>
      <trkpt lat="45.7546" lon="4.51221">
        <ele>425</ele>
        <time>2021-10-14T23:59:24Z</time>
      </trkpt>
      <trkpt lat="45.75459" lon="4.51241">
        <ele>425</ele>
        <time>2021-10-14T23:59:26Z</time>
      </trkpt>
      <trkpt lat="45.75462" lon="4.51259">
        <ele>425</ele>
        <time>2021-10-14T23:59:29Z</time>
      </trkpt>
      <trkpt lat="45.75475" lon="4.51286">
        <ele>425</ele>
        <time>2021-10-14T23:59:33Z</time>
      </trkpt>
      <trkpt lat="45.75494" lon="4.51315">
        <ele>424</ele>
        <time>2021-10-14T23:59:38Z</time>
      </trkpt>
      <trkpt lat="45.75505" lon="4.51329">
        <ele>424</ele>
        <time>2021-10-14T23:59:40Z</time>
      </trkpt>
      <trkpt lat="45.75515" lon="4.51335">
        <ele>425</ele>
        <time>2021-10-14T23:59:42Z</time>
      </trkpt>
      <trkpt lat="45.75536" lon="4.51334">
        <ele>427</ele>
        <time>2021-10-14T23:59:46Z</time>
      </trkpt>
      <trkpt lat="45.75543" lon="4.51342">
        <ele>427</ele>
        <time>2021-10-14T23:59:48Z</time>
      </trkpt>
      <trkpt lat="45.75547" lon="4.51355">
        <ele>427</ele>
        <time>2021-10-14T23:59:49Z</time>
      </trkpt>
      <trkpt lat="45.75556" lon="4.51411">
        <ele>424</ele>
        <time>2021-10-14T23:59:56Z</time>
      </trkpt>
      <trkpt lat="45.7556" lon="4.51491">
        <ele>420</ele>
        <time>2021-10-15T00:00:06Z</time>
      </trkpt>
      <trkpt lat="45.75563" lon="4.51501">
        <ele>419</ele>
        <time>2021-10-15T00:00:08Z</time>
      </trkpt>
      <trkpt lat="45.75573" lon="4.51519">
        <ele>419</ele>
        <time>2021-10-15T00:00:11Z</time>
      </trkpt>
      <trkpt lat="45.75594" lon="4.51547">
        <ele>418</ele>
        <time>2021-10-15T00:00:16Z</time>
      </trkpt>
      <trkpt lat="45.75603" lon="4.51553">
        <ele>418</ele>
        <time>2021-10-15T00:00:18Z</time>
      </trkpt>
      <trkpt lat="45.75656" lon="4.51557">
        <ele>422</ele>
        <time>2021-10-15T00:00:27Z</time>
      </trkpt>
      <trkpt lat="45.75675" lon="4.51569">
        <ele>421</ele>
        <time>2021-10-15T00:00:31Z</time>
      </trkpt>
      <trkpt lat="45.75697" lon="4.51588">
        <ele>420</ele>
        <time>2021-10-15T00:00:35Z</time>
      </trkpt>
      <trkpt lat="45.75719" lon="4.51621">
        <ele>417</ele>
        <time>2021-10-15T00:00:41Z</time>
      </trkpt>
      <trkpt lat="45.7573" lon="4.51634">
        <ele>416</ele>
        <time>2021-10-15T00:00:43Z</time>
      </trkpt>
      <trkpt lat="45.75761" lon="4.5166">
        <ele>416</ele>
        <time>2021-10-15T00:00:50Z</time>
      </trkpt>
      <trkpt lat="45.75818" lon="4.51718">
        <ele>418</ele>
        <time>2021-10-15T00:01:02Z</time>
      </trkpt>
      <trkpt lat="45.75877" lon="4.51803">
        <ele>416</ele>
        <time>2021-10-15T00:01:17Z</time>
      </trkpt>
      <trkpt lat="45.7591" lon="4.51882">
        <ele>412</ele>
        <time>2021-10-15T00:01:29Z</time>
      </trkpt>
      <trkpt lat="45.7592" lon="4.51913">
        <ele>409</ele>
        <time>2021-10-15T00:01:33Z</time>
      </trkpt>
      <trkpt lat="45.75919" lon="4.51922">
        <ele>408</ele>
        <time>2021-10-15T00:01:34Z</time>
      </trkpt>
      <trkpt lat="45.75913" lon="4.5193">
        <ele>408</ele>
        <time>2021-10-15T00:01:35Z</time>
      </trkpt>
      <trkpt lat="45.75863" lon="4.51954">
        <ele>410</ele>
        <time>2021-10-15T00:01:45Z</time>
      </trkpt>
      <trkpt lat="45.75853" lon="4.51974">
        <ele>411</ele>
        <time>2021-10-15T00:01:48Z</time>
      </trkpt>
      <trkpt lat="45.75838" lon="4.52023">
        <ele>412</ele>
        <time>2021-10-15T00:01:54Z</time>
      </trkpt>
      <trkpt lat="45.75835" lon="4.52091">
        <ele>412</ele>
        <time>2021-10-15T00:02:03Z</time>
      </trkpt>
      <trkpt lat="45.75827" lon="4.52149">
        <ele>415</ele>
        <time>2021-10-15T00:02:10Z</time>
      </trkpt>
      <trkpt lat="45.75809" lon="4.52231">
        <ele>422</ele>
        <time>2021-10-15T00:02:21Z</time>
      </trkpt>
      <trkpt lat="45.75795" lon="4.52274">
        <ele>426</ele>
        <time>2021-10-15T00:02:27Z</time>
      </trkpt>
      <trkpt lat="45.7576" lon="4.52389">
        <ele>425</ele>
        <time>2021-10-15T00:02:42Z</time>
      </trkpt>
      <trkpt lat="45.75738" lon="4.52441">
        <ele>429</ele>
        <time>2021-10-15T00:02:50Z</time>
      </trkpt>
      <trkpt lat="45.75723" lon="4.52482">
        <ele>435</ele>
        <time>2021-10-15T00:02:56Z</time>
      </trkpt>
      <trkpt lat="45.75681" lon="4.52559">
        <ele>440</ele>
        <time>2021-10-15T00:03:08Z</time>
      </trkpt>
      <trkpt lat="45.75614" lon="4.52571">
        <ele>449</ele>
        <time>2021-10-15T00:03:20Z</time>
      </trkpt>
      <trkpt lat="45.75566" lon="4.52566">
        <ele>455</ele>
        <time>2021-10-15T00:03:28Z</time>
      </trkpt>
      <trkpt lat="45.75522" lon="4.52563">
        <ele>459</ele>
        <time>2021-10-15T00:03:36Z</time>
      </trkpt>
      <trkpt lat="45.75491" lon="4.52585">
        <ele>456</ele>
        <time>2021-10-15T00:03:42Z</time>
      </trkpt>
      <trkpt lat="45.75447" lon="4.52633">
        <ele>450</ele>
        <time>2021-10-15T00:03:52Z</time>
      </trkpt>
      <trkpt lat="45.75418" lon="4.5266">
        <ele>450</ele>
        <time>2021-10-15T00:03:58Z</time>
      </trkpt>
      <trkpt lat="45.75378" lon="4.52738">
        <ele>447</ele>
        <time>2021-10-15T00:04:10Z</time>
      </trkpt>
      <trkpt lat="45.75337" lon="4.52804">
        <ele>447</ele>
        <time>2021-10-15T00:04:21Z</time>
      </trkpt>
      <trkpt lat="45.75318" lon="4.52837">
        <ele>446</ele>
        <time>2021-10-15T00:04:27Z</time>
      </trkpt>
      <trkpt lat="45.75303" lon="4.52893">
        <ele>443</ele>
        <time>2021-10-15T00:04:34Z</time>
      </trkpt>
      <trkpt lat="45.75305" lon="4.52983">
        <ele>439</ele>
        <time>2021-10-15T00:04:45Z</time>
      </trkpt>
      <trkpt lat="45.75305" lon="4.53012">
        <ele>438</ele>
        <time>2021-10-15T00:04:49Z</time>
      </trkpt>
      <trkpt lat="45.75299" lon="4.53038">
        <ele>438</ele>
        <time>2021-10-15T00:04:52Z</time>
      </trkpt>
      <trkpt lat="45.75287" lon="4.53065">
        <ele>438</ele>
        <time>2021-10-15T00:04:56Z</time>
      </trkpt>
      <trkpt lat="45.75272" lon="4.53082">
        <ele>437</ele>
        <time>2021-10-15T00:05:00Z</time>
      </trkpt>
      <trkpt lat="45.75257" lon="4.53109">
        <ele>437</ele>
        <time>2021-10-15T00:05:04Z</time>
      </trkpt>
      <trkpt lat="45.75244" lon="4.5314">
        <ele>437</ele>
        <time>2021-10-15T00:05:08Z</time>
      </trkpt>
      <trkpt lat="45.75235" lon="4.53179">
        <ele>436</ele>
        <time>2021-10-15T00:05:14Z</time>
      </trkpt>
      <trkpt lat="45.75217" lon="4.53221">
        <ele>435</ele>
        <time>2021-10-15T00:05:20Z</time>
      </trkpt>
      <trkpt lat="45.75204" lon="4.53291">
        <ele>431</ele>
        <time>2021-10-15T00:05:29Z</time>
      </trkpt>
      <trkpt lat="45.75199" lon="4.5335">
        <ele>427</ele>
        <time>2021-10-15T00:05:36Z</time>
      </trkpt>
      <trkpt lat="45.75194" lon="4.53391">
        <ele>424</ele>
        <time>2021-10-15T00:05:41Z</time>
      </trkpt>
      <trkpt lat="45.75179" lon="4.53446">
        <ele>420</ele>
        <time>2021-10-15T00:05:49Z</time>
      </trkpt>
      <trkpt lat="45.75169" lon="4.53462">
        <ele>419</ele>
        <time>2021-10-15T00:05:51Z</time>
      </trkpt>
      <trkpt lat="45.75163" lon="4.53486">
        <ele>418</ele>
        <time>2021-10-15T00:05:54Z</time>
      </trkpt>
      <trkpt lat="45.7511" lon="4.53634">
        <ele>414</ele>
        <time>2021-10-15T00:06:15Z</time>
      </trkpt>
      <trkpt lat="45.75108" lon="4.53652">
        <ele>414</ele>
        <time>2021-10-15T00:06:17Z</time>
      </trkpt>
      <trkpt lat="45.75112" lon="4.53674">
        <ele>414</ele>
        <time>2021-10-15T00:06:20Z</time>
      </trkpt>
      <trkpt lat="45.75143" lon="4.53757">
        <ele>415</ele>
        <time>2021-10-15T00:06:32Z</time>
      </trkpt>
      <trkpt lat="45.7516" lon="4.53838">
        <ele>411</ele>
        <time>2021-10-15T00:06:42Z</time>
      </trkpt>
      <trkpt lat="45.75176" lon="4.53878">
        <ele>408</ele>
        <time>2021-10-15T00:06:48Z</time>
      </trkpt>
      <trkpt lat="45.75234" lon="4.53956">
        <ele>401</ele>
        <time>2021-10-15T00:07:02Z</time>
      </trkpt>
      <trkpt lat="45.75257" lon="4.53977">
        <ele>398</ele>
        <time>2021-10-15T00:07:07Z</time>
      </trkpt>
      <trkpt lat="45.75323" lon="4.54018">
        <ele>392</ele>
        <time>2021-10-15T00:07:20Z</time>
      </trkpt>
      <trkpt lat="45.75371" lon="4.54034">
        <ele>384</ele>
        <time>2021-10-15T00:07:29Z</time>
      </trkpt>
      <trkpt lat="45.75385" lon="4.54054">
        <ele>380</ele>
        <time>2021-10-15T00:07:32Z</time>
      </trkpt>
      <trkpt lat="45.75387" lon="4.54067">
        <ele>379</ele>
        <time>2021-10-15T00:07:34Z</time>
      </trkpt>
      <trkpt lat="45.75388" lon="4.54087">
        <ele>378</ele>
        <time>2021-10-15T00:07:36Z</time>
      </trkpt>
      <trkpt lat="45.75365" lon="4.54165">
        <ele>375</ele>
        <time>2021-10-15T00:07:47Z</time>
      </trkpt>
      <trkpt lat="45.75362" lon="4.54193">
        <ele>372</ele>
        <time>2021-10-15T00:07:50Z</time>
      </trkpt>
      <trkpt lat="45.75364" lon="4.54217">
        <ele>370</ele>
        <time>2021-10-15T00:07:53Z</time>
      </trkpt>
      <trkpt lat="45.75361" lon="4.54237">
        <ele>368</ele>
        <time>2021-10-15T00:07:56Z</time>
      </trkpt>
      <trkpt lat="45.75356" lon="4.54256">
        <ele>367</ele>
        <time>2021-10-15T00:07:58Z</time>
      </trkpt>
      <trkpt lat="45.75348" lon="4.54274">
        <ele>366</ele>
        <time>2021-10-15T00:08:01Z</time>
      </trkpt>
      <trkpt lat="45.75323" lon="4.54312">
        <ele>364</ele>
        <time>2021-10-15T00:08:08Z</time>
      </trkpt>
      <trkpt lat="45.75262" lon="4.54435">
        <ele>350</ele>
        <time>2021-10-15T00:08:26Z</time>
      </trkpt>
      <trkpt lat="45.75247" lon="4.54453">
        <ele>347</ele>
        <time>2021-10-15T00:08:30Z</time>
      </trkpt>
      <trkpt lat="45.75144" lon="4.5455">
        <ele>328</ele>
        <time>2021-10-15T00:08:52Z</time>
      </trkpt>
      <trkpt lat="45.75118" lon="4.54534">
        <ele>326</ele>
        <time>2021-10-15T00:08:57Z</time>
      </trkpt>
      <trkpt lat="45.75111" lon="4.54527">
        <ele>326</ele>
        <time>2021-10-15T00:08:58Z</time>
      </trkpt>
      <trkpt lat="45.75117" lon="4.54551">
        <ele>323</ele>
        <time>2021-10-15T00:09:01Z</time>
      </trkpt>
      <trkpt lat="45.75132" lon="4.5459">
        <ele>321</ele>
        <time>2021-10-15T00:09:07Z</time>
      </trkpt>
      <trkpt lat="45.75166" lon="4.54628">
        <ele>319</ele>
        <time>2021-10-15T00:09:15Z</time>
      </trkpt>
      <trkpt lat="45.75181" lon="4.54639">
        <ele>316</ele>
        <time>2021-10-15T00:09:18Z</time>
      </trkpt>
      <trkpt lat="45.75198" lon="4.54639">
        <ele>315</ele>
        <time>2021-10-15T00:09:21Z</time>
      </trkpt>
      <trkpt lat="45.75225" lon="4.5463">
        <ele>316</ele>
        <time>2021-10-15T00:09:26Z</time>
      </trkpt>
      <trkpt lat="45.75224" lon="4.54644">
        <ele>313</ele>
        <time>2021-10-15T00:09:27Z</time>
      </trkpt>
      <trkpt lat="45.75188" lon="4.54689">
        <ele>310</ele>
        <time>2021-10-15T00:09:36Z</time>
      </trkpt>
      <trkpt lat="45.75168" lon="4.54692">
        <ele>310</ele>
        <time>2021-10-15T00:09:39Z</time>
      </trkpt>
      <trkpt lat="45.75162" lon="4.54698">
        <ele>310</ele>
        <time>2021-10-15T00:09:41Z</time>
      </trkpt>
      <trkpt lat="45.75155" lon="4.54688">
        <ele>310</ele>
        <time>2021-10-15T00:09:42Z</time>
      </trkpt>
      <trkpt lat="45.75072" lon="4.54751">
        <ele>306</ele>
        <time>2021-10-15T00:09:59Z</time>
      </trkpt>
      <trkpt lat="45.75051" lon="4.54767">
        <ele>308</ele>
        <time>2021-10-15T00:10:03Z</time>
      </trkpt>
      <trkpt lat="45.75014" lon="4.54795">
        <ele>309</ele>
        <time>2021-10-15T00:10:11Z</time>
      </trkpt>
      <trkpt lat="45.75012" lon="4.54808">
        <ele>309</ele>
        <time>2021-10-15T00:10:12Z</time>
      </trkpt>
      <trkpt lat="45.75015" lon="4.5482">
        <ele>310</ele>
        <time>2021-10-15T00:10:14Z</time>
      </trkpt>
      <trkpt lat="45.75056" lon="4.54929">
        <ele>311</ele>
        <time>2021-10-15T00:10:29Z</time>
      </trkpt>
      <trkpt lat="45.75063" lon="4.54961">
        <ele>311</ele>
        <time>2021-10-15T00:10:34Z</time>
      </trkpt>
      <trkpt lat="45.7506" lon="4.54987">
        <ele>311</ele>
        <time>2021-10-15T00:10:37Z</time>
      </trkpt>
      <trkpt lat="45.75059" lon="4.55009">
        <ele>312</ele>
        <time>2021-10-15T00:10:40Z</time>
      </trkpt>
      <trkpt lat="45.75096" lon="4.55059">
        <ele>312</ele>
        <time>2021-10-15T00:10:49Z</time>
      </trkpt>
      <trkpt lat="45.75106" lon="4.55079">
        <ele>311</ele>
        <time>2021-10-15T00:10:52Z</time>
      </trkpt>
      <trkpt lat="45.75148" lon="4.55182">
        <ele>313</ele>
        <time>2021-10-15T00:11:07Z</time>
      </trkpt>
      <trkpt lat="45.75211" lon="4.55353">
        <ele>317</ele>
        <time>2021-10-15T00:11:31Z</time>
      </trkpt>
      <trkpt lat="45.75241" lon="4.55424">
        <ele>318</ele>
        <time>2021-10-15T00:11:41Z</time>
      </trkpt>
      <trkpt lat="45.75285" lon="4.55518">
        <ele>320</ele>
        <time>2021-10-15T00:11:55Z</time>
      </trkpt>
      <trkpt lat="45.75344" lon="4.55636">
        <ele>319</ele>
        <time>2021-10-15T00:12:13Z</time>
      </trkpt>
      <trkpt lat="45.7536" lon="4.55697">
        <ele>321</ele>
        <time>2021-10-15T00:12:21Z</time>
      </trkpt>
      <trkpt lat="45.75363" lon="4.55743">
        <ele>322</ele>
        <time>2021-10-15T00:12:27Z</time>
      </trkpt>
      <trkpt lat="45.75345" lon="4.55817">
        <ele>324</ele>
        <time>2021-10-15T00:12:36Z</time>
      </trkpt>
      <trkpt lat="45.75323" lon="4.55882">
        <ele>325</ele>
        <time>2021-10-15T00:12:45Z</time>
      </trkpt>
      <trkpt lat="45.7529" lon="4.55941">
        <ele>327</ele>
        <time>2021-10-15T00:12:55Z</time>
      </trkpt>
      <trkpt lat="45.7524" lon="4.55961">
        <ele>332</ele>
        <time>2021-10-15T00:13:04Z</time>
      </trkpt>
      <trkpt lat="45.75194" lon="4.55956">
        <ele>334</ele>
        <time>2021-10-15T00:13:12Z</time>
      </trkpt>
      <trkpt lat="45.75153" lon="4.55972">
        <ele>335</ele>
        <time>2021-10-15T00:13:20Z</time>
      </trkpt>
      <trkpt lat="45.75067" lon="4.56026">
        <ele>337</ele>
        <time>2021-10-15T00:13:37Z</time>
      </trkpt>
      <trkpt lat="45.75058" lon="4.56033">
        <ele>338</ele>
        <time>2021-10-15T00:13:38Z</time>
      </trkpt>
      <trkpt lat="45.74995" lon="4.56106">
        <ele>342</ele>
        <time>2021-10-15T00:13:53Z</time>
      </trkpt>
      <trkpt lat="45.74921" lon="4.56198">
        <ele>347</ele>
        <time>2021-10-15T00:14:10Z</time>
      </trkpt>
      <trkpt lat="45.74826" lon="4.56338">
        <ele>357</ele>
        <time>2021-10-15T00:14:34Z</time>
      </trkpt>
      <trkpt lat="45.748" lon="4.5639">
        <ele>361</ele>
        <time>2021-10-15T00:14:42Z</time>
      </trkpt>
      <trkpt lat="45.7477" lon="4.56468">
        <ele>361</ele>
        <time>2021-10-15T00:14:53Z</time>
      </trkpt>
      <trkpt lat="45.74743" lon="4.56554">
        <ele>357</ele>
        <time>2021-10-15T00:15:05Z</time>
      </trkpt>
      <trkpt lat="45.74714" lon="4.56625">
        <ele>363</ele>
        <time>2021-10-15T00:15:15Z</time>
      </trkpt>
      <trkpt lat="45.74676" lon="4.56678">
        <ele>363</ele>
        <time>2021-10-15T00:15:25Z</time>
      </trkpt>
      <trkpt lat="45.74596" lon="4.56777">
        <ele>370</ele>
        <time>2021-10-15T00:15:44Z</time>
      </trkpt>
      <trkpt lat="45.74566" lon="4.56807">
        <ele>370</ele>
        <time>2021-10-15T00:15:50Z</time>
      </trkpt>
      <trkpt lat="45.74551" lon="4.56816">
        <ele>371</ele>
        <time>2021-10-15T00:15:53Z</time>
      </trkpt>
      <trkpt lat="45.74521" lon="4.56821">
        <ele>373</ele>
        <time>2021-10-15T00:15:58Z</time>
      </trkpt>
      <trkpt lat="45.74504" lon="4.56833">
        <ele>372</ele>
        <time>2021-10-15T00:16:02Z</time>
      </trkpt>
      <trkpt lat="45.74472" lon="4.5687">
        <ele>377</ele>
        <time>2021-10-15T00:16:09Z</time>
      </trkpt>
      <trkpt lat="45.74434" lon="4.56905">
        <ele>378</ele>
        <time>2021-10-15T00:16:17Z</time>
      </trkpt>
      <trkpt lat="45.74357" lon="4.56954">
        <ele>385</ele>
        <time>2021-10-15T00:16:32Z</time>
      </trkpt>
      <trkpt lat="45.74313" lon="4.56986">
        <ele>385</ele>
        <time>2021-10-15T00:16:41Z</time>
      </trkpt>
      <trkpt lat="45.7428" lon="4.57017">
        <ele>388</ele>
        <time>2021-10-15T00:16:48Z</time>
      </trkpt>
      <trkpt lat="45.74263" lon="4.57019">
        <ele>389</ele>
        <time>2021-10-15T00:16:51Z</time>
      </trkpt>
      <trkpt lat="45.74234" lon="4.57034">
        <ele>392</ele>
        <time>2021-10-15T00:16:56Z</time>
      </trkpt>
      <trkpt lat="45.74219" lon="4.57043">
        <ele>394</ele>
        <time>2021-10-15T00:16:59Z</time>
      </trkpt>
      <trkpt lat="45.74203" lon="4.57062">
        <ele>394</ele>
        <time>2021-10-15T00:17:03Z</time>
      </trkpt>
      <trkpt lat="45.74183" lon="4.57072">
        <ele>393</ele>
        <time>2021-10-15T00:17:07Z</time>
      </trkpt>
      <trkpt lat="45.74145" lon="4.57086">
        <ele>394</ele>
        <time>2021-10-15T00:17:14Z</time>
      </trkpt>
      <trkpt lat="45.7414" lon="4.57091">
        <ele>395</ele>
        <time>2021-10-15T00:17:15Z</time>
      </trkpt>
      <trkpt lat="45.74133" lon="4.57082">
        <ele>395</ele>
        <time>2021-10-15T00:17:17Z</time>
      </trkpt>
      <trkpt lat="45.74106" lon="4.57077">
        <ele>397</ele>
        <time>2021-10-15T00:17:21Z</time>
      </trkpt>
      <trkpt lat="45.74073" lon="4.57056">
        <ele>400</ele>
        <time>2021-10-15T00:17:28Z</time>
      </trkpt>
      <trkpt lat="45.73984" lon="4.56968">
        <ele>406</ele>
        <time>2021-10-15T00:17:47Z</time>
      </trkpt>
      <trkpt lat="45.73953" lon="4.56926">
        <ele>409</ele>
        <time>2021-10-15T00:17:55Z</time>
      </trkpt>
      <trkpt lat="45.73919" lon="4.56857">
        <ele>413</ele>
        <time>2021-10-15T00:18:05Z</time>
      </trkpt>
      <trkpt lat="45.73889" lon="4.56767">
        <ele>426</ele>
        <time>2021-10-15T00:18:17Z</time>
      </trkpt>
      <trkpt lat="45.73865" lon="4.56731">
        <ele>429</ele>
        <time>2021-10-15T00:18:24Z</time>
      </trkpt>
      <trkpt lat="45.73842" lon="4.56691">
        <ele>432</ele>
        <time>2021-10-15T00:18:30Z</time>
      </trkpt>
      <trkpt lat="45.7383" lon="4.56679">
        <ele>432</ele>
        <time>2021-10-15T00:18:33Z</time>
      </trkpt>
      <trkpt lat="45.73808" lon="4.56663">
        <ele>435</ele>
        <time>2021-10-15T00:18:37Z</time>
      </trkpt>
      <trkpt lat="45.73764" lon="4.56615">
        <ele>441</ele>
        <time>2021-10-15T00:18:47Z</time>
      </trkpt>
      <trkpt lat="45.7373" lon="4.56592">
        <ele>443</ele>
        <time>2021-10-15T00:18:54Z</time>
      </trkpt>
      <trkpt lat="45.73712" lon="4.56571">
        <ele>445</ele>
        <time>2021-10-15T00:18:58Z</time>
      </trkpt>
      <trkpt lat="45.7368" lon="4.56529">
        <ele>450</ele>
        <time>2021-10-15T00:19:05Z</time>
      </trkpt>
      <trkpt lat="45.73664" lon="4.56497">
        <ele>453</ele>
        <time>2021-10-15T00:19:10Z</time>
      </trkpt>
      <trkpt lat="45.73636" lon="4.56421">
        <ele>459</ele>
        <time>2021-10-15T00:19:21Z</time>
      </trkpt>
      <trkpt lat="45.73622" lon="4.56393">
        <ele>461</ele>
        <time>2021-10-15T00:19:25Z</time>
      </trkpt>
      <trkpt lat="45.73599" lon="4.56364">
        <ele>461</ele>
        <time>2021-10-15T00:19:31Z</time>
      </trkpt>
      <trkpt lat="45.73559" lon="4.56297">
        <ele>468</ele>
        <time>2021-10-15T00:19:42Z</time>
      </trkpt>
      <trkpt lat="45.73518" lon="4.56259">
        <ele>470</ele>
        <time>2021-10-15T00:19:50Z</time>
      </trkpt>
      <trkpt lat="45.73496" lon="4.56245">
        <ele>469</ele>
        <time>2021-10-15T00:19:55Z</time>
      </trkpt>
      <trkpt lat="45.73416" lon="4.56242">
        <ele>473</ele>
        <time>2021-10-15T00:20:09Z</time>
      </trkpt>
      <trkpt lat="45.73362" lon="4.56219">
        <ele>483</ele>
        <time>2021-10-15T00:20:19Z</time>
      </trkpt>
      <trkpt lat="45.73332" lon="4.562">
        <ele>487</ele>
        <time>2021-10-15T00:20:25Z</time>
      </trkpt>
      <trkpt lat="45.7329" lon="4.5618">
        <ele>491</ele>
        <time>2021-10-15T00:20:33Z</time>
      </trkpt>
      <trkpt lat="45.73256" lon="4.56142">
        <ele>496</ele>
        <time>2021-10-15T00:20:40Z</time>
      </trkpt>
      <trkpt lat="45.73205" lon="4.56069">
        <ele>508</ele>
        <time>2021-10-15T00:20:53Z</time>
      </trkpt>
      <trkpt lat="45.73148" lon="4.56011">
        <ele>517</ele>
        <time>2021-10-15T00:21:06Z</time>
      </trkpt>
      <trkpt lat="45.73134" lon="4.56002">
        <ele>517</ele>
        <time>2021-10-15T00:21:08Z</time>
      </trkpt>
      <trkpt lat="45.73094" lon="4.56007">
        <ele>518</ele>
        <time>2021-10-15T00:21:15Z</time>
      </trkpt>
      <trkpt lat="45.73076" lon="4.56015">
        <ele>520</ele>
        <time>2021-10-15T00:21:19Z</time>
      </trkpt>
      <trkpt lat="45.73066" lon="4.56011">
        <ele>520</ele>
        <time>2021-10-15T00:21:21Z</time>
      </trkpt>
      <trkpt lat="45.73022" lon="4.5597">
        <ele>525</ele>
        <time>2021-10-15T00:21:30Z</time>
      </trkpt>
      <trkpt lat="45.73013" lon="4.55952">
        <ele>525</ele>
        <time>2021-10-15T00:21:33Z</time>
      </trkpt>
      <trkpt lat="45.73006" lon="4.55903">
        <ele>527</ele>
        <time>2021-10-15T00:21:39Z</time>
      </trkpt>
      <trkpt lat="45.73008" lon="4.55891">
        <ele>529</ele>
        <time>2021-10-15T00:21:41Z</time>
      </trkpt>
      <trkpt lat="45.73014" lon="4.55883">
        <ele>530</ele>
        <time>2021-10-15T00:21:42Z</time>
      </trkpt>
      <trkpt lat="45.7302" lon="4.55883">
        <ele>531</ele>
        <time>2021-10-15T00:21:43Z</time>
      </trkpt>
      <trkpt lat="45.73042" lon="4.559">
        <ele>529</ele>
        <time>2021-10-15T00:21:47Z</time>
      </trkpt>
      <trkpt lat="45.73102" lon="4.55931">
        <ele>528</ele>
        <time>2021-10-15T00:21:59Z</time>
      </trkpt>
      <trkpt lat="45.73106" lon="4.55932">
        <ele>528</ele>
        <time>2021-10-15T00:22:00Z</time>
      </trkpt>
      <trkpt lat="45.7311" lon="4.55927">
        <ele>529</ele>
        <time>2021-10-15T00:22:01Z</time>
      </trkpt>
      <trkpt lat="45.73108" lon="4.55916">
        <ele>531</ele>
        <time>2021-10-15T00:22:02Z</time>
      </trkpt>
      <trkpt lat="45.73034" lon="4.55816">
        <ele>543</ele>
        <time>2021-10-15T00:22:20Z</time>
      </trkpt>
      <trkpt lat="45.72996" lon="4.55732">
        <ele>553</ele>
        <time>2021-10-15T00:22:32Z</time>
      </trkpt>
      <trkpt lat="45.72975" lon="4.55693">
        <ele>559</ele>
        <time>2021-10-15T00:22:39Z</time>
      </trkpt>
      <trkpt lat="45.72951" lon="4.55627">
        <ele>569</ele>
        <time>2021-10-15T00:22:48Z</time>
      </trkpt>
      <trkpt lat="45.7293" lon="4.55603">
        <ele>570</ele>
        <time>2021-10-15T00:22:53Z</time>
      </trkpt>
      <trkpt lat="45.72889" lon="4.5559">
        <ele>576</ele>
        <time>2021-10-15T00:23:00Z</time>
      </trkpt>
      <trkpt lat="45.72876" lon="4.55588">
        <ele>578</ele>
        <time>2021-10-15T00:23:02Z</time>
      </trkpt>
      <trkpt lat="45.72866" lon="4.55599">
        <ele>578</ele>
        <time>2021-10-15T00:23:05Z</time>
      </trkpt>
      <trkpt lat="45.7286" lon="4.55622">
        <ele>576</ele>
        <time>2021-10-15T00:23:08Z</time>
      </trkpt>
      <trkpt lat="45.72852" lon="4.5564">
        <ele>575</ele>
        <time>2021-10-15T00:23:10Z</time>
      </trkpt>
      <trkpt lat="45.7284" lon="4.55645">
        <ele>576</ele>
        <time>2021-10-15T00:23:13Z</time>
      </trkpt>
      <trkpt lat="45.72821" lon="4.55648">
        <ele>580</ele>
        <time>2021-10-15T00:23:16Z</time>
      </trkpt>
      <trkpt lat="45.72813" lon="4.55654">
        <ele>582</ele>
        <time>2021-10-15T00:23:18Z</time>
      </trkpt>
      <trkpt lat="45.72808" lon="4.5567">
        <ele>581</ele>
        <time>2021-10-15T00:23:20Z</time>
      </trkpt>
      <trkpt lat="45.728" lon="4.55699">
        <ele>580</ele>
        <time>2021-10-15T00:23:24Z</time>
      </trkpt>
      <trkpt lat="45.72791" lon="4.5571">
        <ele>581</ele>
        <time>2021-10-15T00:23:26Z</time>
      </trkpt>
      <trkpt lat="45.72703" lon="4.55727">
        <ele>600</ele>
        <time>2021-10-15T00:23:42Z</time>
      </trkpt>
      <trkpt lat="45.72678" lon="4.55737">
        <ele>604</ele>
        <time>2021-10-15T00:23:46Z</time>
      </trkpt>
      <trkpt lat="45.7265" lon="4.55752">
        <ele>610</ele>
        <time>2021-10-15T00:23:51Z</time>
      </trkpt>
      <trkpt lat="45.7261" lon="4.55785">
        <ele>622</ele>
        <time>2021-10-15T00:24:00Z</time>
      </trkpt>
      <trkpt lat="45.72604" lon="4.55784">
        <ele>625</ele>
        <time>2021-10-15T00:24:01Z</time>
      </trkpt>
      <trkpt lat="45.72599" lon="4.55778">
        <ele>627</ele>
        <time>2021-10-15T00:24:02Z</time>
      </trkpt>
      <trkpt lat="45.726" lon="4.55767">
        <ele>628</ele>
        <time>2021-10-15T00:24:03Z</time>
      </trkpt>
      <trkpt lat="45.7263" lon="4.55734">
        <ele>623</ele>
        <time>2021-10-15T00:24:10Z</time>
      </trkpt>
      <trkpt lat="45.72646" lon="4.55707">
        <ele>624</ele>
        <time>2021-10-15T00:24:14Z</time>
      </trkpt>
      <trkpt lat="45.72676" lon="4.55633">
        <ele>628</ele>
        <time>2021-10-15T00:24:25Z</time>
      </trkpt>
      <trkpt lat="45.72701" lon="4.5558">
        <ele>630</ele>
        <time>2021-10-15T00:24:33Z</time>
      </trkpt>
      <trkpt lat="45.72708" lon="4.55551">
        <ele>631</ele>
        <time>2021-10-15T00:24:37Z</time>
      </trkpt>
      <trkpt lat="45.72712" lon="4.55492">
        <ele>639</ele>
        <time>2021-10-15T00:24:44Z</time>
      </trkpt>
      <trkpt lat="45.72707" lon="4.55487">
        <ele>642</ele>
        <time>2021-10-15T00:24:45Z</time>
      </trkpt>
      <trkpt lat="45.727" lon="4.55489">
        <ele>644</ele>
        <time>2021-10-15T00:24:47Z</time>
      </trkpt>
      <trkpt lat="45.72689" lon="4.55501">
        <ele>646</ele>
        <time>2021-10-15T00:24:49Z</time>
      </trkpt>
      <trkpt lat="45.72671" lon="4.55538">
        <ele>647</ele>
        <time>2021-10-15T00:24:55Z</time>
      </trkpt>
      <trkpt lat="45.72617" lon="4.55609">
        <ele>661</ele>
        <time>2021-10-15T00:25:08Z</time>
      </trkpt>
      <trkpt lat="45.72552" lon="4.55668">
        <ele>670</ele>
        <time>2021-10-15T00:25:21Z</time>
      </trkpt>
      <trkpt lat="45.72532" lon="4.55671">
        <ele>674</ele>
        <time>2021-10-15T00:25:25Z</time>
      </trkpt>
      <trkpt lat="45.72499" lon="4.5567">
        <ele>683</ele>
        <time>2021-10-15T00:25:31Z</time>
      </trkpt>
      <trkpt lat="45.72482" lon="4.55679">
        <ele>685</ele>
        <time>2021-10-15T00:25:34Z</time>
      </trkpt>
      <trkpt lat="45.72441" lon="4.55708">
        <ele>690</ele>
        <time>2021-10-15T00:25:42Z</time>
      </trkpt>
      <trkpt lat="45.72433" lon="4.55708">
        <ele>692</ele>
        <time>2021-10-15T00:25:44Z</time>
      </trkpt>
      <trkpt lat="45.72431" lon="4.55699">
        <ele>694</ele>
        <time>2021-10-15T00:25:45Z</time>
      </trkpt>
      <trkpt lat="45.72439" lon="4.55677">
        <ele>696</ele>
        <time>2021-10-15T00:25:48Z</time>
      </trkpt>
      <trkpt lat="45.72488" lon="4.55629">
        <ele>699</ele>
        <time>2021-10-15T00:25:58Z</time>
      </trkpt>
      <trkpt lat="45.72512" lon="4.55614">
        <ele>698</ele>
        <time>2021-10-15T00:26:03Z</time>
      </trkpt>
      <trkpt lat="45.72536" lon="4.5556">
        <ele>705</ele>
        <time>2021-10-15T00:26:11Z</time>
      </trkpt>
      <trkpt lat="45.72568" lon="4.55501">
        <ele>706</ele>
        <time>2021-10-15T00:26:20Z</time>
      </trkpt>
      <trkpt lat="45.72574" lon="4.55464">
        <ele>707</ele>
        <time>2021-10-15T00:26:25Z</time>
      </trkpt>
      <trkpt lat="45.72581" lon="4.55402">
        <ele>707</ele>
        <time>2021-10-15T00:26:33Z</time>
      </trkpt>
      <trkpt lat="45.72577" lon="4.55366">
        <ele>707</ele>
        <time>2021-10-15T00:26:37Z</time>
      </trkpt>
      <trkpt lat="45.72563" lon="4.55314">
        <ele>709</ele>
        <time>2021-10-15T00:26:44Z</time>
      </trkpt>
      <trkpt lat="45.72533" lon="4.55268">
        <ele>713</ele>
        <time>2021-10-15T00:26:52Z</time>
      </trkpt>
      <trkpt lat="45.72505" lon="4.55237">
        <ele>714</ele>
        <time>2021-10-15T00:26:58Z</time>
      </trkpt>
      <trkpt lat="45.72473" lon="4.55213">
        <ele>719</ele>
        <time>2021-10-15T00:27:05Z</time>
      </trkpt>
      <trkpt lat="45.72409" lon="4.5518">
        <ele>731</ele>
        <time>2021-10-15T00:27:17Z</time>
      </trkpt>
      <trkpt lat="45.72368" lon="4.55145">
        <ele>731</ele>
        <time>2021-10-15T00:27:25Z</time>
      </trkpt>
      <trkpt lat="45.72322" lon="4.55122">
        <ele>733</ele>
        <time>2021-10-15T00:27:34Z</time>
      </trkpt>
      <trkpt lat="45.72275" lon="4.55122">
        <ele>736</ele>
        <time>2021-10-15T00:27:42Z</time>
      </trkpt>
      <trkpt lat="45.72242" lon="4.55124">
        <ele>738</ele>
        <time>2021-10-15T00:27:48Z</time>
      </trkpt>
      <trkpt lat="45.72225" lon="4.5512">
        <ele>739</ele>
        <time>2021-10-15T00:27:51Z</time>
      </trkpt>
      <trkpt lat="45.72213" lon="4.55125">
        <ele>742</ele>
        <time>2021-10-15T00:27:54Z</time>
      </trkpt>
      <trkpt lat="45.72221" lon="4.55132">
        <ele>743</ele>
        <time>2021-10-15T00:27:55Z</time>
      </trkpt>
      <trkpt lat="45.72244" lon="4.55147">
        <ele>746</ele>
        <time>2021-10-15T00:28:00Z</time>
      </trkpt>
      <trkpt lat="45.72293" lon="4.55161">
        <ele>747</ele>
        <time>2021-10-15T00:28:09Z</time>
      </trkpt>
      <trkpt lat="45.72324" lon="4.55179">
        <ele>749</ele>
        <time>2021-10-15T00:28:15Z</time>
      </trkpt>
      <trkpt lat="45.72343" lon="4.55194">
        <ele>750</ele>
        <time>2021-10-15T00:28:18Z</time>
      </trkpt>
      <trkpt lat="45.72362" lon="4.55216">
        <ele>750</ele>
        <time>2021-10-15T00:28:23Z</time>
      </trkpt>
      <trkpt lat="45.72385" lon="4.55255">
        <ele>753</ele>
        <time>2021-10-15T00:28:29Z</time>
      </trkpt>
      <trkpt lat="45.72405" lon="4.55298">
        <ele>755</ele>
        <time>2021-10-15T00:28:36Z</time>
      </trkpt>
      <trkpt lat="45.72422" lon="4.55338">
        <ele>756</ele>
        <time>2021-10-15T00:28:41Z</time>
      </trkpt>
      <trkpt lat="45.72427" lon="4.55371">
        <ele>756</ele>
        <time>2021-10-15T00:28:46Z</time>
      </trkpt>
      <trkpt lat="45.72424" lon="4.55402">
        <ele>758</ele>
        <time>2021-10-15T00:28:49Z</time>
      </trkpt>
      <trkpt lat="45.72413" lon="4.55426">
        <ele>761</ele>
        <time>2021-10-15T00:28:53Z</time>
      </trkpt>
      <trkpt lat="45.72387" lon="4.55463">
        <ele>762</ele>
        <time>2021-10-15T00:29:00Z</time>
      </trkpt>
      <trkpt lat="45.72367" lon="4.55471">
        <ele>765</ele>
        <time>2021-10-15T00:29:03Z</time>
      </trkpt>
      <trkpt lat="45.72303" lon="4.55491">
        <ele>777</ele>
        <time>2021-10-15T00:29:15Z</time>
      </trkpt>
      <trkpt lat="45.72274" lon="4.55511">
        <ele>782</ele>
        <time>2021-10-15T00:29:21Z</time>
      </trkpt>
      <trkpt lat="45.72245" lon="4.55535">
        <ele>785</ele>
        <time>2021-10-15T00:29:27Z</time>
      </trkpt>
      <trkpt lat="45.7223" lon="4.55553">
        <ele>787</ele>
        <time>2021-10-15T00:29:30Z</time>
      </trkpt>
      <trkpt lat="45.72213" lon="4.55595">
        <ele>786</ele>
        <time>2021-10-15T00:29:36Z</time>
      </trkpt>
      <trkpt lat="45.72182" lon="4.55745">
        <ele>786</ele>
        <time>2021-10-15T00:29:55Z</time>
      </trkpt>
      <trkpt lat="45.72175" lon="4.55798">
        <ele>790</ele>
        <time>2021-10-15T00:30:02Z</time>
      </trkpt>
      <trkpt lat="45.72171" lon="4.55886">
        <ele>796</ele>
        <time>2021-10-15T00:30:13Z</time>
      </trkpt>
      <trkpt lat="45.72175" lon="4.55908">
        <ele>795</ele>
        <time>2021-10-15T00:30:16Z</time>
      </trkpt>
      <trkpt lat="45.72199" lon="4.56007">
        <ele>794</ele>
        <time>2021-10-15T00:30:29Z</time>
      </trkpt>
      <trkpt lat="45.72208" lon="4.5606">
        <ele>794</ele>
        <time>2021-10-15T00:30:36Z</time>
      </trkpt>
      <trkpt lat="45.72213" lon="4.56108">
        <ele>794</ele>
        <time>2021-10-15T00:30:42Z</time>
      </trkpt>
      <trkpt lat="45.72213" lon="4.56148">
        <ele>794</ele>
        <time>2021-10-15T00:30:47Z</time>
      </trkpt>
      <trkpt lat="45.72204" lon="4.56182">
        <ele>796</ele>
        <time>2021-10-15T00:30:51Z</time>
      </trkpt>
      <trkpt lat="45.72189" lon="4.56217">
        <ele>797</ele>
        <time>2021-10-15T00:30:56Z</time>
      </trkpt>
      <trkpt lat="45.72149" lon="4.56278">
        <ele>806</ele>
        <time>2021-10-15T00:31:07Z</time>
      </trkpt>
      <trkpt lat="45.72126" lon="4.56322">
        <ele>811</ele>
        <time>2021-10-15T00:31:14Z</time>
      </trkpt>
      <trkpt lat="45.72109" lon="4.56373">
        <ele>813</ele>
        <time>2021-10-15T00:31:21Z</time>
      </trkpt>
      <trkpt lat="45.72099" lon="4.56434">
        <ele>813</ele>
        <time>2021-10-15T00:31:28Z</time>
      </trkpt>
      <trkpt lat="45.72092" lon="4.56506">
        <ele>811</ele>
        <time>2021-10-15T00:31:37Z</time>
      </trkpt>
      <trkpt lat="45.72077" lon="4.5669">
        <ele>812</ele>
        <time>2021-10-15T00:32:00Z</time>
      </trkpt>
      <trkpt lat="45.72076" lon="4.56729">
        <ele>813</ele>
        <time>2021-10-15T00:32:05Z</time>
      </trkpt>
      <trkpt lat="45.72077" lon="4.56762">
        <ele>813</ele>
        <time>2021-10-15T00:32:09Z</time>
      </trkpt>
      <trkpt lat="45.72083" lon="4.568">
        <ele>812</ele>
        <time>2021-10-15T00:32:14Z</time>
      </trkpt>
      <trkpt lat="45.72082" lon="4.56818">
        <ele>812</ele>
        <time>2021-10-15T00:32:16Z</time>
      </trkpt>
      <trkpt lat="45.72067" lon="4.56866">
        <ele>811</ele>
        <time>2021-10-15T00:32:23Z</time>
      </trkpt>
      <trkpt lat="45.72059" lon="4.56907">
        <ele>809</ele>
        <time>2021-10-15T00:32:28Z</time>
      </trkpt>
      <trkpt lat="45.72056" lon="4.5697">
        <ele>806</ele>
        <time>2021-10-15T00:32:36Z</time>
      </trkpt>
      <trkpt lat="45.72055" lon="4.57028">
        <ele>804</ele>
        <time>2021-10-15T00:32:43Z</time>
      </trkpt>
      <trkpt lat="45.7205" lon="4.57072">
        <ele>801</ele>
        <time>2021-10-15T00:32:49Z</time>
      </trkpt>
      <trkpt lat="45.72037" lon="4.57141">
        <ele>799</ele>
        <time>2021-10-15T00:32:58Z</time>
      </trkpt>
      <trkpt lat="45.72033" lon="4.57157">
        <ele>798</ele>
        <time>2021-10-15T00:33:00Z</time>
      </trkpt>
      <trkpt lat="45.7202" lon="4.57186">
        <ele>796</ele>
        <time>2021-10-15T00:33:04Z</time>
      </trkpt>
      <trkpt lat="45.72004" lon="4.57214">
        <ele>795</ele>
        <time>2021-10-15T00:33:09Z</time>
      </trkpt>
      <trkpt lat="45.71977" lon="4.57256">
        <ele>792</ele>
        <time>2021-10-15T00:33:16Z</time>
      </trkpt>
      <trkpt lat="45.71967" lon="4.57276">
        <ele>791</ele>
        <time>2021-10-15T00:33:19Z</time>
      </trkpt>
      <trkpt lat="45.71946" lon="4.5733">
        <ele>789</ele>
        <time>2021-10-15T00:33:26Z</time>
      </trkpt>
      <trkpt lat="45.71944" lon="4.57351">
        <ele>788</ele>
        <time>2021-10-15T00:33:29Z</time>
      </trkpt>
      <trkpt lat="45.71945" lon="4.57367">
        <ele>788</ele>
        <time>2021-10-15T00:33:31Z</time>
      </trkpt>
      <trkpt lat="45.71955" lon="4.57414">
        <ele>791</ele>
        <time>2021-10-15T00:33:37Z</time>
      </trkpt>
      <trkpt lat="45.7196" lon="4.57482">
        <ele>792</ele>
        <time>2021-10-15T00:33:46Z</time>
      </trkpt>
      <trkpt lat="45.71956" lon="4.57495">
        <ele>791</ele>
        <time>2021-10-15T00:33:47Z</time>
      </trkpt>
      <trkpt lat="45.7195" lon="4.57502">
        <ele>790</ele>
        <time>2021-10-15T00:33:49Z</time>
      </trkpt>
      <trkpt lat="45.71944" lon="4.57504">
        <ele>789</ele>
        <time>2021-10-15T00:33:50Z</time>
      </trkpt>
      <trkpt lat="45.71937" lon="4.57503">
        <ele>788</ele>
        <time>2021-10-15T00:33:51Z</time>
      </trkpt>
      <trkpt lat="45.71931" lon="4.575">
        <ele>787</ele>
        <time>2021-10-15T00:33:52Z</time>
      </trkpt>
      <trkpt lat="45.71857" lon="4.57402">
        <ele>779</ele>
        <time>2021-10-15T00:34:10Z</time>
      </trkpt>
      <trkpt lat="45.71847" lon="4.57391">
        <ele>777</ele>
        <time>2021-10-15T00:34:13Z</time>
      </trkpt>
      <trkpt lat="45.71826" lon="4.5738">
        <ele>775</ele>
        <time>2021-10-15T00:34:16Z</time>
      </trkpt>
      <trkpt lat="45.71792" lon="4.57371">
        <ele>772</ele>
        <time>2021-10-15T00:34:23Z</time>
      </trkpt>
      <trkpt lat="45.71759" lon="4.57371">
        <ele>769</ele>
        <time>2021-10-15T00:34:29Z</time>
      </trkpt>
      <trkpt lat="45.71736" lon="4.57379">
        <ele>769</ele>
        <time>2021-10-15T00:34:33Z</time>
      </trkpt>
      <trkpt lat="45.71703" lon="4.57395">
        <ele>768</ele>
        <time>2021-10-15T00:34:39Z</time>
      </trkpt>
      <trkpt lat="45.7168" lon="4.57411">
        <ele>767</ele>
        <time>2021-10-15T00:34:43Z</time>
      </trkpt>
      <trkpt lat="45.71651" lon="4.57436">
        <ele>766</ele>
        <time>2021-10-15T00:34:49Z</time>
      </trkpt>
      <trkpt lat="45.71616" lon="4.57461">
        <ele>763</ele>
        <time>2021-10-15T00:34:56Z</time>
      </trkpt>
      <trkpt lat="45.71599" lon="4.57475">
        <ele>761</ele>
        <time>2021-10-15T00:35:00Z</time>
      </trkpt>
      <trkpt lat="45.71568" lon="4.57508">
        <ele>757</ele>
        <time>2021-10-15T00:35:07Z</time>
      </trkpt>
      <trkpt lat="45.7154" lon="4.57545">
        <ele>755</ele>
        <time>2021-10-15T00:35:14Z</time>
      </trkpt>
      <trkpt lat="45.71525" lon="4.57572">
        <ele>754</ele>
        <time>2021-10-15T00:35:18Z</time>
      </trkpt>
      <trkpt lat="45.71512" lon="4.57603">
        <ele>752</ele>
        <time>2021-10-15T00:35:22Z</time>
      </trkpt>
      <trkpt lat="45.71492" lon="4.57666">
        <ele>749</ele>
        <time>2021-10-15T00:35:31Z</time>
      </trkpt>
      <trkpt lat="45.71489" lon="4.57688">
        <ele>749</ele>
        <time>2021-10-15T00:35:34Z</time>
      </trkpt>
      <trkpt lat="45.71491" lon="4.577">
        <ele>750</ele>
        <time>2021-10-15T00:35:35Z</time>
      </trkpt>
      <trkpt lat="45.71502" lon="4.57747">
        <ele>752</ele>
        <time>2021-10-15T00:35:41Z</time>
      </trkpt>
      <trkpt lat="45.71504" lon="4.57764">
        <ele>753</ele>
        <time>2021-10-15T00:35:44Z</time>
      </trkpt>
      <trkpt lat="45.71505" lon="4.57782">
        <ele>754</ele>
        <time>2021-10-15T00:35:46Z</time>
      </trkpt>
      <trkpt lat="45.71502" lon="4.57796">
        <ele>754</ele>
        <time>2021-10-15T00:35:48Z</time>
      </trkpt>
      <trkpt lat="45.71498" lon="4.57805">
        <ele>754</ele>
        <time>2021-10-15T00:35:49Z</time>
      </trkpt>
      <trkpt lat="45.71494" lon="4.5781">
        <ele>754</ele>
        <time>2021-10-15T00:35:50Z</time>
      </trkpt>
      <trkpt lat="45.71486" lon="4.57813">
        <ele>754</ele>
        <time>2021-10-15T00:35:51Z</time>
      </trkpt>
      <trkpt lat="45.71479" lon="4.57811">
        <ele>755</ele>
        <time>2021-10-15T00:35:53Z</time>
      </trkpt>
      <trkpt lat="45.71475" lon="4.57801">
        <ele>754</ele>
        <time>2021-10-15T00:35:54Z</time>
      </trkpt>
      <trkpt lat="45.71466" lon="4.57803">
        <ele>754</ele>
        <time>2021-10-15T00:35:56Z</time>
      </trkpt>
      <trkpt lat="45.71453" lon="4.57798">
        <ele>754</ele>
        <time>2021-10-15T00:35:58Z</time>
      </trkpt>
      <trkpt lat="45.7144" lon="4.57789">
        <ele>752</ele>
        <time>2021-10-15T00:36:01Z</time>
      </trkpt>
      <trkpt lat="45.71398" lon="4.57742">
        <ele>743</ele>
        <time>2021-10-15T00:36:10Z</time>
      </trkpt>
      <trkpt lat="45.71381" lon="4.57735">
        <ele>742</ele>
        <time>2021-10-15T00:36:13Z</time>
      </trkpt>
      <trkpt lat="45.71337" lon="4.57735">
        <ele>741</ele>
        <time>2021-10-15T00:36:21Z</time>
      </trkpt>
      <trkpt lat="45.7132" lon="4.57738">
        <ele>740</ele>
        <time>2021-10-15T00:36:24Z</time>
      </trkpt>
      <trkpt lat="45.71296" lon="4.57749">
        <ele>738</ele>
        <time>2021-10-15T00:36:29Z</time>
      </trkpt>
      <trkpt lat="45.71274" lon="4.57762">
        <ele>738</ele>
        <time>2021-10-15T00:36:33Z</time>
      </trkpt>
      <trkpt lat="45.71236" lon="4.57798">
        <ele>738</ele>
        <time>2021-10-15T00:36:41Z</time>
      </trkpt>
      <trkpt lat="45.7115" lon="4.57904">
        <ele>731</ele>
        <time>2021-10-15T00:37:01Z</time>
      </trkpt>
      <trkpt lat="45.71092" lon="4.57961">
        <ele>728</ele>
        <time>2021-10-15T00:37:14Z</time>
      </trkpt>
      <trkpt lat="45.71034" lon="4.5801">
        <ele>723</ele>
        <time>2021-10-15T00:37:26Z</time>
      </trkpt>
      <trkpt lat="45.70998" lon="4.58054">
        <ele>721</ele>
        <time>2021-10-15T00:37:34Z</time>
      </trkpt>
      <trkpt lat="45.70975" lon="4.58095">
        <ele>721</ele>
        <time>2021-10-15T00:37:41Z</time>
      </trkpt>
      <trkpt lat="45.70957" lon="4.58134">
        <ele>720</ele>
        <time>2021-10-15T00:37:46Z</time>
      </trkpt>
      <trkpt lat="45.70942" lon="4.58179">
        <ele>719</ele>
        <time>2021-10-15T00:37:53Z</time>
      </trkpt>
      <trkpt lat="45.70893" lon="4.58344">
        <ele>712</ele>
        <time>2021-10-15T00:38:15Z</time>
      </trkpt>
      <trkpt lat="45.70852" lon="4.58495">
        <ele>707</ele>
        <time>2021-10-15T00:38:35Z</time>
      </trkpt>
      <trkpt lat="45.70839" lon="4.58547">
        <ele>705</ele>
        <time>2021-10-15T00:38:42Z</time>
      </trkpt>
      <trkpt lat="45.7083" lon="4.58597">
        <ele>704</ele>
        <time>2021-10-15T00:38:48Z</time>
      </trkpt>
      <trkpt lat="45.70813" lon="4.58755">
        <ele>705</ele>
        <time>2021-10-15T00:39:08Z</time>
      </trkpt>
      <trkpt lat="45.70803" lon="4.5886">
        <ele>703</ele>
        <time>2021-10-15T00:39:21Z</time>
      </trkpt>
      <trkpt lat="45.70802" lon="4.58882">
        <ele>703</ele>
        <time>2021-10-15T00:39:24Z</time>
      </trkpt>
      <trkpt lat="45.70806" lon="4.58908">
        <ele>702</ele>
        <time>2021-10-15T00:39:27Z</time>
      </trkpt>
      <trkpt lat="45.708" lon="4.58911">
        <ele>703</ele>
        <time>2021-10-15T00:39:29Z</time>
      </trkpt>
      <trkpt lat="45.70791" lon="4.58915">
        <ele>704</ele>
        <time>2021-10-15T00:39:30Z</time>
      </trkpt>
      <trkpt lat="45.70788" lon="4.58917">
        <ele>704</ele>
        <time>2021-10-15T00:39:31Z</time>
      </trkpt>
      <trkpt lat="45.70787" lon="4.58923">
        <ele>704</ele>
        <time>2021-10-15T00:39:32Z</time>
      </trkpt>
      <trkpt lat="45.70788" lon="4.58935">
        <ele>704</ele>
        <time>2021-10-15T00:39:33Z</time>
      </trkpt>
      <trkpt lat="45.70796" lon="4.5896">
        <ele>704</ele>
        <time>2021-10-15T00:39:37Z</time>
      </trkpt>
      <trkpt lat="45.7082" lon="4.58999">
        <ele>701</ele>
        <time>2021-10-15T00:39:43Z</time>
      </trkpt>
      <trkpt lat="45.70823" lon="4.59021">
        <ele>702</ele>
        <time>2021-10-15T00:39:46Z</time>
      </trkpt>
      <trkpt lat="45.70827" lon="4.59027">
        <ele>702</ele>
        <time>2021-10-15T00:39:47Z</time>
      </trkpt>
      <trkpt lat="45.70837" lon="4.59031">
        <ele>701</ele>
        <time>2021-10-15T00:39:49Z</time>
      </trkpt>
      <trkpt lat="45.7084" lon="4.59039">
        <ele>702</ele>
        <time>2021-10-15T00:39:50Z</time>
      </trkpt>
      <trkpt lat="45.70848" lon="4.59057">
        <ele>702</ele>
        <time>2021-10-15T00:39:52Z</time>
      </trkpt>
      <trkpt lat="45.7084" lon="4.59039">
        <ele>702</ele>
        <time>2021-10-15T00:39:55Z</time>
      </trkpt>
      <trkpt lat="45.70837" lon="4.59031">
        <ele>701</ele>
        <time>2021-10-15T00:39:56Z</time>
      </trkpt>
      <trkpt lat="45.70827" lon="4.59027">
        <ele>702</ele>
        <time>2021-10-15T00:39:58Z</time>
      </trkpt>
      <trkpt lat="45.70823" lon="4.59021">
        <ele>702</ele>
        <time>2021-10-15T00:39:59Z</time>
      </trkpt>
      <trkpt lat="45.7082" lon="4.58999">
        <ele>701</ele>
        <time>2021-10-15T00:40:02Z</time>
      </trkpt>
      <trkpt lat="45.70796" lon="4.5896">
        <ele>704</ele>
        <time>2021-10-15T00:40:08Z</time>
      </trkpt>
      <trkpt lat="45.70788" lon="4.58935">
        <ele>704</ele>
        <time>2021-10-15T00:40:12Z</time>
      </trkpt>
      <trkpt lat="45.70787" lon="4.58923">
        <ele>704</ele>
        <time>2021-10-15T00:40:13Z</time>
      </trkpt>
      <trkpt lat="45.70788" lon="4.58917">
        <ele>704</ele>
        <time>2021-10-15T00:40:14Z</time>
      </trkpt>
      <trkpt lat="45.70791" lon="4.58915">
        <ele>704</ele>
        <time>2021-10-15T00:40:15Z</time>
      </trkpt>
      <trkpt lat="45.708" lon="4.58911">
        <ele>703</ele>
        <time>2021-10-15T00:40:16Z</time>
      </trkpt>
      <trkpt lat="45.70806" lon="4.58908">
        <ele>702</ele>
        <time>2021-10-15T00:40:17Z</time>
      </trkpt>
      <trkpt lat="45.70802" lon="4.58882">
        <ele>703</ele>
        <time>2021-10-15T00:40:21Z</time>
      </trkpt>
      <trkpt lat="45.70803" lon="4.5886">
        <ele>703</ele>
        <time>2021-10-15T00:40:23Z</time>
      </trkpt>
      <trkpt lat="45.7082" lon="4.58689">
        <ele>704</ele>
        <time>2021-10-15T00:40:45Z</time>
      </trkpt>
      <trkpt lat="45.7083" lon="4.58597">
        <ele>704</ele>
        <time>2021-10-15T00:40:56Z</time>
      </trkpt>
      <trkpt lat="45.70839" lon="4.58547">
        <ele>705</ele>
        <time>2021-10-15T00:41:03Z</time>
      </trkpt>
      <trkpt lat="45.70852" lon="4.58495">
        <ele>707</ele>
        <time>2021-10-15T00:41:10Z</time>
      </trkpt>
      <trkpt lat="45.70869" lon="4.58511">
        <ele>710</ele>
        <time>2021-10-15T00:41:13Z</time>
      </trkpt>
      <trkpt lat="45.70896" lon="4.58604">
        <ele>717</ele>
        <time>2021-10-15T00:41:26Z</time>
      </trkpt>
      <trkpt lat="45.70895" lon="4.58755">
        <ele>719</ele>
        <time>2021-10-15T00:41:45Z</time>
      </trkpt>
      <trkpt lat="45.70904" lon="4.58765">
        <ele>722</ele>
        <time>2021-10-15T00:41:47Z</time>
      </trkpt>
      <trkpt lat="45.70919" lon="4.58773">
        <ele>726</ele>
        <time>2021-10-15T00:41:50Z</time>
      </trkpt>
      <trkpt lat="45.70935" lon="4.58764">
        <ele>731</ele>
        <time>2021-10-15T00:41:53Z</time>
      </trkpt>
      <trkpt lat="45.70951" lon="4.58722">
        <ele>737</ele>
        <time>2021-10-15T00:41:59Z</time>
      </trkpt>
      <trkpt lat="45.70965" lon="4.5868">
        <ele>741</ele>
        <time>2021-10-15T00:42:04Z</time>
      </trkpt>
      <trkpt lat="45.70975" lon="4.58673">
        <ele>744</ele>
        <time>2021-10-15T00:42:06Z</time>
      </trkpt>
      <trkpt lat="45.70982" lon="4.58794">
        <ele>748</ele>
        <time>2021-10-15T00:42:21Z</time>
      </trkpt>
      <trkpt lat="45.70991" lon="4.58846">
        <ele>749</ele>
        <time>2021-10-15T00:42:28Z</time>
      </trkpt>
      <trkpt lat="45.71006" lon="4.58893">
        <ele>750</ele>
        <time>2021-10-15T00:42:34Z</time>
      </trkpt>
      <trkpt lat="45.71036" lon="4.58944">
        <ele>752</ele>
        <time>2021-10-15T00:42:43Z</time>
      </trkpt>
      <trkpt lat="45.71068" lon="4.58991">
        <ele>754</ele>
        <time>2021-10-15T00:42:51Z</time>
      </trkpt>
      <trkpt lat="45.71088" lon="4.59009">
        <ele>755</ele>
        <time>2021-10-15T00:42:55Z</time>
      </trkpt>
      <trkpt lat="45.71111" lon="4.59018">
        <ele>754</ele>
        <time>2021-10-15T00:42:59Z</time>
      </trkpt>
      <trkpt lat="45.71126" lon="4.59017">
        <ele>756</ele>
        <time>2021-10-15T00:43:02Z</time>
      </trkpt>
      <trkpt lat="45.71144" lon="4.59013">
        <ele>759</ele>
        <time>2021-10-15T00:43:05Z</time>
      </trkpt>
      <trkpt lat="45.71162" lon="4.59001">
        <ele>764</ele>
        <time>2021-10-15T00:43:09Z</time>
      </trkpt>
      <trkpt lat="45.71236" lon="4.58931">
        <ele>774</ele>
        <time>2021-10-15T00:43:25Z</time>
      </trkpt>
      <trkpt lat="45.71266" lon="4.58913">
        <ele>776</ele>
        <time>2021-10-15T00:43:30Z</time>
      </trkpt>
      <trkpt lat="45.71326" lon="4.589">
        <ele>777</ele>
        <time>2021-10-15T00:43:41Z</time>
      </trkpt>
      <trkpt lat="45.71359" lon="4.58891">
        <ele>777</ele>
        <time>2021-10-15T00:43:47Z</time>
      </trkpt>
      <trkpt lat="45.71384" lon="4.58879">
        <ele>778</ele>
        <time>2021-10-15T00:43:52Z</time>
      </trkpt>
      <trkpt lat="45.71577" lon="4.5877">
        <ele>774</ele>
        <time>2021-10-15T00:44:29Z</time>
      </trkpt>
      <trkpt lat="45.71616" lon="4.58768">
        <ele>779</ele>
        <time>2021-10-15T00:44:36Z</time>
      </trkpt>
      <trkpt lat="45.71638" lon="4.58779">
        <ele>782</ele>
        <time>2021-10-15T00:44:40Z</time>
      </trkpt>
      <trkpt lat="45.71663" lon="4.58811">
        <ele>784</ele>
        <time>2021-10-15T00:44:46Z</time>
      </trkpt>
      <trkpt lat="45.71674" lon="4.58841">
        <ele>786</ele>
        <time>2021-10-15T00:44:50Z</time>
      </trkpt>
      <trkpt lat="45.71708" lon="4.59108">
        <ele>788</ele>
        <time>2021-10-15T00:45:24Z</time>
      </trkpt>
      <trkpt lat="45.71725" lon="4.5915">
        <ele>788</ele>
        <time>2021-10-15T00:45:30Z</time>
      </trkpt>
      <trkpt lat="45.71751" lon="4.59168">
        <ele>791</ele>
        <time>2021-10-15T00:45:35Z</time>
      </trkpt>
      <trkpt lat="45.71769" lon="4.5917">
        <ele>789</ele>
        <time>2021-10-15T00:45:38Z</time>
      </trkpt>
      <trkpt lat="45.71775" lon="4.59168">
        <ele>789</ele>
        <time>2021-10-15T00:45:39Z</time>
      </trkpt>
      <trkpt lat="45.71825" lon="4.59123">
        <ele>799</ele>
        <time>2021-10-15T00:45:50Z</time>
      </trkpt>
      <trkpt lat="45.71847" lon="4.59113">
        <ele>802</ele>
        <time>2021-10-15T00:45:54Z</time>
      </trkpt>
      <trkpt lat="45.7188" lon="4.59106">
        <ele>803</ele>
        <time>2021-10-15T00:46:00Z</time>
      </trkpt>
      <trkpt lat="45.71918" lon="4.59116">
        <ele>801</ele>
        <time>2021-10-15T00:46:07Z</time>
      </trkpt>
      <trkpt lat="45.72063" lon="4.59203">
        <ele>810</ele>
        <time>2021-10-15T00:46:35Z</time>
      </trkpt>
      <trkpt lat="45.72096" lon="4.59237">
        <ele>814</ele>
        <time>2021-10-15T00:46:42Z</time>
      </trkpt>
      <trkpt lat="45.72162" lon="4.59339">
        <ele>817</ele>
        <time>2021-10-15T00:46:59Z</time>
      </trkpt>
      <trkpt lat="45.72407" lon="4.59813">
        <ele>829</ele>
        <time>2021-10-15T00:48:12Z</time>
      </trkpt>
      <trkpt lat="45.72443" lon="4.59876">
        <ele>831</ele>
        <time>2021-10-15T00:48:22Z</time>
      </trkpt>
      <trkpt lat="45.72487" lon="4.5993">
        <ele>834</ele>
        <time>2021-10-15T00:48:33Z</time>
      </trkpt>
      <trkpt lat="45.72507" lon="4.59947">
        <ele>835</ele>
        <time>2021-10-15T00:48:37Z</time>
      </trkpt>
      <trkpt lat="45.72565" lon="4.59983">
        <ele>836</ele>
        <time>2021-10-15T00:48:48Z</time>
      </trkpt>
      <trkpt lat="45.72577" lon="4.59987">
        <ele>837</ele>
        <time>2021-10-15T00:48:50Z</time>
      </trkpt>
      <trkpt lat="45.72777" lon="4.60031">
        <ele>835</ele>
        <time>2021-10-15T00:49:26Z</time>
      </trkpt>
      <trkpt lat="45.72826" lon="4.60032">
        <ele>834</ele>
        <time>2021-10-15T00:49:35Z</time>
      </trkpt>
      <trkpt lat="45.72867" lon="4.60025">
        <ele>834</ele>
        <time>2021-10-15T00:49:42Z</time>
      </trkpt>
      <trkpt lat="45.72966" lon="4.59984">
        <ele>836</ele>
        <time>2021-10-15T00:50:01Z</time>
      </trkpt>
      <trkpt lat="45.73144" lon="4.59896">
        <ele>833</ele>
        <time>2021-10-15T00:50:34Z</time>
      </trkpt>
      <trkpt lat="45.7322" lon="4.59884">
        <ele>837</ele>
        <time>2021-10-15T00:50:48Z</time>
      </trkpt>
      <trkpt lat="45.73244" lon="4.59878">
        <ele>837</ele>
        <time>2021-10-15T00:50:52Z</time>
      </trkpt>
      <trkpt lat="45.73265" lon="4.59864">
        <ele>837</ele>
        <time>2021-10-15T00:50:56Z</time>
      </trkpt>
      <trkpt lat="45.73309" lon="4.59821">
        <ele>838</ele>
        <time>2021-10-15T00:51:06Z</time>
      </trkpt>
      <trkpt lat="45.73327" lon="4.59811">
        <ele>840</ele>
        <time>2021-10-15T00:51:09Z</time>
      </trkpt>
      <trkpt lat="45.73347" lon="4.59808">
        <ele>840</ele>
        <time>2021-10-15T00:51:13Z</time>
      </trkpt>
      <trkpt lat="45.73365" lon="4.5981">
        <ele>838</ele>
        <time>2021-10-15T00:51:16Z</time>
      </trkpt>
      <trkpt lat="45.7338" lon="4.59817">
        <ele>837</ele>
        <time>2021-10-15T00:51:19Z</time>
      </trkpt>
      <trkpt lat="45.73401" lon="4.59833">
        <ele>838</ele>
        <time>2021-10-15T00:51:23Z</time>
      </trkpt>
      <trkpt lat="45.7355" lon="4.5999">
        <ele>832</ele>
        <time>2021-10-15T00:51:56Z</time>
      </trkpt>
      <trkpt lat="45.73699" lon="4.60106">
        <ele>823</ele>
        <time>2021-10-15T00:52:26Z</time>
      </trkpt>
      <trkpt lat="45.73899" lon="4.6033">
        <ele>835</ele>
        <time>2021-10-15T00:53:11Z</time>
      </trkpt>
      <trkpt lat="45.73919" lon="4.60371">
        <ele>838</ele>
        <time>2021-10-15T00:53:18Z</time>
      </trkpt>
      <trkpt lat="45.7393" lon="4.60415">
        <ele>841</ele>
        <time>2021-10-15T00:53:23Z</time>
      </trkpt>
      <trkpt lat="45.73927" lon="4.60466">
        <ele>843</ele>
        <time>2021-10-15T00:53:30Z</time>
      </trkpt>
      <trkpt lat="45.73912" lon="4.6051">
        <ele>844</ele>
        <time>2021-10-15T00:53:36Z</time>
      </trkpt>
      <trkpt lat="45.73895" lon="4.60554">
        <ele>843</ele>
        <time>2021-10-15T00:53:42Z</time>
      </trkpt>
      <trkpt lat="45.73834" lon="4.6066">
        <ele>834</ele>
        <time>2021-10-15T00:53:59Z</time>
      </trkpt>
      <trkpt lat="45.73791" lon="4.60791">
        <ele>826</ele>
        <time>2021-10-15T00:54:17Z</time>
      </trkpt>
      <trkpt lat="45.73783" lon="4.60831">
        <ele>822</ele>
        <time>2021-10-15T00:54:22Z</time>
      </trkpt>
      <trkpt lat="45.73768" lon="4.60942">
        <ele>818</ele>
        <time>2021-10-15T00:54:36Z</time>
      </trkpt>
      <trkpt lat="45.73754" lon="4.611">
        <ele>814</ele>
        <time>2021-10-15T00:54:56Z</time>
      </trkpt>
      <trkpt lat="45.73753" lon="4.6113">
        <ele>812</ele>
        <time>2021-10-15T00:55:00Z</time>
      </trkpt>
      <trkpt lat="45.73759" lon="4.61181">
        <ele>809</ele>
        <time>2021-10-15T00:55:06Z</time>
      </trkpt>
      <trkpt lat="45.73768" lon="4.61213">
        <ele>806</ele>
        <time>2021-10-15T00:55:10Z</time>
      </trkpt>
      <trkpt lat="45.73788" lon="4.61261">
        <ele>803</ele>
        <time>2021-10-15T00:55:17Z</time>
      </trkpt>
      <trkpt lat="45.73805" lon="4.61285">
        <ele>801</ele>
        <time>2021-10-15T00:55:22Z</time>
      </trkpt>
      <trkpt lat="45.73824" lon="4.61301">
        <ele>802</ele>
        <time>2021-10-15T00:55:26Z</time>
      </trkpt>
      <trkpt lat="45.73842" lon="4.6131">
        <ele>801</ele>
        <time>2021-10-15T00:55:29Z</time>
      </trkpt>
      <trkpt lat="45.73861" lon="4.61313">
        <ele>801</ele>
        <time>2021-10-15T00:55:32Z</time>
      </trkpt>
      <trkpt lat="45.73876" lon="4.61312">
        <ele>801</ele>
        <time>2021-10-15T00:55:35Z</time>
      </trkpt>
      <trkpt lat="45.73921" lon="4.61304">
        <ele>803</ele>
        <time>2021-10-15T00:55:43Z</time>
      </trkpt>
      <trkpt lat="45.73946" lon="4.61307">
        <ele>802</ele>
        <time>2021-10-15T00:55:48Z</time>
      </trkpt>
      <trkpt lat="45.7398" lon="4.61323">
        <ele>797</ele>
        <time>2021-10-15T00:55:54Z</time>
      </trkpt>
      <trkpt lat="45.73995" lon="4.61325">
        <ele>796</ele>
        <time>2021-10-15T00:55:57Z</time>
      </trkpt>
      <trkpt lat="45.74014" lon="4.61321">
        <ele>794</ele>
        <time>2021-10-15T00:56:00Z</time>
      </trkpt>
      <trkpt lat="45.7405" lon="4.61304">
        <ele>791</ele>
        <time>2021-10-15T00:56:07Z</time>
      </trkpt>
      <trkpt lat="45.74097" lon="4.6128">
        <ele>787</ele>
        <time>2021-10-15T00:56:16Z</time>
      </trkpt>
      <trkpt lat="45.74187" lon="4.61244">
        <ele>777</ele>
        <time>2021-10-15T00:56:32Z</time>
      </trkpt>
      <trkpt lat="45.7422" lon="4.61235">
        <ele>775</ele>
        <time>2021-10-15T00:56:38Z</time>
      </trkpt>
      <trkpt lat="45.7425" lon="4.61234">
        <ele>771</ele>
        <time>2021-10-15T00:56:44Z</time>
      </trkpt>
      <trkpt lat="45.74334" lon="4.61251">
        <ele>772</ele>
        <time>2021-10-15T00:56:59Z</time>
      </trkpt>
      <trkpt lat="45.74353" lon="4.61263">
        <ele>772</ele>
        <time>2021-10-15T00:57:02Z</time>
      </trkpt>
      <trkpt lat="45.74365" lon="4.61279">
        <ele>770</ele>
        <time>2021-10-15T00:57:05Z</time>
      </trkpt>
      <trkpt lat="45.74386" lon="4.61319">
        <ele>764</ele>
        <time>2021-10-15T00:57:12Z</time>
      </trkpt>
      <trkpt lat="45.744" lon="4.61336">
        <ele>762</ele>
        <time>2021-10-15T00:57:15Z</time>
      </trkpt>
      <trkpt lat="45.74413" lon="4.61345">
        <ele>761</ele>
        <time>2021-10-15T00:57:17Z</time>
      </trkpt>
      <trkpt lat="45.74424" lon="4.61349">
        <ele>759</ele>
        <time>2021-10-15T00:57:19Z</time>
      </trkpt>
      <trkpt lat="45.74451" lon="4.61351">
        <ele>757</ele>
        <time>2021-10-15T00:57:24Z</time>
      </trkpt>
      <trkpt lat="45.74488" lon="4.61337">
        <ele>758</ele>
        <time>2021-10-15T00:57:31Z</time>
      </trkpt>
      <trkpt lat="45.74653" lon="4.61317">
        <ele>742</ele>
        <time>2021-10-15T00:58:00Z</time>
      </trkpt>
      <trkpt lat="45.74679" lon="4.61304">
        <ele>741</ele>
        <time>2021-10-15T00:58:05Z</time>
      </trkpt>
      <trkpt lat="45.74702" lon="4.61283">
        <ele>740</ele>
        <time>2021-10-15T00:58:10Z</time>
      </trkpt>
      <trkpt lat="45.74725" lon="4.61256">
        <ele>740</ele>
        <time>2021-10-15T00:58:15Z</time>
      </trkpt>
      <trkpt lat="45.74763" lon="4.61205">
        <ele>736</ele>
        <time>2021-10-15T00:58:25Z</time>
      </trkpt>
      <trkpt lat="45.74772" lon="4.61186">
        <ele>737</ele>
        <time>2021-10-15T00:58:28Z</time>
      </trkpt>
      <trkpt lat="45.74779" lon="4.61164">
        <ele>738</ele>
        <time>2021-10-15T00:58:31Z</time>
      </trkpt>
      <trkpt lat="45.74786" lon="4.61143">
        <ele>736</ele>
        <time>2021-10-15T00:58:34Z</time>
      </trkpt>
      <trkpt lat="45.74808" lon="4.611">
        <ele>735</ele>
        <time>2021-10-15T00:58:40Z</time>
      </trkpt>
      <trkpt lat="45.74822" lon="4.61081">
        <ele>735</ele>
        <time>2021-10-15T00:58:44Z</time>
      </trkpt>
      <trkpt lat="45.74893" lon="4.61008">
        <ele>737</ele>
        <time>2021-10-15T00:58:59Z</time>
      </trkpt>
      <trkpt lat="45.74915" lon="4.60988">
        <ele>739</ele>
        <time>2021-10-15T00:59:04Z</time>
      </trkpt>
      <trkpt lat="45.74935" lon="4.60976">
        <ele>740</ele>
        <time>2021-10-15T00:59:08Z</time>
      </trkpt>
      <trkpt lat="45.74954" lon="4.60972">
        <ele>742</ele>
        <time>2021-10-15T00:59:11Z</time>
      </trkpt>
      <trkpt lat="45.74979" lon="4.60973">
        <ele>745</ele>
        <time>2021-10-15T00:59:15Z</time>
      </trkpt>
      <trkpt lat="45.75145" lon="4.60987">
        <ele>747</ele>
        <time>2021-10-15T00:59:45Z</time>
      </trkpt>
      <trkpt lat="45.75162" lon="4.60991">
        <ele>747</ele>
        <time>2021-10-15T00:59:48Z</time>
      </trkpt>
      <trkpt lat="45.75181" lon="4.61004">
        <ele>748</ele>
        <time>2021-10-15T00:59:52Z</time>
      </trkpt>
      <trkpt lat="45.75199" lon="4.61026">
        <ele>748</ele>
        <time>2021-10-15T00:59:56Z</time>
      </trkpt>
      <trkpt lat="45.75249" lon="4.61115">
        <ele>754</ele>
        <time>2021-10-15T01:00:10Z</time>
      </trkpt>
      <trkpt lat="45.75265" lon="4.61141">
        <ele>754</ele>
        <time>2021-10-15T01:00:15Z</time>
      </trkpt>
      <trkpt lat="45.75289" lon="4.61173">
        <ele>755</ele>
        <time>2021-10-15T01:00:20Z</time>
      </trkpt>
      <trkpt lat="45.75383" lon="4.6128">
        <ele>757</ele>
        <time>2021-10-15T01:00:42Z</time>
      </trkpt>
      <trkpt lat="45.75417" lon="4.61309">
        <ele>755</ele>
        <time>2021-10-15T01:00:49Z</time>
      </trkpt>
      <trkpt lat="45.75434" lon="4.61319">
        <ele>756</ele>
        <time>2021-10-15T01:00:52Z</time>
      </trkpt>
      <trkpt lat="45.75495" lon="4.61346">
        <ele>754</ele>
        <time>2021-10-15T01:01:03Z</time>
      </trkpt>
      <trkpt lat="45.75533" lon="4.61368">
        <ele>755</ele>
        <time>2021-10-15T01:01:11Z</time>
      </trkpt>
      <trkpt lat="45.75559" lon="4.61392">
        <ele>755</ele>
        <time>2021-10-15T01:01:16Z</time>
      </trkpt>
      <trkpt lat="45.75589" lon="4.61437">
        <ele>754</ele>
        <time>2021-10-15T01:01:24Z</time>
      </trkpt>
      <trkpt lat="45.75604" lon="4.61473">
        <ele>752</ele>
        <time>2021-10-15T01:01:29Z</time>
      </trkpt>
      <trkpt lat="45.75609" lon="4.61494">
        <ele>752</ele>
        <time>2021-10-15T01:01:32Z</time>
      </trkpt>
      <trkpt lat="45.75623" lon="4.6157">
        <ele>754</ele>
        <time>2021-10-15T01:01:42Z</time>
      </trkpt>
      <trkpt lat="45.75624" lon="4.61601">
        <ele>756</ele>
        <time>2021-10-15T01:01:46Z</time>
      </trkpt>
      <trkpt lat="45.75623" lon="4.61631">
        <ele>758</ele>
        <time>2021-10-15T01:01:49Z</time>
      </trkpt>
      <trkpt lat="45.75618" lon="4.61696">
        <ele>759</ele>
        <time>2021-10-15T01:01:57Z</time>
      </trkpt>
      <trkpt lat="45.75619" lon="4.61728">
        <ele>758</ele>
        <time>2021-10-15T01:02:01Z</time>
      </trkpt>
      <trkpt lat="45.75621" lon="4.61751">
        <ele>757</ele>
        <time>2021-10-15T01:02:04Z</time>
      </trkpt>
      <trkpt lat="45.75624" lon="4.61767">
        <ele>756</ele>
        <time>2021-10-15T01:02:06Z</time>
      </trkpt>
      <trkpt lat="45.75643" lon="4.61816">
        <ele>756</ele>
        <time>2021-10-15T01:02:13Z</time>
      </trkpt>
      <trkpt lat="45.75734" lon="4.62002">
        <ele>758</ele>
        <time>2021-10-15T01:02:41Z</time>
      </trkpt>
      <trkpt lat="45.75758" lon="4.62057">
        <ele>756</ele>
        <time>2021-10-15T01:02:49Z</time>
      </trkpt>
      <trkpt lat="45.75812" lon="4.62149">
        <ele>756</ele>
        <time>2021-10-15T01:03:04Z</time>
      </trkpt>
      <trkpt lat="45.75869" lon="4.62214">
        <ele>761</ele>
        <time>2021-10-15T01:03:17Z</time>
      </trkpt>
      <trkpt lat="45.75951" lon="4.62283">
        <ele>758</ele>
        <time>2021-10-15T01:03:34Z</time>
      </trkpt>
      <trkpt lat="45.75965" lon="4.62303">
        <ele>756</ele>
        <time>2021-10-15T01:03:38Z</time>
      </trkpt>
      <trkpt lat="45.76006" lon="4.62386">
        <ele>754</ele>
        <time>2021-10-15T01:03:50Z</time>
      </trkpt>
      <trkpt lat="45.76069" lon="4.62471">
        <ele>747</ele>
        <time>2021-10-15T01:04:06Z</time>
      </trkpt>
      <trkpt lat="45.76111" lon="4.6252">
        <ele>741</ele>
        <time>2021-10-15T01:04:15Z</time>
      </trkpt>
      <trkpt lat="45.76152" lon="4.62577">
        <ele>740</ele>
        <time>2021-10-15T01:04:26Z</time>
      </trkpt>
      <trkpt lat="45.76192" lon="4.62625">
        <ele>738</ele>
        <time>2021-10-15T01:04:35Z</time>
      </trkpt>
      <trkpt lat="45.76239" lon="4.62648">
        <ele>734</ele>
        <time>2021-10-15T01:04:44Z</time>
      </trkpt>
      <trkpt lat="45.76281" lon="4.62654">
        <ele>727</ele>
        <time>2021-10-15T01:04:51Z</time>
      </trkpt>
      <trkpt lat="45.76288" lon="4.62658">
        <ele>726</ele>
        <time>2021-10-15T01:04:53Z</time>
      </trkpt>
      <trkpt lat="45.76293" lon="4.62666">
        <ele>726</ele>
        <time>2021-10-15T01:04:54Z</time>
      </trkpt>
      <trkpt lat="45.76302" lon="4.6269">
        <ele>724</ele>
        <time>2021-10-15T01:04:57Z</time>
      </trkpt>
      <trkpt lat="45.76306" lon="4.62725">
        <ele>724</ele>
        <time>2021-10-15T01:05:02Z</time>
      </trkpt>
      <trkpt lat="45.76282" lon="4.6289">
        <ele>723</ele>
        <time>2021-10-15T01:05:23Z</time>
      </trkpt>
      <trkpt lat="45.76279" lon="4.62898">
        <ele>723</ele>
        <time>2021-10-15T01:05:24Z</time>
      </trkpt>
      <trkpt lat="45.7626" lon="4.62972">
        <ele>721</ele>
        <time>2021-10-15T01:05:34Z</time>
      </trkpt>
      <trkpt lat="45.76239" lon="4.63058">
        <ele>714</ele>
        <time>2021-10-15T01:05:45Z</time>
      </trkpt>
      <trkpt lat="45.76227" lon="4.63142">
        <ele>709</ele>
        <time>2021-10-15T01:05:55Z</time>
      </trkpt>
      <trkpt lat="45.76225" lon="4.63186">
        <ele>707</ele>
        <time>2021-10-15T01:06:01Z</time>
      </trkpt>
      <trkpt lat="45.76228" lon="4.63253">
        <ele>704</ele>
        <time>2021-10-15T01:06:09Z</time>
      </trkpt>
      <trkpt lat="45.76233" lon="4.63275">
        <ele>705</ele>
        <time>2021-10-15T01:06:12Z</time>
      </trkpt>
      <trkpt lat="45.76233" lon="4.63292">
        <ele>704</ele>
        <time>2021-10-15T01:06:14Z</time>
      </trkpt>
      <trkpt lat="45.7623" lon="4.63301">
        <ele>703</ele>
        <time>2021-10-15T01:06:16Z</time>
      </trkpt>
      <trkpt lat="45.7622" lon="4.6331">
        <ele>699</ele>
        <time>2021-10-15T01:06:18Z</time>
      </trkpt>
      <trkpt lat="45.76211" lon="4.63307">
        <ele>696</ele>
        <time>2021-10-15T01:06:19Z</time>
      </trkpt>
      <trkpt lat="45.76204" lon="4.633">
        <ele>694</ele>
        <time>2021-10-15T01:06:21Z</time>
      </trkpt>
      <trkpt lat="45.76198" lon="4.63285">
        <ele>692</ele>
        <time>2021-10-15T01:06:23Z</time>
      </trkpt>
      <trkpt lat="45.76195" lon="4.63245">
        <ele>693</ele>
        <time>2021-10-15T01:06:28Z</time>
      </trkpt>
      <trkpt lat="45.76192" lon="4.63169">
        <ele>697</ele>
        <time>2021-10-15T01:06:37Z</time>
      </trkpt>
      <trkpt lat="45.7618" lon="4.63064">
        <ele>702</ele>
        <time>2021-10-15T01:06:51Z</time>
      </trkpt>
      <trkpt lat="45.76174" lon="4.63048">
        <ele>702</ele>
        <time>2021-10-15T01:06:53Z</time>
      </trkpt>
      <trkpt lat="45.76169" lon="4.63041">
        <ele>702</ele>
        <time>2021-10-15T01:06:54Z</time>
      </trkpt>
      <trkpt lat="45.76163" lon="4.63036">
        <ele>702</ele>
        <time>2021-10-15T01:06:55Z</time>
      </trkpt>
      <trkpt lat="45.76158" lon="4.63036">
        <ele>702</ele>
        <time>2021-10-15T01:06:56Z</time>
      </trkpt>
      <trkpt lat="45.76151" lon="4.63039">
        <ele>703</ele>
        <time>2021-10-15T01:06:58Z</time>
      </trkpt>
      <trkpt lat="45.7614" lon="4.63053">
        <ele>702</ele>
        <time>2021-10-15T01:07:00Z</time>
      </trkpt>
      <trkpt lat="45.76092" lon="4.63149">
        <ele>690</ele>
        <time>2021-10-15T01:07:15Z</time>
      </trkpt>
      <trkpt lat="45.76078" lon="4.63172">
        <ele>686</ele>
        <time>2021-10-15T01:07:19Z</time>
      </trkpt>
      <trkpt lat="45.76046" lon="4.63214">
        <ele>679</ele>
        <time>2021-10-15T01:07:26Z</time>
      </trkpt>
      <trkpt lat="45.76024" lon="4.63237">
        <ele>676</ele>
        <time>2021-10-15T01:07:31Z</time>
      </trkpt>
      <trkpt lat="45.7601" lon="4.63247">
        <ele>675</ele>
        <time>2021-10-15T01:07:34Z</time>
      </trkpt>
      <trkpt lat="45.75992" lon="4.63254">
        <ele>673</ele>
        <time>2021-10-15T01:07:37Z</time>
      </trkpt>
      <trkpt lat="45.75983" lon="4.63256">
        <ele>671</ele>
        <time>2021-10-15T01:07:39Z</time>
      </trkpt>
      <trkpt lat="45.7596" lon="4.63252">
        <ele>670</ele>
        <time>2021-10-15T01:07:43Z</time>
      </trkpt>
      <trkpt lat="45.75944" lon="4.63246">
        <ele>669</ele>
        <time>2021-10-15T01:07:46Z</time>
      </trkpt>
      <trkpt lat="45.75915" lon="4.6323">
        <ele>670</ele>
        <time>2021-10-15T01:07:51Z</time>
      </trkpt>
      <trkpt lat="45.75893" lon="4.63212">
        <ele>668</ele>
        <time>2021-10-15T01:07:56Z</time>
      </trkpt>
      <trkpt lat="45.75837" lon="4.63146">
        <ele>666</ele>
        <time>2021-10-15T01:08:09Z</time>
      </trkpt>
      <trkpt lat="45.75819" lon="4.63131">
        <ele>666</ele>
        <time>2021-10-15T01:08:13Z</time>
      </trkpt>
      <trkpt lat="45.75806" lon="4.63123">
        <ele>666</ele>
        <time>2021-10-15T01:08:15Z</time>
      </trkpt>
      <trkpt lat="45.7579" lon="4.63118">
        <ele>664</ele>
        <time>2021-10-15T01:08:18Z</time>
      </trkpt>
      <trkpt lat="45.75778" lon="4.6312">
        <ele>661</ele>
        <time>2021-10-15T01:08:20Z</time>
      </trkpt>
      <trkpt lat="45.75751" lon="4.63134">
        <ele>651</ele>
        <time>2021-10-15T01:08:25Z</time>
      </trkpt>
      <trkpt lat="45.7574" lon="4.63135">
        <ele>649</ele>
        <time>2021-10-15T01:08:27Z</time>
      </trkpt>
      <trkpt lat="45.75727" lon="4.6313">
        <ele>648</ele>
        <time>2021-10-15T01:08:30Z</time>
      </trkpt>
      <trkpt lat="45.75718" lon="4.63124">
        <ele>648</ele>
        <time>2021-10-15T01:08:31Z</time>
      </trkpt>
      <trkpt lat="45.75671" lon="4.63077">
        <ele>652</ele>
        <time>2021-10-15T01:08:42Z</time>
      </trkpt>
      <trkpt lat="45.75659" lon="4.63067">
        <ele>655</ele>
        <time>2021-10-15T01:08:44Z</time>
      </trkpt>
      <trkpt lat="45.75646" lon="4.6306">
        <ele>658</ele>
        <time>2021-10-15T01:08:47Z</time>
      </trkpt>
      <trkpt lat="45.75633" lon="4.63059">
        <ele>661</ele>
        <time>2021-10-15T01:08:49Z</time>
      </trkpt>
      <trkpt lat="45.75623" lon="4.63065">
        <ele>661</ele>
        <time>2021-10-15T01:08:51Z</time>
      </trkpt>
      <trkpt lat="45.75615" lon="4.63079">
        <ele>659</ele>
        <time>2021-10-15T01:08:53Z</time>
      </trkpt>
      <trkpt lat="45.75612" lon="4.63092">
        <ele>657</ele>
        <time>2021-10-15T01:08:55Z</time>
      </trkpt>
      <trkpt lat="45.75594" lon="4.63255">
        <ele>640</ele>
        <time>2021-10-15T01:09:15Z</time>
      </trkpt>
      <trkpt lat="45.75595" lon="4.63308">
        <ele>637</ele>
        <time>2021-10-15T01:09:22Z</time>
      </trkpt>
      <trkpt lat="45.75605" lon="4.63408">
        <ele>629</ele>
        <time>2021-10-15T01:09:34Z</time>
      </trkpt>
      <trkpt lat="45.75623" lon="4.63534">
        <ele>620</ele>
        <time>2021-10-15T01:09:50Z</time>
      </trkpt>
      <trkpt lat="45.75627" lon="4.63582">
        <ele>617</ele>
        <time>2021-10-15T01:09:56Z</time>
      </trkpt>
      <trkpt lat="45.75625" lon="4.63622">
        <ele>615</ele>
        <time>2021-10-15T01:10:01Z</time>
      </trkpt>
      <trkpt lat="45.75609" lon="4.63671">
        <ele>615</ele>
        <time>2021-10-15T01:10:08Z</time>
      </trkpt>
      <trkpt lat="45.75601" lon="4.63686">
        <ele>614</ele>
        <time>2021-10-15T01:10:10Z</time>
      </trkpt>
      <trkpt lat="45.75544" lon="4.63776">
        <ele>606</ele>
        <time>2021-10-15T01:10:25Z</time>
      </trkpt>
      <trkpt lat="45.75519" lon="4.63807">
        <ele>602</ele>
        <time>2021-10-15T01:10:31Z</time>
      </trkpt>
      <trkpt lat="45.75497" lon="4.63825">
        <ele>601</ele>
        <time>2021-10-15T01:10:36Z</time>
      </trkpt>
      <trkpt lat="45.75453" lon="4.63844">
        <ele>606</ele>
        <time>2021-10-15T01:10:44Z</time>
      </trkpt>
      <trkpt lat="45.7544" lon="4.63857">
        <ele>606</ele>
        <time>2021-10-15T01:10:47Z</time>
      </trkpt>
      <trkpt lat="45.75431" lon="4.63869">
        <ele>605</ele>
        <time>2021-10-15T01:10:49Z</time>
      </trkpt>
      <trkpt lat="45.75408" lon="4.63913">
        <ele>599</ele>
        <time>2021-10-15T01:10:56Z</time>
      </trkpt>
      <trkpt lat="45.75375" lon="4.63967">
        <ele>595</ele>
        <time>2021-10-15T01:11:05Z</time>
      </trkpt>
      <trkpt lat="45.75329" lon="4.64023">
        <ele>589</ele>
        <time>2021-10-15T01:11:15Z</time>
      </trkpt>
      <trkpt lat="45.75318" lon="4.64041">
        <ele>589</ele>
        <time>2021-10-15T01:11:18Z</time>
      </trkpt>
      <trkpt lat="45.7531" lon="4.64064">
        <ele>586</ele>
        <time>2021-10-15T01:11:22Z</time>
      </trkpt>
      <trkpt lat="45.753" lon="4.64098">
        <ele>584</ele>
        <time>2021-10-15T01:11:26Z</time>
      </trkpt>
      <trkpt lat="45.75287" lon="4.64157">
        <ele>580</ele>
        <time>2021-10-15T01:11:34Z</time>
      </trkpt>
      <trkpt lat="45.75272" lon="4.64231">
        <ele>574</ele>
        <time>2021-10-15T01:11:43Z</time>
      </trkpt>
      <trkpt lat="45.75261" lon="4.64268">
        <ele>571</ele>
        <time>2021-10-15T01:11:48Z</time>
      </trkpt>
      <trkpt lat="45.75251" lon="4.64297">
        <ele>568</ele>
        <time>2021-10-15T01:11:52Z</time>
      </trkpt>
      <trkpt lat="45.75228" lon="4.64339">
        <ele>567</ele>
        <time>2021-10-15T01:11:59Z</time>
      </trkpt>
      <trkpt lat="45.75208" lon="4.64363">
        <ele>569</ele>
        <time>2021-10-15T01:12:04Z</time>
      </trkpt>
      <trkpt lat="45.75197" lon="4.64376">
        <ele>569</ele>
        <time>2021-10-15T01:12:06Z</time>
      </trkpt>
      <trkpt lat="45.7519" lon="4.64388">
        <ele>569</ele>
        <time>2021-10-15T01:12:08Z</time>
      </trkpt>
      <trkpt lat="45.7516" lon="4.64465">
        <ele>559</ele>
        <time>2021-10-15T01:12:19Z</time>
      </trkpt>
      <trkpt lat="45.75144" lon="4.64492">
        <ele>555</ele>
        <time>2021-10-15T01:12:24Z</time>
      </trkpt>
      <trkpt lat="45.75121" lon="4.64516">
        <ele>552</ele>
        <time>2021-10-15T01:12:29Z</time>
      </trkpt>
      <trkpt lat="45.75076" lon="4.64544">
        <ele>552</ele>
        <time>2021-10-15T01:12:37Z</time>
      </trkpt>
      <trkpt lat="45.75062" lon="4.64559">
        <ele>549</ele>
        <time>2021-10-15T01:12:40Z</time>
      </trkpt>
      <trkpt lat="45.75032" lon="4.646">
        <ele>542</ele>
        <time>2021-10-15T01:12:48Z</time>
      </trkpt>
      <trkpt lat="45.75015" lon="4.64615">
        <ele>539</ele>
        <time>2021-10-15T01:12:51Z</time>
      </trkpt>
      <trkpt lat="45.75004" lon="4.64621">
        <ele>539</ele>
        <time>2021-10-15T01:12:53Z</time>
      </trkpt>
      <trkpt lat="45.74988" lon="4.64622">
        <ele>537</ele>
        <time>2021-10-15T01:12:56Z</time>
      </trkpt>
      <trkpt lat="45.74979" lon="4.6462">
        <ele>536</ele>
        <time>2021-10-15T01:12:58Z</time>
      </trkpt>
      <trkpt lat="45.74964" lon="4.64609">
        <ele>536</ele>
        <time>2021-10-15T01:13:01Z</time>
      </trkpt>
      <trkpt lat="45.74944" lon="4.6459">
        <ele>537</ele>
        <time>2021-10-15T01:13:05Z</time>
      </trkpt>
      <trkpt lat="45.74925" lon="4.64579">
        <ele>537</ele>
        <time>2021-10-15T01:13:09Z</time>
      </trkpt>
      <trkpt lat="45.74917" lon="4.64578">
        <ele>536</ele>
        <time>2021-10-15T01:13:10Z</time>
      </trkpt>
      <trkpt lat="45.74902" lon="4.64582">
        <ele>537</ele>
        <time>2021-10-15T01:13:13Z</time>
      </trkpt>
      <trkpt lat="45.74868" lon="4.64595">
        <ele>539</ele>
        <time>2021-10-15T01:13:19Z</time>
      </trkpt>
      <trkpt lat="45.74847" lon="4.64606">
        <ele>540</ele>
        <time>2021-10-15T01:13:23Z</time>
      </trkpt>
      <trkpt lat="45.74842" lon="4.64613">
        <ele>539</ele>
        <time>2021-10-15T01:13:24Z</time>
      </trkpt>
      <trkpt lat="45.74833" lon="4.64629">
        <ele>536</ele>
        <time>2021-10-15T01:13:27Z</time>
      </trkpt>
      <trkpt lat="45.74811" lon="4.64682">
        <ele>529</ele>
        <time>2021-10-15T01:13:35Z</time>
      </trkpt>
      <trkpt lat="45.74792" lon="4.6475">
        <ele>518</ele>
        <time>2021-10-15T01:13:44Z</time>
      </trkpt>
      <trkpt lat="45.74745" lon="4.64849">
        <ele>516</ele>
        <time>2021-10-15T01:13:59Z</time>
      </trkpt>
      <trkpt lat="45.74734" lon="4.64878">
        <ele>514</ele>
        <time>2021-10-15T01:14:03Z</time>
      </trkpt>
      <trkpt lat="45.74748" lon="4.64935">
        <ele>508</ele>
        <time>2021-10-15T01:14:10Z</time>
      </trkpt>
      <trkpt lat="45.7475" lon="4.64955">
        <ele>507</ele>
        <time>2021-10-15T01:14:13Z</time>
      </trkpt>
      <trkpt lat="45.74748" lon="4.64988">
        <ele>506</ele>
        <time>2021-10-15T01:14:17Z</time>
      </trkpt>
      <trkpt lat="45.74734" lon="4.65059">
        <ele>499</ele>
        <time>2021-10-15T01:14:26Z</time>
      </trkpt>
      <trkpt lat="45.7472" lon="4.65112">
        <ele>495</ele>
        <time>2021-10-15T01:14:33Z</time>
      </trkpt>
      <trkpt lat="45.7471" lon="4.65182">
        <ele>489</ele>
        <time>2021-10-15T01:14:42Z</time>
      </trkpt>
      <trkpt lat="45.747" lon="4.65219">
        <ele>487</ele>
        <time>2021-10-15T01:14:47Z</time>
      </trkpt>
      <trkpt lat="45.7466" lon="4.65306">
        <ele>485</ele>
        <time>2021-10-15T01:15:00Z</time>
      </trkpt>
      <trkpt lat="45.74654" lon="4.65323">
        <ele>485</ele>
        <time>2021-10-15T01:15:02Z</time>
      </trkpt>
      <trkpt lat="45.74651" lon="4.65342">
        <ele>484</ele>
        <time>2021-10-15T01:15:05Z</time>
      </trkpt>
      <trkpt lat="45.74654" lon="4.65366">
        <ele>483</ele>
        <time>2021-10-15T01:15:08Z</time>
      </trkpt>
      <trkpt lat="45.74665" lon="4.65426">
        <ele>479</ele>
        <time>2021-10-15T01:15:15Z</time>
      </trkpt>
      <trkpt lat="45.74682" lon="4.65476">
        <ele>475</ele>
        <time>2021-10-15T01:15:22Z</time>
      </trkpt>
      <trkpt lat="45.74709" lon="4.65539">
        <ele>471</ele>
        <time>2021-10-15T01:15:31Z</time>
      </trkpt>
      <trkpt lat="45.74754" lon="4.65587">
        <ele>469</ele>
        <time>2021-10-15T01:15:41Z</time>
      </trkpt>
      <trkpt lat="45.74803" lon="4.65632">
        <ele>462</ele>
        <time>2021-10-15T01:15:52Z</time>
      </trkpt>
      <trkpt lat="45.74836" lon="4.65667">
        <ele>460</ele>
        <time>2021-10-15T01:15:59Z</time>
      </trkpt>
      <trkpt lat="45.74848" lon="4.65693">
        <ele>458</ele>
        <time>2021-10-15T01:16:03Z</time>
      </trkpt>
      <trkpt lat="45.74861" lon="4.65737">
        <ele>456</ele>
        <time>2021-10-15T01:16:09Z</time>
      </trkpt>
      <trkpt lat="45.74866" lon="4.65805">
        <ele>452</ele>
        <time>2021-10-15T01:16:17Z</time>
      </trkpt>
      <trkpt lat="45.74864" lon="4.65842">
        <ele>450</ele>
        <time>2021-10-15T01:16:22Z</time>
      </trkpt>
      <trkpt lat="45.74855" lon="4.65874">
        <ele>449</ele>
        <time>2021-10-15T01:16:26Z</time>
      </trkpt>
      <trkpt lat="45.74841" lon="4.65909">
        <ele>447</ele>
        <time>2021-10-15T01:16:31Z</time>
      </trkpt>
      <trkpt lat="45.74835" lon="4.65934">
        <ele>446</ele>
        <time>2021-10-15T01:16:35Z</time>
      </trkpt>
      <trkpt lat="45.74835" lon="4.65983">
        <ele>442</ele>
        <time>2021-10-15T01:16:41Z</time>
      </trkpt>
      <trkpt lat="45.74823" lon="4.66067">
        <ele>436</ele>
        <time>2021-10-15T01:16:51Z</time>
      </trkpt>
      <trkpt lat="45.74823" lon="4.66135">
        <ele>432</ele>
        <time>2021-10-15T01:17:00Z</time>
      </trkpt>
      <trkpt lat="45.74827" lon="4.66161">
        <ele>431</ele>
        <time>2021-10-15T01:17:03Z</time>
      </trkpt>
      <trkpt lat="45.74844" lon="4.66206">
        <ele>429</ele>
        <time>2021-10-15T01:17:09Z</time>
      </trkpt>
      <trkpt lat="45.74858" lon="4.6626">
        <ele>425</ele>
        <time>2021-10-15T01:17:17Z</time>
      </trkpt>
      <trkpt lat="45.74883" lon="4.66387">
        <ele>421</ele>
        <time>2021-10-15T01:17:33Z</time>
      </trkpt>
      <trkpt lat="45.74897" lon="4.66492">
        <ele>415</ele>
        <time>2021-10-15T01:17:46Z</time>
      </trkpt>
      <trkpt lat="45.74898" lon="4.66532">
        <ele>412</ele>
        <time>2021-10-15T01:17:51Z</time>
      </trkpt>
      <trkpt lat="45.74896" lon="4.66799">
        <ele>399</ele>
        <time>2021-10-15T01:18:24Z</time>
      </trkpt>
      <trkpt lat="45.74894" lon="4.66823">
        <ele>398</ele>
        <time>2021-10-15T01:18:27Z</time>
      </trkpt>
      <trkpt lat="45.74854" lon="4.67128">
        <ele>390</ele>
        <time>2021-10-15T01:19:06Z</time>
      </trkpt>
      <trkpt lat="45.74848" lon="4.67186">
        <ele>388</ele>
        <time>2021-10-15T01:19:13Z</time>
      </trkpt>
      <trkpt lat="45.74846" lon="4.67206">
        <ele>387</ele>
        <time>2021-10-15T01:19:16Z</time>
      </trkpt>
      <trkpt lat="45.74847" lon="4.67336">
        <ele>384</ele>
        <time>2021-10-15T01:19:32Z</time>
      </trkpt>
      <trkpt lat="45.74822" lon="4.6789">
        <ele>369</ele>
        <time>2021-10-15T01:20:41Z</time>
      </trkpt>
      <trkpt lat="45.7482" lon="4.67903">
        <ele>369</ele>
        <time>2021-10-15T01:20:42Z</time>
      </trkpt>
      <trkpt lat="45.74818" lon="4.68011">
        <ele>368</ele>
        <time>2021-10-15T01:20:56Z</time>
      </trkpt>
      <trkpt lat="45.7482" lon="4.68083">
        <ele>367</ele>
        <time>2021-10-15T01:21:05Z</time>
      </trkpt>
      <trkpt lat="45.74823" lon="4.68139">
        <ele>366</ele>
        <time>2021-10-15T01:21:12Z</time>
      </trkpt>
      <trkpt lat="45.7483" lon="4.682">
        <ele>365</ele>
        <time>2021-10-15T01:21:19Z</time>
      </trkpt>
      <trkpt lat="45.74843" lon="4.68298">
        <ele>363</ele>
        <time>2021-10-15T01:21:32Z</time>
      </trkpt>
      <trkpt lat="45.74855" lon="4.68366">
        <ele>360</ele>
        <time>2021-10-15T01:21:40Z</time>
      </trkpt>
      <trkpt lat="45.74863" lon="4.68405">
        <ele>359</ele>
        <time>2021-10-15T01:21:45Z</time>
      </trkpt>
      <trkpt lat="45.749" lon="4.68541">
        <ele>353</ele>
        <time>2021-10-15T01:22:04Z</time>
      </trkpt>
      <trkpt lat="45.74986" lon="4.68848">
        <ele>345</ele>
        <time>2021-10-15T01:22:45Z</time>
      </trkpt>
      <trkpt lat="45.74989" lon="4.6887">
        <ele>344</ele>
        <time>2021-10-15T01:22:47Z</time>
      </trkpt>
      <trkpt lat="45.74988" lon="4.68924">
        <ele>342</ele>
        <time>2021-10-15T01:22:54Z</time>
      </trkpt>
      <trkpt lat="45.74991" lon="4.68928">
        <ele>342</ele>
        <time>2021-10-15T01:22:55Z</time>
      </trkpt>
      <trkpt lat="45.74995" lon="4.6893">
        <ele>342</ele>
        <time>2021-10-15T01:22:56Z</time>
      </trkpt>
      <trkpt lat="45.74999" lon="4.68941">
        <ele>341</ele>
        <time>2021-10-15T01:22:57Z</time>
      </trkpt>
      <trkpt lat="45.75001" lon="4.68959">
        <ele>341</ele>
        <time>2021-10-15T01:22:59Z</time>
      </trkpt>
      <trkpt lat="45.74999" lon="4.6901">
        <ele>340</ele>
        <time>2021-10-15T01:23:06Z</time>
      </trkpt>
      <trkpt lat="45.74973" lon="4.69244">
        <ele>332</ele>
        <time>2021-10-15T01:23:35Z</time>
      </trkpt>
      <trkpt lat="45.74987" lon="4.69267">
        <ele>331</ele>
        <time>2021-10-15T01:23:39Z</time>
      </trkpt>
      <trkpt lat="45.75053" lon="4.69406">
        <ele>326</ele>
        <time>2021-10-15T01:24:00Z</time>
      </trkpt>
      <trkpt lat="45.75061" lon="4.69438">
        <ele>325</ele>
        <time>2021-10-15T01:24:04Z</time>
      </trkpt>
      <trkpt lat="45.75071" lon="4.69503">
        <ele>322</ele>
        <time>2021-10-15T01:24:12Z</time>
      </trkpt>
      <trkpt lat="45.75075" lon="4.69571">
        <ele>321</ele>
        <time>2021-10-15T01:24:21Z</time>
      </trkpt>
      <trkpt lat="45.75076" lon="4.69618">
        <ele>320</ele>
        <time>2021-10-15T01:24:27Z</time>
      </trkpt>
      <trkpt lat="45.75076" lon="4.69639">
        <ele>320</ele>
        <time>2021-10-15T01:24:29Z</time>
      </trkpt>
      <trkpt lat="45.75064" lon="4.69788">
        <ele>317</ele>
        <time>2021-10-15T01:24:48Z</time>
      </trkpt>
      <trkpt lat="45.75077" lon="4.69832">
        <ele>316</ele>
        <time>2021-10-15T01:24:54Z</time>
      </trkpt>
      <trkpt lat="45.7511" lon="4.69999">
        <ele>317</ele>
        <time>2021-10-15T01:25:15Z</time>
      </trkpt>
      <trkpt lat="45.75204" lon="4.70077">
        <ele>316</ele>
        <time>2021-10-15T01:25:35Z</time>
      </trkpt>
      <trkpt lat="45.75277" lon="4.70146">
        <ele>313</ele>
        <time>2021-10-15T01:25:50Z</time>
      </trkpt>
      <trkpt lat="45.75318" lon="4.70198">
        <ele>310</ele>
        <time>2021-10-15T01:26:00Z</time>
      </trkpt>
      <trkpt lat="45.75377" lon="4.70297">
        <ele>303</ele>
        <time>2021-10-15T01:26:16Z</time>
      </trkpt>
      <trkpt lat="45.75439" lon="4.70389">
        <ele>294</ele>
        <time>2021-10-15T01:26:32Z</time>
      </trkpt>
      <trkpt lat="45.75469" lon="4.70422">
        <ele>291</ele>
        <time>2021-10-15T01:26:39Z</time>
      </trkpt>
      <trkpt lat="45.75507" lon="4.70455">
        <ele>289</ele>
        <time>2021-10-15T01:26:47Z</time>
      </trkpt>
      <trkpt lat="45.75512" lon="4.70463">
        <ele>288</ele>
        <time>2021-10-15T01:26:48Z</time>
      </trkpt>
      <trkpt lat="45.75517" lon="4.70462">
        <ele>288</ele>
        <time>2021-10-15T01:26:49Z</time>
      </trkpt>
      <trkpt lat="45.75524" lon="4.70466">
        <ele>288</ele>
        <time>2021-10-15T01:26:50Z</time>
      </trkpt>
      <trkpt lat="45.75547" lon="4.70488">
        <ele>286</ele>
        <time>2021-10-15T01:26:55Z</time>
      </trkpt>
      <trkpt lat="45.75561" lon="4.70498">
        <ele>285</ele>
        <time>2021-10-15T01:26:58Z</time>
      </trkpt>
      <trkpt lat="45.75592" lon="4.70512">
        <ele>284</ele>
        <time>2021-10-15T01:27:04Z</time>
      </trkpt>
      <trkpt lat="45.756" lon="4.70516">
        <ele>284</ele>
        <time>2021-10-15T01:27:05Z</time>
      </trkpt>
      <trkpt lat="45.75612" lon="4.70524">
        <ele>284</ele>
        <time>2021-10-15T01:27:08Z</time>
      </trkpt>
      <trkpt lat="45.75621" lon="4.70534">
        <ele>284</ele>
        <time>2021-10-15T01:27:10Z</time>
      </trkpt>
      <trkpt lat="45.75628" lon="4.70547">
        <ele>284</ele>
        <time>2021-10-15T01:27:12Z</time>
      </trkpt>
      <trkpt lat="45.75632" lon="4.70583">
        <ele>283</ele>
        <time>2021-10-15T01:27:16Z</time>
      </trkpt>
      <trkpt lat="45.75638" lon="4.70606">
        <ele>283</ele>
        <time>2021-10-15T01:27:19Z</time>
      </trkpt>
      <trkpt lat="45.75643" lon="4.70615">
        <ele>284</ele>
        <time>2021-10-15T01:27:21Z</time>
      </trkpt>
      <trkpt lat="45.75643" lon="4.70632">
        <ele>284</ele>
        <time>2021-10-15T01:27:23Z</time>
      </trkpt>
      <trkpt lat="45.75653" lon="4.70679">
        <ele>284</ele>
        <time>2021-10-15T01:27:29Z</time>
      </trkpt>
      <trkpt lat="45.75659" lon="4.70693">
        <ele>284</ele>
        <time>2021-10-15T01:27:31Z</time>
      </trkpt>
      <trkpt lat="45.75681" lon="4.70734">
        <ele>286</ele>
        <time>2021-10-15T01:27:37Z</time>
      </trkpt>
      <trkpt lat="45.75689" lon="4.70773">
        <ele>286</ele>
        <time>2021-10-15T01:27:42Z</time>
      </trkpt>
      <trkpt lat="45.7569" lon="4.70787">
        <ele>286</ele>
        <time>2021-10-15T01:27:44Z</time>
      </trkpt>
      <trkpt lat="45.75689" lon="4.70801">
        <ele>286</ele>
        <time>2021-10-15T01:27:46Z</time>
      </trkpt>
      <trkpt lat="45.7568" lon="4.70842">
        <ele>285</ele>
        <time>2021-10-15T01:27:51Z</time>
      </trkpt>
      <trkpt lat="45.75681" lon="4.70849">
        <ele>285</ele>
        <time>2021-10-15T01:27:52Z</time>
      </trkpt>
      <trkpt lat="45.75732" lon="4.70914">
        <ele>291</ele>
        <time>2021-10-15T01:28:04Z</time>
      </trkpt>
      <trkpt lat="45.75744" lon="4.70924">
        <ele>293</ele>
        <time>2021-10-15T01:28:07Z</time>
      </trkpt>
      <trkpt lat="45.75766" lon="4.70933">
        <ele>295</ele>
        <time>2021-10-15T01:28:11Z</time>
      </trkpt>
      <trkpt lat="45.75868" lon="4.70954">
        <ele>302</ele>
        <time>2021-10-15T01:28:29Z</time>
      </trkpt>
      <trkpt lat="45.75873" lon="4.70953">
        <ele>303</ele>
        <time>2021-10-15T01:28:30Z</time>
      </trkpt>
      <trkpt lat="45.75877" lon="4.70948">
        <ele>303</ele>
        <time>2021-10-15T01:28:31Z</time>
      </trkpt>
      <trkpt lat="45.75891" lon="4.70903">
        <ele>304</ele>
        <time>2021-10-15T01:28:37Z</time>
      </trkpt>
      <trkpt lat="45.75895" lon="4.709">
        <ele>305</ele>
        <time>2021-10-15T01:28:38Z</time>
      </trkpt>
      <trkpt lat="45.75944" lon="4.70902">
        <ele>307</ele>
        <time>2021-10-15T01:28:47Z</time>
      </trkpt>
      <trkpt lat="45.75998" lon="4.70911">
        <ele>309</ele>
        <time>2021-10-15T01:28:56Z</time>
      </trkpt>
      <trkpt lat="45.75962" lon="4.7109">
        <ele>305</ele>
        <time>2021-10-15T01:29:19Z</time>
      </trkpt>
      <trkpt lat="45.75935" lon="4.71216">
        <ele>303</ele>
        <time>2021-10-15T01:29:36Z</time>
      </trkpt>
      <trkpt lat="45.75917" lon="4.71345">
        <ele>306</ele>
        <time>2021-10-15T01:29:52Z</time>
      </trkpt>
      <trkpt lat="45.75897" lon="4.71452">
        <ele>306</ele>
        <time>2021-10-15T01:30:06Z</time>
      </trkpt>
      <trkpt lat="45.75885" lon="4.71642">
        <ele>306</ele>
        <time>2021-10-15T01:30:30Z</time>
      </trkpt>
      <trkpt lat="45.75882" lon="4.71657">
        <ele>306</ele>
        <time>2021-10-15T01:30:31Z</time>
      </trkpt>
      <trkpt lat="45.75874" lon="4.71658">
        <ele>306</ele>
        <time>2021-10-15T01:30:33Z</time>
      </trkpt>
      <trkpt lat="45.75871" lon="4.71664">
        <ele>306</ele>
        <time>2021-10-15T01:30:34Z</time>
      </trkpt>
      <trkpt lat="45.75872" lon="4.71674">
        <ele>306</ele>
        <time>2021-10-15T01:30:35Z</time>
      </trkpt>
      <trkpt lat="45.75876" lon="4.71678">
        <ele>306</ele>
        <time>2021-10-15T01:30:36Z</time>
      </trkpt>
      <trkpt lat="45.75877" lon="4.71691">
        <ele>306</ele>
        <time>2021-10-15T01:30:38Z</time>
      </trkpt>
      <trkpt lat="45.75872" lon="4.71716">
        <ele>305</ele>
        <time>2021-10-15T01:30:41Z</time>
      </trkpt>
      <trkpt lat="45.75842" lon="4.71844">
        <ele>305</ele>
        <time>2021-10-15T01:30:58Z</time>
      </trkpt>
      <trkpt lat="45.7582" lon="4.71963">
        <ele>304</ele>
        <time>2021-10-15T01:31:13Z</time>
      </trkpt>
      <trkpt lat="45.75809" lon="4.72053">
        <ele>301</ele>
        <time>2021-10-15T01:31:24Z</time>
      </trkpt>
      <trkpt lat="45.75798" lon="4.72124">
        <ele>299</ele>
        <time>2021-10-15T01:31:33Z</time>
      </trkpt>
      <trkpt lat="45.75797" lon="4.72141">
        <ele>298</ele>
        <time>2021-10-15T01:31:35Z</time>
      </trkpt>
      <trkpt lat="45.75802" lon="4.72185">
        <ele>297</ele>
        <time>2021-10-15T01:31:41Z</time>
      </trkpt>
      <trkpt lat="45.75807" lon="4.72199">
        <ele>297</ele>
        <time>2021-10-15T01:31:43Z</time>
      </trkpt>
      <trkpt lat="45.75829" lon="4.72248">
        <ele>295</ele>
        <time>2021-10-15T01:31:50Z</time>
      </trkpt>
      <trkpt lat="45.7592" lon="4.72418">
        <ele>289</ele>
        <time>2021-10-15T01:32:17Z</time>
      </trkpt>
      <trkpt lat="45.75915" lon="4.72426">
        <ele>289</ele>
        <time>2021-10-15T01:32:18Z</time>
      </trkpt>
      <trkpt lat="45.75915" lon="4.72434">
        <ele>288</ele>
        <time>2021-10-15T01:32:19Z</time>
      </trkpt>
      <trkpt lat="45.75921" lon="4.72441">
        <ele>288</ele>
        <time>2021-10-15T01:32:20Z</time>
      </trkpt>
      <trkpt lat="45.75927" lon="4.72441">
        <ele>287</ele>
        <time>2021-10-15T01:32:21Z</time>
      </trkpt>
      <trkpt lat="45.75958" lon="4.72738">
        <ele>274</ele>
        <time>2021-10-15T01:32:59Z</time>
      </trkpt>
      <trkpt lat="45.76" lon="4.72869">
        <ele>271</ele>
        <time>2021-10-15T01:33:17Z</time>
      </trkpt>
      <trkpt lat="45.76005" lon="4.7289">
        <ele>270</ele>
        <time>2021-10-15T01:33:19Z</time>
      </trkpt>
      <trkpt lat="45.76006" lon="4.72908">
        <ele>270</ele>
        <time>2021-10-15T01:33:22Z</time>
      </trkpt>
      <trkpt lat="45.76007" lon="4.72926">
        <ele>269</ele>
        <time>2021-10-15T01:33:24Z</time>
      </trkpt>
      <trkpt lat="45.76005" lon="4.72945">
        <ele>268</ele>
        <time>2021-10-15T01:33:26Z</time>
      </trkpt>
      <trkpt lat="45.75999" lon="4.72969">
        <ele>267</ele>
        <time>2021-10-15T01:33:29Z</time>
      </trkpt>
      <trkpt lat="45.75982" lon="4.73018">
        <ele>266</ele>
        <time>2021-10-15T01:33:36Z</time>
      </trkpt>
      <trkpt lat="45.75978" lon="4.73018">
        <ele>266</ele>
        <time>2021-10-15T01:33:37Z</time>
      </trkpt>
      <trkpt lat="45.75973" lon="4.73024">
        <ele>266</ele>
        <time>2021-10-15T01:33:38Z</time>
      </trkpt>
      <trkpt lat="45.75973" lon="4.73031">
        <ele>266</ele>
        <time>2021-10-15T01:33:39Z</time>
      </trkpt>
      <trkpt lat="45.75976" lon="4.73038">
        <ele>265</ele>
        <time>2021-10-15T01:33:40Z</time>
      </trkpt>
      <trkpt lat="45.75974" lon="4.73049">
        <ele>265</ele>
        <time>2021-10-15T01:33:41Z</time>
      </trkpt>
      <trkpt lat="45.75976" lon="4.73146">
        <ele>263</ele>
        <time>2021-10-15T01:33:53Z</time>
      </trkpt>
      <trkpt lat="45.75975" lon="4.73159">
        <ele>263</ele>
        <time>2021-10-15T01:33:55Z</time>
      </trkpt>
      <trkpt lat="45.75971" lon="4.73173">
        <ele>263</ele>
        <time>2021-10-15T01:33:57Z</time>
      </trkpt>
      <trkpt lat="45.75965" lon="4.73186">
        <ele>262</ele>
        <time>2021-10-15T01:33:59Z</time>
      </trkpt>
      <trkpt lat="45.75907" lon="4.73295">
        <ele>256</ele>
        <time>2021-10-15T01:34:16Z</time>
      </trkpt>
      <trkpt lat="45.75859" lon="4.73444">
        <ele>251</ele>
        <time>2021-10-15T01:34:36Z</time>
      </trkpt>
      <trkpt lat="45.7585" lon="4.73486">
        <ele>250</ele>
        <time>2021-10-15T01:34:42Z</time>
      </trkpt>
      <trkpt lat="45.75828" lon="4.73662">
        <ele>243</ele>
        <time>2021-10-15T01:35:04Z</time>
      </trkpt>
      <trkpt lat="45.75827" lon="4.73703">
        <ele>242</ele>
        <time>2021-10-15T01:35:09Z</time>
      </trkpt>
      <trkpt lat="45.7583" lon="4.73754">
        <ele>240</ele>
        <time>2021-10-15T01:35:15Z</time>
      </trkpt>
      <trkpt lat="45.75847" lon="4.73918">
        <ele>239</ele>
        <time>2021-10-15T01:35:36Z</time>
      </trkpt>
      <trkpt lat="45.75857" lon="4.74023">
        <ele>233</ele>
        <time>2021-10-15T01:35:49Z</time>
      </trkpt>
      <trkpt lat="45.75859" lon="4.74049">
        <ele>231</ele>
        <time>2021-10-15T01:35:52Z</time>
      </trkpt>
      <trkpt lat="45.75857" lon="4.74074">
        <ele>229</ele>
        <time>2021-10-15T01:35:55Z</time>
      </trkpt>
      <trkpt lat="45.75849" lon="4.74109">
        <ele>228</ele>
        <time>2021-10-15T01:36:00Z</time>
      </trkpt>
      <trkpt lat="45.7584" lon="4.74126">
        <ele>227</ele>
        <time>2021-10-15T01:36:03Z</time>
      </trkpt>
      <trkpt lat="45.75825" lon="4.74148">
        <ele>226</ele>
        <time>2021-10-15T01:36:06Z</time>
      </trkpt>
      <trkpt lat="45.75812" lon="4.74157">
        <ele>226</ele>
        <time>2021-10-15T01:36:09Z</time>
      </trkpt>
      <trkpt lat="45.75749" lon="4.74187">
        <ele>226</ele>
        <time>2021-10-15T01:36:21Z</time>
      </trkpt>
      <trkpt lat="45.75696" lon="4.74216">
        <ele>229</ele>
        <time>2021-10-15T01:36:31Z</time>
      </trkpt>
      <trkpt lat="45.75685" lon="4.74229">
        <ele>227</ele>
        <time>2021-10-15T01:36:33Z</time>
      </trkpt>
      <trkpt lat="45.75679" lon="4.74247">
        <ele>224</ele>
        <time>2021-10-15T01:36:36Z</time>
      </trkpt>
      <trkpt lat="45.75677" lon="4.74269">
        <ele>222</ele>
        <time>2021-10-15T01:36:39Z</time>
      </trkpt>
      <trkpt lat="45.75679" lon="4.74337">
        <ele>218</ele>
        <time>2021-10-15T01:36:47Z</time>
      </trkpt>
      <trkpt lat="45.75689" lon="4.74463">
        <ele>223</ele>
        <time>2021-10-15T01:37:03Z</time>
      </trkpt>
      <trkpt lat="45.75681" lon="4.74713">
        <ele>224</ele>
        <time>2021-10-15T01:37:34Z</time>
      </trkpt>
      <trkpt lat="45.75682" lon="4.74746">
        <ele>222</ele>
        <time>2021-10-15T01:37:38Z</time>
      </trkpt>
      <trkpt lat="45.75685" lon="4.74771">
        <ele>221</ele>
        <time>2021-10-15T01:37:41Z</time>
      </trkpt>
      <trkpt lat="45.7569" lon="4.74797">
        <ele>219</ele>
        <time>2021-10-15T01:37:45Z</time>
      </trkpt>
      <trkpt lat="45.75697" lon="4.7482">
        <ele>218</ele>
        <time>2021-10-15T01:37:48Z</time>
      </trkpt>
      <trkpt lat="45.75707" lon="4.7484">
        <ele>217</ele>
        <time>2021-10-15T01:37:51Z</time>
      </trkpt>
      <trkpt lat="45.75716" lon="4.74853">
        <ele>217</ele>
        <time>2021-10-15T01:37:53Z</time>
      </trkpt>
      <trkpt lat="45.75767" lon="4.74906">
        <ele>213</ele>
        <time>2021-10-15T01:38:04Z</time>
      </trkpt>
      <trkpt lat="45.75777" lon="4.74928">
        <ele>212</ele>
        <time>2021-10-15T01:38:07Z</time>
      </trkpt>
      <trkpt lat="45.75783" lon="4.74962">
        <ele>210</ele>
        <time>2021-10-15T01:38:12Z</time>
      </trkpt>
      <trkpt lat="45.75782" lon="4.75045">
        <ele>208</ele>
        <time>2021-10-15T01:38:22Z</time>
      </trkpt>
      <trkpt lat="45.7579" lon="4.75088">
        <ele>207</ele>
        <time>2021-10-15T01:38:28Z</time>
      </trkpt>
      <trkpt lat="45.75801" lon="4.75121">
        <ele>207</ele>
        <time>2021-10-15T01:38:32Z</time>
      </trkpt>
      <trkpt lat="45.75827" lon="4.75175">
        <ele>207</ele>
        <time>2021-10-15T01:38:40Z</time>
      </trkpt>
      <trkpt lat="45.7584" lon="4.75214">
        <ele>206</ele>
        <time>2021-10-15T01:38:46Z</time>
      </trkpt>
      <trkpt lat="45.75844" lon="4.75232">
        <ele>206</ele>
        <time>2021-10-15T01:38:48Z</time>
      </trkpt>
      <trkpt lat="45.75846" lon="4.75252">
        <ele>205</ele>
        <time>2021-10-15T01:38:51Z</time>
      </trkpt>
      <trkpt lat="45.75845" lon="4.75278">
        <ele>205</ele>
        <time>2021-10-15T01:38:54Z</time>
      </trkpt>
      <trkpt lat="45.75835" lon="4.75372">
        <ele>208</ele>
        <time>2021-10-15T01:39:06Z</time>
      </trkpt>
      <trkpt lat="45.75828" lon="4.7541">
        <ele>211</ele>
        <time>2021-10-15T01:39:10Z</time>
      </trkpt>
      <trkpt lat="45.75827" lon="4.75424">
        <ele>212</ele>
        <time>2021-10-15T01:39:12Z</time>
      </trkpt>
      <trkpt lat="45.75828" lon="4.75436">
        <ele>212</ele>
        <time>2021-10-15T01:39:14Z</time>
      </trkpt>
      <trkpt lat="45.75846" lon="4.75494">
        <ele>214</ele>
        <time>2021-10-15T01:39:22Z</time>
      </trkpt>
      <trkpt lat="45.75853" lon="4.75513">
        <ele>214</ele>
        <time>2021-10-15T01:39:24Z</time>
      </trkpt>
      <trkpt lat="45.75857" lon="4.7552">
        <ele>214</ele>
        <time>2021-10-15T01:39:25Z</time>
      </trkpt>
      <trkpt lat="45.75885" lon="4.75552">
        <ele>215</ele>
        <time>2021-10-15T01:39:32Z</time>
      </trkpt>
      <trkpt lat="45.75897" lon="4.75572">
        <ele>216</ele>
        <time>2021-10-15T01:39:35Z</time>
      </trkpt>
      <trkpt lat="45.75903" lon="4.7559">
        <ele>216</ele>
        <time>2021-10-15T01:39:38Z</time>
      </trkpt>
      <trkpt lat="45.75907" lon="4.75615">
        <ele>217</ele>
        <time>2021-10-15T01:39:41Z</time>
      </trkpt>
      <trkpt lat="45.75907" lon="4.7564">
        <ele>217</ele>
        <time>2021-10-15T01:39:44Z</time>
      </trkpt>
      <trkpt lat="45.75903" lon="4.75665">
        <ele>216</ele>
        <time>2021-10-15T01:39:47Z</time>
      </trkpt>
      <trkpt lat="45.75894" lon="4.75689">
        <ele>217</ele>
        <time>2021-10-15T01:39:50Z</time>
      </trkpt>
      <trkpt lat="45.75882" lon="4.7571">
        <ele>218</ele>
        <time>2021-10-15T01:39:54Z</time>
      </trkpt>
      <trkpt lat="45.75869" lon="4.75726">
        <ele>218</ele>
        <time>2021-10-15T01:39:57Z</time>
      </trkpt>
      <trkpt lat="45.75849" lon="4.75742">
        <ele>218</ele>
        <time>2021-10-15T01:40:01Z</time>
      </trkpt>
      <trkpt lat="45.75833" lon="4.75759">
        <ele>218</ele>
        <time>2021-10-15T01:40:04Z</time>
      </trkpt>
      <trkpt lat="45.75821" lon="4.7578">
        <ele>219</ele>
        <time>2021-10-15T01:40:08Z</time>
      </trkpt>
      <trkpt lat="45.7581" lon="4.75804">
        <ele>222</ele>
        <time>2021-10-15T01:40:11Z</time>
      </trkpt>
      <trkpt lat="45.75805" lon="4.75827">
        <ele>224</ele>
        <time>2021-10-15T01:40:14Z</time>
      </trkpt>
      <trkpt lat="45.75789" lon="4.75971">
        <ele>228</ele>
        <time>2021-10-15T01:40:32Z</time>
      </trkpt>
      <trkpt lat="45.75788" lon="4.75998">
        <ele>228</ele>
        <time>2021-10-15T01:40:36Z</time>
      </trkpt>
      <trkpt lat="45.75802" lon="4.76062">
        <ele>230</ele>
        <time>2021-10-15T01:40:44Z</time>
      </trkpt>
      <trkpt lat="45.75811" lon="4.76126">
        <ele>230</ele>
        <time>2021-10-15T01:40:52Z</time>
      </trkpt>
      <trkpt lat="45.75813" lon="4.7615">
        <ele>230</ele>
        <time>2021-10-15T01:40:55Z</time>
      </trkpt>
      <trkpt lat="45.75833" lon="4.76249">
        <ele>231</ele>
        <time>2021-10-15T01:41:08Z</time>
      </trkpt>
      <trkpt lat="45.75841" lon="4.76306">
        <ele>230</ele>
        <time>2021-10-15T01:41:15Z</time>
      </trkpt>
      <trkpt lat="45.75882" lon="4.76722">
        <ele>222</ele>
        <time>2021-10-15T01:42:07Z</time>
      </trkpt>
      <trkpt lat="45.75893" lon="4.7691">
        <ele>219</ele>
        <time>2021-10-15T01:42:31Z</time>
      </trkpt>
      <trkpt lat="45.75894" lon="4.76989">
        <ele>218</ele>
        <time>2021-10-15T01:42:41Z</time>
      </trkpt>
      <trkpt lat="45.75887" lon="4.77144">
        <ele>220</ele>
        <time>2021-10-15T01:43:00Z</time>
      </trkpt>
      <trkpt lat="45.75884" lon="4.77166">
        <ele>220</ele>
        <time>2021-10-15T01:43:03Z</time>
      </trkpt>
      <trkpt lat="45.75836" lon="4.77375">
        <ele>218</ele>
        <time>2021-10-15T01:43:30Z</time>
      </trkpt>
      <trkpt lat="45.75822" lon="4.7747">
        <ele>217</ele>
        <time>2021-10-15T01:43:42Z</time>
      </trkpt>
      <trkpt lat="45.75852" lon="4.77508">
        <ele>216</ele>
        <time>2021-10-15T01:43:49Z</time>
      </trkpt>
      <trkpt lat="45.7636" lon="4.78104">
        <ele>223</ele>
        <time>2021-10-15T01:45:46Z</time>
      </trkpt>
      <trkpt lat="45.76365" lon="4.78114">
        <ele>223</ele>
        <time>2021-10-15T01:45:48Z</time>
      </trkpt>
      <trkpt lat="45.76391" lon="4.78149">
        <ele>223</ele>
        <time>2021-10-15T01:45:54Z</time>
      </trkpt>
      <trkpt lat="45.76392" lon="4.78157">
        <ele>223</ele>
        <time>2021-10-15T01:45:55Z</time>
      </trkpt>
      <trkpt lat="45.76396" lon="4.78165">
        <ele>223</ele>
        <time>2021-10-15T01:45:56Z</time>
      </trkpt>
      <trkpt lat="45.76401" lon="4.78168">
        <ele>223</ele>
        <time>2021-10-15T01:45:57Z</time>
      </trkpt>
      <trkpt lat="45.76407" lon="4.78167">
        <ele>223</ele>
        <time>2021-10-15T01:45:58Z</time>
      </trkpt>
      <trkpt lat="45.7641" lon="4.78163">
        <ele>223</ele>
        <time>2021-10-15T01:45:59Z</time>
      </trkpt>
      <trkpt lat="45.7642" lon="4.78173">
        <ele>223</ele>
        <time>2021-10-15T01:46:01Z</time>
      </trkpt>
      <trkpt lat="45.76669" lon="4.78458">
        <ele>208</ele>
        <time>2021-10-15T01:46:58Z</time>
      </trkpt>
      <trkpt lat="45.76811" lon="4.78625">
        <ele>203</ele>
        <time>2021-10-15T01:47:30Z</time>
      </trkpt>
      <trkpt lat="45.76921" lon="4.78751">
        <ele>202</ele>
        <time>2021-10-15T01:47:55Z</time>
      </trkpt>
      <trkpt lat="45.76926" lon="4.78766">
        <ele>202</ele>
        <time>2021-10-15T01:47:58Z</time>
      </trkpt>
      <trkpt lat="45.76955" lon="4.78805">
        <ele>200</ele>
        <time>2021-10-15T01:48:05Z</time>
      </trkpt>
      <trkpt lat="45.77007" lon="4.78864">
        <ele>199</ele>
        <time>2021-10-15T01:48:16Z</time>
      </trkpt>
      <trkpt lat="45.7703" lon="4.78887">
        <ele>199</ele>
        <time>2021-10-15T01:48:21Z</time>
      </trkpt>
      <trkpt lat="45.7725" lon="4.79138">
        <ele>187</ele>
        <time>2021-10-15T01:49:11Z</time>
      </trkpt>
      <trkpt lat="45.77293" lon="4.79185">
        <ele>186</ele>
        <time>2021-10-15T01:49:21Z</time>
      </trkpt>
      <trkpt lat="45.77304" lon="4.79192">
        <ele>185</ele>
        <time>2021-10-15T01:49:23Z</time>
      </trkpt>
      <trkpt lat="45.77339" lon="4.79237">
        <ele>184</ele>
        <time>2021-10-15T01:49:32Z</time>
      </trkpt>
      <trkpt lat="45.77348" lon="4.79247">
        <ele>184</ele>
        <time>2021-10-15T01:49:34Z</time>
      </trkpt>
      <trkpt lat="45.77354" lon="4.79281">
        <ele>183</ele>
        <time>2021-10-15T01:49:38Z</time>
      </trkpt>
      <trkpt lat="45.77355" lon="4.79301">
        <ele>182</ele>
        <time>2021-10-15T01:49:40Z</time>
      </trkpt>
      <trkpt lat="45.77355" lon="4.79404">
        <ele>177</ele>
        <time>2021-10-15T01:49:53Z</time>
      </trkpt>
      <trkpt lat="45.77359" lon="4.79522">
        <ele>175</ele>
        <time>2021-10-15T01:50:08Z</time>
      </trkpt>
      <trkpt lat="45.77361" lon="4.79738">
        <ele>172</ele>
        <time>2021-10-15T01:50:35Z</time>
      </trkpt>
      <trkpt lat="45.7736" lon="4.79801">
        <ele>172</ele>
        <time>2021-10-15T01:50:42Z</time>
      </trkpt>
      <trkpt lat="45.77359" lon="4.79821">
        <ele>172</ele>
        <time>2021-10-15T01:50:45Z</time>
      </trkpt>
      <trkpt lat="45.77349" lon="4.79942">
        <ele>172</ele>
        <time>2021-10-15T01:51:00Z</time>
      </trkpt>
      <trkpt lat="45.77353" lon="4.80025">
        <ele>173</ele>
        <time>2021-10-15T01:51:10Z</time>
      </trkpt>
      <trkpt lat="45.77357" lon="4.80037">
        <ele>174</ele>
        <time>2021-10-15T01:51:12Z</time>
      </trkpt>
      <trkpt lat="45.77367" lon="4.80049">
        <ele>174</ele>
        <time>2021-10-15T01:51:14Z</time>
      </trkpt>
      <trkpt lat="45.7743" lon="4.80153">
        <ele>173</ele>
        <time>2021-10-15T01:51:31Z</time>
      </trkpt>
      <trkpt lat="45.77442" lon="4.80162">
        <ele>173</ele>
        <time>2021-10-15T01:51:34Z</time>
      </trkpt>
      <trkpt lat="45.77451" lon="4.80156">
        <ele>173</ele>
        <time>2021-10-15T01:51:36Z</time>
      </trkpt>
      <trkpt lat="45.77457" lon="4.80119">
        <ele>172</ele>
        <time>2021-10-15T01:51:40Z</time>
      </trkpt>
      <trkpt lat="45.77512" lon="4.80137">
        <ele>172</ele>
        <time>2021-10-15T01:51:50Z</time>
      </trkpt>
      <trkpt lat="45.77554" lon="4.8018">
        <ele>173</ele>
        <time>2021-10-15T01:52:00Z</time>
      </trkpt>
      <trkpt lat="45.77575" lon="4.80189">
        <ele>173</ele>
        <time>2021-10-15T01:52:03Z</time>
      </trkpt>
      <trkpt lat="45.77616" lon="4.80214">
        <ele>172</ele>
        <time>2021-10-15T01:52:11Z</time>
      </trkpt>
      <trkpt lat="45.7773" lon="4.80323">
        <ele>172</ele>
        <time>2021-10-15T01:52:36Z</time>
      </trkpt>
      <trkpt lat="45.77745" lon="4.80346">
        <ele>172</ele>
        <time>2021-10-15T01:52:40Z</time>
      </trkpt>
      <trkpt lat="45.77723" lon="4.80366">
        <ele>172</ele>
        <time>2021-10-15T01:52:44Z</time>
      </trkpt>
      <trkpt lat="45.77869" lon="4.8071">
        <ele>174</ele>
        <time>2021-10-15T01:53:34Z</time>
      </trkpt>
      <trkpt lat="45.77855" lon="4.80792">
        <ele>172</ele>
        <time>2021-10-15T01:53:45Z</time>
      </trkpt>
      <trkpt lat="45.77854" lon="4.80799">
        <ele>172</ele>
        <time>2021-10-15T01:53:46Z</time>
      </trkpt>
      <trkpt lat="45.77999" lon="4.80885">
        <ele>174</ele>
        <time>2021-10-15T01:54:14Z</time>
      </trkpt>
      <trkpt lat="45.78072" lon="4.80937">
        <ele>169</ele>
        <time>2021-10-15T01:54:28Z</time>
      </trkpt>
      <trkpt lat="45.78127" lon="4.80986">
        <ele>166</ele>
        <time>2021-10-15T01:54:40Z</time>
      </trkpt>
      <trkpt lat="45.78249" lon="4.81087">
        <ele>171</ele>
        <time>2021-10-15T01:55:05Z</time>
      </trkpt>
      <trkpt lat="45.7825" lon="4.81099">
        <ele>170</ele>
        <time>2021-10-15T01:55:06Z</time>
      </trkpt>
      <trkpt lat="45.7829" lon="4.81132">
        <ele>170</ele>
        <time>2021-10-15T01:55:14Z</time>
      </trkpt>
      <trkpt lat="45.78298" lon="4.8112">
        <ele>172</ele>
        <time>2021-10-15T01:55:16Z</time>
      </trkpt>
      <trkpt lat="45.78508" lon="4.81292">
        <ele>168</ele>
        <time>2021-10-15T01:55:59Z</time>
      </trkpt>
      <trkpt lat="45.78733" lon="4.8144">
        <ele>170</ele>
        <time>2021-10-15T01:56:44Z</time>
      </trkpt>
      <trkpt lat="45.78812" lon="4.81504">
        <ele>171</ele>
        <time>2021-10-15T01:57:00Z</time>
      </trkpt>
      <trkpt lat="45.78882" lon="4.81574">
        <ele>170</ele>
        <time>2021-10-15T01:57:15Z</time>
      </trkpt>
      <trkpt lat="45.78917" lon="4.81619">
        <ele>169</ele>
        <time>2021-10-15T01:57:23Z</time>
      </trkpt>
      <trkpt lat="45.79039" lon="4.8179">
        <ele>167</ele>
        <time>2021-10-15T01:57:54Z</time>
      </trkpt>
      <trkpt lat="45.79091" lon="4.81867">
        <ele>167</ele>
        <time>2021-10-15T01:58:07Z</time>
      </trkpt>
      <trkpt lat="45.79135" lon="4.81929">
        <ele>169</ele>
        <time>2021-10-15T01:58:18Z</time>
      </trkpt>
      <trkpt lat="45.79337" lon="4.82177">
        <ele>169</ele>
        <time>2021-10-15T01:59:05Z</time>
      </trkpt>
      <trkpt lat="45.79357" lon="4.82208">
        <ele>170</ele>
        <time>2021-10-15T01:59:10Z</time>
      </trkpt>
      <trkpt lat="45.79524" lon="4.82507">
        <ele>169</ele>
        <time>2021-10-15T01:59:58Z</time>
      </trkpt>
      <trkpt lat="45.79657" lon="4.82767">
        <ele>167</ele>
        <time>2021-10-15T02:00:38Z</time>
      </trkpt>
      <trkpt lat="45.79701" lon="4.82847">
        <ele>168</ele>
        <time>2021-10-15T02:00:51Z</time>
      </trkpt>
      <trkpt lat="45.79746" lon="4.82936">
        <ele>170</ele>
        <time>2021-10-15T02:01:04Z</time>
      </trkpt>
      <trkpt lat="45.79787" lon="4.83023">
        <ele>170</ele>
        <time>2021-10-15T02:01:17Z</time>
      </trkpt>
      <trkpt lat="45.79856" lon="4.83186">
        <ele>171</ele>
        <time>2021-10-15T02:01:41Z</time>
      </trkpt>
      <trkpt lat="45.79916" lon="4.83382">
        <ele>172</ele>
        <time>2021-10-15T02:02:07Z</time>
      </trkpt>
      <trkpt lat="45.79973" lon="4.83576">
        <ele>175</ele>
        <time>2021-10-15T02:02:34Z</time>
      </trkpt>
      <trkpt lat="45.80009" lon="4.83654">
        <ele>175</ele>
        <time>2021-10-15T02:02:45Z</time>
      </trkpt>
      <trkpt lat="45.8001" lon="4.83663">
        <ele>174</ele>
        <time>2021-10-15T02:02:46Z</time>
      </trkpt>
      <trkpt lat="45.80058" lon="4.8375">
        <ele>171</ele>
        <time>2021-10-15T02:03:00Z</time>
      </trkpt>
      <trkpt lat="45.80078" lon="4.83781">
        <ele>171</ele>
        <time>2021-10-15T02:03:05Z</time>
      </trkpt>
      <trkpt lat="45.80122" lon="4.8383">
        <ele>174</ele>
        <time>2021-10-15T02:03:15Z</time>
      </trkpt>
      <trkpt lat="45.80141" lon="4.83847">
        <ele>174</ele>
        <time>2021-10-15T02:03:19Z</time>
      </trkpt>
      <trkpt lat="45.80179" lon="4.83872">
        <ele>176</ele>
        <time>2021-10-15T02:03:27Z</time>
      </trkpt>
      <trkpt lat="45.80299" lon="4.83926">
        <ele>178</ele>
        <time>2021-10-15T02:03:49Z</time>
      </trkpt>
      <trkpt lat="45.80315" lon="4.83939">
        <ele>178</ele>
        <time>2021-10-15T02:03:52Z</time>
      </trkpt>
      <trkpt lat="45.80359" lon="4.83981">
        <ele>175</ele>
        <time>2021-10-15T02:04:02Z</time>
      </trkpt>
      <trkpt lat="45.80402" lon="4.84012">
        <ele>172</ele>
        <time>2021-10-15T02:04:10Z</time>
      </trkpt>
      <trkpt lat="45.80464" lon="4.84049">
        <ele>174</ele>
        <time>2021-10-15T02:04:22Z</time>
      </trkpt>
      <trkpt lat="45.80628" lon="4.84139">
        <ele>173</ele>
        <time>2021-10-15T02:04:53Z</time>
      </trkpt>
      <trkpt lat="45.8073" lon="4.84174">
        <ele>173</ele>
        <time>2021-10-15T02:05:12Z</time>
      </trkpt>
      <trkpt lat="45.80818" lon="4.84191">
        <ele>175</ele>
        <time>2021-10-15T02:05:28Z</time>
      </trkpt>
      <trkpt lat="45.80926" lon="4.84191">
        <ele>176</ele>
        <time>2021-10-15T02:05:47Z</time>
      </trkpt>
      <trkpt lat="45.80983" lon="4.84194">
        <ele>176</ele>
        <time>2021-10-15T02:05:57Z</time>
      </trkpt>
      <trkpt lat="45.81028" lon="4.84202">
        <ele>175</ele>
        <time>2021-10-15T02:06:05Z</time>
      </trkpt>
      <trkpt lat="45.81102" lon="4.84229">
        <ele>172</ele>
        <time>2021-10-15T02:06:19Z</time>
      </trkpt>
      <trkpt lat="45.8119" lon="4.84281">
        <ele>170</ele>
        <time>2021-10-15T02:06:36Z</time>
      </trkpt>
      <trkpt lat="45.81254" lon="4.84339">
        <ele>167</ele>
        <time>2021-10-15T02:06:49Z</time>
      </trkpt>
      <trkpt lat="45.81469" lon="4.84598">
        <ele>168</ele>
        <time>2021-10-15T02:07:39Z</time>
      </trkpt>
      <trkpt lat="45.81482" lon="4.84619">
        <ele>169</ele>
        <time>2021-10-15T02:07:43Z</time>
      </trkpt>
      <trkpt lat="45.81478" lon="4.84626">
        <ele>169</ele>
        <time>2021-10-15T02:07:44Z</time>
      </trkpt>
      <trkpt lat="45.81478" lon="4.84634">
        <ele>169</ele>
        <time>2021-10-15T02:07:45Z</time>
      </trkpt>
      <trkpt lat="45.81482" lon="4.8464">
        <ele>169</ele>
        <time>2021-10-15T02:07:46Z</time>
      </trkpt>
      <trkpt lat="45.81489" lon="4.8464">
        <ele>169</ele>
        <time>2021-10-15T02:07:47Z</time>
      </trkpt>
      <trkpt lat="45.81498" lon="4.84651">
        <ele>170</ele>
        <time>2021-10-15T02:07:49Z</time>
      </trkpt>
      <trkpt lat="45.81505" lon="4.84664">
        <ele>170</ele>
        <time>2021-10-15T02:07:51Z</time>
      </trkpt>
      <trkpt lat="45.81539" lon="4.84782">
        <ele>168</ele>
        <time>2021-10-15T02:08:07Z</time>
      </trkpt>
      <trkpt lat="45.81667" lon="4.85108">
        <ele>166</ele>
        <time>2021-10-15T02:08:54Z</time>
      </trkpt>
      <trkpt lat="45.81702" lon="4.85186">
        <ele>166</ele>
        <time>2021-10-15T02:09:05Z</time>
      </trkpt>
      <trkpt lat="45.81735" lon="4.85246">
        <ele>169</ele>
        <time>2021-10-15T02:09:15Z</time>
      </trkpt>
      <trkpt lat="45.81763" lon="4.85291">
        <ele>168</ele>
        <time>2021-10-15T02:09:22Z</time>
      </trkpt>
      <trkpt lat="45.81793" lon="4.8533">
        <ele>168</ele>
        <time>2021-10-15T02:09:29Z</time>
      </trkpt>
      <trkpt lat="45.81834" lon="4.85373">
        <ele>169</ele>
        <time>2021-10-15T02:09:38Z</time>
      </trkpt>
      <trkpt lat="45.81872" lon="4.85403">
        <ele>169</ele>
        <time>2021-10-15T02:09:46Z</time>
      </trkpt>
      <trkpt lat="45.81891" lon="4.85416">
        <ele>169</ele>
        <time>2021-10-15T02:09:50Z</time>
      </trkpt>
      <trkpt lat="45.81964" lon="4.85451">
        <ele>168</ele>
        <time>2021-10-15T02:10:03Z</time>
      </trkpt>
      <trkpt lat="45.82041" lon="4.85475">
        <ele>166</ele>
        <time>2021-10-15T02:10:17Z</time>
      </trkpt>
      <trkpt lat="45.82133" lon="4.85481">
        <ele>168</ele>
        <time>2021-10-15T02:10:34Z</time>
      </trkpt>
      <trkpt lat="45.82245" lon="4.85468">
        <ele>169</ele>
        <time>2021-10-15T02:10:54Z</time>
      </trkpt>
      <trkpt lat="45.82294" lon="4.85455">
        <ele>170</ele>
        <time>2021-10-15T02:11:03Z</time>
      </trkpt>
      <trkpt lat="45.8234" lon="4.85438">
        <ele>171</ele>
        <time>2021-10-15T02:11:11Z</time>
      </trkpt>
      <trkpt lat="45.82448" lon="4.85388">
        <ele>171</ele>
        <time>2021-10-15T02:11:31Z</time>
      </trkpt>
      <trkpt lat="45.82638" lon="4.8526">
        <ele>171</ele>
        <time>2021-10-15T02:12:09Z</time>
      </trkpt>
      <trkpt lat="45.82773" lon="4.85165">
        <ele>171</ele>
        <time>2021-10-15T02:12:35Z</time>
      </trkpt>
      <trkpt lat="45.82848" lon="4.85097">
        <ele>169</ele>
        <time>2021-10-15T02:12:51Z</time>
      </trkpt>
      <trkpt lat="45.82913" lon="4.85024">
        <ele>167</ele>
        <time>2021-10-15T02:13:06Z</time>
      </trkpt>
      <trkpt lat="45.82975" lon="4.84944">
        <ele>166</ele>
        <time>2021-10-15T02:13:21Z</time>
      </trkpt>
      <trkpt lat="45.8301" lon="4.84896">
        <ele>167</ele>
        <time>2021-10-15T02:13:29Z</time>
      </trkpt>
      <trkpt lat="45.83088" lon="4.84746">
        <ele>171</ele>
        <time>2021-10-15T02:13:53Z</time>
      </trkpt>
      <trkpt lat="45.83095" lon="4.84746">
        <ele>170</ele>
        <time>2021-10-15T02:13:54Z</time>
      </trkpt>
      <trkpt lat="45.83104" lon="4.84737">
        <ele>170</ele>
        <time>2021-10-15T02:13:56Z</time>
      </trkpt>
      <trkpt lat="45.83234" lon="4.84867">
        <ele>168</ele>
        <time>2021-10-15T02:14:24Z</time>
      </trkpt>
      <trkpt lat="45.83239" lon="4.84874">
        <ele>169</ele>
        <time>2021-10-15T02:14:25Z</time>
      </trkpt>
      <trkpt lat="45.83264" lon="4.84811">
        <ele>167</ele>
        <time>2021-10-15T02:14:34Z</time>
      </trkpt>
      <trkpt lat="45.83282" lon="4.84753">
        <ele>167</ele>
        <time>2021-10-15T02:14:42Z</time>
      </trkpt>
      <trkpt lat="45.83396" lon="4.84758">
        <ele>173</ele>
        <time>2021-10-15T02:15:02Z</time>
      </trkpt>
      <trkpt lat="45.83482" lon="4.84765">
        <ele>179</ele>
        <time>2021-10-15T02:15:18Z</time>
      </trkpt>
      <trkpt lat="45.83489" lon="4.84748">
        <ele>179</ele>
        <time>2021-10-15T02:15:20Z</time>
      </trkpt>
      <trkpt lat="45.83506" lon="4.84749">
        <ele>180</ele>
        <time>2021-10-15T02:15:23Z</time>
      </trkpt>
      <trkpt lat="45.8362" lon="4.84692">
        <ele>189</ele>
        <time>2021-10-15T02:15:45Z</time>
      </trkpt>
      <trkpt lat="45.83669" lon="4.84676">
        <ele>196</ele>
        <time>2021-10-15T02:15:54Z</time>
      </trkpt>
      <trkpt lat="45.83694" lon="4.84672">
        <ele>197</ele>
        <time>2021-10-15T02:15:58Z</time>
      </trkpt>
      <trkpt lat="45.83702" lon="4.84679">
        <ele>197</ele>
        <time>2021-10-15T02:16:00Z</time>
      </trkpt>
      <trkpt lat="45.83797" lon="4.84696">
        <ele>200</ele>
        <time>2021-10-15T02:16:17Z</time>
      </trkpt>
      <trkpt lat="45.83833" lon="4.84712">
        <ele>202</ele>
        <time>2021-10-15T02:16:23Z</time>
      </trkpt>
      <trkpt lat="45.83842" lon="4.8471">
        <ele>201</ele>
        <time>2021-10-15T02:16:25Z</time>
      </trkpt>
      <trkpt lat="45.84004" lon="4.84827">
        <ele>192</ele>
        <time>2021-10-15T02:16:57Z</time>
      </trkpt>
      <trkpt lat="45.84031" lon="4.84849">
        <ele>191</ele>
        <time>2021-10-15T02:17:03Z</time>
      </trkpt>
      <trkpt lat="45.84037" lon="4.8485">
        <ele>191</ele>
        <time>2021-10-15T02:17:04Z</time>
      </trkpt>
      <trkpt lat="45.8404" lon="4.84856">
        <ele>191</ele>
        <time>2021-10-15T02:17:05Z</time>
      </trkpt>
      <trkpt lat="45.84043" lon="4.84856">
        <ele>190</ele>
        <time>2021-10-15T02:17:05Z</time>
      </trkpt>
      <trkpt lat="45.84046" lon="4.84853">
        <ele>190</ele>
        <time>2021-10-15T02:17:06Z</time>
      </trkpt>
      <trkpt lat="45.8405" lon="4.8486">
        <ele>190</ele>
        <time>2021-10-15T02:17:07Z</time>
      </trkpt>
      <trkpt lat="45.84097" lon="4.84873">
        <ele>188</ele>
        <time>2021-10-15T02:17:16Z</time>
      </trkpt>
      <trkpt lat="45.84118" lon="4.84882">
        <ele>189</ele>
        <time>2021-10-15T02:17:20Z</time>
      </trkpt>
      <trkpt lat="45.8413" lon="4.84897">
        <ele>190</ele>
        <time>2021-10-15T02:17:22Z</time>
      </trkpt>
      <trkpt lat="45.84188" lon="4.84975">
        <ele>193</ele>
        <time>2021-10-15T02:17:37Z</time>
      </trkpt>
      <trkpt lat="45.84332" lon="4.85243">
        <ele>197</ele>
        <time>2021-10-15T02:18:18Z</time>
      </trkpt>
      <trkpt lat="45.84403" lon="4.85378">
        <ele>202</ele>
        <time>2021-10-15T02:18:39Z</time>
      </trkpt>
      <trkpt lat="45.84436" lon="4.85441">
        <ele>203</ele>
        <time>2021-10-15T02:18:49Z</time>
      </trkpt>
      <trkpt lat="45.84442" lon="4.85445">
        <ele>203</ele>
        <time>2021-10-15T02:18:50Z</time>
      </trkpt>
      <trkpt lat="45.84521" lon="4.85423">
        <ele>208</ele>
        <time>2021-10-15T02:19:05Z</time>
      </trkpt>
      <trkpt lat="45.84528" lon="4.85467">
        <ele>208</ele>
        <time>2021-10-15T02:19:10Z</time>
      </trkpt>
      <trkpt lat="45.84549" lon="4.85502">
        <ele>210</ele>
        <time>2021-10-15T02:19:16Z</time>
      </trkpt>
      <trkpt lat="45.84554" lon="4.85513">
        <ele>211</ele>
        <time>2021-10-15T02:19:18Z</time>
      </trkpt>
      <trkpt lat="45.8456" lon="4.85576">
        <ele>211</ele>
        <time>2021-10-15T02:19:26Z</time>
      </trkpt>
      <trkpt lat="45.84566" lon="4.85595">
        <ele>211</ele>
        <time>2021-10-15T02:19:28Z</time>
      </trkpt>
      <trkpt lat="45.84575" lon="4.85615">
        <ele>211</ele>
        <time>2021-10-15T02:19:31Z</time>
      </trkpt>
      <trkpt lat="45.84586" lon="4.85631">
        <ele>212</ele>
        <time>2021-10-15T02:19:34Z</time>
      </trkpt>
      <trkpt lat="45.84607" lon="4.85652">
        <ele>215</ele>
        <time>2021-10-15T02:19:38Z</time>
      </trkpt>
      <trkpt lat="45.84794" lon="4.858">
        <ele>229</ele>
        <time>2021-10-15T02:20:16Z</time>
      </trkpt>
      <trkpt lat="45.84808" lon="4.85815">
        <ele>230</ele>
        <time>2021-10-15T02:20:19Z</time>
      </trkpt>
      <trkpt lat="45.84846" lon="4.85863">
        <ele>233</ele>
        <time>2021-10-15T02:20:28Z</time>
      </trkpt>
      <trkpt lat="45.84876" lon="4.85896">
        <ele>234</ele>
        <time>2021-10-15T02:20:35Z</time>
      </trkpt>
      <trkpt lat="45.84894" lon="4.85904">
        <ele>237</ele>
        <time>2021-10-15T02:20:39Z</time>
      </trkpt>
      <trkpt lat="45.84925" lon="4.85901">
        <ele>241</ele>
        <time>2021-10-15T02:20:44Z</time>
      </trkpt>
      <trkpt lat="45.84932" lon="4.85904">
        <ele>241</ele>
        <time>2021-10-15T02:20:45Z</time>
      </trkpt>
      <trkpt lat="45.84955" lon="4.85931">
        <ele>242</ele>
        <time>2021-10-15T02:20:51Z</time>
      </trkpt>
      <trkpt lat="45.8503" lon="4.8604">
        <ele>248</ele>
        <time>2021-10-15T02:21:10Z</time>
      </trkpt>
      <trkpt lat="45.85065" lon="4.86158">
        <ele>250</ele>
        <time>2021-10-15T02:21:26Z</time>
      </trkpt>
      <trkpt lat="45.85077" lon="4.86193">
        <ele>251</ele>
        <time>2021-10-15T02:21:30Z</time>
      </trkpt>
      <trkpt lat="45.85107" lon="4.86259">
        <ele>251</ele>
        <time>2021-10-15T02:21:40Z</time>
      </trkpt>
      <trkpt lat="45.85127" lon="4.86285">
        <ele>251</ele>
        <time>2021-10-15T02:21:45Z</time>
      </trkpt>
      <trkpt lat="45.85166" lon="4.86321">
        <ele>253</ele>
        <time>2021-10-15T02:21:53Z</time>
      </trkpt>
      <trkpt lat="45.85178" lon="4.86339">
        <ele>253</ele>
        <time>2021-10-15T02:21:56Z</time>
      </trkpt>
      <trkpt lat="45.85221" lon="4.86424">
        <ele>253</ele>
        <time>2021-10-15T02:22:09Z</time>
      </trkpt>
      <trkpt lat="45.85243" lon="4.86447">
        <ele>253</ele>
        <time>2021-10-15T02:22:14Z</time>
      </trkpt>
      <trkpt lat="45.85305" lon="4.86491">
        <ele>254</ele>
        <time>2021-10-15T02:22:26Z</time>
      </trkpt>
      <trkpt lat="45.85318" lon="4.86515">
        <ele>254</ele>
        <time>2021-10-15T02:22:30Z</time>
      </trkpt>
      <trkpt lat="45.85334" lon="4.86562">
        <ele>254</ele>
        <time>2021-10-15T02:22:37Z</time>
      </trkpt>
      <trkpt lat="45.85363" lon="4.86664">
        <ele>254</ele>
        <time>2021-10-15T02:22:50Z</time>
      </trkpt>
      <trkpt lat="45.85396" lon="4.86802">
        <ele>256</ele>
        <time>2021-10-15T02:23:08Z</time>
      </trkpt>
      <trkpt lat="45.85421" lon="4.8689">
        <ele>260</ele>
        <time>2021-10-15T02:23:20Z</time>
      </trkpt>
      <trkpt lat="45.85453" lon="4.86986">
        <ele>260</ele>
        <time>2021-10-15T02:23:33Z</time>
      </trkpt>
      <trkpt lat="45.85463" lon="4.87021">
        <ele>261</ele>
        <time>2021-10-15T02:23:38Z</time>
      </trkpt>
      <trkpt lat="45.85477" lon="4.87105">
        <ele>261</ele>
        <time>2021-10-15T02:23:49Z</time>
      </trkpt>
      <trkpt lat="45.85503" lon="4.87216">
        <ele>261</ele>
        <time>2021-10-15T02:24:03Z</time>
      </trkpt>
      <trkpt lat="45.85505" lon="4.87238">
        <ele>261</ele>
        <time>2021-10-15T02:24:06Z</time>
      </trkpt>
      <trkpt lat="45.85507" lon="4.87315">
        <ele>261</ele>
        <time>2021-10-15T02:24:16Z</time>
      </trkpt>
      <trkpt lat="45.8551" lon="4.87368">
        <ele>261</ele>
        <time>2021-10-15T02:24:22Z</time>
      </trkpt>
      <trkpt lat="45.85527" lon="4.87474">
        <ele>262</ele>
        <time>2021-10-15T02:24:36Z</time>
      </trkpt>
      <trkpt lat="45.85536" lon="4.87509">
        <ele>262</ele>
        <time>2021-10-15T02:24:40Z</time>
      </trkpt>
      <trkpt lat="45.85561" lon="4.87578">
        <ele>262</ele>
        <time>2021-10-15T02:24:50Z</time>
      </trkpt>
      <trkpt lat="45.85581" lon="4.87619">
        <ele>261</ele>
        <time>2021-10-15T02:24:56Z</time>
      </trkpt>
      <trkpt lat="45.85631" lon="4.87713">
        <ele>260</ele>
        <time>2021-10-15T02:25:11Z</time>
      </trkpt>
      <trkpt lat="45.85651" lon="4.87744">
        <ele>260</ele>
        <time>2021-10-15T02:25:16Z</time>
      </trkpt>
      <trkpt lat="45.85652" lon="4.87757">
        <ele>260</ele>
        <time>2021-10-15T02:25:18Z</time>
      </trkpt>
      <trkpt lat="45.85656" lon="4.87763">
        <ele>260</ele>
        <time>2021-10-15T02:25:19Z</time>
      </trkpt>
      <trkpt lat="45.85662" lon="4.87764">
        <ele>260</ele>
        <time>2021-10-15T02:25:20Z</time>
      </trkpt>
      <trkpt lat="45.85668" lon="4.8776">
        <ele>260</ele>
        <time>2021-10-15T02:25:21Z</time>
      </trkpt>
      <trkpt lat="45.85671" lon="4.87751">
        <ele>260</ele>
        <time>2021-10-15T02:25:22Z</time>
      </trkpt>
      <trkpt lat="45.85707" lon="4.87766">
        <ele>260</ele>
        <time>2021-10-15T02:25:29Z</time>
      </trkpt>
      <trkpt lat="45.85797" lon="4.87821">
        <ele>258</ele>
        <time>2021-10-15T02:25:46Z</time>
      </trkpt>
      <trkpt lat="45.85856" lon="4.8789">
        <ele>258</ele>
        <time>2021-10-15T02:26:00Z</time>
      </trkpt>
      <trkpt lat="45.85872" lon="4.87912">
        <ele>258</ele>
        <time>2021-10-15T02:26:04Z</time>
      </trkpt>
      <trkpt lat="45.85928" lon="4.87965">
        <ele>257</ele>
        <time>2021-10-15T02:26:16Z</time>
      </trkpt>
      <trkpt lat="45.85952" lon="4.88011">
        <ele>257</ele>
        <time>2021-10-15T02:26:23Z</time>
      </trkpt>
      <trkpt lat="45.86021" lon="4.88168">
        <ele>257</ele>
        <time>2021-10-15T02:26:46Z</time>
      </trkpt>
      <trkpt lat="45.86048" lon="4.88175">
        <ele>257</ele>
        <time>2021-10-15T02:26:51Z</time>
      </trkpt>
      <trkpt lat="45.86114" lon="4.8817">
        <ele>258</ele>
        <time>2021-10-15T02:27:02Z</time>
      </trkpt>
      <trkpt lat="45.86385" lon="4.88132">
        <ele>268</ele>
        <time>2021-10-15T02:27:51Z</time>
      </trkpt>
      <trkpt lat="45.86529" lon="4.88128">
        <ele>269</ele>
        <time>2021-10-15T02:28:17Z</time>
      </trkpt>
      <trkpt lat="45.86551" lon="4.88129">
        <ele>270</ele>
        <time>2021-10-15T02:28:20Z</time>
      </trkpt>
      <trkpt lat="45.86596" lon="4.88138">
        <ele>271</ele>
        <time>2021-10-15T02:28:29Z</time>
      </trkpt>
      <trkpt lat="45.87008" lon="4.8827">
        <ele>280</ele>
        <time>2021-10-15T02:29:44Z</time>
      </trkpt>
      <trkpt lat="45.8703" lon="4.88281">
        <ele>281</ele>
        <time>2021-10-15T02:29:48Z</time>
      </trkpt>
      <trkpt lat="45.87073" lon="4.88311">
        <ele>284</ele>
        <time>2021-10-15T02:29:56Z</time>
      </trkpt>
      <trkpt lat="45.8711" lon="4.88336">
        <ele>286</ele>
        <time>2021-10-15T02:30:04Z</time>
      </trkpt>
      <trkpt lat="45.87162" lon="4.88371">
        <ele>287</ele>
        <time>2021-10-15T02:30:14Z</time>
      </trkpt>
      <trkpt lat="45.87212" lon="4.88392">
        <ele>288</ele>
        <time>2021-10-15T02:30:23Z</time>
      </trkpt>
      <trkpt lat="45.87237" lon="4.88396">
        <ele>288</ele>
        <time>2021-10-15T02:30:28Z</time>
      </trkpt>
      <trkpt lat="45.87273" lon="4.88396">
        <ele>288</ele>
        <time>2021-10-15T02:30:34Z</time>
      </trkpt>
      <trkpt lat="45.87301" lon="4.88391">
        <ele>288</ele>
        <time>2021-10-15T02:30:39Z</time>
      </trkpt>
      <trkpt lat="45.87333" lon="4.88381">
        <ele>288</ele>
        <time>2021-10-15T02:30:45Z</time>
      </trkpt>
      <trkpt lat="45.87476" lon="4.88303">
        <ele>289</ele>
        <time>2021-10-15T02:31:12Z</time>
      </trkpt>
      <trkpt lat="45.87502" lon="4.88293">
        <ele>290</ele>
        <time>2021-10-15T02:31:17Z</time>
      </trkpt>
      <trkpt lat="45.87533" lon="4.88286">
        <ele>291</ele>
        <time>2021-10-15T02:31:22Z</time>
      </trkpt>
      <trkpt lat="45.87563" lon="4.88284">
        <ele>293</ele>
        <time>2021-10-15T02:31:28Z</time>
      </trkpt>
      <trkpt lat="45.87592" lon="4.88289">
        <ele>294</ele>
        <time>2021-10-15T02:31:33Z</time>
      </trkpt>
      <trkpt lat="45.87637" lon="4.88305">
        <ele>295</ele>
        <time>2021-10-15T02:31:41Z</time>
      </trkpt>
      <trkpt lat="45.87687" lon="4.8833">
        <ele>295</ele>
        <time>2021-10-15T02:31:51Z</time>
      </trkpt>
      <trkpt lat="45.87744" lon="4.88359">
        <ele>295</ele>
        <time>2021-10-15T02:32:01Z</time>
      </trkpt>
      <trkpt lat="45.87809" lon="4.88393">
        <ele>295</ele>
        <time>2021-10-15T02:32:14Z</time>
      </trkpt>
      <trkpt lat="45.87848" lon="4.88409">
        <ele>295</ele>
        <time>2021-10-15T02:32:21Z</time>
      </trkpt>
      <trkpt lat="45.87881" lon="4.8842">
        <ele>295</ele>
        <time>2021-10-15T02:32:27Z</time>
      </trkpt>
      <trkpt lat="45.87917" lon="4.88429">
        <ele>295</ele>
        <time>2021-10-15T02:32:33Z</time>
      </trkpt>
      <trkpt lat="45.87947" lon="4.88432">
        <ele>295</ele>
        <time>2021-10-15T02:32:39Z</time>
      </trkpt>
      <trkpt lat="45.87986" lon="4.88432">
        <ele>295</ele>
        <time>2021-10-15T02:32:46Z</time>
      </trkpt>
      <trkpt lat="45.88021" lon="4.88428">
        <ele>295</ele>
        <time>2021-10-15T02:32:52Z</time>
      </trkpt>
      <trkpt lat="45.88058" lon="4.88419">
        <ele>296</ele>
        <time>2021-10-15T02:32:59Z</time>
      </trkpt>
      <trkpt lat="45.88206" lon="4.8837">
        <ele>296</ele>
        <time>2021-10-15T02:33:26Z</time>
      </trkpt>
      <trkpt lat="45.88244" lon="4.88351">
        <ele>297</ele>
        <time>2021-10-15T02:33:33Z</time>
      </trkpt>
      <trkpt lat="45.88245" lon="4.88361">
        <ele>296</ele>
        <time>2021-10-15T02:33:34Z</time>
      </trkpt>
      <trkpt lat="45.88249" lon="4.8837">
        <ele>296</ele>
        <time>2021-10-15T02:33:35Z</time>
      </trkpt>
      <trkpt lat="45.88254" lon="4.88377">
        <ele>296</ele>
        <time>2021-10-15T02:33:37Z</time>
      </trkpt>
      <trkpt lat="45.88261" lon="4.88382">
        <ele>296</ele>
        <time>2021-10-15T02:33:38Z</time>
      </trkpt>
      <trkpt lat="45.88268" lon="4.88384">
        <ele>296</ele>
        <time>2021-10-15T02:33:39Z</time>
      </trkpt>
      <trkpt lat="45.88275" lon="4.88383">
        <ele>296</ele>
        <time>2021-10-15T02:33:41Z</time>
      </trkpt>
      <trkpt lat="45.88282" lon="4.88379">
        <ele>296</ele>
        <time>2021-10-15T02:33:42Z</time>
      </trkpt>
      <trkpt lat="45.88287" lon="4.88372">
        <ele>296</ele>
        <time>2021-10-15T02:33:43Z</time>
      </trkpt>
      <trkpt lat="45.88291" lon="4.88363">
        <ele>296</ele>
        <time>2021-10-15T02:33:44Z</time>
      </trkpt>
      <trkpt lat="45.88293" lon="4.88353">
        <ele>296</ele>
        <time>2021-10-15T02:33:46Z</time>
      </trkpt>
      <trkpt lat="45.88303" lon="4.88343">
        <ele>296</ele>
        <time>2021-10-15T02:33:48Z</time>
      </trkpt>
      <trkpt lat="45.88324" lon="4.88333">
        <ele>295</ele>
        <time>2021-10-15T02:33:52Z</time>
      </trkpt>
      <trkpt lat="45.88443" lon="4.88315">
        <ele>293</ele>
        <time>2021-10-15T02:34:13Z</time>
      </trkpt>
      <trkpt lat="45.88636" lon="4.88279">
        <ele>283</ele>
        <time>2021-10-15T02:34:48Z</time>
      </trkpt>
      <trkpt lat="45.8868" lon="4.88272">
        <ele>281</ele>
        <time>2021-10-15T02:34:56Z</time>
      </trkpt>
      <trkpt lat="45.89358" lon="4.88148">
        <ele>295</ele>
        <time>2021-10-15T02:36:57Z</time>
      </trkpt>
      <trkpt lat="45.90013" lon="4.88023">
        <ele>288</ele>
        <time>2021-10-15T02:38:55Z</time>
      </trkpt>
      <trkpt lat="45.90056" lon="4.88014">
        <ele>289</ele>
        <time>2021-10-15T02:39:03Z</time>
      </trkpt>
      <trkpt lat="45.9042" lon="4.87945">
        <ele>290</ele>
        <time>2021-10-15T02:40:08Z</time>
      </trkpt>
      <trkpt lat="45.90476" lon="4.87951">
        <ele>290</ele>
        <time>2021-10-15T02:40:18Z</time>
      </trkpt>
      <trkpt lat="45.90484" lon="4.87957">
        <ele>290</ele>
        <time>2021-10-15T02:40:19Z</time>
      </trkpt>
      <trkpt lat="45.90488" lon="4.87964">
        <ele>289</ele>
        <time>2021-10-15T02:40:21Z</time>
      </trkpt>
      <trkpt lat="45.90495" lon="4.87967">
        <ele>289</ele>
        <time>2021-10-15T02:40:22Z</time>
      </trkpt>
      <trkpt lat="45.90504" lon="4.87969">
        <ele>289</ele>
        <time>2021-10-15T02:40:23Z</time>
      </trkpt>
      <trkpt lat="45.90509" lon="4.87967">
        <ele>289</ele>
        <time>2021-10-15T02:40:24Z</time>
      </trkpt>
      <trkpt lat="45.90516" lon="4.87972">
        <ele>290</ele>
        <time>2021-10-15T02:40:26Z</time>
      </trkpt>
      <trkpt lat="45.90533" lon="4.87997">
        <ele>290</ele>
        <time>2021-10-15T02:40:30Z</time>
      </trkpt>
      <trkpt lat="45.90552" lon="4.88015">
        <ele>290</ele>
        <time>2021-10-15T02:40:34Z</time>
      </trkpt>
      <trkpt lat="45.90566" lon="4.88033">
        <ele>291</ele>
        <time>2021-10-15T02:40:38Z</time>
      </trkpt>
      <trkpt lat="45.90574" lon="4.88051">
        <ele>291</ele>
        <time>2021-10-15T02:40:40Z</time>
      </trkpt>
      <trkpt lat="45.90579" lon="4.88072">
        <ele>291</ele>
        <time>2021-10-15T02:40:43Z</time>
      </trkpt>
      <trkpt lat="45.90701" lon="4.88929">
        <ele>294</ele>
        <time>2021-10-15T02:42:31Z</time>
      </trkpt>
      <trkpt lat="45.90902" lon="4.89812">
        <ele>299</ele>
        <time>2021-10-15T02:44:26Z</time>
      </trkpt>
      <trkpt lat="45.9091" lon="4.89837">
        <ele>299</ele>
        <time>2021-10-15T02:44:30Z</time>
      </trkpt>
      <trkpt lat="45.90924" lon="4.89874">
        <ele>299</ele>
        <time>2021-10-15T02:44:35Z</time>
      </trkpt>
      <trkpt lat="45.91077" lon="4.90204">
        <ele>297</ele>
        <time>2021-10-15T02:45:24Z</time>
      </trkpt>
      <trkpt lat="45.91098" lon="4.9027">
        <ele>296</ele>
        <time>2021-10-15T02:45:33Z</time>
      </trkpt>
      <trkpt lat="45.91102" lon="4.90291">
        <ele>296</ele>
        <time>2021-10-15T02:45:36Z</time>
      </trkpt>
      <trkpt lat="45.91218" lon="4.91089">
        <ele>300</ele>
        <time>2021-10-15T02:47:17Z</time>
      </trkpt>
      <trkpt lat="45.91268" lon="4.91419">
        <ele>304</ele>
        <time>2021-10-15T02:47:58Z</time>
      </trkpt>
      <trkpt lat="45.91274" lon="4.91473">
        <ele>305</ele>
        <time>2021-10-15T02:48:05Z</time>
      </trkpt>
      <trkpt lat="45.91277" lon="4.91523">
        <ele>304</ele>
        <time>2021-10-15T02:48:11Z</time>
      </trkpt>
      <trkpt lat="45.91279" lon="4.91567">
        <ele>302</ele>
        <time>2021-10-15T02:48:17Z</time>
      </trkpt>
      <trkpt lat="45.91284" lon="4.91609">
        <ele>299</ele>
        <time>2021-10-15T02:48:22Z</time>
      </trkpt>
      <trkpt lat="45.91294" lon="4.91656">
        <ele>295</ele>
        <time>2021-10-15T02:48:28Z</time>
      </trkpt>
      <trkpt lat="45.91553" lon="4.92328">
        <ele>292</ele>
        <time>2021-10-15T02:50:03Z</time>
      </trkpt>
      <trkpt lat="45.91621" lon="4.92465">
        <ele>294</ele>
        <time>2021-10-15T02:50:24Z</time>
      </trkpt>
      <trkpt lat="45.91779" lon="4.92763">
        <ele>299</ele>
        <time>2021-10-15T02:51:10Z</time>
      </trkpt>
      <trkpt lat="45.91961" lon="4.93114">
        <ele>296</ele>
        <time>2021-10-15T02:52:05Z</time>
      </trkpt>
      <trkpt lat="45.91987" lon="4.9317">
        <ele>295</ele>
        <time>2021-10-15T02:52:13Z</time>
      </trkpt>
      <trkpt lat="45.92194" lon="4.93673">
        <ele>299</ele>
        <time>2021-10-15T02:53:25Z</time>
      </trkpt>
      <trkpt lat="45.92297" lon="4.93931">
        <ele>299</ele>
        <time>2021-10-15T02:54:02Z</time>
      </trkpt>
      <trkpt lat="45.92448" lon="4.94291">
        <ele>298</ele>
        <time>2021-10-15T02:54:54Z</time>
      </trkpt>
      <trkpt lat="45.92457" lon="4.94317">
        <ele>297</ele>
        <time>2021-10-15T02:54:58Z</time>
      </trkpt>
      <trkpt lat="45.92464" lon="4.94345">
        <ele>297</ele>
        <time>2021-10-15T02:55:01Z</time>
      </trkpt>
      <trkpt lat="45.92527" lon="4.94696">
        <ele>296</ele>
        <time>2021-10-15T02:55:46Z</time>
      </trkpt>
      <trkpt lat="45.92535" lon="4.9473">
        <ele>297</ele>
        <time>2021-10-15T02:55:51Z</time>
      </trkpt>
      <trkpt lat="45.92543" lon="4.94751">
        <ele>297</ele>
        <time>2021-10-15T02:55:54Z</time>
      </trkpt>
      <trkpt lat="45.92645" lon="4.94908">
        <ele>298</ele>
        <time>2021-10-15T02:56:20Z</time>
      </trkpt>
      <trkpt lat="45.92638" lon="4.94937">
        <ele>298</ele>
        <time>2021-10-15T02:56:24Z</time>
      </trkpt>
      <trkpt lat="45.92598" lon="4.95076">
        <ele>297</ele>
        <time>2021-10-15T02:56:43Z</time>
      </trkpt>
      <trkpt lat="45.9259" lon="4.95071">
        <ele>297</ele>
        <time>2021-10-15T02:56:44Z</time>
      </trkpt>
      <trkpt lat="45.92585" lon="4.95073">
        <ele>297</ele>
        <time>2021-10-15T02:56:45Z</time>
      </trkpt>
      <trkpt lat="45.92579" lon="4.95079">
        <ele>297</ele>
        <time>2021-10-15T02:56:47Z</time>
      </trkpt>
      <trkpt lat="45.92578" lon="4.95087">
        <ele>297</ele>
        <time>2021-10-15T02:56:48Z</time>
      </trkpt>
      <trkpt lat="45.92603" lon="4.95145">
        <ele>298</ele>
        <time>2021-10-15T02:56:56Z</time>
      </trkpt>
      <trkpt lat="45.92609" lon="4.95149">
        <ele>298</ele>
        <time>2021-10-15T02:56:57Z</time>
      </trkpt>
      <trkpt lat="45.92617" lon="4.95148">
        <ele>297</ele>
        <time>2021-10-15T02:56:59Z</time>
      </trkpt>
      <trkpt lat="45.92623" lon="4.95139">
        <ele>297</ele>
        <time>2021-10-15T02:57:00Z</time>
      </trkpt>
      <trkpt lat="45.92639" lon="4.95156">
        <ele>297</ele>
        <time>2021-10-15T02:57:04Z</time>
      </trkpt>
      <trkpt lat="45.92858" lon="4.95442">
        <ele>292</ele>
        <time>2021-10-15T02:57:56Z</time>
      </trkpt>
      <trkpt lat="45.92895" lon="4.955">
        <ele>292</ele>
        <time>2021-10-15T02:58:06Z</time>
      </trkpt>
      <trkpt lat="45.92906" lon="4.95527">
        <ele>291</ele>
        <time>2021-10-15T02:58:10Z</time>
      </trkpt>
      <trkpt lat="45.92905" lon="4.95541">
        <ele>291</ele>
        <time>2021-10-15T02:58:12Z</time>
      </trkpt>
      <trkpt lat="45.92909" lon="4.95552">
        <ele>291</ele>
        <time>2021-10-15T02:58:13Z</time>
      </trkpt>
      <trkpt lat="45.92915" lon="4.95558">
        <ele>291</ele>
        <time>2021-10-15T02:58:14Z</time>
      </trkpt>
      <trkpt lat="45.92924" lon="4.95558">
        <ele>291</ele>
        <time>2021-10-15T02:58:16Z</time>
      </trkpt>
      <trkpt lat="45.92939" lon="4.95566">
        <ele>290</ele>
        <time>2021-10-15T02:58:19Z</time>
      </trkpt>
      <trkpt lat="45.92989" lon="4.95626">
        <ele>289</ele>
        <time>2021-10-15T02:58:31Z</time>
      </trkpt>
      <trkpt lat="45.93158" lon="4.95861">
        <ele>289</ele>
        <time>2021-10-15T02:59:12Z</time>
      </trkpt>
      <trkpt lat="45.93297" lon="4.9605">
        <ele>291</ele>
        <time>2021-10-15T02:59:46Z</time>
      </trkpt>
      <trkpt lat="45.94239" lon="4.97367">
        <ele>290</ele>
        <time>2021-10-15T03:03:40Z</time>
      </trkpt>
      <trkpt lat="45.94272" lon="4.9742">
        <ele>288</ele>
        <time>2021-10-15T03:03:49Z</time>
      </trkpt>
      <trkpt lat="45.94461" lon="4.97824">
        <ele>287</ele>
        <time>2021-10-15T03:04:49Z</time>
      </trkpt>
      <trkpt lat="45.94694" lon="4.98288">
        <ele>290</ele>
        <time>2021-10-15T03:06:00Z</time>
      </trkpt>
      <trkpt lat="45.94729" lon="4.98353">
        <ele>290</ele>
        <time>2021-10-15T03:06:10Z</time>
      </trkpt>
      <trkpt lat="45.94809" lon="4.98499">
        <ele>293</ele>
        <time>2021-10-15T03:06:33Z</time>
      </trkpt>
      <trkpt lat="45.94978" lon="4.98794">
        <ele>290</ele>
        <time>2021-10-15T03:07:20Z</time>
      </trkpt>
      <trkpt lat="45.95064" lon="4.98946">
        <ele>289</ele>
        <time>2021-10-15T03:07:45Z</time>
      </trkpt>
      <trkpt lat="45.95121" lon="4.99041">
        <ele>289</ele>
        <time>2021-10-15T03:08:00Z</time>
      </trkpt>
      <trkpt lat="45.95187" lon="4.99128">
        <ele>289</ele>
        <time>2021-10-15T03:08:16Z</time>
      </trkpt>
      <trkpt lat="45.95422" lon="4.99423">
        <ele>285</ele>
        <time>2021-10-15T03:09:12Z</time>
      </trkpt>
      <trkpt lat="45.95998" lon="5.00155">
        <ele>286</ele>
        <time>2021-10-15T03:11:28Z</time>
      </trkpt>
      <trkpt lat="45.9603" lon="5.00192">
        <ele>285</ele>
        <time>2021-10-15T03:11:36Z</time>
      </trkpt>
      <trkpt lat="45.96063" lon="5.00227">
        <ele>284</ele>
        <time>2021-10-15T03:11:43Z</time>
      </trkpt>
      <trkpt lat="45.96106" lon="5.00262">
        <ele>283</ele>
        <time>2021-10-15T03:11:52Z</time>
      </trkpt>
      <trkpt lat="45.96201" lon="5.00331">
        <ele>282</ele>
        <time>2021-10-15T03:12:11Z</time>
      </trkpt>
      <trkpt lat="45.96525" lon="5.00559">
        <ele>285</ele>
        <time>2021-10-15T03:13:15Z</time>
      </trkpt>
      <trkpt lat="45.96717" lon="5.00663">
        <ele>280</ele>
        <time>2021-10-15T03:13:51Z</time>
      </trkpt>
      <trkpt lat="45.97018" lon="5.00821">
        <ele>282</ele>
        <time>2021-10-15T03:14:48Z</time>
      </trkpt>
      <trkpt lat="45.97037" lon="5.00831">
        <ele>282</ele>
        <time>2021-10-15T03:14:52Z</time>
      </trkpt>
      <trkpt lat="45.97341" lon="5.00995">
        <ele>281</ele>
        <time>2021-10-15T03:15:50Z</time>
      </trkpt>
      <trkpt lat="45.97649" lon="5.01158">
        <ele>285</ele>
        <time>2021-10-15T03:16:48Z</time>
      </trkpt>
      <trkpt lat="45.97699" lon="5.01183">
        <ele>285</ele>
        <time>2021-10-15T03:16:58Z</time>
      </trkpt>
      <trkpt lat="45.98065" lon="5.01378">
        <ele>283</ele>
        <time>2021-10-15T03:18:07Z</time>
      </trkpt>
      <trkpt lat="45.98081" lon="5.0139">
        <ele>283</ele>
        <time>2021-10-15T03:18:10Z</time>
      </trkpt>
      <trkpt lat="45.9822" lon="5.01511">
        <ele>282</ele>
        <time>2021-10-15T03:18:39Z</time>
      </trkpt>
      <trkpt lat="45.9834" lon="5.0161">
        <ele>285</ele>
        <time>2021-10-15T03:19:04Z</time>
      </trkpt>
      <trkpt lat="45.98982" lon="5.02159">
        <ele>277</ele>
        <time>2021-10-15T03:21:17Z</time>
      </trkpt>
      <trkpt lat="45.99095" lon="5.02258">
        <ele>278</ele>
        <time>2021-10-15T03:21:40Z</time>
      </trkpt>
      <trkpt lat="45.99121" lon="5.02283">
        <ele>278</ele>
        <time>2021-10-15T03:21:46Z</time>
      </trkpt>
      <trkpt lat="45.99145" lon="5.02312">
        <ele>278</ele>
        <time>2021-10-15T03:21:51Z</time>
      </trkpt>
      <trkpt lat="45.99218" lon="5.02413">
        <ele>279</ele>
        <time>2021-10-15T03:22:09Z</time>
      </trkpt>
      <trkpt lat="45.99294" lon="5.02526">
        <ele>279</ele>
        <time>2021-10-15T03:22:29Z</time>
      </trkpt>
      <trkpt lat="45.9933" lon="5.02572">
        <ele>278</ele>
        <time>2021-10-15T03:22:37Z</time>
      </trkpt>
      <trkpt lat="45.99355" lon="5.02602">
        <ele>277</ele>
        <time>2021-10-15T03:22:43Z</time>
      </trkpt>
      <trkpt lat="45.99385" lon="5.02631">
        <ele>277</ele>
        <time>2021-10-15T03:22:50Z</time>
      </trkpt>
      <trkpt lat="45.99441" lon="5.0267">
        <ele>276</ele>
        <time>2021-10-15T03:23:01Z</time>
      </trkpt>
      <trkpt lat="45.99535" lon="5.02724">
        <ele>277</ele>
        <time>2021-10-15T03:23:19Z</time>
      </trkpt>
      <trkpt lat="45.99798" lon="5.02868">
        <ele>277</ele>
        <time>2021-10-15T03:24:09Z</time>
      </trkpt>
      <trkpt lat="45.99812" lon="5.02876">
        <ele>277</ele>
        <time>2021-10-15T03:24:11Z</time>
      </trkpt>
      <trkpt lat="45.99986" lon="5.02973">
        <ele>280</ele>
        <time>2021-10-15T03:24:45Z</time>
      </trkpt>
      <trkpt lat="46.00139" lon="5.03067">
        <ele>280</ele>
        <time>2021-10-15T03:25:14Z</time>
      </trkpt>
      <trkpt lat="46.00297" lon="5.03163">
        <ele>281</ele>
        <time>2021-10-15T03:25:45Z</time>
      </trkpt>
      <trkpt lat="46.00465" lon="5.03271">
        <ele>283</ele>
        <time>2021-10-15T03:26:17Z</time>
      </trkpt>
      <trkpt lat="46.00508" lon="5.03295">
        <ele>283</ele>
        <time>2021-10-15T03:26:26Z</time>
      </trkpt>
      <trkpt lat="46.00578" lon="5.0335">
        <ele>282</ele>
        <time>2021-10-15T03:26:40Z</time>
      </trkpt>
      <trkpt lat="46.00616" lon="5.03394">
        <ele>281</ele>
        <time>2021-10-15T03:26:49Z</time>
      </trkpt>
      <trkpt lat="46.00629" lon="5.03423">
        <ele>282</ele>
        <time>2021-10-15T03:26:53Z</time>
      </trkpt>
      <trkpt lat="46.00634" lon="5.03428">
        <ele>282</ele>
        <time>2021-10-15T03:26:54Z</time>
      </trkpt>
      <trkpt lat="46.0064" lon="5.03431">
        <ele>282</ele>
        <time>2021-10-15T03:26:55Z</time>
      </trkpt>
      <trkpt lat="46.00646" lon="5.0343">
        <ele>282</ele>
        <time>2021-10-15T03:26:56Z</time>
      </trkpt>
      <trkpt lat="46.00666" lon="5.03447">
        <ele>282</ele>
        <time>2021-10-15T03:27:00Z</time>
      </trkpt>
      <trkpt lat="46.00703" lon="5.03491">
        <ele>282</ele>
        <time>2021-10-15T03:27:09Z</time>
      </trkpt>
      <trkpt lat="46.00719" lon="5.0352">
        <ele>282</ele>
        <time>2021-10-15T03:27:13Z</time>
      </trkpt>
      <trkpt lat="46.00817" lon="5.03732">
        <ele>283</ele>
        <time>2021-10-15T03:27:45Z</time>
      </trkpt>
      <trkpt lat="46.00936" lon="5.0398">
        <ele>281</ele>
        <time>2021-10-15T03:28:22Z</time>
      </trkpt>
      <trkpt lat="46.01323" lon="5.04797">
        <ele>276</ele>
        <time>2021-10-15T03:30:24Z</time>
      </trkpt>
      <trkpt lat="46.01415" lon="5.04983">
        <ele>279</ele>
        <time>2021-10-15T03:30:52Z</time>
      </trkpt>
      <trkpt lat="46.01459" lon="5.05057">
        <ele>279</ele>
        <time>2021-10-15T03:31:05Z</time>
      </trkpt>
      <trkpt lat="46.0149" lon="5.05103">
        <ele>279</ele>
        <time>2021-10-15T03:31:12Z</time>
      </trkpt>
      <trkpt lat="46.01522" lon="5.05144">
        <ele>279</ele>
        <time>2021-10-15T03:31:20Z</time>
      </trkpt>
      <trkpt lat="46.01594" lon="5.05217">
        <ele>281</ele>
        <time>2021-10-15T03:31:36Z</time>
      </trkpt>
      <trkpt lat="46.01664" lon="5.05272">
        <ele>281</ele>
        <time>2021-10-15T03:31:50Z</time>
      </trkpt>
      <trkpt lat="46.0322" lon="5.06316">
        <ele>282</ele>
        <time>2021-10-15T03:36:55Z</time>
      </trkpt>
      <trkpt lat="46.03673" lon="5.06593">
        <ele>277</ele>
        <time>2021-10-15T03:38:23Z</time>
      </trkpt>
      <trkpt lat="46.04152" lon="5.06888">
        <ele>278</ele>
        <time>2021-10-15T03:39:56Z</time>
      </trkpt>
      <trkpt lat="46.04206" lon="5.06918">
        <ele>277</ele>
        <time>2021-10-15T03:40:06Z</time>
      </trkpt>
      <trkpt lat="46.04267" lon="5.06942">
        <ele>274</ele>
        <time>2021-10-15T03:40:17Z</time>
      </trkpt>
      <trkpt lat="46.04332" lon="5.06959">
        <ele>274</ele>
        <time>2021-10-15T03:40:29Z</time>
      </trkpt>
      <trkpt lat="46.04575" lon="5.07011">
        <ele>274</ele>
        <time>2021-10-15T03:41:13Z</time>
      </trkpt>
      <trkpt lat="46.04905" lon="5.07074">
        <ele>273</ele>
        <time>2021-10-15T03:42:12Z</time>
      </trkpt>
      <trkpt lat="46.04955" lon="5.07087">
        <ele>272</ele>
        <time>2021-10-15T03:42:21Z</time>
      </trkpt>
      <trkpt lat="46.04981" lon="5.07096">
        <ele>272</ele>
        <time>2021-10-15T03:42:26Z</time>
      </trkpt>
      <trkpt lat="46.05012" lon="5.0711">
        <ele>272</ele>
        <time>2021-10-15T03:42:31Z</time>
      </trkpt>
      <trkpt lat="46.05033" lon="5.07122">
        <ele>271</ele>
        <time>2021-10-15T03:42:35Z</time>
      </trkpt>
      <trkpt lat="46.05074" lon="5.0715">
        <ele>269</ele>
        <time>2021-10-15T03:42:44Z</time>
      </trkpt>
      <trkpt lat="46.05133" lon="5.07197">
        <ele>267</ele>
        <time>2021-10-15T03:42:56Z</time>
      </trkpt>
      <trkpt lat="46.05374" lon="5.07431">
        <ele>266</ele>
        <time>2021-10-15T03:43:47Z</time>
      </trkpt>
      <trkpt lat="46.05385" lon="5.07441">
        <ele>266</ele>
        <time>2021-10-15T03:43:50Z</time>
      </trkpt>
      <trkpt lat="46.06216" lon="5.08242">
        <ele>274</ele>
        <time>2021-10-15T03:46:47Z</time>
      </trkpt>
      <trkpt lat="46.06879" lon="5.08868">
        <ele>275</ele>
        <time>2021-10-15T03:49:08Z</time>
      </trkpt>
      <trkpt lat="46.07305" lon="5.09275">
        <ele>272</ele>
        <time>2021-10-15T03:50:39Z</time>
      </trkpt>
      <trkpt lat="46.07351" lon="5.09321">
        <ele>272</ele>
        <time>2021-10-15T03:50:49Z</time>
      </trkpt>
      <trkpt lat="46.07839" lon="5.09913">
        <ele>279</ele>
        <time>2021-10-15T03:52:43Z</time>
      </trkpt>
      <trkpt lat="46.079" lon="5.09998">
        <ele>273</ele>
        <time>2021-10-15T03:52:58Z</time>
      </trkpt>
      <trkpt lat="46.08126" lon="5.10325">
        <ele>272</ele>
        <time>2021-10-15T03:53:55Z</time>
      </trkpt>
      <trkpt lat="46.08267" lon="5.10526">
        <ele>275</ele>
        <time>2021-10-15T03:54:30Z</time>
      </trkpt>
      <trkpt lat="46.08354" lon="5.10659">
        <ele>272</ele>
        <time>2021-10-15T03:54:53Z</time>
      </trkpt>
      <trkpt lat="46.08473" lon="5.10827">
        <ele>270</ele>
        <time>2021-10-15T03:55:22Z</time>
      </trkpt>
      <trkpt lat="46.08584" lon="5.10992">
        <ele>268</ele>
        <time>2021-10-15T03:55:51Z</time>
      </trkpt>
      <trkpt lat="46.08676" lon="5.11121">
        <ele>273</ele>
        <time>2021-10-15T03:56:14Z</time>
      </trkpt>
      <trkpt lat="46.0878" lon="5.11276">
        <ele>274</ele>
        <time>2021-10-15T03:56:40Z</time>
      </trkpt>
      <trkpt lat="46.09231" lon="5.11926">
        <ele>265</ele>
        <time>2021-10-15T03:58:34Z</time>
      </trkpt>
      <trkpt lat="46.09352" lon="5.12104">
        <ele>261</ele>
        <time>2021-10-15T03:59:04Z</time>
      </trkpt>
      <trkpt lat="46.09361" lon="5.12117">
        <ele>262</ele>
        <time>2021-10-15T03:59:07Z</time>
      </trkpt>
      <trkpt lat="46.09399" lon="5.12172">
        <ele>265</ele>
        <time>2021-10-15T03:59:16Z</time>
      </trkpt>
      <trkpt lat="46.09446" lon="5.12234">
        <ele>267</ele>
        <time>2021-10-15T03:59:28Z</time>
      </trkpt>
      <trkpt lat="46.09508" lon="5.12322">
        <ele>266</ele>
        <time>2021-10-15T03:59:43Z</time>
      </trkpt>
      <trkpt lat="46.0955" lon="5.12375">
        <ele>266</ele>
        <time>2021-10-15T03:59:53Z</time>
      </trkpt>
      <trkpt lat="46.0956" lon="5.12384">
        <ele>267</ele>
        <time>2021-10-15T03:59:55Z</time>
      </trkpt>
      <trkpt lat="46.09589" lon="5.12405">
        <ele>267</ele>
        <time>2021-10-15T04:00:01Z</time>
      </trkpt>
      <trkpt lat="46.09615" lon="5.12415">
        <ele>268</ele>
        <time>2021-10-15T04:00:06Z</time>
      </trkpt>
      <trkpt lat="46.09828" lon="5.1248">
        <ele>269</ele>
        <time>2021-10-15T04:00:44Z</time>
      </trkpt>
      <trkpt lat="46.09827" lon="5.12497">
        <ele>269</ele>
        <time>2021-10-15T04:00:46Z</time>
      </trkpt>
      <trkpt lat="46.09828" lon="5.12508">
        <ele>269</ele>
        <time>2021-10-15T04:00:48Z</time>
      </trkpt>
      <trkpt lat="46.09837" lon="5.12542">
        <ele>269</ele>
        <time>2021-10-15T04:00:52Z</time>
      </trkpt>
      <trkpt lat="46.09848" lon="5.12559">
        <ele>269</ele>
        <time>2021-10-15T04:00:55Z</time>
      </trkpt>
      <trkpt lat="46.09874" lon="5.12587">
        <ele>269</ele>
        <time>2021-10-15T04:01:01Z</time>
      </trkpt>
      <trkpt lat="46.09893" lon="5.12617">
        <ele>268</ele>
        <time>2021-10-15T04:01:06Z</time>
      </trkpt>
      <trkpt lat="46.099" lon="5.12632">
        <ele>268</ele>
        <time>2021-10-15T04:01:08Z</time>
      </trkpt>
      <trkpt lat="46.09933" lon="5.12756">
        <ele>268</ele>
        <time>2021-10-15T04:01:25Z</time>
      </trkpt>
      <trkpt lat="46.0994" lon="5.12792">
        <ele>269</ele>
        <time>2021-10-15T04:01:29Z</time>
      </trkpt>
      <trkpt lat="46.09942" lon="5.1282">
        <ele>270</ele>
        <time>2021-10-15T04:01:33Z</time>
      </trkpt>
      <trkpt lat="46.09955" lon="5.12936">
        <ele>272</ele>
        <time>2021-10-15T04:01:47Z</time>
      </trkpt>
      <trkpt lat="46.09971" lon="5.12941">
        <ele>272</ele>
        <time>2021-10-15T04:01:50Z</time>
      </trkpt>
      <trkpt lat="46.09976" lon="5.12949">
        <ele>272</ele>
        <time>2021-10-15T04:01:51Z</time>
      </trkpt>
      <trkpt lat="46.09985" lon="5.12993">
        <ele>271</ele>
        <time>2021-10-15T04:01:57Z</time>
      </trkpt>
      <trkpt lat="46.09994" lon="5.1301">
        <ele>271</ele>
        <time>2021-10-15T04:02:00Z</time>
      </trkpt>
      <trkpt lat="46.1003" lon="5.13056">
        <ele>268</ele>
        <time>2021-10-15T04:02:08Z</time>
      </trkpt>
      <trkpt lat="46.10111" lon="5.13167">
        <ele>263</ele>
        <time>2021-10-15T04:02:28Z</time>
      </trkpt>
      <trkpt lat="46.1012" lon="5.13186">
        <ele>262</ele>
        <time>2021-10-15T04:02:31Z</time>
      </trkpt>
      <trkpt lat="46.10133" lon="5.13227">
        <ele>261</ele>
        <time>2021-10-15T04:02:37Z</time>
      </trkpt>
      <trkpt lat="46.10139" lon="5.13234">
        <ele>261</ele>
        <time>2021-10-15T04:02:38Z</time>
      </trkpt>
      <trkpt lat="46.10143" lon="5.13234">
        <ele>261</ele>
        <time>2021-10-15T04:02:39Z</time>
      </trkpt>
      <trkpt lat="46.10172" lon="5.13217">
        <ele>260</ele>
        <time>2021-10-15T04:02:44Z</time>
      </trkpt>
      <trkpt lat="46.10201" lon="5.13283">
        <ele>259</ele>
        <time>2021-10-15T04:02:54Z</time>
      </trkpt>
      <trkpt lat="46.1023" lon="5.13326">
        <ele>259</ele>
        <time>2021-10-15T04:03:01Z</time>
      </trkpt>
      <trkpt lat="46.10238" lon="5.13337">
        <ele>259</ele>
        <time>2021-10-15T04:03:03Z</time>
      </trkpt>
      <trkpt lat="46.10449" lon="5.13634">
        <ele>261</ele>
        <time>2021-10-15T04:03:56Z</time>
      </trkpt>
      <trkpt lat="46.10535" lon="5.13751">
        <ele>263</ele>
        <time>2021-10-15T04:04:17Z</time>
      </trkpt>
      <trkpt lat="46.11169" lon="5.14642">
        <ele>267</ele>
        <time>2021-10-15T04:06:54Z</time>
      </trkpt>
      <trkpt lat="46.11334" lon="5.14894">
        <ele>267</ele>
        <time>2021-10-15T04:07:37Z</time>
      </trkpt>
      <trkpt lat="46.11481" lon="5.15103">
        <ele>270</ele>
        <time>2021-10-15T04:08:14Z</time>
      </trkpt>
      <trkpt lat="46.11574" lon="5.15228">
        <ele>270</ele>
        <time>2021-10-15T04:08:36Z</time>
      </trkpt>
      <trkpt lat="46.11608" lon="5.15261">
        <ele>269</ele>
        <time>2021-10-15T04:08:44Z</time>
      </trkpt>
      <trkpt lat="46.12877" lon="5.16172">
        <ele>268</ele>
        <time>2021-10-15T04:12:56Z</time>
      </trkpt>
      <trkpt lat="46.12876" lon="5.16186">
        <ele>267</ele>
        <time>2021-10-15T04:12:58Z</time>
      </trkpt>
      <trkpt lat="46.12878" lon="5.16194">
        <ele>267</ele>
        <time>2021-10-15T04:12:59Z</time>
      </trkpt>
      <trkpt lat="46.12883" lon="5.16201">
        <ele>267</ele>
        <time>2021-10-15T04:13:00Z</time>
      </trkpt>
      <trkpt lat="46.12888" lon="5.16204">
        <ele>267</ele>
        <time>2021-10-15T04:13:01Z</time>
      </trkpt>
      <trkpt lat="46.12894" lon="5.16203">
        <ele>267</ele>
        <time>2021-10-15T04:13:02Z</time>
      </trkpt>
      <trkpt lat="46.129" lon="5.16199">
        <ele>267</ele>
        <time>2021-10-15T04:13:03Z</time>
      </trkpt>
      <trkpt lat="46.12904" lon="5.16192">
        <ele>267</ele>
        <time>2021-10-15T04:13:04Z</time>
      </trkpt>
      <trkpt lat="46.13095" lon="5.1633">
        <ele>267</ele>
        <time>2021-10-15T04:13:42Z</time>
      </trkpt>
      <trkpt lat="46.13146" lon="5.16379">
        <ele>266</ele>
        <time>2021-10-15T04:13:53Z</time>
      </trkpt>
      <trkpt lat="46.13267" lon="5.16492">
        <ele>267</ele>
        <time>2021-10-15T04:14:19Z</time>
      </trkpt>
      <trkpt lat="46.13608" lon="5.16762">
        <ele>264</ele>
        <time>2021-10-15T04:15:28Z</time>
      </trkpt>
      <trkpt lat="46.1382" lon="5.16934">
        <ele>268</ele>
        <time>2021-10-15T04:16:11Z</time>
      </trkpt>
      <trkpt lat="46.13955" lon="5.17036">
        <ele>264</ele>
        <time>2021-10-15T04:16:38Z</time>
      </trkpt>
      <trkpt lat="46.14222" lon="5.17245">
        <ele>257</ele>
        <time>2021-10-15T04:17:32Z</time>
      </trkpt>
      <trkpt lat="46.14278" lon="5.17292">
        <ele>256</ele>
        <time>2021-10-15T04:17:44Z</time>
      </trkpt>
      <trkpt lat="46.1443" lon="5.17406">
        <ele>253</ele>
        <time>2021-10-15T04:18:14Z</time>
      </trkpt>
      <trkpt lat="46.14789" lon="5.17659">
        <ele>253</ele>
        <time>2021-10-15T04:19:25Z</time>
      </trkpt>
      <trkpt lat="46.15448" lon="5.18115">
        <ele>249</ele>
        <time>2021-10-15T04:21:35Z</time>
      </trkpt>
      <trkpt lat="46.15543" lon="5.18191">
        <ele>240</ele>
        <time>2021-10-15T04:21:55Z</time>
      </trkpt>
      <trkpt lat="46.15643" lon="5.18275">
        <ele>241</ele>
        <time>2021-10-15T04:22:15Z</time>
      </trkpt>
      <trkpt lat="46.15661" lon="5.18291">
        <ele>243</ele>
        <time>2021-10-15T04:22:19Z</time>
      </trkpt>
      <trkpt lat="46.15725" lon="5.18355">
        <ele>245</ele>
        <time>2021-10-15T04:22:33Z</time>
      </trkpt>
      <trkpt lat="46.15769" lon="5.18413">
        <ele>250</ele>
        <time>2021-10-15T04:22:44Z</time>
      </trkpt>
      <trkpt lat="46.16061" lon="5.18818">
        <ele>251</ele>
        <time>2021-10-15T04:23:56Z</time>
      </trkpt>
      <trkpt lat="46.16105" lon="5.18889">
        <ele>252</ele>
        <time>2021-10-15T04:24:07Z</time>
      </trkpt>
      <trkpt lat="46.16124" lon="5.18915">
        <ele>253</ele>
        <time>2021-10-15T04:24:12Z</time>
      </trkpt>
      <trkpt lat="46.16148" lon="5.18941">
        <ele>254</ele>
        <time>2021-10-15T04:24:17Z</time>
      </trkpt>
      <trkpt lat="46.16205" lon="5.18988">
        <ele>256</ele>
        <time>2021-10-15T04:24:29Z</time>
      </trkpt>
      <trkpt lat="46.16452" lon="5.19172">
        <ele>260</ele>
        <time>2021-10-15T04:25:19Z</time>
      </trkpt>
      <trkpt lat="46.16484" lon="5.19192">
        <ele>260</ele>
        <time>2021-10-15T04:25:25Z</time>
      </trkpt>
      <trkpt lat="46.16567" lon="5.19236">
        <ele>258</ele>
        <time>2021-10-15T04:25:40Z</time>
      </trkpt>
      <trkpt lat="46.16584" lon="5.19254">
        <ele>258</ele>
        <time>2021-10-15T04:25:44Z</time>
      </trkpt>
      <trkpt lat="46.16596" lon="5.19271">
        <ele>257</ele>
        <time>2021-10-15T04:25:47Z</time>
      </trkpt>
      <trkpt lat="46.16594" lon="5.19282">
        <ele>258</ele>
        <time>2021-10-15T04:25:49Z</time>
      </trkpt>
      <trkpt lat="46.16594" lon="5.19293">
        <ele>258</ele>
        <time>2021-10-15T04:25:50Z</time>
      </trkpt>
      <trkpt lat="46.16597" lon="5.19303">
        <ele>257</ele>
        <time>2021-10-15T04:25:51Z</time>
      </trkpt>
      <trkpt lat="46.16602" lon="5.19313">
        <ele>257</ele>
        <time>2021-10-15T04:25:53Z</time>
      </trkpt>
      <trkpt lat="46.16609" lon="5.1932">
        <ele>257</ele>
        <time>2021-10-15T04:25:54Z</time>
      </trkpt>
      <trkpt lat="46.16617" lon="5.19323">
        <ele>257</ele>
        <time>2021-10-15T04:25:56Z</time>
      </trkpt>
      <trkpt lat="46.16627" lon="5.19321">
        <ele>256</ele>
        <time>2021-10-15T04:25:58Z</time>
      </trkpt>
      <trkpt lat="46.16634" lon="5.19316">
        <ele>256</ele>
        <time>2021-10-15T04:25:59Z</time>
      </trkpt>
      <trkpt lat="46.16652" lon="5.1932">
        <ele>255</ele>
        <time>2021-10-15T04:26:02Z</time>
      </trkpt>
      <trkpt lat="46.16696" lon="5.19364">
        <ele>254</ele>
        <time>2021-10-15T04:26:12Z</time>
      </trkpt>
      <trkpt lat="46.17131" lon="5.19687">
        <ele>247</ele>
        <time>2021-10-15T04:27:39Z</time>
      </trkpt>
      <trkpt lat="46.17289" lon="5.1981">
        <ele>243</ele>
        <time>2021-10-15T04:28:11Z</time>
      </trkpt>
      <trkpt lat="46.17397" lon="5.19891">
        <ele>244</ele>
        <time>2021-10-15T04:28:32Z</time>
      </trkpt>
      <trkpt lat="46.17479" lon="5.19957">
        <ele>245</ele>
        <time>2021-10-15T04:28:49Z</time>
      </trkpt>
      <trkpt lat="46.17488" lon="5.19971">
        <ele>246</ele>
        <time>2021-10-15T04:28:51Z</time>
      </trkpt>
      <trkpt lat="46.17517" lon="5.19995">
        <ele>246</ele>
        <time>2021-10-15T04:28:57Z</time>
      </trkpt>
      <trkpt lat="46.1752" lon="5.20004">
        <ele>246</ele>
        <time>2021-10-15T04:28:59Z</time>
      </trkpt>
      <trkpt lat="46.17523" lon="5.20031">
        <ele>246</ele>
        <time>2021-10-15T04:29:02Z</time>
      </trkpt>
      <trkpt lat="46.17537" lon="5.20034">
        <ele>246</ele>
        <time>2021-10-15T04:29:05Z</time>
      </trkpt>
      <trkpt lat="46.17542" lon="5.2004">
        <ele>245</ele>
        <time>2021-10-15T04:29:06Z</time>
      </trkpt>
      <trkpt lat="46.17548" lon="5.20033">
        <ele>245</ele>
        <time>2021-10-15T04:29:07Z</time>
      </trkpt>
      <trkpt lat="46.17554" lon="5.2003">
        <ele>245</ele>
        <time>2021-10-15T04:29:08Z</time>
      </trkpt>
      <trkpt lat="46.1756" lon="5.20029">
        <ele>245</ele>
        <time>2021-10-15T04:29:09Z</time>
      </trkpt>
      <trkpt lat="46.17568" lon="5.20033">
        <ele>245</ele>
        <time>2021-10-15T04:29:11Z</time>
      </trkpt>
      <trkpt lat="46.17676" lon="5.20113">
        <ele>245</ele>
        <time>2021-10-15T04:29:32Z</time>
      </trkpt>
      <trkpt lat="46.17881" lon="5.20271">
        <ele>243</ele>
        <time>2021-10-15T04:30:14Z</time>
      </trkpt>
      <trkpt lat="46.17914" lon="5.20292">
        <ele>243</ele>
        <time>2021-10-15T04:30:20Z</time>
      </trkpt>
      <trkpt lat="46.17957" lon="5.20324">
        <ele>242</ele>
        <time>2021-10-15T04:30:29Z</time>
      </trkpt>
      <trkpt lat="46.1807" lon="5.20411">
        <ele>242</ele>
        <time>2021-10-15T04:30:51Z</time>
      </trkpt>
      <trkpt lat="46.18073" lon="5.20412">
        <ele>242</ele>
        <time>2021-10-15T04:30:52Z</time>
      </trkpt>
      <trkpt lat="46.1808" lon="5.20408">
        <ele>242</ele>
        <time>2021-10-15T04:30:53Z</time>
      </trkpt>
      <trkpt lat="46.18164" lon="5.20471">
        <ele>243</ele>
        <time>2021-10-15T04:31:10Z</time>
      </trkpt>
      <trkpt lat="46.18172" lon="5.20482">
        <ele>243</ele>
        <time>2021-10-15T04:31:12Z</time>
      </trkpt>
      <trkpt lat="46.1818" lon="5.20488">
        <ele>243</ele>
        <time>2021-10-15T04:31:14Z</time>
      </trkpt>
      <trkpt lat="46.18182" lon="5.205">
        <ele>243</ele>
        <time>2021-10-15T04:31:15Z</time>
      </trkpt>
      <trkpt lat="46.18185" lon="5.20505">
        <ele>242</ele>
        <time>2021-10-15T04:31:16Z</time>
      </trkpt>
      <trkpt lat="46.1819" lon="5.20507">
        <ele>242</ele>
        <time>2021-10-15T04:31:17Z</time>
      </trkpt>
      <trkpt lat="46.18199" lon="5.20503">
        <ele>242</ele>
        <time>2021-10-15T04:31:19Z</time>
      </trkpt>
      <trkpt lat="46.18219" lon="5.20512">
        <ele>242</ele>
        <time>2021-10-15T04:31:22Z</time>
      </trkpt>
      <trkpt lat="46.18301" lon="5.20572">
        <ele>241</ele>
        <time>2021-10-15T04:31:39Z</time>
      </trkpt>
      <trkpt lat="46.18396" lon="5.20644">
        <ele>239</ele>
        <time>2021-10-15T04:31:58Z</time>
      </trkpt>
      <trkpt lat="46.18475" lon="5.2071">
        <ele>238</ele>
        <time>2021-10-15T04:32:14Z</time>
      </trkpt>
      <trkpt lat="46.1861" lon="5.20812">
        <ele>239</ele>
        <time>2021-10-15T04:32:41Z</time>
      </trkpt>
      <trkpt lat="46.19186" lon="5.2124">
        <ele>243</ele>
        <time>2021-10-15T04:34:36Z</time>
      </trkpt>
      <trkpt lat="46.19181" lon="5.21245">
        <ele>243</ele>
        <time>2021-10-15T04:34:38Z</time>
      </trkpt>
      <trkpt lat="46.19179" lon="5.2125">
        <ele>243</ele>
        <time>2021-10-15T04:34:38Z</time>
      </trkpt>
      <trkpt lat="46.19171" lon="5.21285">
        <ele>243</ele>
        <time>2021-10-15T04:34:43Z</time>
      </trkpt>
      <trkpt lat="46.19165" lon="5.21344">
        <ele>242</ele>
        <time>2021-10-15T04:34:50Z</time>
      </trkpt>
      <trkpt lat="46.19161" lon="5.21413">
        <ele>242</ele>
        <time>2021-10-15T04:34:59Z</time>
      </trkpt>
      <trkpt lat="46.19173" lon="5.21525">
        <ele>242</ele>
        <time>2021-10-15T04:35:13Z</time>
      </trkpt>
      <trkpt lat="46.19196" lon="5.21654">
        <ele>241</ele>
        <time>2021-10-15T04:35:29Z</time>
      </trkpt>
      <trkpt lat="46.19209" lon="5.2175">
        <ele>241</ele>
        <time>2021-10-15T04:35:41Z</time>
      </trkpt>
      <trkpt lat="46.19213" lon="5.21821">
        <ele>241</ele>
        <time>2021-10-15T04:35:50Z</time>
      </trkpt>
      <trkpt lat="46.19214" lon="5.21924">
        <ele>242</ele>
        <time>2021-10-15T04:36:03Z</time>
      </trkpt>
      <trkpt lat="46.19221" lon="5.2199">
        <ele>242</ele>
        <time>2021-10-15T04:36:11Z</time>
      </trkpt>
      <trkpt lat="46.19235" lon="5.22072">
        <ele>242</ele>
        <time>2021-10-15T04:36:21Z</time>
      </trkpt>
      <trkpt lat="46.19244" lon="5.22081">
        <ele>243</ele>
        <time>2021-10-15T04:36:23Z</time>
      </trkpt>
      <trkpt lat="46.19251" lon="5.22094">
        <ele>243</ele>
        <time>2021-10-15T04:36:25Z</time>
      </trkpt>
      <trkpt lat="46.19249" lon="5.22132">
        <ele>242</ele>
        <time>2021-10-15T04:36:30Z</time>
      </trkpt>
      <trkpt lat="46.19293" lon="5.22318">
        <ele>238</ele>
        <time>2021-10-15T04:36:54Z</time>
      </trkpt>
      <trkpt lat="46.19318" lon="5.22409">
        <ele>237</ele>
        <time>2021-10-15T04:37:06Z</time>
      </trkpt>
      <trkpt lat="46.19328" lon="5.22436">
        <ele>237</ele>
        <time>2021-10-15T04:37:10Z</time>
      </trkpt>
      <trkpt lat="46.19351" lon="5.22487">
        <ele>236</ele>
        <time>2021-10-15T04:37:17Z</time>
      </trkpt>
      <trkpt lat="46.19349" lon="5.2249">
        <ele>236</ele>
        <time>2021-10-15T04:37:18Z</time>
      </trkpt>
      <trkpt lat="46.19348" lon="5.22495">
        <ele>236</ele>
        <time>2021-10-15T04:37:19Z</time>
      </trkpt>
      <trkpt lat="46.1935" lon="5.22499">
        <ele>236</ele>
        <time>2021-10-15T04:37:19Z</time>
      </trkpt>
      <trkpt lat="46.19361" lon="5.22504">
        <ele>236</ele>
        <time>2021-10-15T04:37:21Z</time>
      </trkpt>
      <trkpt lat="46.19363" lon="5.22504">
        <ele>236</ele>
        <time>2021-10-15T04:37:22Z</time>
      </trkpt>
      <trkpt lat="46.19365" lon="5.22497">
        <ele>236</ele>
        <time>2021-10-15T04:37:23Z</time>
      </trkpt>
      <trkpt lat="46.19538" lon="5.22526">
        <ele>235</ele>
        <time>2021-10-15T04:37:54Z</time>
      </trkpt>
      <trkpt lat="46.1983" lon="5.22577">
        <ele>230</ele>
        <time>2021-10-15T04:38:46Z</time>
      </trkpt>
      <trkpt lat="46.19939" lon="5.22594">
        <ele>229</ele>
        <time>2021-10-15T04:39:05Z</time>
      </trkpt>
      <trkpt lat="46.19982" lon="5.226">
        <ele>230</ele>
        <time>2021-10-15T04:39:13Z</time>
      </trkpt>
      <trkpt lat="46.19998" lon="5.22608">
        <ele>230</ele>
        <time>2021-10-15T04:39:16Z</time>
      </trkpt>
      <trkpt lat="46.20008" lon="5.22617">
        <ele>230</ele>
        <time>2021-10-15T04:39:18Z</time>
      </trkpt>
      <trkpt lat="46.20023" lon="5.22638">
        <ele>231</ele>
        <time>2021-10-15T04:39:22Z</time>
      </trkpt>
      <trkpt lat="46.2017" lon="5.23062">
        <ele>236</ele>
        <time>2021-10-15T04:40:20Z</time>
      </trkpt>
      <trkpt lat="46.20209" lon="5.23173">
        <ele>233</ele>
        <time>2021-10-15T04:40:36Z</time>
      </trkpt>
      <trkpt lat="46.20235" lon="5.23239">
        <ele>232</ele>
        <time>2021-10-15T04:40:45Z</time>
      </trkpt>
      <trkpt lat="46.20246" lon="5.23266">
        <ele>232</ele>
        <time>2021-10-15T04:40:49Z</time>
      </trkpt>
      <trkpt lat="46.20258" lon="5.23292">
        <ele>231</ele>
        <time>2021-10-15T04:40:53Z</time>
      </trkpt>
      <trkpt lat="46.20286" lon="5.23336">
        <ele>230</ele>
        <time>2021-10-15T04:41:00Z</time>
      </trkpt>
      <trkpt lat="46.20312" lon="5.23369">
        <ele>229</ele>
        <time>2021-10-15T04:41:06Z</time>
      </trkpt>
      <trkpt lat="46.20339" lon="5.23392">
        <ele>229</ele>
        <time>2021-10-15T04:41:12Z</time>
      </trkpt>
      <trkpt lat="46.20369" lon="5.23412">
        <ele>228</ele>
        <time>2021-10-15T04:41:18Z</time>
      </trkpt>
      <trkpt lat="46.20402" lon="5.23428">
        <ele>227</ele>
        <time>2021-10-15T04:41:24Z</time>
      </trkpt>
      <trkpt lat="46.2043" lon="5.23435">
        <ele>228</ele>
        <time>2021-10-15T04:41:29Z</time>
      </trkpt>
      <trkpt lat="46.20582" lon="5.2346">
        <ele>227</ele>
        <time>2021-10-15T04:41:56Z</time>
      </trkpt>
      <trkpt lat="46.20623" lon="5.23478">
        <ele>227</ele>
        <time>2021-10-15T04:42:04Z</time>
      </trkpt>
      <trkpt lat="46.20722" lon="5.23578">
        <ele>227</ele>
        <time>2021-10-15T04:42:25Z</time>
      </trkpt>
      <trkpt lat="46.20791" lon="5.2364">
        <ele>227</ele>
        <time>2021-10-15T04:42:40Z</time>
      </trkpt>
      <trkpt lat="46.20825" lon="5.23681">
        <ele>228</ele>
        <time>2021-10-15T04:42:48Z</time>
      </trkpt>
      <trkpt lat="46.20881" lon="5.23734">
        <ele>227</ele>
        <time>2021-10-15T04:42:59Z</time>
      </trkpt>
      <trkpt lat="46.20901" lon="5.23754">
        <ele>226</ele>
        <time>2021-10-15T04:43:04Z</time>
      </trkpt>
      <trkpt lat="46.21081" lon="5.23932">
        <ele>232</ele>
        <time>2021-10-15T04:43:43Z</time>
      </trkpt>
      <trkpt lat="46.21075" lon="5.23945">
        <ele>231</ele>
        <time>2021-10-15T04:43:45Z</time>
      </trkpt>
      <trkpt lat="46.21072" lon="5.23965">
        <ele>231</ele>
        <time>2021-10-15T04:43:47Z</time>
      </trkpt>
      <trkpt lat="46.21125" lon="5.2441">
        <ele>236</ele>
        <time>2021-10-15T04:44:43Z</time>
      </trkpt>
      <trkpt lat="46.21132" lon="5.24542">
        <ele>239</ele>
        <time>2021-10-15T04:44:59Z</time>
      </trkpt>
      <trkpt lat="46.21133" lon="5.24602">
        <ele>240</ele>
        <time>2021-10-15T04:45:06Z</time>
      </trkpt>
      <trkpt lat="46.21123" lon="5.24782">
        <ele>243</ele>
        <time>2021-10-15T04:45:29Z</time>
      </trkpt>
      <trkpt lat="46.21158" lon="5.25223">
        <ele>248</ele>
        <time>2021-10-15T04:46:23Z</time>
      </trkpt>
      <trkpt lat="46.21159" lon="5.25294">
        <ele>248</ele>
        <time>2021-10-15T04:46:32Z</time>
      </trkpt>
      <trkpt lat="46.21159" lon="5.25414">
        <ele>249</ele>
        <time>2021-10-15T04:46:47Z</time>
      </trkpt>
      <trkpt lat="46.21161" lon="5.25823">
        <ele>249</ele>
        <time>2021-10-15T04:47:37Z</time>
      </trkpt>
      <trkpt lat="46.21159" lon="5.25839">
        <ele>249</ele>
        <time>2021-10-15T04:47:39Z</time>
      </trkpt>
      <trkpt lat="46.21154" lon="5.25857">
        <ele>249</ele>
        <time>2021-10-15T04:47:41Z</time>
      </trkpt>
      <trkpt lat="46.2115" lon="5.25867">
        <ele>249</ele>
        <time>2021-10-15T04:47:43Z</time>
      </trkpt>
      <trkpt lat="46.21144" lon="5.25867">
        <ele>248</ele>
        <time>2021-10-15T04:47:44Z</time>
      </trkpt>
      <trkpt lat="46.21138" lon="5.25873">
        <ele>248</ele>
        <time>2021-10-15T04:47:45Z</time>
      </trkpt>
      <trkpt lat="46.21137" lon="5.25883">
        <ele>248</ele>
        <time>2021-10-15T04:47:47Z</time>
      </trkpt>
      <trkpt lat="46.21139" lon="5.2589">
        <ele>248</ele>
        <time>2021-10-15T04:47:47Z</time>
      </trkpt>
      <trkpt lat="46.21144" lon="5.25894">
        <ele>248</ele>
        <time>2021-10-15T04:47:48Z</time>
      </trkpt>
      <trkpt lat="46.21151" lon="5.25894">
        <ele>248</ele>
        <time>2021-10-15T04:47:50Z</time>
      </trkpt>
      <trkpt lat="46.2116" lon="5.25933">
        <ele>248</ele>
        <time>2021-10-15T04:47:55Z</time>
      </trkpt>
      <trkpt lat="46.21161" lon="5.25952">
        <ele>249</ele>
        <time>2021-10-15T04:47:57Z</time>
      </trkpt>
      <trkpt lat="46.21164" lon="5.26645">
        <ele>253</ele>
        <time>2021-10-15T04:49:22Z</time>
      </trkpt>
      <trkpt lat="46.21165" lon="5.27178">
        <ele>255</ele>
        <time>2021-10-15T04:50:28Z</time>
      </trkpt>
      <trkpt lat="46.2116" lon="5.27179">
        <ele>255</ele>
        <time>2021-10-15T04:50:29Z</time>
      </trkpt>
      <trkpt lat="46.21151" lon="5.27186">
        <ele>256</ele>
        <time>2021-10-15T04:50:31Z</time>
      </trkpt>
      <trkpt lat="46.21145" lon="5.27198">
        <ele>256</ele>
        <time>2021-10-15T04:50:33Z</time>
      </trkpt>
      <trkpt lat="46.21144" lon="5.27213">
        <ele>256</ele>
        <time>2021-10-15T04:50:34Z</time>
      </trkpt>
      <trkpt lat="46.21145" lon="5.2722">
        <ele>256</ele>
        <time>2021-10-15T04:50:35Z</time>
      </trkpt>
      <trkpt lat="46.21151" lon="5.27232">
        <ele>256</ele>
        <time>2021-10-15T04:50:37Z</time>
      </trkpt>
      <trkpt lat="46.21159" lon="5.2724">
        <ele>256</ele>
        <time>2021-10-15T04:50:39Z</time>
      </trkpt>
      <trkpt lat="46.21164" lon="5.27241">
        <ele>256</ele>
        <time>2021-10-15T04:50:40Z</time>
      </trkpt>
      <trkpt lat="46.21166" lon="5.27357">
        <ele>258</ele>
        <time>2021-10-15T04:50:54Z</time>
      </trkpt>
      <trkpt lat="46.21169" lon="5.28199">
        <ele>253</ele>
        <time>2021-10-15T04:52:38Z</time>
      </trkpt>
      <trkpt lat="46.21171" lon="5.29433">
        <ele>260</ele>
        <time>2021-10-15T04:55:10Z</time>
      </trkpt>
      <trkpt lat="46.21171" lon="5.29514">
        <ele>261</ele>
        <time>2021-10-15T04:55:20Z</time>
      </trkpt>
      <trkpt lat="46.21171" lon="5.29678">
        <ele>259</ele>
        <time>2021-10-15T04:55:40Z</time>
      </trkpt>
      <trkpt lat="46.21171" lon="5.29695">
        <ele>258</ele>
        <time>2021-10-15T04:55:42Z</time>
      </trkpt>
      <trkpt lat="46.21176" lon="5.3156">
        <ele>281</ele>
        <time>2021-10-15T04:59:32Z</time>
      </trkpt>
      <trkpt lat="46.21176" lon="5.32199">
        <ele>292</ele>
        <time>2021-10-15T05:00:50Z</time>
      </trkpt>
      <trkpt lat="46.21178" lon="5.32225">
        <ele>292</ele>
        <time>2021-10-15T05:00:53Z</time>
      </trkpt>
      <trkpt lat="46.21199" lon="5.3242">
        <ele>295</ele>
        <time>2021-10-15T05:01:18Z</time>
      </trkpt>
      <trkpt lat="46.2121" lon="5.32515">
        <ele>296</ele>
        <time>2021-10-15T05:01:30Z</time>
      </trkpt>
      <trkpt lat="46.21215" lon="5.32541">
        <ele>297</ele>
        <time>2021-10-15T05:01:33Z</time>
      </trkpt>
      <trkpt lat="46.21219" lon="5.32562">
        <ele>297</ele>
        <time>2021-10-15T05:01:36Z</time>
      </trkpt>
      <trkpt lat="46.21233" lon="5.32747">
        <ele>301</ele>
        <time>2021-10-15T05:01:59Z</time>
      </trkpt>
      <trkpt lat="46.21235" lon="5.32802">
        <ele>302</ele>
        <time>2021-10-15T05:02:05Z</time>
      </trkpt>
      <trkpt lat="46.21244" lon="5.32859">
        <ele>304</ele>
        <time>2021-10-15T05:02:13Z</time>
      </trkpt>
      <trkpt lat="46.21252" lon="5.32895">
        <ele>307</ele>
        <time>2021-10-15T05:02:17Z</time>
      </trkpt>
      <trkpt lat="46.21257" lon="5.32946">
        <ele>309</ele>
        <time>2021-10-15T05:02:24Z</time>
      </trkpt>
      <trkpt lat="46.21273" lon="5.33004">
        <ele>313</ele>
        <time>2021-10-15T05:02:31Z</time>
      </trkpt>
      <trkpt lat="46.21276" lon="5.33028">
        <ele>314</ele>
        <time>2021-10-15T05:02:34Z</time>
      </trkpt>
      <trkpt lat="46.21279" lon="5.33109">
        <ele>313</ele>
        <time>2021-10-15T05:02:44Z</time>
      </trkpt>
      <trkpt lat="46.21283" lon="5.33151">
        <ele>312</ele>
        <time>2021-10-15T05:02:49Z</time>
      </trkpt>
      <trkpt lat="46.21288" lon="5.33187">
        <ele>311</ele>
        <time>2021-10-15T05:02:54Z</time>
      </trkpt>
      <trkpt lat="46.21298" lon="5.3322">
        <ele>311</ele>
        <time>2021-10-15T05:02:58Z</time>
      </trkpt>
      <trkpt lat="46.2134" lon="5.33299">
        <ele>313</ele>
        <time>2021-10-15T05:03:11Z</time>
      </trkpt>
      <trkpt lat="46.21898" lon="5.34386">
        <ele>359</ele>
        <time>2021-10-15T05:05:57Z</time>
      </trkpt>
      <trkpt lat="46.21916" lon="5.34415">
        <ele>355</ele>
        <time>2021-10-15T05:06:02Z</time>
      </trkpt>
      <trkpt lat="46.21942" lon="5.34449">
        <ele>360</ele>
        <time>2021-10-15T05:06:08Z</time>
      </trkpt>
      <trkpt lat="46.22006" lon="5.34516">
        <ele>359</ele>
        <time>2021-10-15T05:06:22Z</time>
      </trkpt>
      <trkpt lat="46.22068" lon="5.34577">
        <ele>360</ele>
        <time>2021-10-15T05:06:36Z</time>
      </trkpt>
      <trkpt lat="46.22103" lon="5.34605">
        <ele>361</ele>
        <time>2021-10-15T05:06:43Z</time>
      </trkpt>
      <trkpt lat="46.2219" lon="5.34663">
        <ele>365</ele>
        <time>2021-10-15T05:07:00Z</time>
      </trkpt>
      <trkpt lat="46.22209" lon="5.34677">
        <ele>367</ele>
        <time>2021-10-15T05:07:04Z</time>
      </trkpt>
      <trkpt lat="46.2224" lon="5.34708">
        <ele>369</ele>
        <time>2021-10-15T05:07:10Z</time>
      </trkpt>
      <trkpt lat="46.22254" lon="5.34729">
        <ele>369</ele>
        <time>2021-10-15T05:07:14Z</time>
      </trkpt>
      <trkpt lat="46.22308" lon="5.34813">
        <ele>373</ele>
        <time>2021-10-15T05:07:28Z</time>
      </trkpt>
      <trkpt lat="46.22348" lon="5.3487">
        <ele>375</ele>
        <time>2021-10-15T05:07:38Z</time>
      </trkpt>
      <trkpt lat="46.22409" lon="5.34934">
        <ele>374</ele>
        <time>2021-10-15T05:07:52Z</time>
      </trkpt>
      <trkpt lat="46.22609" lon="5.35125">
        <ele>383</ele>
        <time>2021-10-15T05:08:34Z</time>
      </trkpt>
      <trkpt lat="46.22662" lon="5.35167">
        <ele>383</ele>
        <time>2021-10-15T05:08:45Z</time>
      </trkpt>
      <trkpt lat="46.22814" lon="5.35297">
        <ele>380</ele>
        <time>2021-10-15T05:09:16Z</time>
      </trkpt>
      <trkpt lat="46.22932" lon="5.35378">
        <ele>376</ele>
        <time>2021-10-15T05:09:40Z</time>
      </trkpt>
      <trkpt lat="46.22966" lon="5.35409">
        <ele>378</ele>
        <time>2021-10-15T05:09:47Z</time>
      </trkpt>
      <trkpt lat="46.23061" lon="5.35504">
        <ele>377</ele>
        <time>2021-10-15T05:10:07Z</time>
      </trkpt>
      <trkpt lat="46.23157" lon="5.35623">
        <ele>370</ele>
        <time>2021-10-15T05:10:30Z</time>
      </trkpt>
      <trkpt lat="46.23167" lon="5.35639">
        <ele>370</ele>
        <time>2021-10-15T05:10:32Z</time>
      </trkpt>
      <trkpt lat="46.23171" lon="5.35651">
        <ele>371</ele>
        <time>2021-10-15T05:10:34Z</time>
      </trkpt>
      <trkpt lat="46.23172" lon="5.35667">
        <ele>372</ele>
        <time>2021-10-15T05:10:36Z</time>
      </trkpt>
      <trkpt lat="46.23169" lon="5.35685">
        <ele>373</ele>
        <time>2021-10-15T05:10:38Z</time>
      </trkpt>
      <trkpt lat="46.23106" lon="5.36005">
        <ele>371</ele>
        <time>2021-10-15T05:11:19Z</time>
      </trkpt>
      <trkpt lat="46.23098" lon="5.36036">
        <ele>371</ele>
        <time>2021-10-15T05:11:23Z</time>
      </trkpt>
      <trkpt lat="46.23073" lon="5.36105">
        <ele>371</ele>
        <time>2021-10-15T05:11:33Z</time>
      </trkpt>
      <trkpt lat="46.23064" lon="5.36139">
        <ele>370</ele>
        <time>2021-10-15T05:11:37Z</time>
      </trkpt>
      <trkpt lat="46.23061" lon="5.36166">
        <ele>370</ele>
        <time>2021-10-15T05:11:41Z</time>
      </trkpt>
      <trkpt lat="46.23062" lon="5.36196">
        <ele>368</ele>
        <time>2021-10-15T05:11:44Z</time>
      </trkpt>
      <trkpt lat="46.23075" lon="5.36272">
        <ele>366</ele>
        <time>2021-10-15T05:11:54Z</time>
      </trkpt>
      <trkpt lat="46.23078" lon="5.36297">
        <ele>367</ele>
        <time>2021-10-15T05:11:57Z</time>
      </trkpt>
      <trkpt lat="46.23075" lon="5.36363">
        <ele>367</ele>
        <time>2021-10-15T05:12:05Z</time>
      </trkpt>
      <trkpt lat="46.2307" lon="5.36425">
        <ele>366</ele>
        <time>2021-10-15T05:12:13Z</time>
      </trkpt>
      <trkpt lat="46.23069" lon="5.36465">
        <ele>365</ele>
        <time>2021-10-15T05:12:18Z</time>
      </trkpt>
      <trkpt lat="46.23071" lon="5.36501">
        <ele>365</ele>
        <time>2021-10-15T05:12:22Z</time>
      </trkpt>
      <trkpt lat="46.23078" lon="5.3654">
        <ele>364</ele>
        <time>2021-10-15T05:12:27Z</time>
      </trkpt>
      <trkpt lat="46.23093" lon="5.3659">
        <ele>364</ele>
        <time>2021-10-15T05:12:34Z</time>
      </trkpt>
      <trkpt lat="46.23105" lon="5.36626">
        <ele>363</ele>
        <time>2021-10-15T05:12:39Z</time>
      </trkpt>
      <trkpt lat="46.23116" lon="5.36653">
        <ele>363</ele>
        <time>2021-10-15T05:12:43Z</time>
      </trkpt>
      <trkpt lat="46.23135" lon="5.36684">
        <ele>362</ele>
        <time>2021-10-15T05:12:48Z</time>
      </trkpt>
      <trkpt lat="46.23182" lon="5.36735">
        <ele>362</ele>
        <time>2021-10-15T05:12:58Z</time>
      </trkpt>
      <trkpt lat="46.23195" lon="5.36755">
        <ele>362</ele>
        <time>2021-10-15T05:13:02Z</time>
      </trkpt>
      <trkpt lat="46.23204" lon="5.36775">
        <ele>362</ele>
        <time>2021-10-15T05:13:05Z</time>
      </trkpt>
      <trkpt lat="46.23208" lon="5.36794">
        <ele>361</ele>
        <time>2021-10-15T05:13:07Z</time>
      </trkpt>
      <trkpt lat="46.2321" lon="5.36817">
        <ele>360</ele>
        <time>2021-10-15T05:13:10Z</time>
      </trkpt>
      <trkpt lat="46.23211" lon="5.36877">
        <ele>357</ele>
        <time>2021-10-15T05:13:17Z</time>
      </trkpt>
      <trkpt lat="46.23214" lon="5.36899">
        <ele>358</ele>
        <time>2021-10-15T05:13:20Z</time>
      </trkpt>
      <trkpt lat="46.23226" lon="5.3694">
        <ele>357</ele>
        <time>2021-10-15T05:13:26Z</time>
      </trkpt>
      <trkpt lat="46.23238" lon="5.36961">
        <ele>357</ele>
        <time>2021-10-15T05:13:29Z</time>
      </trkpt>
      <trkpt lat="46.23306" lon="5.37038">
        <ele>356</ele>
        <time>2021-10-15T05:13:44Z</time>
      </trkpt>
      <trkpt lat="46.23391" lon="5.37138">
        <ele>355</ele>
        <time>2021-10-15T05:14:04Z</time>
      </trkpt>
      <trkpt lat="46.23451" lon="5.37233">
        <ele>352</ele>
        <time>2021-10-15T05:14:20Z</time>
      </trkpt>
      <trkpt lat="46.23493" lon="5.37315">
        <ele>350</ele>
        <time>2021-10-15T05:14:32Z</time>
      </trkpt>
      <trkpt lat="46.23542" lon="5.37386">
        <ele>347</ele>
        <time>2021-10-15T05:14:45Z</time>
      </trkpt>
      <trkpt lat="46.23579" lon="5.3741">
        <ele>347</ele>
        <time>2021-10-15T05:14:52Z</time>
      </trkpt>
      <trkpt lat="46.23624" lon="5.37446">
        <ele>347</ele>
        <time>2021-10-15T05:15:01Z</time>
      </trkpt>
      <trkpt lat="46.23715" lon="5.3751">
        <ele>345</ele>
        <time>2021-10-15T05:15:19Z</time>
      </trkpt>
      <trkpt lat="46.23735" lon="5.3753">
        <ele>344</ele>
        <time>2021-10-15T05:15:23Z</time>
      </trkpt>
      <trkpt lat="46.23748" lon="5.37551">
        <ele>343</ele>
        <time>2021-10-15T05:15:27Z</time>
      </trkpt>
      <trkpt lat="46.23759" lon="5.37579">
        <ele>341</ele>
        <time>2021-10-15T05:15:31Z</time>
      </trkpt>
      <trkpt lat="46.23837" lon="5.37871">
        <ele>332</ele>
        <time>2021-10-15T05:16:09Z</time>
      </trkpt>
      <trkpt lat="46.23847" lon="5.37897">
        <ele>332</ele>
        <time>2021-10-15T05:16:13Z</time>
      </trkpt>
      <trkpt lat="46.23863" lon="5.37931">
        <ele>332</ele>
        <time>2021-10-15T05:16:18Z</time>
      </trkpt>
      <trkpt lat="46.23886" lon="5.37959">
        <ele>331</ele>
        <time>2021-10-15T05:16:23Z</time>
      </trkpt>
      <trkpt lat="46.23899" lon="5.3797">
        <ele>331</ele>
        <time>2021-10-15T05:16:26Z</time>
      </trkpt>
      <trkpt lat="46.23939" lon="5.37995">
        <ele>330</ele>
        <time>2021-10-15T05:16:34Z</time>
      </trkpt>
      <trkpt lat="46.24454" lon="5.38299">
        <ele>349</ele>
        <time>2021-10-15T05:18:13Z</time>
      </trkpt>
      <trkpt lat="46.24474" lon="5.38314">
        <ele>349</ele>
        <time>2021-10-15T05:18:17Z</time>
      </trkpt>
      <trkpt lat="46.24498" lon="5.38335">
        <ele>350</ele>
        <time>2021-10-15T05:18:22Z</time>
      </trkpt>
      <trkpt lat="46.24511" lon="5.38349">
        <ele>351</ele>
        <time>2021-10-15T05:18:25Z</time>
      </trkpt>
      <trkpt lat="46.24537" lon="5.38388">
        <ele>352</ele>
        <time>2021-10-15T05:18:31Z</time>
      </trkpt>
      <trkpt lat="46.24554" lon="5.38424">
        <ele>353</ele>
        <time>2021-10-15T05:18:37Z</time>
      </trkpt>
      <trkpt lat="46.24578" lon="5.38489">
        <ele>354</ele>
        <time>2021-10-15T05:18:46Z</time>
      </trkpt>
      <trkpt lat="46.24584" lon="5.3852">
        <ele>355</ele>
        <time>2021-10-15T05:18:50Z</time>
      </trkpt>
      <trkpt lat="46.24589" lon="5.38555">
        <ele>356</ele>
        <time>2021-10-15T05:18:54Z</time>
      </trkpt>
      <trkpt lat="46.2459" lon="5.38588">
        <ele>357</ele>
        <time>2021-10-15T05:18:58Z</time>
      </trkpt>
      <trkpt lat="46.2459" lon="5.38683">
        <ele>363</ele>
        <time>2021-10-15T05:19:10Z</time>
      </trkpt>
      <trkpt lat="46.24592" lon="5.38731">
        <ele>365</ele>
        <time>2021-10-15T05:19:16Z</time>
      </trkpt>
      <trkpt lat="46.24602" lon="5.38781">
        <ele>368</ele>
        <time>2021-10-15T05:19:22Z</time>
      </trkpt>
      <trkpt lat="46.24623" lon="5.38827">
        <ele>369</ele>
        <time>2021-10-15T05:19:29Z</time>
      </trkpt>
      <trkpt lat="46.24634" lon="5.38845">
        <ele>370</ele>
        <time>2021-10-15T05:19:32Z</time>
      </trkpt>
      <trkpt lat="46.2466" lon="5.3887">
        <ele>371</ele>
        <time>2021-10-15T05:19:37Z</time>
      </trkpt>
      <trkpt lat="46.24742" lon="5.38937">
        <ele>376</ele>
        <time>2021-10-15T05:19:54Z</time>
      </trkpt>
      <trkpt lat="46.24757" lon="5.38952">
        <ele>377</ele>
        <time>2021-10-15T05:19:57Z</time>
      </trkpt>
      <trkpt lat="46.24772" lon="5.38973">
        <ele>379</ele>
        <time>2021-10-15T05:20:01Z</time>
      </trkpt>
      <trkpt lat="46.24786" lon="5.39">
        <ele>382</ele>
        <time>2021-10-15T05:20:05Z</time>
      </trkpt>
      <trkpt lat="46.24917" lon="5.39312">
        <ele>381</ele>
        <time>2021-10-15T05:20:50Z</time>
      </trkpt>
      <trkpt lat="46.24924" lon="5.3934">
        <ele>382</ele>
        <time>2021-10-15T05:20:54Z</time>
      </trkpt>
      <trkpt lat="46.24931" lon="5.39402">
        <ele>383</ele>
        <time>2021-10-15T05:21:02Z</time>
      </trkpt>
      <trkpt lat="46.24938" lon="5.39521">
        <ele>381</ele>
        <time>2021-10-15T05:21:16Z</time>
      </trkpt>
      <trkpt lat="46.24969" lon="5.39796">
        <ele>373</ele>
        <time>2021-10-15T05:21:51Z</time>
      </trkpt>
      <trkpt lat="46.24973" lon="5.39819">
        <ele>371</ele>
        <time>2021-10-15T05:21:54Z</time>
      </trkpt>
      <trkpt lat="46.24988" lon="5.39852">
        <ele>366</ele>
        <time>2021-10-15T05:21:58Z</time>
      </trkpt>
      <trkpt lat="46.2504" lon="5.39948">
        <ele>355</ele>
        <time>2021-10-15T05:22:13Z</time>
      </trkpt>
      <trkpt lat="46.25052" lon="5.39964">
        <ele>354</ele>
        <time>2021-10-15T05:22:16Z</time>
      </trkpt>
      <trkpt lat="46.25065" lon="5.39978">
        <ele>353</ele>
        <time>2021-10-15T05:22:19Z</time>
      </trkpt>
      <trkpt lat="46.25131" lon="5.40031">
        <ele>351</ele>
        <time>2021-10-15T05:22:33Z</time>
      </trkpt>
      <trkpt lat="46.25154" lon="5.40045">
        <ele>351</ele>
        <time>2021-10-15T05:22:37Z</time>
      </trkpt>
      <trkpt lat="46.25205" lon="5.40067">
        <ele>350</ele>
        <time>2021-10-15T05:22:47Z</time>
      </trkpt>
      <trkpt lat="46.25228" lon="5.40073">
        <ele>349</ele>
        <time>2021-10-15T05:22:51Z</time>
      </trkpt>
      <trkpt lat="46.25312" lon="5.40075">
        <ele>349</ele>
        <time>2021-10-15T05:23:06Z</time>
      </trkpt>
      <trkpt lat="46.25328" lon="5.40077">
        <ele>348</ele>
        <time>2021-10-15T05:23:09Z</time>
      </trkpt>
      <trkpt lat="46.2534" lon="5.40083">
        <ele>347</ele>
        <time>2021-10-15T05:23:11Z</time>
      </trkpt>
      <trkpt lat="46.25353" lon="5.40091">
        <ele>346</ele>
        <time>2021-10-15T05:23:13Z</time>
      </trkpt>
      <trkpt lat="46.25507" lon="5.40235">
        <ele>329</ele>
        <time>2021-10-15T05:23:46Z</time>
      </trkpt>
      <trkpt lat="46.2552" lon="5.40248">
        <ele>329</ele>
        <time>2021-10-15T05:23:49Z</time>
      </trkpt>
      <trkpt lat="46.2553" lon="5.40263">
        <ele>329</ele>
        <time>2021-10-15T05:23:51Z</time>
      </trkpt>
      <trkpt lat="46.2554" lon="5.40285">
        <ele>329</ele>
        <time>2021-10-15T05:23:55Z</time>
      </trkpt>
      <trkpt lat="46.25547" lon="5.40307">
        <ele>328</ele>
        <time>2021-10-15T05:23:58Z</time>
      </trkpt>
      <trkpt lat="46.25552" lon="5.40329">
        <ele>328</ele>
        <time>2021-10-15T05:24:00Z</time>
      </trkpt>
      <trkpt lat="46.25555" lon="5.40355">
        <ele>327</ele>
        <time>2021-10-15T05:24:04Z</time>
      </trkpt>
      <trkpt lat="46.25555" lon="5.40375">
        <ele>326</ele>
        <time>2021-10-15T05:24:06Z</time>
      </trkpt>
      <trkpt lat="46.2555" lon="5.404">
        <ele>325</ele>
        <time>2021-10-15T05:24:09Z</time>
      </trkpt>
      <trkpt lat="46.25322" lon="5.41261">
        <ele>313</ele>
        <time>2021-10-15T05:26:03Z</time>
      </trkpt>
      <trkpt lat="46.2531" lon="5.41301">
        <ele>315</ele>
        <time>2021-10-15T05:26:08Z</time>
      </trkpt>
      <trkpt lat="46.25293" lon="5.41339">
        <ele>317</ele>
        <time>2021-10-15T05:26:14Z</time>
      </trkpt>
      <trkpt lat="46.25313" lon="5.41355">
        <ele>319</ele>
        <time>2021-10-15T05:26:18Z</time>
      </trkpt>
      <trkpt lat="46.25763" lon="5.41556">
        <ele>344</ele>
        <time>2021-10-15T05:27:41Z</time>
      </trkpt>
      <trkpt lat="46.25839" lon="5.41578">
        <ele>346</ele>
        <time>2021-10-15T05:27:55Z</time>
      </trkpt>
      <trkpt lat="46.2588" lon="5.41596">
        <ele>346</ele>
        <time>2021-10-15T05:28:03Z</time>
      </trkpt>
      <trkpt lat="46.25898" lon="5.41601">
        <ele>346</ele>
        <time>2021-10-15T05:28:06Z</time>
      </trkpt>
      <trkpt lat="46.2592" lon="5.4161">
        <ele>345</ele>
        <time>2021-10-15T05:28:10Z</time>
      </trkpt>
      <trkpt lat="46.25935" lon="5.4162">
        <ele>346</ele>
        <time>2021-10-15T05:28:13Z</time>
      </trkpt>
      <trkpt lat="46.25948" lon="5.41635">
        <ele>347</ele>
        <time>2021-10-15T05:28:16Z</time>
      </trkpt>
      <trkpt lat="46.25956" lon="5.41651">
        <ele>348</ele>
        <time>2021-10-15T05:28:19Z</time>
      </trkpt>
      <trkpt lat="46.25964" lon="5.41675">
        <ele>349</ele>
        <time>2021-10-15T05:28:22Z</time>
      </trkpt>
      <trkpt lat="46.25982" lon="5.41802">
        <ele>352</ele>
        <time>2021-10-15T05:28:38Z</time>
      </trkpt>
      <trkpt lat="46.26" lon="5.41893">
        <ele>349</ele>
        <time>2021-10-15T05:28:49Z</time>
      </trkpt>
      <trkpt lat="46.26006" lon="5.41911">
        <ele>349</ele>
        <time>2021-10-15T05:28:52Z</time>
      </trkpt>
      <trkpt lat="46.2602" lon="5.41935">
        <ele>347</ele>
        <time>2021-10-15T05:28:56Z</time>
      </trkpt>
      <trkpt lat="46.26056" lon="5.4199">
        <ele>344</ele>
        <time>2021-10-15T05:29:05Z</time>
      </trkpt>
      <trkpt lat="46.26075" lon="5.42015">
        <ele>343</ele>
        <time>2021-10-15T05:29:10Z</time>
      </trkpt>
      <trkpt lat="46.261" lon="5.42044">
        <ele>340</ele>
        <time>2021-10-15T05:29:15Z</time>
      </trkpt>
      <trkpt lat="46.26137" lon="5.42079">
        <ele>336</ele>
        <time>2021-10-15T05:29:23Z</time>
      </trkpt>
      <trkpt lat="46.26187" lon="5.42109">
        <ele>332</ele>
        <time>2021-10-15T05:29:33Z</time>
      </trkpt>
      <trkpt lat="46.262" lon="5.42118">
        <ele>331</ele>
        <time>2021-10-15T05:29:35Z</time>
      </trkpt>
      <trkpt lat="46.26208" lon="5.42129">
        <ele>329</ele>
        <time>2021-10-15T05:29:37Z</time>
      </trkpt>
      <trkpt lat="46.26213" lon="5.42145">
        <ele>327</ele>
        <time>2021-10-15T05:29:40Z</time>
      </trkpt>
      <trkpt lat="46.26215" lon="5.42162">
        <ele>325</ele>
        <time>2021-10-15T05:29:42Z</time>
      </trkpt>
      <trkpt lat="46.26216" lon="5.42234">
        <ele>324</ele>
        <time>2021-10-15T05:29:51Z</time>
      </trkpt>
      <trkpt lat="46.26222" lon="5.42311">
        <ele>322</ele>
        <time>2021-10-15T05:30:00Z</time>
      </trkpt>
      <trkpt lat="46.26226" lon="5.42333">
        <ele>322</ele>
        <time>2021-10-15T05:30:03Z</time>
      </trkpt>
      <trkpt lat="46.26232" lon="5.42356">
        <ele>322</ele>
        <time>2021-10-15T05:30:06Z</time>
      </trkpt>
      <trkpt lat="46.26254" lon="5.42408">
        <ele>322</ele>
        <time>2021-10-15T05:30:13Z</time>
      </trkpt>
      <trkpt lat="46.26273" lon="5.42441">
        <ele>321</ele>
        <time>2021-10-15T05:30:19Z</time>
      </trkpt>
      <trkpt lat="46.26291" lon="5.42461">
        <ele>320</ele>
        <time>2021-10-15T05:30:23Z</time>
      </trkpt>
      <trkpt lat="46.26325" lon="5.42492">
        <ele>318</ele>
        <time>2021-10-15T05:30:30Z</time>
      </trkpt>
      <trkpt lat="46.26329" lon="5.42501">
        <ele>318</ele>
        <time>2021-10-15T05:30:31Z</time>
      </trkpt>
      <trkpt lat="46.26338" lon="5.42579">
        <ele>318</ele>
        <time>2021-10-15T05:30:41Z</time>
      </trkpt>
      <trkpt lat="46.26457" lon="5.42598">
        <ele>318</ele>
        <time>2021-10-15T05:31:02Z</time>
      </trkpt>
      <trkpt lat="46.26515" lon="5.42614">
        <ele>318</ele>
        <time>2021-10-15T05:31:13Z</time>
      </trkpt>
      <trkpt lat="46.26583" lon="5.42625">
        <ele>318</ele>
        <time>2021-10-15T05:31:25Z</time>
      </trkpt>
      <trkpt lat="46.26613" lon="5.42632">
        <ele>318</ele>
        <time>2021-10-15T05:31:30Z</time>
      </trkpt>
      <trkpt lat="46.26857" lon="5.427">
        <ele>320</ele>
        <time>2021-10-15T05:32:14Z</time>
      </trkpt>
      <trkpt lat="46.26914" lon="5.42724">
        <ele>320</ele>
        <time>2021-10-15T05:32:25Z</time>
      </trkpt>
      <trkpt lat="46.26957" lon="5.42739">
        <ele>320</ele>
        <time>2021-10-15T05:32:33Z</time>
      </trkpt>
      <trkpt lat="46.27037" lon="5.42758">
        <ele>321</ele>
        <time>2021-10-15T05:32:47Z</time>
      </trkpt>
      <trkpt lat="46.2712" lon="5.42766">
        <ele>324</ele>
        <time>2021-10-15T05:33:02Z</time>
      </trkpt>
      <trkpt lat="46.27149" lon="5.42773">
        <ele>325</ele>
        <time>2021-10-15T05:33:07Z</time>
      </trkpt>
      <trkpt lat="46.27171" lon="5.42783">
        <ele>326</ele>
        <time>2021-10-15T05:33:11Z</time>
      </trkpt>
      <trkpt lat="46.27204" lon="5.42801">
        <ele>326</ele>
        <time>2021-10-15T05:33:18Z</time>
      </trkpt>
      <trkpt lat="46.27313" lon="5.42871">
        <ele>324</ele>
        <time>2021-10-15T05:33:39Z</time>
      </trkpt>
      <trkpt lat="46.27348" lon="5.42887">
        <ele>323</ele>
        <time>2021-10-15T05:33:45Z</time>
      </trkpt>
      <trkpt lat="46.27663" lon="5.4299">
        <ele>320</ele>
        <time>2021-10-15T05:34:43Z</time>
      </trkpt>
      <trkpt lat="46.27785" lon="5.43038">
        <ele>322</ele>
        <time>2021-10-15T05:35:05Z</time>
      </trkpt>
      <trkpt lat="46.27817" lon="5.43044">
        <ele>323</ele>
        <time>2021-10-15T05:35:11Z</time>
      </trkpt>
      <trkpt lat="46.27868" lon="5.43043">
        <ele>323</ele>
        <time>2021-10-15T05:35:20Z</time>
      </trkpt>
      <trkpt lat="46.27903" lon="5.43046">
        <ele>322</ele>
        <time>2021-10-15T05:35:27Z</time>
      </trkpt>
      <trkpt lat="46.28165" lon="5.43103">
        <ele>319</ele>
        <time>2021-10-15T05:36:14Z</time>
      </trkpt>
      <trkpt lat="46.28296" lon="5.43126">
        <ele>320</ele>
        <time>2021-10-15T05:36:37Z</time>
      </trkpt>
      <trkpt lat="46.28323" lon="5.43128">
        <ele>320</ele>
        <time>2021-10-15T05:36:42Z</time>
      </trkpt>
      <trkpt lat="46.28506" lon="5.43105">
        <ele>321</ele>
        <time>2021-10-15T05:37:15Z</time>
      </trkpt>
      <trkpt lat="46.28558" lon="5.43102">
        <ele>322</ele>
        <time>2021-10-15T05:37:24Z</time>
      </trkpt>
      <trkpt lat="46.28598" lon="5.43104">
        <ele>322</ele>
        <time>2021-10-15T05:37:31Z</time>
      </trkpt>
      <trkpt lat="46.28748" lon="5.43118">
        <ele>322</ele>
        <time>2021-10-15T05:37:58Z</time>
      </trkpt>
      <trkpt lat="46.28773" lon="5.43124">
        <ele>322</ele>
        <time>2021-10-15T05:38:02Z</time>
      </trkpt>
      <trkpt lat="46.28816" lon="5.43139">
        <ele>322</ele>
        <time>2021-10-15T05:38:10Z</time>
      </trkpt>
      <trkpt lat="46.28939" lon="5.4319">
        <ele>323</ele>
        <time>2021-10-15T05:38:33Z</time>
      </trkpt>
      <trkpt lat="46.28967" lon="5.43203">
        <ele>323</ele>
        <time>2021-10-15T05:38:38Z</time>
      </trkpt>
      <trkpt lat="46.29011" lon="5.43235">
        <ele>322</ele>
        <time>2021-10-15T05:38:47Z</time>
      </trkpt>
      <trkpt lat="46.29093" lon="5.43311">
        <ele>323</ele>
        <time>2021-10-15T05:39:04Z</time>
      </trkpt>
      <trkpt lat="46.29134" lon="5.43346">
        <ele>323</ele>
        <time>2021-10-15T05:39:13Z</time>
      </trkpt>
      <trkpt lat="46.29171" lon="5.43373">
        <ele>323</ele>
        <time>2021-10-15T05:39:20Z</time>
      </trkpt>
      <trkpt lat="46.29201" lon="5.43391">
        <ele>323</ele>
        <time>2021-10-15T05:39:26Z</time>
      </trkpt>
      <trkpt lat="46.29226" lon="5.43402">
        <ele>323</ele>
        <time>2021-10-15T05:39:30Z</time>
      </trkpt>
      <trkpt lat="46.29292" lon="5.43426">
        <ele>324</ele>
        <time>2021-10-15T05:39:43Z</time>
      </trkpt>
      <trkpt lat="46.29329" lon="5.43443">
        <ele>324</ele>
        <time>2021-10-15T05:39:49Z</time>
      </trkpt>
      <trkpt lat="46.2946" lon="5.43526">
        <ele>326</ele>
        <time>2021-10-15T05:40:15Z</time>
      </trkpt>
      <trkpt lat="46.29713" lon="5.4366">
        <ele>327</ele>
        <time>2021-10-15T05:41:03Z</time>
      </trkpt>
      <trkpt lat="46.29847" lon="5.43726">
        <ele>327</ele>
        <time>2021-10-15T05:41:28Z</time>
      </trkpt>
      <trkpt lat="46.30015" lon="5.43799">
        <ele>328</ele>
        <time>2021-10-15T05:41:59Z</time>
      </trkpt>
      <trkpt lat="46.30228" lon="5.43909">
        <ele>329</ele>
        <time>2021-10-15T05:42:40Z</time>
      </trkpt>
      <trkpt lat="46.30397" lon="5.43992">
        <ele>330</ele>
        <time>2021-10-15T05:43:11Z</time>
      </trkpt>
      <trkpt lat="46.3043" lon="5.44003">
        <ele>331</ele>
        <time>2021-10-15T05:43:17Z</time>
      </trkpt>
      <trkpt lat="46.30548" lon="5.44033">
        <ele>337</ele>
        <time>2021-10-15T05:43:39Z</time>
      </trkpt>
      <trkpt lat="46.3061" lon="5.44038">
        <ele>340</ele>
        <time>2021-10-15T05:43:50Z</time>
      </trkpt>
      <trkpt lat="46.30672" lon="5.44049">
        <ele>341</ele>
        <time>2021-10-15T05:44:01Z</time>
      </trkpt>
      <trkpt lat="46.307" lon="5.44047">
        <ele>341</ele>
        <time>2021-10-15T05:44:06Z</time>
      </trkpt>
      <trkpt lat="46.30789" lon="5.44017">
        <ele>344</ele>
        <time>2021-10-15T05:44:22Z</time>
      </trkpt>
      <trkpt lat="46.30811" lon="5.44016">
        <ele>344</ele>
        <time>2021-10-15T05:44:26Z</time>
      </trkpt>
      <trkpt lat="46.30837" lon="5.44021">
        <ele>342</ele>
        <time>2021-10-15T05:44:31Z</time>
      </trkpt>
      <trkpt lat="46.30885" lon="5.44037">
        <ele>342</ele>
        <time>2021-10-15T05:44:39Z</time>
      </trkpt>
      <trkpt lat="46.30908" lon="5.44047">
        <ele>341</ele>
        <time>2021-10-15T05:44:44Z</time>
      </trkpt>
      <trkpt lat="46.3093" lon="5.44061">
        <ele>339</ele>
        <time>2021-10-15T05:44:48Z</time>
      </trkpt>
      <trkpt lat="46.3102" lon="5.44124">
        <ele>336</ele>
        <time>2021-10-15T05:45:06Z</time>
      </trkpt>
      <trkpt lat="46.31178" lon="5.44261">
        <ele>340</ele>
        <time>2021-10-15T05:45:38Z</time>
      </trkpt>
      <trkpt lat="46.31206" lon="5.44278">
        <ele>340</ele>
        <time>2021-10-15T05:45:44Z</time>
      </trkpt>
      <trkpt lat="46.31519" lon="5.44403">
        <ele>335</ele>
        <time>2021-10-15T05:46:42Z</time>
      </trkpt>
      <trkpt lat="46.31543" lon="5.4441">
        <ele>334</ele>
        <time>2021-10-15T05:46:46Z</time>
      </trkpt>
      <trkpt lat="46.3157" lon="5.44415">
        <ele>333</ele>
        <time>2021-10-15T05:46:51Z</time>
      </trkpt>
      <trkpt lat="46.31673" lon="5.44426">
        <ele>333</ele>
        <time>2021-10-15T05:47:09Z</time>
      </trkpt>
      <trkpt lat="46.31704" lon="5.44427">
        <ele>334</ele>
        <time>2021-10-15T05:47:15Z</time>
      </trkpt>
      <trkpt lat="46.31736" lon="5.44422">
        <ele>335</ele>
        <time>2021-10-15T05:47:20Z</time>
      </trkpt>
      <trkpt lat="46.31904" lon="5.44352">
        <ele>339</ele>
        <time>2021-10-15T05:47:52Z</time>
      </trkpt>
      <trkpt lat="46.32122" lon="5.44253">
        <ele>344</ele>
        <time>2021-10-15T05:48:32Z</time>
      </trkpt>
      <trkpt lat="46.32148" lon="5.44238">
        <ele>345</ele>
        <time>2021-10-15T05:48:37Z</time>
      </trkpt>
      <trkpt lat="46.32541" lon="5.43884">
        <ele>357</ele>
        <time>2021-10-15T05:50:00Z</time>
      </trkpt>
      <trkpt lat="46.32602" lon="5.43844">
        <ele>357</ele>
        <time>2021-10-15T05:50:11Z</time>
      </trkpt>
      <trkpt lat="46.32642" lon="5.43827">
        <ele>356</ele>
        <time>2021-10-15T05:50:19Z</time>
      </trkpt>
      <trkpt lat="46.32825" lon="5.43782">
        <ele>359</ele>
        <time>2021-10-15T05:50:52Z</time>
      </trkpt>
      <trkpt lat="46.32927" lon="5.43754">
        <ele>360</ele>
        <time>2021-10-15T05:51:10Z</time>
      </trkpt>
      <trkpt lat="46.32982" lon="5.43742">
        <ele>360</ele>
        <time>2021-10-15T05:51:20Z</time>
      </trkpt>
      <trkpt lat="46.33046" lon="5.43732">
        <ele>359</ele>
        <time>2021-10-15T05:51:32Z</time>
      </trkpt>
      <trkpt lat="46.33211" lon="5.43726">
        <ele>358</ele>
        <time>2021-10-15T05:52:01Z</time>
      </trkpt>
      <trkpt lat="46.33335" lon="5.43713">
        <ele>353</ele>
        <time>2021-10-15T05:52:23Z</time>
      </trkpt>
      <trkpt lat="46.33478" lon="5.43684">
        <ele>345</ele>
        <time>2021-10-15T05:52:49Z</time>
      </trkpt>
      <trkpt lat="46.33583" lon="5.43676">
        <ele>338</ele>
        <time>2021-10-15T05:53:08Z</time>
      </trkpt>
      <trkpt lat="46.33622" lon="5.4368">
        <ele>337</ele>
        <time>2021-10-15T05:53:15Z</time>
      </trkpt>
      <trkpt lat="46.33636" lon="5.43683">
        <ele>336</ele>
        <time>2021-10-15T05:53:17Z</time>
      </trkpt>
      <trkpt lat="46.33686" lon="5.43705">
        <ele>335</ele>
        <time>2021-10-15T05:53:26Z</time>
      </trkpt>
      <trkpt lat="46.337" lon="5.43712">
        <ele>335</ele>
        <time>2021-10-15T05:53:29Z</time>
      </trkpt>
      <trkpt lat="46.33718" lon="5.43723">
        <ele>334</ele>
        <time>2021-10-15T05:53:33Z</time>
      </trkpt>
      <trkpt lat="46.33759" lon="5.43758">
        <ele>334</ele>
        <time>2021-10-15T05:53:41Z</time>
      </trkpt>
      <trkpt lat="46.33835" lon="5.43834">
        <ele>336</ele>
        <time>2021-10-15T05:53:57Z</time>
      </trkpt>
      <trkpt lat="46.33858" lon="5.43859">
        <ele>336</ele>
        <time>2021-10-15T05:54:03Z</time>
      </trkpt>
      <trkpt lat="46.33914" lon="5.43911">
        <ele>337</ele>
        <time>2021-10-15T05:54:14Z</time>
      </trkpt>
      <trkpt lat="46.33936" lon="5.43923">
        <ele>337</ele>
        <time>2021-10-15T05:54:19Z</time>
      </trkpt>
      <trkpt lat="46.33962" lon="5.4393">
        <ele>337</ele>
        <time>2021-10-15T05:54:23Z</time>
      </trkpt>
      <trkpt lat="46.34006" lon="5.43928">
        <ele>337</ele>
        <time>2021-10-15T05:54:31Z</time>
      </trkpt>
      <trkpt lat="46.34259" lon="5.43897">
        <ele>341</ele>
        <time>2021-10-15T05:55:16Z</time>
      </trkpt>
      <trkpt lat="46.34294" lon="5.43888">
        <ele>342</ele>
        <time>2021-10-15T05:55:23Z</time>
      </trkpt>
      <trkpt lat="46.34336" lon="5.43872">
        <ele>341</ele>
        <time>2021-10-15T05:55:30Z</time>
      </trkpt>
      <trkpt lat="46.34363" lon="5.4386">
        <ele>342</ele>
        <time>2021-10-15T05:55:35Z</time>
      </trkpt>
      <trkpt lat="46.34409" lon="5.43835">
        <ele>343</ele>
        <time>2021-10-15T05:55:44Z</time>
      </trkpt>
      <trkpt lat="46.34455" lon="5.43805">
        <ele>344</ele>
        <time>2021-10-15T05:55:53Z</time>
      </trkpt>
      <trkpt lat="46.34488" lon="5.43788">
        <ele>344</ele>
        <time>2021-10-15T05:55:59Z</time>
      </trkpt>
      <trkpt lat="46.34617" lon="5.43734">
        <ele>343</ele>
        <time>2021-10-15T05:56:23Z</time>
      </trkpt>
      <trkpt lat="46.34655" lon="5.43725">
        <ele>343</ele>
        <time>2021-10-15T05:56:30Z</time>
      </trkpt>
      <trkpt lat="46.34671" lon="5.43724">
        <ele>343</ele>
        <time>2021-10-15T05:56:33Z</time>
      </trkpt>
      <trkpt lat="46.34702" lon="5.43728">
        <ele>342</ele>
        <time>2021-10-15T05:56:38Z</time>
      </trkpt>
      <trkpt lat="46.34754" lon="5.43745">
        <ele>342</ele>
        <time>2021-10-15T05:56:48Z</time>
      </trkpt>
      <trkpt lat="46.34801" lon="5.43768">
        <ele>344</ele>
        <time>2021-10-15T05:56:57Z</time>
      </trkpt>
      <trkpt lat="46.34846" lon="5.43798">
        <ele>348</ele>
        <time>2021-10-15T05:57:06Z</time>
      </trkpt>
      <trkpt lat="46.34882" lon="5.43817">
        <ele>348</ele>
        <time>2021-10-15T05:57:12Z</time>
      </trkpt>
      <trkpt lat="46.34898" lon="5.43821">
        <ele>348</ele>
        <time>2021-10-15T05:57:15Z</time>
      </trkpt>
      <trkpt lat="46.34956" lon="5.43828">
        <ele>347</ele>
        <time>2021-10-15T05:57:26Z</time>
      </trkpt>
      <trkpt lat="46.35042" lon="5.43835">
        <ele>349</ele>
        <time>2021-10-15T05:57:41Z</time>
      </trkpt>
      <trkpt lat="46.35064" lon="5.43834">
        <ele>350</ele>
        <time>2021-10-15T05:57:45Z</time>
      </trkpt>
      <trkpt lat="46.35082" lon="5.43831">
        <ele>350</ele>
        <time>2021-10-15T05:57:48Z</time>
      </trkpt>
      <trkpt lat="46.351" lon="5.43823">
        <ele>350</ele>
        <time>2021-10-15T05:57:51Z</time>
      </trkpt>
      <trkpt lat="46.3511" lon="5.43816">
        <ele>350</ele>
        <time>2021-10-15T05:57:53Z</time>
      </trkpt>
      <trkpt lat="46.35126" lon="5.43799">
        <ele>349</ele>
        <time>2021-10-15T05:57:57Z</time>
      </trkpt>
      <trkpt lat="46.35195" lon="5.43716">
        <ele>346</ele>
        <time>2021-10-15T05:58:13Z</time>
      </trkpt>
      <trkpt lat="46.35207" lon="5.43706">
        <ele>346</ele>
        <time>2021-10-15T05:58:15Z</time>
      </trkpt>
      <trkpt lat="46.35259" lon="5.43674">
        <ele>348</ele>
        <time>2021-10-15T05:58:25Z</time>
      </trkpt>
      <trkpt lat="46.35301" lon="5.43666">
        <ele>350</ele>
        <time>2021-10-15T05:58:33Z</time>
      </trkpt>
      <trkpt lat="46.35721" lon="5.43613">
        <ele>360</ele>
        <time>2021-10-15T05:59:48Z</time>
      </trkpt>
      <trkpt lat="46.35927" lon="5.43568">
        <ele>358</ele>
        <time>2021-10-15T06:00:25Z</time>
      </trkpt>
      <trkpt lat="46.35955" lon="5.43565">
        <ele>357</ele>
        <time>2021-10-15T06:00:30Z</time>
      </trkpt>
      <trkpt lat="46.36007" lon="5.43563">
        <ele>356</ele>
        <time>2021-10-15T06:00:39Z</time>
      </trkpt>
      <trkpt lat="46.36216" lon="5.43576">
        <ele>353</ele>
        <time>2021-10-15T06:01:16Z</time>
      </trkpt>
      <trkpt lat="46.36258" lon="5.43582">
        <ele>352</ele>
        <time>2021-10-15T06:01:24Z</time>
      </trkpt>
      <trkpt lat="46.36311" lon="5.43596">
        <ele>350</ele>
        <time>2021-10-15T06:01:34Z</time>
      </trkpt>
      <trkpt lat="46.3636" lon="5.43606">
        <ele>349</ele>
        <time>2021-10-15T06:01:42Z</time>
      </trkpt>
      <trkpt lat="46.36399" lon="5.4361">
        <ele>349</ele>
        <time>2021-10-15T06:01:49Z</time>
      </trkpt>
      <trkpt lat="46.36445" lon="5.43612">
        <ele>351</ele>
        <time>2021-10-15T06:01:58Z</time>
      </trkpt>
      <trkpt lat="46.36483" lon="5.43609">
        <ele>351</ele>
        <time>2021-10-15T06:02:04Z</time>
      </trkpt>
      <trkpt lat="46.36741" lon="5.4357">
        <ele>354</ele>
        <time>2021-10-15T06:02:50Z</time>
      </trkpt>
      <trkpt lat="46.36798" lon="5.43567">
        <ele>353</ele>
        <time>2021-10-15T06:03:01Z</time>
      </trkpt>
      <trkpt lat="46.36971" lon="5.43574">
        <ele>356</ele>
        <time>2021-10-15T06:03:31Z</time>
      </trkpt>
      <trkpt lat="46.37014" lon="5.43584">
        <ele>357</ele>
        <time>2021-10-15T06:03:39Z</time>
      </trkpt>
      <trkpt lat="46.37047" lon="5.43596">
        <ele>358</ele>
        <time>2021-10-15T06:03:45Z</time>
      </trkpt>
      <trkpt lat="46.37231" lon="5.43679">
        <ele>362</ele>
        <time>2021-10-15T06:04:19Z</time>
      </trkpt>
      <trkpt lat="46.37248" lon="5.43689">
        <ele>362</ele>
        <time>2021-10-15T06:04:23Z</time>
      </trkpt>
      <trkpt lat="46.37352" lon="5.43764">
        <ele>360</ele>
        <time>2021-10-15T06:04:43Z</time>
      </trkpt>
      <trkpt lat="46.3739" lon="5.43796">
        <ele>358</ele>
        <time>2021-10-15T06:04:51Z</time>
      </trkpt>
      <trkpt lat="46.37433" lon="5.43838">
        <ele>356</ele>
        <time>2021-10-15T06:05:00Z</time>
      </trkpt>
      <trkpt lat="46.37466" lon="5.43862">
        <ele>355</ele>
        <time>2021-10-15T06:05:07Z</time>
      </trkpt>
      <trkpt lat="46.37499" lon="5.43881">
        <ele>355</ele>
        <time>2021-10-15T06:05:13Z</time>
      </trkpt>
      <trkpt lat="46.37561" lon="5.43906">
        <ele>355</ele>
        <time>2021-10-15T06:05:25Z</time>
      </trkpt>
      <trkpt lat="46.37679" lon="5.43968">
        <ele>352</ele>
        <time>2021-10-15T06:05:47Z</time>
      </trkpt>
      <trkpt lat="46.37759" lon="5.44014">
        <ele>351</ele>
        <time>2021-10-15T06:06:02Z</time>
      </trkpt>
      <trkpt lat="46.37826" lon="5.44061">
        <ele>351</ele>
        <time>2021-10-15T06:06:16Z</time>
      </trkpt>
      <trkpt lat="46.37895" lon="5.44117">
        <ele>352</ele>
        <time>2021-10-15T06:06:30Z</time>
      </trkpt>
      <trkpt lat="46.38014" lon="5.44222">
        <ele>350</ele>
        <time>2021-10-15T06:06:55Z</time>
      </trkpt>
      <trkpt lat="46.38128" lon="5.44326">
        <ele>350</ele>
        <time>2021-10-15T06:07:19Z</time>
      </trkpt>
      <trkpt lat="46.38495" lon="5.44668">
        <ele>354</ele>
        <time>2021-10-15T06:08:36Z</time>
      </trkpt>
      <trkpt lat="46.38517" lon="5.4469">
        <ele>354</ele>
        <time>2021-10-15T06:08:41Z</time>
      </trkpt>
      <trkpt lat="46.38547" lon="5.44727">
        <ele>354</ele>
        <time>2021-10-15T06:08:48Z</time>
      </trkpt>
      <trkpt lat="46.38818" lon="5.45078">
        <ele>358</ele>
        <time>2021-10-15T06:09:53Z</time>
      </trkpt>
      <trkpt lat="46.3886" lon="5.4513">
        <ele>364</ele>
        <time>2021-10-15T06:10:02Z</time>
      </trkpt>
      <trkpt lat="46.38879" lon="5.45151">
        <ele>366</ele>
        <time>2021-10-15T06:10:07Z</time>
      </trkpt>
      <trkpt lat="46.38925" lon="5.45183">
        <ele>370</ele>
        <time>2021-10-15T06:10:16Z</time>
      </trkpt>
      <trkpt lat="46.39117" lon="5.4526">
        <ele>378</ele>
        <time>2021-10-15T06:10:51Z</time>
      </trkpt>
      <trkpt lat="46.39162" lon="5.45272">
        <ele>380</ele>
        <time>2021-10-15T06:10:59Z</time>
      </trkpt>
      <trkpt lat="46.39297" lon="5.45294">
        <ele>384</ele>
        <time>2021-10-15T06:11:23Z</time>
      </trkpt>
      <trkpt lat="46.39326" lon="5.45287">
        <ele>383</ele>
        <time>2021-10-15T06:11:29Z</time>
      </trkpt>
      <trkpt lat="46.39401" lon="5.45255">
        <ele>380</ele>
        <time>2021-10-15T06:11:43Z</time>
      </trkpt>
      <trkpt lat="46.39532" lon="5.45194">
        <ele>369</ele>
        <time>2021-10-15T06:12:07Z</time>
      </trkpt>
      <trkpt lat="46.39548" lon="5.4519">
        <ele>368</ele>
        <time>2021-10-15T06:12:10Z</time>
      </trkpt>
      <trkpt lat="46.39565" lon="5.4519">
        <ele>369</ele>
        <time>2021-10-15T06:12:13Z</time>
      </trkpt>
      <trkpt lat="46.39587" lon="5.45195">
        <ele>370</ele>
        <time>2021-10-15T06:12:17Z</time>
      </trkpt>
      <trkpt lat="46.39625" lon="5.45209">
        <ele>371</ele>
        <time>2021-10-15T06:12:24Z</time>
      </trkpt>
      <trkpt lat="46.39777" lon="5.45287">
        <ele>371</ele>
        <time>2021-10-15T06:12:53Z</time>
      </trkpt>
      <trkpt lat="46.39795" lon="5.45292">
        <ele>370</ele>
        <time>2021-10-15T06:12:56Z</time>
      </trkpt>
      <trkpt lat="46.39819" lon="5.45294">
        <ele>367</ele>
        <time>2021-10-15T06:13:00Z</time>
      </trkpt>
      <trkpt lat="46.39898" lon="5.45285">
        <ele>362</ele>
        <time>2021-10-15T06:13:14Z</time>
      </trkpt>
      <trkpt lat="46.39978" lon="5.45274">
        <ele>360</ele>
        <time>2021-10-15T06:13:29Z</time>
      </trkpt>
      <trkpt lat="46.40113" lon="5.45261">
        <ele>358</ele>
        <time>2021-10-15T06:13:53Z</time>
      </trkpt>
      <trkpt lat="46.40137" lon="5.45251">
        <ele>357</ele>
        <time>2021-10-15T06:13:57Z</time>
      </trkpt>
      <trkpt lat="46.40172" lon="5.45295">
        <ele>361</ele>
        <time>2021-10-15T06:14:05Z</time>
      </trkpt>
      <trkpt lat="46.40179" lon="5.45299">
        <ele>361</ele>
        <time>2021-10-15T06:14:07Z</time>
      </trkpt>
      <trkpt lat="46.40205" lon="5.45305">
        <ele>360</ele>
        <time>2021-10-15T06:14:11Z</time>
      </trkpt>
      <trkpt lat="46.40212" lon="5.45315">
        <ele>361</ele>
        <time>2021-10-15T06:14:13Z</time>
      </trkpt>
      <trkpt lat="46.40221" lon="5.45317">
        <ele>361</ele>
        <time>2021-10-15T06:14:15Z</time>
      </trkpt>
      <trkpt lat="46.40229" lon="5.45323">
        <ele>361</ele>
        <time>2021-10-15T06:14:16Z</time>
      </trkpt>
      <trkpt lat="46.40234" lon="5.45329">
        <ele>361</ele>
        <time>2021-10-15T06:14:17Z</time>
      </trkpt>
      <trkpt lat="46.40234" lon="5.45338">
        <ele>361</ele>
        <time>2021-10-15T06:14:19Z</time>
      </trkpt>
      <trkpt lat="46.40229" lon="5.45356">
        <ele>360</ele>
        <time>2021-10-15T06:14:21Z</time>
      </trkpt>
      <trkpt lat="46.40205" lon="5.45421">
        <ele>360</ele>
        <time>2021-10-15T06:14:30Z</time>
      </trkpt>
      <trkpt lat="46.40201" lon="5.45432">
        <ele>360</ele>
        <time>2021-10-15T06:14:32Z</time>
      </trkpt>
      <trkpt lat="46.40215" lon="5.45446">
        <ele>358</ele>
        <time>2021-10-15T06:14:35Z</time>
      </trkpt>
      <trkpt lat="46.40226" lon="5.45452">
        <ele>357</ele>
        <time>2021-10-15T06:14:37Z</time>
      </trkpt>
      <trkpt lat="46.40263" lon="5.45467">
        <ele>354</ele>
        <time>2021-10-15T06:14:44Z</time>
      </trkpt>
      <trkpt lat="46.40338" lon="5.45501">
        <ele>354</ele>
        <time>2021-10-15T06:14:57Z</time>
      </trkpt>
      <trkpt lat="46.40463" lon="5.45549">
        <ele>352</ele>
        <time>2021-10-15T06:15:20Z</time>
      </trkpt>
      <trkpt lat="46.4064" lon="5.45625">
        <ele>354</ele>
        <time>2021-10-15T06:15:53Z</time>
      </trkpt>
      <trkpt lat="46.4067" lon="5.45633">
        <ele>355</ele>
        <time>2021-10-15T06:15:59Z</time>
      </trkpt>
      <trkpt lat="46.40687" lon="5.45641">
        <ele>355</ele>
        <time>2021-10-15T06:16:02Z</time>
      </trkpt>
      <trkpt lat="46.40699" lon="5.45651">
        <ele>355</ele>
        <time>2021-10-15T06:16:04Z</time>
      </trkpt>
      <trkpt lat="46.40713" lon="5.45668">
        <ele>355</ele>
        <time>2021-10-15T06:16:08Z</time>
      </trkpt>
      <trkpt lat="46.40742" lon="5.4571">
        <ele>355</ele>
        <time>2021-10-15T06:16:15Z</time>
      </trkpt>
      <trkpt lat="46.40769" lon="5.45754">
        <ele>356</ele>
        <time>2021-10-15T06:16:22Z</time>
      </trkpt>
      <trkpt lat="46.40777" lon="5.45763">
        <ele>356</ele>
        <time>2021-10-15T06:16:24Z</time>
      </trkpt>
      <trkpt lat="46.40788" lon="5.45769">
        <ele>356</ele>
        <time>2021-10-15T06:16:26Z</time>
      </trkpt>
      <trkpt lat="46.40816" lon="5.45773">
        <ele>356</ele>
        <time>2021-10-15T06:16:31Z</time>
      </trkpt>
      <trkpt lat="46.40828" lon="5.45777">
        <ele>356</ele>
        <time>2021-10-15T06:16:33Z</time>
      </trkpt>
      <trkpt lat="46.40846" lon="5.45787">
        <ele>356</ele>
        <time>2021-10-15T06:16:37Z</time>
      </trkpt>
      <trkpt lat="46.40918" lon="5.4584">
        <ele>359</ele>
        <time>2021-10-15T06:16:51Z</time>
      </trkpt>
      <trkpt lat="46.40942" lon="5.45853">
        <ele>359</ele>
        <time>2021-10-15T06:16:56Z</time>
      </trkpt>
      <trkpt lat="46.40973" lon="5.45867">
        <ele>359</ele>
        <time>2021-10-15T06:17:01Z</time>
      </trkpt>
      <trkpt lat="46.41153" lon="5.45943">
        <ele>362</ele>
        <time>2021-10-15T06:17:35Z</time>
      </trkpt>
      <trkpt lat="46.41214" lon="5.45959">
        <ele>361</ele>
        <time>2021-10-15T06:17:46Z</time>
      </trkpt>
      <trkpt lat="46.41251" lon="5.45972">
        <ele>361</ele>
        <time>2021-10-15T06:17:53Z</time>
      </trkpt>
      <trkpt lat="46.41323" lon="5.46006">
        <ele>362</ele>
        <time>2021-10-15T06:18:06Z</time>
      </trkpt>
      <trkpt lat="46.41343" lon="5.46018">
        <ele>362</ele>
        <time>2021-10-15T06:18:10Z</time>
      </trkpt>
      <trkpt lat="46.41358" lon="5.46032">
        <ele>362</ele>
        <time>2021-10-15T06:18:13Z</time>
      </trkpt>
      <trkpt lat="46.41367" lon="5.46044">
        <ele>362</ele>
        <time>2021-10-15T06:18:15Z</time>
      </trkpt>
      <trkpt lat="46.41398" lon="5.46106">
        <ele>362</ele>
        <time>2021-10-15T06:18:25Z</time>
      </trkpt>
      <trkpt lat="46.41407" lon="5.46121">
        <ele>362</ele>
        <time>2021-10-15T06:18:27Z</time>
      </trkpt>
      <trkpt lat="46.41418" lon="5.46131">
        <ele>362</ele>
        <time>2021-10-15T06:18:29Z</time>
      </trkpt>
      <trkpt lat="46.41449" lon="5.46145">
        <ele>363</ele>
        <time>2021-10-15T06:18:35Z</time>
      </trkpt>
      <trkpt lat="46.41592" lon="5.4619">
        <ele>364</ele>
        <time>2021-10-15T06:19:01Z</time>
      </trkpt>
      <trkpt lat="46.41611" lon="5.46198">
        <ele>364</ele>
        <time>2021-10-15T06:19:05Z</time>
      </trkpt>
      <trkpt lat="46.41629" lon="5.46211">
        <ele>364</ele>
        <time>2021-10-15T06:19:08Z</time>
      </trkpt>
      <trkpt lat="46.41645" lon="5.46238">
        <ele>364</ele>
        <time>2021-10-15T06:19:13Z</time>
      </trkpt>
      <trkpt lat="46.41787" lon="5.46566">
        <ele>369</ele>
        <time>2021-10-15T06:20:00Z</time>
      </trkpt>
      <trkpt lat="46.41802" lon="5.46593">
        <ele>369</ele>
        <time>2021-10-15T06:20:04Z</time>
      </trkpt>
      <trkpt lat="46.41809" lon="5.466">
        <ele>370</ele>
        <time>2021-10-15T06:20:06Z</time>
      </trkpt>
      <trkpt lat="46.41822" lon="5.46606">
        <ele>370</ele>
        <time>2021-10-15T06:20:08Z</time>
      </trkpt>
      <trkpt lat="46.41863" lon="5.46609">
        <ele>370</ele>
        <time>2021-10-15T06:20:16Z</time>
      </trkpt>
      <trkpt lat="46.41886" lon="5.46616">
        <ele>371</ele>
        <time>2021-10-15T06:20:20Z</time>
      </trkpt>
      <trkpt lat="46.41949" lon="5.46648">
        <ele>370</ele>
        <time>2021-10-15T06:20:32Z</time>
      </trkpt>
      <trkpt lat="46.41974" lon="5.46668">
        <ele>369</ele>
        <time>2021-10-15T06:20:37Z</time>
      </trkpt>
      <trkpt lat="46.41993" lon="5.46686">
        <ele>368</ele>
        <time>2021-10-15T06:20:41Z</time>
      </trkpt>
      <trkpt lat="46.42013" lon="5.46709">
        <ele>368</ele>
        <time>2021-10-15T06:20:45Z</time>
      </trkpt>
      <trkpt lat="46.42025" lon="5.46719">
        <ele>368</ele>
        <time>2021-10-15T06:20:48Z</time>
      </trkpt>
      <trkpt lat="46.42127" lon="5.46766">
        <ele>367</ele>
        <time>2021-10-15T06:21:07Z</time>
      </trkpt>
      <trkpt lat="46.42144" lon="5.46777">
        <ele>367</ele>
        <time>2021-10-15T06:21:10Z</time>
      </trkpt>
      <trkpt lat="46.42167" lon="5.46791">
        <ele>367</ele>
        <time>2021-10-15T06:21:15Z</time>
      </trkpt>
      <trkpt lat="46.42208" lon="5.46823">
        <ele>369</ele>
        <time>2021-10-15T06:21:23Z</time>
      </trkpt>
      <trkpt lat="46.42222" lon="5.46832">
        <ele>370</ele>
        <time>2021-10-15T06:21:26Z</time>
      </trkpt>
      <trkpt lat="46.42235" lon="5.46844">
        <ele>371</ele>
        <time>2021-10-15T06:21:28Z</time>
      </trkpt>
      <trkpt lat="46.42232" lon="5.46924">
        <ele>374</ele>
        <time>2021-10-15T06:21:38Z</time>
      </trkpt>
      <trkpt lat="46.42241" lon="5.46924">
        <ele>375</ele>
        <time>2021-10-15T06:21:40Z</time>
      </trkpt>
      <trkpt lat="46.42276" lon="5.46951">
        <ele>377</ele>
        <time>2021-10-15T06:21:47Z</time>
      </trkpt>
      <trkpt lat="46.42314" lon="5.46989">
        <ele>380</ele>
        <time>2021-10-15T06:21:55Z</time>
      </trkpt>
      <trkpt lat="46.42455" lon="5.47109">
        <ele>394</ele>
        <time>2021-10-15T06:22:24Z</time>
      </trkpt>
      <trkpt lat="46.42583" lon="5.47221">
        <ele>402</ele>
        <time>2021-10-15T06:22:51Z</time>
      </trkpt>
      <trkpt lat="46.42678" lon="5.47307">
        <ele>408</ele>
        <time>2021-10-15T06:23:11Z</time>
      </trkpt>
      <trkpt lat="46.42725" lon="5.47361">
        <ele>409</ele>
        <time>2021-10-15T06:23:21Z</time>
      </trkpt>
      <trkpt lat="46.42738" lon="5.47382">
        <ele>409</ele>
        <time>2021-10-15T06:23:25Z</time>
      </trkpt>
      <trkpt lat="46.42747" lon="5.47404">
        <ele>410</ele>
        <time>2021-10-15T06:23:28Z</time>
      </trkpt>
      <trkpt lat="46.42753" lon="5.47428">
        <ele>410</ele>
        <time>2021-10-15T06:23:31Z</time>
      </trkpt>
      <trkpt lat="46.42763" lon="5.47495">
        <ele>409</ele>
        <time>2021-10-15T06:23:39Z</time>
      </trkpt>
      <trkpt lat="46.42768" lon="5.47517">
        <ele>409</ele>
        <time>2021-10-15T06:23:42Z</time>
      </trkpt>
      <trkpt lat="46.42775" lon="5.4753">
        <ele>409</ele>
        <time>2021-10-15T06:23:44Z</time>
      </trkpt>
      <trkpt lat="46.42782" lon="5.47541">
        <ele>409</ele>
        <time>2021-10-15T06:23:46Z</time>
      </trkpt>
      <trkpt lat="46.42793" lon="5.4755">
        <ele>409</ele>
        <time>2021-10-15T06:23:48Z</time>
      </trkpt>
      <trkpt lat="46.42865" lon="5.47596">
        <ele>410</ele>
        <time>2021-10-15T06:24:02Z</time>
      </trkpt>
      <trkpt lat="46.42895" lon="5.4762">
        <ele>411</ele>
        <time>2021-10-15T06:24:09Z</time>
      </trkpt>
      <trkpt lat="46.42909" lon="5.47635">
        <ele>412</ele>
        <time>2021-10-15T06:24:12Z</time>
      </trkpt>
      <trkpt lat="46.42917" lon="5.47649">
        <ele>412</ele>
        <time>2021-10-15T06:24:14Z</time>
      </trkpt>
      <trkpt lat="46.42932" lon="5.47682">
        <ele>413</ele>
        <time>2021-10-15T06:24:19Z</time>
      </trkpt>
      <trkpt lat="46.42949" lon="5.47704">
        <ele>412</ele>
        <time>2021-10-15T06:24:23Z</time>
      </trkpt>
      <trkpt lat="46.42977" lon="5.47733">
        <ele>412</ele>
        <time>2021-10-15T06:24:29Z</time>
      </trkpt>
      <trkpt lat="46.42988" lon="5.47747">
        <ele>412</ele>
        <time>2021-10-15T06:24:31Z</time>
      </trkpt>
      <trkpt lat="46.43045" lon="5.47867">
        <ele>413</ele>
        <time>2021-10-15T06:24:49Z</time>
      </trkpt>
      <trkpt lat="46.4305" lon="5.47878">
        <ele>413</ele>
        <time>2021-10-15T06:24:51Z</time>
      </trkpt>
      <trkpt lat="46.43062" lon="5.47897">
        <ele>413</ele>
        <time>2021-10-15T06:24:54Z</time>
      </trkpt>
      <trkpt lat="46.43084" lon="5.47923">
        <ele>414</ele>
        <time>2021-10-15T06:24:59Z</time>
      </trkpt>
      <trkpt lat="46.43099" lon="5.47948">
        <ele>414</ele>
        <time>2021-10-15T06:25:03Z</time>
      </trkpt>
      <trkpt lat="46.43112" lon="5.47978">
        <ele>414</ele>
        <time>2021-10-15T06:25:08Z</time>
      </trkpt>
      <trkpt lat="46.43127" lon="5.48009">
        <ele>413</ele>
        <time>2021-10-15T06:25:12Z</time>
      </trkpt>
      <trkpt lat="46.43135" lon="5.48019">
        <ele>413</ele>
        <time>2021-10-15T06:25:14Z</time>
      </trkpt>
      <trkpt lat="46.43145" lon="5.4804">
        <ele>412</ele>
        <time>2021-10-15T06:25:17Z</time>
      </trkpt>
      <trkpt lat="46.43174" lon="5.48069">
        <ele>411</ele>
        <time>2021-10-15T06:25:24Z</time>
      </trkpt>
      <trkpt lat="46.43196" lon="5.48085">
        <ele>411</ele>
        <time>2021-10-15T06:25:28Z</time>
      </trkpt>
      <trkpt lat="46.43269" lon="5.48126">
        <ele>407</ele>
        <time>2021-10-15T06:25:42Z</time>
      </trkpt>
      <trkpt lat="46.43281" lon="5.48137">
        <ele>406</ele>
        <time>2021-10-15T06:25:44Z</time>
      </trkpt>
      <trkpt lat="46.43301" lon="5.48132">
        <ele>406</ele>
        <time>2021-10-15T06:25:48Z</time>
      </trkpt>
      <trkpt lat="46.43315" lon="5.48131">
        <ele>406</ele>
        <time>2021-10-15T06:25:50Z</time>
      </trkpt>
      <trkpt lat="46.43326" lon="5.48134">
        <ele>405</ele>
        <time>2021-10-15T06:25:52Z</time>
      </trkpt>
      <trkpt lat="46.43337" lon="5.48142">
        <ele>404</ele>
        <time>2021-10-15T06:25:55Z</time>
      </trkpt>
      <trkpt lat="46.43386" lon="5.48207">
        <ele>397</ele>
        <time>2021-10-15T06:26:06Z</time>
      </trkpt>
      <trkpt lat="46.4348" lon="5.48375">
        <ele>390</ele>
        <time>2021-10-15T06:26:33Z</time>
      </trkpt>
      <trkpt lat="46.43491" lon="5.48389">
        <ele>389</ele>
        <time>2021-10-15T06:26:36Z</time>
      </trkpt>
      <trkpt lat="46.43508" lon="5.48401">
        <ele>390</ele>
        <time>2021-10-15T06:26:39Z</time>
      </trkpt>
      <trkpt lat="46.43544" lon="5.48417">
        <ele>391</ele>
        <time>2021-10-15T06:26:46Z</time>
      </trkpt>
      <trkpt lat="46.43562" lon="5.48428">
        <ele>392</ele>
        <time>2021-10-15T06:26:49Z</time>
      </trkpt>
      <trkpt lat="46.43584" lon="5.48444">
        <ele>392</ele>
        <time>2021-10-15T06:26:53Z</time>
      </trkpt>
      <trkpt lat="46.43608" lon="5.48465">
        <ele>394</ele>
        <time>2021-10-15T06:26:58Z</time>
      </trkpt>
      <trkpt lat="46.43617" lon="5.48478">
        <ele>394</ele>
        <time>2021-10-15T06:27:01Z</time>
      </trkpt>
      <trkpt lat="46.43623" lon="5.48493">
        <ele>394</ele>
        <time>2021-10-15T06:27:03Z</time>
      </trkpt>
      <trkpt lat="46.43627" lon="5.48522">
        <ele>394</ele>
        <time>2021-10-15T06:27:06Z</time>
      </trkpt>
      <trkpt lat="46.43632" lon="5.48543">
        <ele>393</ele>
        <time>2021-10-15T06:27:09Z</time>
      </trkpt>
      <trkpt lat="46.43644" lon="5.48566">
        <ele>393</ele>
        <time>2021-10-15T06:27:13Z</time>
      </trkpt>
      <trkpt lat="46.4372" lon="5.48669">
        <ele>395</ele>
        <time>2021-10-15T06:27:31Z</time>
      </trkpt>
      <trkpt lat="46.43727" lon="5.48683">
        <ele>395</ele>
        <time>2021-10-15T06:27:33Z</time>
      </trkpt>
      <trkpt lat="46.43726" lon="5.48701">
        <ele>393</ele>
        <time>2021-10-15T06:27:36Z</time>
      </trkpt>
      <trkpt lat="46.43722" lon="5.4871">
        <ele>392</ele>
        <time>2021-10-15T06:27:37Z</time>
      </trkpt>
      <trkpt lat="46.43711" lon="5.48727">
        <ele>390</ele>
        <time>2021-10-15T06:27:40Z</time>
      </trkpt>
      <trkpt lat="46.43701" lon="5.48749">
        <ele>388</ele>
        <time>2021-10-15T06:27:43Z</time>
      </trkpt>
      <trkpt lat="46.43699" lon="5.4876">
        <ele>388</ele>
        <time>2021-10-15T06:27:44Z</time>
      </trkpt>
      <trkpt lat="46.43699" lon="5.4877">
        <ele>388</ele>
        <time>2021-10-15T06:27:46Z</time>
      </trkpt>
      <trkpt lat="46.43704" lon="5.48793">
        <ele>388</ele>
        <time>2021-10-15T06:27:49Z</time>
      </trkpt>
      <trkpt lat="46.43723" lon="5.48844">
        <ele>388</ele>
        <time>2021-10-15T06:27:56Z</time>
      </trkpt>
      <trkpt lat="46.43736" lon="5.48885">
        <ele>388</ele>
        <time>2021-10-15T06:28:01Z</time>
      </trkpt>
      <trkpt lat="46.43744" lon="5.48917">
        <ele>388</ele>
        <time>2021-10-15T06:28:05Z</time>
      </trkpt>
      <trkpt lat="46.43753" lon="5.48977">
        <ele>387</ele>
        <time>2021-10-15T06:28:13Z</time>
      </trkpt>
      <trkpt lat="46.43758" lon="5.49">
        <ele>387</ele>
        <time>2021-10-15T06:28:16Z</time>
      </trkpt>
      <trkpt lat="46.43779" lon="5.4905">
        <ele>388</ele>
        <time>2021-10-15T06:28:23Z</time>
      </trkpt>
      <trkpt lat="46.43805" lon="5.49088">
        <ele>389</ele>
        <time>2021-10-15T06:28:30Z</time>
      </trkpt>
      <trkpt lat="46.43825" lon="5.49111">
        <ele>390</ele>
        <time>2021-10-15T06:28:34Z</time>
      </trkpt>
      <trkpt lat="46.43861" lon="5.49142">
        <ele>390</ele>
        <time>2021-10-15T06:28:42Z</time>
      </trkpt>
      <trkpt lat="46.43873" lon="5.49159">
        <ele>390</ele>
        <time>2021-10-15T06:28:45Z</time>
      </trkpt>
      <trkpt lat="46.43891" lon="5.49187">
        <ele>390</ele>
        <time>2021-10-15T06:28:49Z</time>
      </trkpt>
      <trkpt lat="46.43925" lon="5.4923">
        <ele>391</ele>
        <time>2021-10-15T06:28:57Z</time>
      </trkpt>
      <trkpt lat="46.43932" lon="5.49243">
        <ele>391</ele>
        <time>2021-10-15T06:28:59Z</time>
      </trkpt>
      <trkpt lat="46.43956" lon="5.49309">
        <ele>394</ele>
        <time>2021-10-15T06:29:08Z</time>
      </trkpt>
      <trkpt lat="46.43961" lon="5.49323">
        <ele>394</ele>
        <time>2021-10-15T06:29:10Z</time>
      </trkpt>
      <trkpt lat="46.43977" lon="5.49366">
        <ele>396</ele>
        <time>2021-10-15T06:29:16Z</time>
      </trkpt>
      <trkpt lat="46.44003" lon="5.4942">
        <ele>398</ele>
        <time>2021-10-15T06:29:24Z</time>
      </trkpt>
      <trkpt lat="46.44015" lon="5.4944">
        <ele>401</ele>
        <time>2021-10-15T06:29:28Z</time>
      </trkpt>
      <trkpt lat="46.44056" lon="5.49483">
        <ele>403</ele>
        <time>2021-10-15T06:29:37Z</time>
      </trkpt>
      <trkpt lat="46.44073" lon="5.49504">
        <ele>404</ele>
        <time>2021-10-15T06:29:41Z</time>
      </trkpt>
      <trkpt lat="46.44173" lon="5.49637">
        <ele>411</ele>
        <time>2021-10-15T06:30:05Z</time>
      </trkpt>
      <trkpt lat="46.4423" lon="5.49698">
        <ele>411</ele>
        <time>2021-10-15T06:30:17Z</time>
      </trkpt>
      <trkpt lat="46.44246" lon="5.49718">
        <ele>411</ele>
        <time>2021-10-15T06:30:21Z</time>
      </trkpt>
      <trkpt lat="46.4427" lon="5.49758">
        <ele>412</ele>
        <time>2021-10-15T06:30:28Z</time>
      </trkpt>
      <trkpt lat="46.44283" lon="5.49768">
        <ele>411</ele>
        <time>2021-10-15T06:30:30Z</time>
      </trkpt>
      <trkpt lat="46.44301" lon="5.49773">
        <ele>410</ele>
        <time>2021-10-15T06:30:34Z</time>
      </trkpt>
      <trkpt lat="46.4432" lon="5.49786">
        <ele>409</ele>
        <time>2021-10-15T06:30:37Z</time>
      </trkpt>
      <trkpt lat="46.44342" lon="5.49813">
        <ele>407</ele>
        <time>2021-10-15T06:30:42Z</time>
      </trkpt>
      <trkpt lat="46.44359" lon="5.49851">
        <ele>407</ele>
        <time>2021-10-15T06:30:48Z</time>
      </trkpt>
      <trkpt lat="46.44366" lon="5.49859">
        <ele>407</ele>
        <time>2021-10-15T06:30:50Z</time>
      </trkpt>
      <trkpt lat="46.44374" lon="5.49861">
        <ele>407</ele>
        <time>2021-10-15T06:30:51Z</time>
      </trkpt>
      <trkpt lat="46.444" lon="5.49856">
        <ele>407</ele>
        <time>2021-10-15T06:30:56Z</time>
      </trkpt>
      <trkpt lat="46.4446" lon="5.49866">
        <ele>411</ele>
        <time>2021-10-15T06:31:06Z</time>
      </trkpt>
      <trkpt lat="46.44469" lon="5.49873">
        <ele>412</ele>
        <time>2021-10-15T06:31:08Z</time>
      </trkpt>
      <trkpt lat="46.44472" lon="5.49879">
        <ele>413</ele>
        <time>2021-10-15T06:31:09Z</time>
      </trkpt>
      <trkpt lat="46.44474" lon="5.49898">
        <ele>416</ele>
        <time>2021-10-15T06:31:12Z</time>
      </trkpt>
      <trkpt lat="46.44469" lon="5.49928">
        <ele>418</ele>
        <time>2021-10-15T06:31:15Z</time>
      </trkpt>
      <trkpt lat="46.4447" lon="5.49946">
        <ele>420</ele>
        <time>2021-10-15T06:31:18Z</time>
      </trkpt>
      <trkpt lat="46.44472" lon="5.49963">
        <ele>421</ele>
        <time>2021-10-15T06:31:20Z</time>
      </trkpt>
      <trkpt lat="46.44481" lon="5.49988">
        <ele>425</ele>
        <time>2021-10-15T06:31:23Z</time>
      </trkpt>
      <trkpt lat="46.44501" lon="5.5002">
        <ele>432</ele>
        <time>2021-10-15T06:31:28Z</time>
      </trkpt>
      <trkpt lat="46.44505" lon="5.5003">
        <ele>433</ele>
        <time>2021-10-15T06:31:30Z</time>
      </trkpt>
      <trkpt lat="46.44506" lon="5.50041">
        <ele>434</ele>
        <time>2021-10-15T06:31:31Z</time>
      </trkpt>
      <trkpt lat="46.44505" lon="5.50051">
        <ele>435</ele>
        <time>2021-10-15T06:31:32Z</time>
      </trkpt>
      <trkpt lat="46.44501" lon="5.5006">
        <ele>435</ele>
        <time>2021-10-15T06:31:34Z</time>
      </trkpt>
      <trkpt lat="46.4449" lon="5.50075">
        <ele>434</ele>
        <time>2021-10-15T06:31:36Z</time>
      </trkpt>
      <trkpt lat="46.4445" lon="5.50119">
        <ele>432</ele>
        <time>2021-10-15T06:31:45Z</time>
      </trkpt>
      <trkpt lat="46.44434" lon="5.50149">
        <ele>433</ele>
        <time>2021-10-15T06:31:50Z</time>
      </trkpt>
      <trkpt lat="46.44428" lon="5.50164">
        <ele>433</ele>
        <time>2021-10-15T06:31:52Z</time>
      </trkpt>
      <trkpt lat="46.44426" lon="5.50176">
        <ele>434</ele>
        <time>2021-10-15T06:31:54Z</time>
      </trkpt>
      <trkpt lat="46.44427" lon="5.50224">
        <ele>440</ele>
        <time>2021-10-15T06:32:00Z</time>
      </trkpt>
      <trkpt lat="46.44419" lon="5.50261">
        <ele>440</ele>
        <time>2021-10-15T06:32:04Z</time>
      </trkpt>
      <trkpt lat="46.44411" lon="5.50282">
        <ele>439</ele>
        <time>2021-10-15T06:32:07Z</time>
      </trkpt>
      <trkpt lat="46.44409" lon="5.50293">
        <ele>439</ele>
        <time>2021-10-15T06:32:09Z</time>
      </trkpt>
      <trkpt lat="46.44409" lon="5.50302">
        <ele>439</ele>
        <time>2021-10-15T06:32:10Z</time>
      </trkpt>
      <trkpt lat="46.44412" lon="5.50314">
        <ele>440</ele>
        <time>2021-10-15T06:32:11Z</time>
      </trkpt>
      <trkpt lat="46.4442" lon="5.50331">
        <ele>443</ele>
        <time>2021-10-15T06:32:14Z</time>
      </trkpt>
      <trkpt lat="46.44456" lon="5.50379">
        <ele>455</ele>
        <time>2021-10-15T06:32:23Z</time>
      </trkpt>
      <trkpt lat="46.44485" lon="5.50434">
        <ele>464</ele>
        <time>2021-10-15T06:32:31Z</time>
      </trkpt>
      <trkpt lat="46.44489" lon="5.50449">
        <ele>464</ele>
        <time>2021-10-15T06:32:33Z</time>
      </trkpt>
      <trkpt lat="46.44491" lon="5.50465">
        <ele>464</ele>
        <time>2021-10-15T06:32:35Z</time>
      </trkpt>
      <trkpt lat="46.4449" lon="5.50486">
        <ele>463</ele>
        <time>2021-10-15T06:32:38Z</time>
      </trkpt>
      <trkpt lat="46.44495" lon="5.50506">
        <ele>463</ele>
        <time>2021-10-15T06:32:40Z</time>
      </trkpt>
      <trkpt lat="46.44506" lon="5.5053">
        <ele>463</ele>
        <time>2021-10-15T06:32:44Z</time>
      </trkpt>
      <trkpt lat="46.44516" lon="5.50542">
        <ele>465</ele>
        <time>2021-10-15T06:32:46Z</time>
      </trkpt>
      <trkpt lat="46.44537" lon="5.50561">
        <ele>468</ele>
        <time>2021-10-15T06:32:50Z</time>
      </trkpt>
      <trkpt lat="46.44557" lon="5.50573">
        <ele>473</ele>
        <time>2021-10-15T06:32:54Z</time>
      </trkpt>
      <trkpt lat="46.44594" lon="5.5059">
        <ele>480</ele>
        <time>2021-10-15T06:33:01Z</time>
      </trkpt>
      <trkpt lat="46.44701" lon="5.50654">
        <ele>489</ele>
        <time>2021-10-15T06:33:22Z</time>
      </trkpt>
      <trkpt lat="46.4474" lon="5.50671">
        <ele>493</ele>
        <time>2021-10-15T06:33:29Z</time>
      </trkpt>
      <trkpt lat="46.44793" lon="5.50699">
        <ele>497</ele>
        <time>2021-10-15T06:33:39Z</time>
      </trkpt>
      <trkpt lat="46.44801" lon="5.507">
        <ele>498</ele>
        <time>2021-10-15T06:33:40Z</time>
      </trkpt>
      <trkpt lat="46.44805" lon="5.50695">
        <ele>500</ele>
        <time>2021-10-15T06:33:41Z</time>
      </trkpt>
      <trkpt lat="46.44805" lon="5.50689">
        <ele>501</ele>
        <time>2021-10-15T06:33:42Z</time>
      </trkpt>
      <trkpt lat="46.44803" lon="5.50683">
        <ele>502</ele>
        <time>2021-10-15T06:33:43Z</time>
      </trkpt>
      <trkpt lat="46.44773" lon="5.50661">
        <ele>500</ele>
        <time>2021-10-15T06:33:49Z</time>
      </trkpt>
      <trkpt lat="46.44688" lon="5.50572">
        <ele>500</ele>
        <time>2021-10-15T06:34:08Z</time>
      </trkpt>
      <trkpt lat="46.44682" lon="5.50556">
        <ele>501</ele>
        <time>2021-10-15T06:34:10Z</time>
      </trkpt>
      <trkpt lat="46.44684" lon="5.50545">
        <ele>502</ele>
        <time>2021-10-15T06:34:11Z</time>
      </trkpt>
      <trkpt lat="46.44688" lon="5.50542">
        <ele>503</ele>
        <time>2021-10-15T06:34:12Z</time>
      </trkpt>
      <trkpt lat="46.44794" lon="5.50581">
        <ele>514</ele>
        <time>2021-10-15T06:34:31Z</time>
      </trkpt>
      <trkpt lat="46.44812" lon="5.50592">
        <ele>515</ele>
        <time>2021-10-15T06:34:35Z</time>
      </trkpt>
      <trkpt lat="46.44877" lon="5.50637">
        <ele>521</ele>
        <time>2021-10-15T06:34:48Z</time>
      </trkpt>
      <trkpt lat="46.44894" lon="5.50641">
        <ele>523</ele>
        <time>2021-10-15T06:34:51Z</time>
      </trkpt>
      <trkpt lat="46.44905" lon="5.50639">
        <ele>525</ele>
        <time>2021-10-15T06:34:53Z</time>
      </trkpt>
      <trkpt lat="46.44927" lon="5.50628">
        <ele>528</ele>
        <time>2021-10-15T06:34:57Z</time>
      </trkpt>
      <trkpt lat="46.44937" lon="5.50626">
        <ele>529</ele>
        <time>2021-10-15T06:34:59Z</time>
      </trkpt>
      <trkpt lat="46.44944" lon="5.50627">
        <ele>530</ele>
        <time>2021-10-15T06:35:00Z</time>
      </trkpt>
      <trkpt lat="46.44952" lon="5.50632">
        <ele>531</ele>
        <time>2021-10-15T06:35:02Z</time>
      </trkpt>
      <trkpt lat="46.45014" lon="5.50691">
        <ele>538</ele>
        <time>2021-10-15T06:35:15Z</time>
      </trkpt>
      <trkpt lat="46.45026" lon="5.50705">
        <ele>539</ele>
        <time>2021-10-15T06:35:17Z</time>
      </trkpt>
      <trkpt lat="46.45032" lon="5.50716">
        <ele>540</ele>
        <time>2021-10-15T06:35:19Z</time>
      </trkpt>
      <trkpt lat="46.45046" lon="5.50764">
        <ele>543</ele>
        <time>2021-10-15T06:35:26Z</time>
      </trkpt>
      <trkpt lat="46.45057" lon="5.50796">
        <ele>545</ele>
        <time>2021-10-15T06:35:30Z</time>
      </trkpt>
      <trkpt lat="46.45066" lon="5.50816">
        <ele>546</ele>
        <time>2021-10-15T06:35:33Z</time>
      </trkpt>
      <trkpt lat="46.45084" lon="5.50847">
        <ele>550</ele>
        <time>2021-10-15T06:35:38Z</time>
      </trkpt>
      <trkpt lat="46.45109" lon="5.50887">
        <ele>552</ele>
        <time>2021-10-15T06:35:44Z</time>
      </trkpt>
      <trkpt lat="46.45128" lon="5.50909">
        <ele>555</ele>
        <time>2021-10-15T06:35:49Z</time>
      </trkpt>
      <trkpt lat="46.45142" lon="5.50922">
        <ele>557</ele>
        <time>2021-10-15T06:35:52Z</time>
      </trkpt>
      <trkpt lat="46.45159" lon="5.50933">
        <ele>559</ele>
        <time>2021-10-15T06:35:55Z</time>
      </trkpt>
      <trkpt lat="46.45175" lon="5.5094">
        <ele>561</ele>
        <time>2021-10-15T06:35:58Z</time>
      </trkpt>
      <trkpt lat="46.4523" lon="5.50953">
        <ele>565</ele>
        <time>2021-10-15T06:36:08Z</time>
      </trkpt>
      <trkpt lat="46.45254" lon="5.50955">
        <ele>567</ele>
        <time>2021-10-15T06:36:12Z</time>
      </trkpt>
      <trkpt lat="46.45282" lon="5.50943">
        <ele>569</ele>
        <time>2021-10-15T06:36:17Z</time>
      </trkpt>
      <trkpt lat="46.45304" lon="5.50941">
        <ele>570</ele>
        <time>2021-10-15T06:36:21Z</time>
      </trkpt>
      <trkpt lat="46.45338" lon="5.50954">
        <ele>572</ele>
        <time>2021-10-15T06:36:28Z</time>
      </trkpt>
      <trkpt lat="46.45348" lon="5.50961">
        <ele>571</ele>
        <time>2021-10-15T06:36:30Z</time>
      </trkpt>
      <trkpt lat="46.45354" lon="5.50971">
        <ele>571</ele>
        <time>2021-10-15T06:36:31Z</time>
      </trkpt>
      <trkpt lat="46.45356" lon="5.50978">
        <ele>571</ele>
        <time>2021-10-15T06:36:32Z</time>
      </trkpt>
      <trkpt lat="46.45356" lon="5.50987">
        <ele>571</ele>
        <time>2021-10-15T06:36:33Z</time>
      </trkpt>
      <trkpt lat="46.45354" lon="5.50994">
        <ele>571</ele>
        <time>2021-10-15T06:36:34Z</time>
      </trkpt>
      <trkpt lat="46.45322" lon="5.51019">
        <ele>572</ele>
        <time>2021-10-15T06:36:41Z</time>
      </trkpt>
      <trkpt lat="46.45314" lon="5.51029">
        <ele>573</ele>
        <time>2021-10-15T06:36:43Z</time>
      </trkpt>
      <trkpt lat="46.45308" lon="5.51039">
        <ele>573</ele>
        <time>2021-10-15T06:36:44Z</time>
      </trkpt>
      <trkpt lat="46.45304" lon="5.51054">
        <ele>573</ele>
        <time>2021-10-15T06:36:46Z</time>
      </trkpt>
      <trkpt lat="46.45305" lon="5.51163">
        <ele>582</ele>
        <time>2021-10-15T06:36:59Z</time>
      </trkpt>
      <trkpt lat="46.45304" lon="5.51181">
        <ele>583</ele>
        <time>2021-10-15T06:37:02Z</time>
      </trkpt>
      <trkpt lat="46.453" lon="5.51194">
        <ele>583</ele>
        <time>2021-10-15T06:37:03Z</time>
      </trkpt>
      <trkpt lat="46.45263" lon="5.5126">
        <ele>588</ele>
        <time>2021-10-15T06:37:14Z</time>
      </trkpt>
      <trkpt lat="46.45261" lon="5.51268">
        <ele>588</ele>
        <time>2021-10-15T06:37:15Z</time>
      </trkpt>
      <trkpt lat="46.45261" lon="5.51276">
        <ele>588</ele>
        <time>2021-10-15T06:37:16Z</time>
      </trkpt>
      <trkpt lat="46.45264" lon="5.51285">
        <ele>589</ele>
        <time>2021-10-15T06:37:17Z</time>
      </trkpt>
      <trkpt lat="46.45273" lon="5.51293">
        <ele>589</ele>
        <time>2021-10-15T06:37:19Z</time>
      </trkpt>
      <trkpt lat="46.45287" lon="5.51298">
        <ele>589</ele>
        <time>2021-10-15T06:37:22Z</time>
      </trkpt>
      <trkpt lat="46.45297" lon="5.51304">
        <ele>589</ele>
        <time>2021-10-15T06:37:23Z</time>
      </trkpt>
      <trkpt lat="46.45299" lon="5.5131">
        <ele>589</ele>
        <time>2021-10-15T06:37:24Z</time>
      </trkpt>
      <trkpt lat="46.45294" lon="5.51351">
        <ele>589</ele>
        <time>2021-10-15T06:37:29Z</time>
      </trkpt>
      <trkpt lat="46.45295" lon="5.5138">
        <ele>589</ele>
        <time>2021-10-15T06:37:33Z</time>
      </trkpt>
      <trkpt lat="46.45299" lon="5.51403">
        <ele>589</ele>
        <time>2021-10-15T06:37:36Z</time>
      </trkpt>
      <trkpt lat="46.45306" lon="5.51417">
        <ele>588</ele>
        <time>2021-10-15T06:37:38Z</time>
      </trkpt>
      <trkpt lat="46.45338" lon="5.51454">
        <ele>586</ele>
        <time>2021-10-15T06:37:45Z</time>
      </trkpt>
      <trkpt lat="46.45357" lon="5.51484">
        <ele>586</ele>
        <time>2021-10-15T06:37:50Z</time>
      </trkpt>
      <trkpt lat="46.45369" lon="5.51498">
        <ele>586</ele>
        <time>2021-10-15T06:37:53Z</time>
      </trkpt>
      <trkpt lat="46.45432" lon="5.51543">
        <ele>584</ele>
        <time>2021-10-15T06:38:05Z</time>
      </trkpt>
      <trkpt lat="46.45444" lon="5.51555">
        <ele>585</ele>
        <time>2021-10-15T06:38:08Z</time>
      </trkpt>
      <trkpt lat="46.45469" lon="5.51613">
        <ele>585</ele>
        <time>2021-10-15T06:38:16Z</time>
      </trkpt>
      <trkpt lat="46.4548" lon="5.51631">
        <ele>584</ele>
        <time>2021-10-15T06:38:19Z</time>
      </trkpt>
      <trkpt lat="46.45503" lon="5.51658">
        <ele>585</ele>
        <time>2021-10-15T06:38:25Z</time>
      </trkpt>
      <trkpt lat="46.45632" lon="5.51751">
        <ele>580</ele>
        <time>2021-10-15T06:38:50Z</time>
      </trkpt>
      <trkpt lat="46.45657" lon="5.51776">
        <ele>578</ele>
        <time>2021-10-15T06:38:56Z</time>
      </trkpt>
      <trkpt lat="46.45751" lon="5.51843">
        <ele>576</ele>
        <time>2021-10-15T06:39:14Z</time>
      </trkpt>
      <trkpt lat="46.45816" lon="5.51876">
        <ele>571</ele>
        <time>2021-10-15T06:39:27Z</time>
      </trkpt>
      <trkpt lat="46.45843" lon="5.51886">
        <ele>570</ele>
        <time>2021-10-15T06:39:32Z</time>
      </trkpt>
      <trkpt lat="46.45852" lon="5.51892">
        <ele>570</ele>
        <time>2021-10-15T06:39:33Z</time>
      </trkpt>
      <trkpt lat="46.45874" lon="5.51915">
        <ele>568</ele>
        <time>2021-10-15T06:39:38Z</time>
      </trkpt>
      <trkpt lat="46.4591" lon="5.51937">
        <ele>566</ele>
        <time>2021-10-15T06:39:45Z</time>
      </trkpt>
      <trkpt lat="46.45941" lon="5.51967">
        <ele>566</ele>
        <time>2021-10-15T06:39:52Z</time>
      </trkpt>
      <trkpt lat="46.45971" lon="5.51986">
        <ele>566</ele>
        <time>2021-10-15T06:39:58Z</time>
      </trkpt>
      <trkpt lat="46.46004" lon="5.52002">
        <ele>565</ele>
        <time>2021-10-15T06:40:04Z</time>
      </trkpt>
      <trkpt lat="46.46044" lon="5.52014">
        <ele>563</ele>
        <time>2021-10-15T06:40:11Z</time>
      </trkpt>
      <trkpt lat="46.46061" lon="5.52022">
        <ele>563</ele>
        <time>2021-10-15T06:40:14Z</time>
      </trkpt>
      <trkpt lat="46.46091" lon="5.52044">
        <ele>560</ele>
        <time>2021-10-15T06:40:20Z</time>
      </trkpt>
      <trkpt lat="46.46105" lon="5.52047">
        <ele>560</ele>
        <time>2021-10-15T06:40:23Z</time>
      </trkpt>
      <trkpt lat="46.46138" lon="5.52051">
        <ele>561</ele>
        <time>2021-10-15T06:40:29Z</time>
      </trkpt>
      <trkpt lat="46.46148" lon="5.52056">
        <ele>560</ele>
        <time>2021-10-15T06:40:30Z</time>
      </trkpt>
      <trkpt lat="46.46189" lon="5.5209">
        <ele>555</ele>
        <time>2021-10-15T06:40:39Z</time>
      </trkpt>
      <trkpt lat="46.46202" lon="5.52095">
        <ele>554</ele>
        <time>2021-10-15T06:40:41Z</time>
      </trkpt>
      <trkpt lat="46.46229" lon="5.52098">
        <ele>554</ele>
        <time>2021-10-15T06:40:46Z</time>
      </trkpt>
      <trkpt lat="46.46245" lon="5.52092">
        <ele>555</ele>
        <time>2021-10-15T06:40:49Z</time>
      </trkpt>
      <trkpt lat="46.46257" lon="5.5209">
        <ele>555</ele>
        <time>2021-10-15T06:40:51Z</time>
      </trkpt>
      <trkpt lat="46.46265" lon="5.52092">
        <ele>554</ele>
        <time>2021-10-15T06:40:53Z</time>
      </trkpt>
      <trkpt lat="46.46283" lon="5.52101">
        <ele>552</ele>
        <time>2021-10-15T06:40:56Z</time>
      </trkpt>
      <trkpt lat="46.46301" lon="5.52103">
        <ele>552</ele>
        <time>2021-10-15T06:40:59Z</time>
      </trkpt>
      <trkpt lat="46.46319" lon="5.52102">
        <ele>551</ele>
        <time>2021-10-15T06:41:02Z</time>
      </trkpt>
      <trkpt lat="46.46327" lon="5.52098">
        <ele>551</ele>
        <time>2021-10-15T06:41:04Z</time>
      </trkpt>
      <trkpt lat="46.46336" lon="5.52089">
        <ele>552</ele>
        <time>2021-10-15T06:41:06Z</time>
      </trkpt>
      <trkpt lat="46.46369" lon="5.52023">
        <ele>553</ele>
        <time>2021-10-15T06:41:16Z</time>
      </trkpt>
      <trkpt lat="46.46391" lon="5.51985">
        <ele>554</ele>
        <time>2021-10-15T06:41:22Z</time>
      </trkpt>
      <trkpt lat="46.46402" lon="5.51977">
        <ele>553</ele>
        <time>2021-10-15T06:41:24Z</time>
      </trkpt>
      <trkpt lat="46.4641" lon="5.51976">
        <ele>552</ele>
        <time>2021-10-15T06:41:26Z</time>
      </trkpt>
      <trkpt lat="46.4644" lon="5.51988">
        <ele>547</ele>
        <time>2021-10-15T06:41:31Z</time>
      </trkpt>
      <trkpt lat="46.46449" lon="5.51989">
        <ele>547</ele>
        <time>2021-10-15T06:41:33Z</time>
      </trkpt>
      <trkpt lat="46.46481" lon="5.51974">
        <ele>546</ele>
        <time>2021-10-15T06:41:39Z</time>
      </trkpt>
      <trkpt lat="46.46493" lon="5.51971">
        <ele>546</ele>
        <time>2021-10-15T06:41:41Z</time>
      </trkpt>
      <trkpt lat="46.4652" lon="5.51969">
        <ele>544</ele>
        <time>2021-10-15T06:41:46Z</time>
      </trkpt>
      <trkpt lat="46.46536" lon="5.51963">
        <ele>544</ele>
        <time>2021-10-15T06:41:49Z</time>
      </trkpt>
      <trkpt lat="46.4656" lon="5.51951">
        <ele>544</ele>
        <time>2021-10-15T06:41:53Z</time>
      </trkpt>
      <trkpt lat="46.46571" lon="5.5195">
        <ele>543</ele>
        <time>2021-10-15T06:41:55Z</time>
      </trkpt>
      <trkpt lat="46.46582" lon="5.51954">
        <ele>542</ele>
        <time>2021-10-15T06:41:57Z</time>
      </trkpt>
      <trkpt lat="46.46598" lon="5.51965">
        <ele>539</ele>
        <time>2021-10-15T06:42:00Z</time>
      </trkpt>
      <trkpt lat="46.46607" lon="5.51967">
        <ele>537</ele>
        <time>2021-10-15T06:42:02Z</time>
      </trkpt>
      <trkpt lat="46.46621" lon="5.51966">
        <ele>536</ele>
        <time>2021-10-15T06:42:04Z</time>
      </trkpt>
      <trkpt lat="46.46636" lon="5.51958">
        <ele>535</ele>
        <time>2021-10-15T06:42:07Z</time>
      </trkpt>
      <trkpt lat="46.46649" lon="5.51948">
        <ele>534</ele>
        <time>2021-10-15T06:42:10Z</time>
      </trkpt>
      <trkpt lat="46.46678" lon="5.51902">
        <ele>537</ele>
        <time>2021-10-15T06:42:17Z</time>
      </trkpt>
      <trkpt lat="46.46688" lon="5.51895">
        <ele>538</ele>
        <time>2021-10-15T06:42:19Z</time>
      </trkpt>
      <trkpt lat="46.46696" lon="5.51893">
        <ele>537</ele>
        <time>2021-10-15T06:42:21Z</time>
      </trkpt>
      <trkpt lat="46.46706" lon="5.51894">
        <ele>537</ele>
        <time>2021-10-15T06:42:23Z</time>
      </trkpt>
      <trkpt lat="46.46724" lon="5.51902">
        <ele>534</ele>
        <time>2021-10-15T06:42:26Z</time>
      </trkpt>
      <trkpt lat="46.46745" lon="5.51918">
        <ele>531</ele>
        <time>2021-10-15T06:42:30Z</time>
      </trkpt>
      <trkpt lat="46.46757" lon="5.51924">
        <ele>530</ele>
        <time>2021-10-15T06:42:32Z</time>
      </trkpt>
      <trkpt lat="46.46824" lon="5.51923">
        <ele>528</ele>
        <time>2021-10-15T06:42:44Z</time>
      </trkpt>
      <trkpt lat="46.46835" lon="5.51921">
        <ele>528</ele>
        <time>2021-10-15T06:42:46Z</time>
      </trkpt>
      <trkpt lat="46.46864" lon="5.51902">
        <ele>529</ele>
        <time>2021-10-15T06:42:52Z</time>
      </trkpt>
      <trkpt lat="46.46917" lon="5.51882">
        <ele>530</ele>
        <time>2021-10-15T06:43:02Z</time>
      </trkpt>
      <trkpt lat="46.46932" lon="5.51881">
        <ele>530</ele>
        <time>2021-10-15T06:43:04Z</time>
      </trkpt>
      <trkpt lat="46.46944" lon="5.51884">
        <ele>529</ele>
        <time>2021-10-15T06:43:07Z</time>
      </trkpt>
      <trkpt lat="46.46952" lon="5.51891">
        <ele>527</ele>
        <time>2021-10-15T06:43:08Z</time>
      </trkpt>
      <trkpt lat="46.46976" lon="5.51921">
        <ele>522</ele>
        <time>2021-10-15T06:43:14Z</time>
      </trkpt>
      <trkpt lat="46.46993" lon="5.51937">
        <ele>520</ele>
        <time>2021-10-15T06:43:18Z</time>
      </trkpt>
      <trkpt lat="46.4701" lon="5.51947">
        <ele>519</ele>
        <time>2021-10-15T06:43:21Z</time>
      </trkpt>
      <trkpt lat="46.47027" lon="5.51952">
        <ele>520</ele>
        <time>2021-10-15T06:43:24Z</time>
      </trkpt>
      <trkpt lat="46.47056" lon="5.51957">
        <ele>520</ele>
        <time>2021-10-15T06:43:29Z</time>
      </trkpt>
      <trkpt lat="46.47164" lon="5.52006">
        <ele>516</ele>
        <time>2021-10-15T06:43:49Z</time>
      </trkpt>
      <trkpt lat="46.47219" lon="5.52014">
        <ele>515</ele>
        <time>2021-10-15T06:43:59Z</time>
      </trkpt>
      <trkpt lat="46.4723" lon="5.5202">
        <ele>515</ele>
        <time>2021-10-15T06:44:01Z</time>
      </trkpt>
      <trkpt lat="46.4725" lon="5.52044">
        <ele>512</ele>
        <time>2021-10-15T06:44:06Z</time>
      </trkpt>
      <trkpt lat="46.47273" lon="5.52065">
        <ele>510</ele>
        <time>2021-10-15T06:44:11Z</time>
      </trkpt>
      <trkpt lat="46.47288" lon="5.52074">
        <ele>509</ele>
        <time>2021-10-15T06:44:13Z</time>
      </trkpt>
      <trkpt lat="46.47318" lon="5.52087">
        <ele>507</ele>
        <time>2021-10-15T06:44:19Z</time>
      </trkpt>
      <trkpt lat="46.47345" lon="5.52095">
        <ele>505</ele>
        <time>2021-10-15T06:44:24Z</time>
      </trkpt>
      <trkpt lat="46.47367" lon="5.52096">
        <ele>502</ele>
        <time>2021-10-15T06:44:28Z</time>
      </trkpt>
      <trkpt lat="46.47394" lon="5.52089">
        <ele>501</ele>
        <time>2021-10-15T06:44:33Z</time>
      </trkpt>
      <trkpt lat="46.47445" lon="5.52037">
        <ele>508</ele>
        <time>2021-10-15T06:44:44Z</time>
      </trkpt>
      <trkpt lat="46.47467" lon="5.52025">
        <ele>509</ele>
        <time>2021-10-15T06:44:48Z</time>
      </trkpt>
      <trkpt lat="46.47501" lon="5.52012">
        <ele>511</ele>
        <time>2021-10-15T06:44:54Z</time>
      </trkpt>
      <trkpt lat="46.47518" lon="5.5201">
        <ele>510</ele>
        <time>2021-10-15T06:44:57Z</time>
      </trkpt>
      <trkpt lat="46.47566" lon="5.5201">
        <ele>504</ele>
        <time>2021-10-15T06:45:06Z</time>
      </trkpt>
      <trkpt lat="46.47621" lon="5.5202">
        <ele>499</ele>
        <time>2021-10-15T06:45:16Z</time>
      </trkpt>
      <trkpt lat="46.47643" lon="5.52029">
        <ele>496</ele>
        <time>2021-10-15T06:45:20Z</time>
      </trkpt>
      <trkpt lat="46.47659" lon="5.52038">
        <ele>494</ele>
        <time>2021-10-15T06:45:23Z</time>
      </trkpt>
      <trkpt lat="46.47693" lon="5.52065">
        <ele>488</ele>
        <time>2021-10-15T06:45:30Z</time>
      </trkpt>
      <trkpt lat="46.47709" lon="5.52074">
        <ele>487</ele>
        <time>2021-10-15T06:45:33Z</time>
      </trkpt>
      <trkpt lat="46.47746" lon="5.52078">
        <ele>491</ele>
        <time>2021-10-15T06:45:39Z</time>
      </trkpt>
      <trkpt lat="46.47814" lon="5.52097">
        <ele>489</ele>
        <time>2021-10-15T06:45:52Z</time>
      </trkpt>
      <trkpt lat="46.47856" lon="5.52106">
        <ele>489</ele>
        <time>2021-10-15T06:45:59Z</time>
      </trkpt>
      <trkpt lat="46.47892" lon="5.52132">
        <ele>488</ele>
        <time>2021-10-15T06:46:06Z</time>
      </trkpt>
      <trkpt lat="46.47913" lon="5.52152">
        <ele>486</ele>
        <time>2021-10-15T06:46:11Z</time>
      </trkpt>
      <trkpt lat="46.47926" lon="5.52169">
        <ele>484</ele>
        <time>2021-10-15T06:46:14Z</time>
      </trkpt>
      <trkpt lat="46.47933" lon="5.52186">
        <ele>485</ele>
        <time>2021-10-15T06:46:16Z</time>
      </trkpt>
      <trkpt lat="46.47937" lon="5.52205">
        <ele>485</ele>
        <time>2021-10-15T06:46:19Z</time>
      </trkpt>
      <trkpt lat="46.47937" lon="5.52234">
        <ele>484</ele>
        <time>2021-10-15T06:46:22Z</time>
      </trkpt>
      <trkpt lat="46.47945" lon="5.5224">
        <ele>484</ele>
        <time>2021-10-15T06:46:24Z</time>
      </trkpt>
      <trkpt lat="46.47978" lon="5.52254">
        <ele>482</ele>
        <time>2021-10-15T06:46:30Z</time>
      </trkpt>
      <trkpt lat="46.48003" lon="5.5227">
        <ele>483</ele>
        <time>2021-10-15T06:46:35Z</time>
      </trkpt>
      <trkpt lat="46.48069" lon="5.52322">
        <ele>487</ele>
        <time>2021-10-15T06:46:48Z</time>
      </trkpt>
      <trkpt lat="46.48082" lon="5.52328">
        <ele>486</ele>
        <time>2021-10-15T06:46:51Z</time>
      </trkpt>
      <trkpt lat="46.48137" lon="5.52337">
        <ele>487</ele>
        <time>2021-10-15T06:47:01Z</time>
      </trkpt>
      <trkpt lat="46.48153" lon="5.52344">
        <ele>488</ele>
        <time>2021-10-15T06:47:04Z</time>
      </trkpt>
      <trkpt lat="46.48182" lon="5.52365">
        <ele>488</ele>
        <time>2021-10-15T06:47:09Z</time>
      </trkpt>
      <trkpt lat="46.4821" lon="5.5238">
        <ele>488</ele>
        <time>2021-10-15T06:47:15Z</time>
      </trkpt>
      <trkpt lat="46.48412" lon="5.52439">
        <ele>489</ele>
        <time>2021-10-15T06:47:51Z</time>
      </trkpt>
      <trkpt lat="46.48487" lon="5.52468">
        <ele>490</ele>
        <time>2021-10-15T06:48:05Z</time>
      </trkpt>
      <trkpt lat="46.48536" lon="5.52484">
        <ele>489</ele>
        <time>2021-10-15T06:48:14Z</time>
      </trkpt>
      <trkpt lat="46.48592" lon="5.52511">
        <ele>487</ele>
        <time>2021-10-15T06:48:25Z</time>
      </trkpt>
      <trkpt lat="46.48618" lon="5.52519">
        <ele>487</ele>
        <time>2021-10-15T06:48:29Z</time>
      </trkpt>
      <trkpt lat="46.48694" lon="5.52535">
        <ele>488</ele>
        <time>2021-10-15T06:48:43Z</time>
      </trkpt>
      <trkpt lat="46.48711" lon="5.52543">
        <ele>488</ele>
        <time>2021-10-15T06:48:46Z</time>
      </trkpt>
      <trkpt lat="46.48782" lon="5.52596">
        <ele>485</ele>
        <time>2021-10-15T06:49:00Z</time>
      </trkpt>
      <trkpt lat="46.4882" lon="5.52628">
        <ele>483</ele>
        <time>2021-10-15T06:49:08Z</time>
      </trkpt>
      <trkpt lat="46.48844" lon="5.52653">
        <ele>482</ele>
        <time>2021-10-15T06:49:13Z</time>
      </trkpt>
      <trkpt lat="46.48877" lon="5.52693">
        <ele>482</ele>
        <time>2021-10-15T06:49:21Z</time>
      </trkpt>
      <trkpt lat="46.48914" lon="5.52721">
        <ele>482</ele>
        <time>2021-10-15T06:49:28Z</time>
      </trkpt>
      <trkpt lat="46.4896" lon="5.52761">
        <ele>482</ele>
        <time>2021-10-15T06:49:38Z</time>
      </trkpt>
      <trkpt lat="46.49164" lon="5.52947">
        <ele>483</ele>
        <time>2021-10-15T06:50:21Z</time>
      </trkpt>
      <trkpt lat="46.49202" lon="5.52975">
        <ele>483</ele>
        <time>2021-10-15T06:50:28Z</time>
      </trkpt>
      <trkpt lat="46.49316" lon="5.53063">
        <ele>481</ele>
        <time>2021-10-15T06:50:51Z</time>
      </trkpt>
      <trkpt lat="46.49354" lon="5.53087">
        <ele>481</ele>
        <time>2021-10-15T06:50:59Z</time>
      </trkpt>
      <trkpt lat="46.49442" lon="5.53133">
        <ele>481</ele>
        <time>2021-10-15T06:51:15Z</time>
      </trkpt>
      <trkpt lat="46.49486" lon="5.53139">
        <ele>480</ele>
        <time>2021-10-15T06:51:23Z</time>
      </trkpt>
      <trkpt lat="46.49656" lon="5.53179">
        <ele>478</ele>
        <time>2021-10-15T06:51:54Z</time>
      </trkpt>
      <trkpt lat="46.49737" lon="5.53212">
        <ele>477</ele>
        <time>2021-10-15T06:52:09Z</time>
      </trkpt>
      <trkpt lat="46.49793" lon="5.53227">
        <ele>477</ele>
        <time>2021-10-15T06:52:19Z</time>
      </trkpt>
      <trkpt lat="46.4982" lon="5.53238">
        <ele>477</ele>
        <time>2021-10-15T06:52:24Z</time>
      </trkpt>
      <trkpt lat="46.49896" lon="5.53277">
        <ele>478</ele>
        <time>2021-10-15T06:52:38Z</time>
      </trkpt>
      <trkpt lat="46.49914" lon="5.53292">
        <ele>479</ele>
        <time>2021-10-15T06:52:42Z</time>
      </trkpt>
      <trkpt lat="46.49948" lon="5.53333">
        <ele>479</ele>
        <time>2021-10-15T06:52:50Z</time>
      </trkpt>
      <trkpt lat="46.49979" lon="5.5336">
        <ele>478</ele>
        <time>2021-10-15T06:52:56Z</time>
      </trkpt>
      <trkpt lat="46.50008" lon="5.53382">
        <ele>477</ele>
        <time>2021-10-15T06:53:02Z</time>
      </trkpt>
      <trkpt lat="46.5016" lon="5.53465">
        <ele>471</ele>
        <time>2021-10-15T06:53:31Z</time>
      </trkpt>
      <trkpt lat="46.50204" lon="5.53484">
        <ele>470</ele>
        <time>2021-10-15T06:53:39Z</time>
      </trkpt>
      <trkpt lat="46.50232" lon="5.5349">
        <ele>470</ele>
        <time>2021-10-15T06:53:44Z</time>
      </trkpt>
      <trkpt lat="46.50292" lon="5.53498">
        <ele>469</ele>
        <time>2021-10-15T06:53:55Z</time>
      </trkpt>
      <trkpt lat="46.50376" lon="5.53501">
        <ele>469</ele>
        <time>2021-10-15T06:54:10Z</time>
      </trkpt>
      <trkpt lat="46.50396" lon="5.53505">
        <ele>469</ele>
        <time>2021-10-15T06:54:14Z</time>
      </trkpt>
      <trkpt lat="46.50466" lon="5.53532">
        <ele>471</ele>
        <time>2021-10-15T06:54:26Z</time>
      </trkpt>
      <trkpt lat="46.50482" lon="5.53535">
        <ele>471</ele>
        <time>2021-10-15T06:54:29Z</time>
      </trkpt>
      <trkpt lat="46.50499" lon="5.53536">
        <ele>470</ele>
        <time>2021-10-15T06:54:32Z</time>
      </trkpt>
      <trkpt lat="46.50518" lon="5.53534">
        <ele>471</ele>
        <time>2021-10-15T06:54:36Z</time>
      </trkpt>
      <trkpt lat="46.50639" lon="5.53503">
        <ele>468</ele>
        <time>2021-10-15T06:54:58Z</time>
      </trkpt>
      <trkpt lat="46.50686" lon="5.53498">
        <ele>468</ele>
        <time>2021-10-15T06:55:06Z</time>
      </trkpt>
      <trkpt lat="46.50865" lon="5.53488">
        <ele>470</ele>
        <time>2021-10-15T06:55:38Z</time>
      </trkpt>
      <trkpt lat="46.50869" lon="5.53504">
        <ele>471</ele>
        <time>2021-10-15T06:55:40Z</time>
      </trkpt>
      <trkpt lat="46.50879" lon="5.53524">
        <ele>475</ele>
        <time>2021-10-15T06:55:43Z</time>
      </trkpt>
      <trkpt lat="46.5089" lon="5.53538">
        <ele>478</ele>
        <time>2021-10-15T06:55:46Z</time>
      </trkpt>
      <trkpt lat="46.50916" lon="5.53556">
        <ele>482</ele>
        <time>2021-10-15T06:55:51Z</time>
      </trkpt>
      <trkpt lat="46.50968" lon="5.53588">
        <ele>489</ele>
        <time>2021-10-15T06:56:01Z</time>
      </trkpt>
      <trkpt lat="46.51017" lon="5.53609">
        <ele>495</ele>
        <time>2021-10-15T06:56:10Z</time>
      </trkpt>
      <trkpt lat="46.51039" lon="5.53616">
        <ele>495</ele>
        <time>2021-10-15T06:56:14Z</time>
      </trkpt>
      <trkpt lat="46.51097" lon="5.53632">
        <ele>497</ele>
        <time>2021-10-15T06:56:24Z</time>
      </trkpt>
      <trkpt lat="46.51148" lon="5.53641">
        <ele>499</ele>
        <time>2021-10-15T06:56:33Z</time>
      </trkpt>
      <trkpt lat="46.51242" lon="5.53642">
        <ele>503</ele>
        <time>2021-10-15T06:56:50Z</time>
      </trkpt>
      <trkpt lat="46.51291" lon="5.53636">
        <ele>505</ele>
        <time>2021-10-15T06:56:59Z</time>
      </trkpt>
      <trkpt lat="46.51384" lon="5.53609">
        <ele>506</ele>
        <time>2021-10-15T06:57:16Z</time>
      </trkpt>
      <trkpt lat="46.51452" lon="5.53602">
        <ele>510</ele>
        <time>2021-10-15T06:57:28Z</time>
      </trkpt>
      <trkpt lat="46.51546" lon="5.53607">
        <ele>516</ele>
        <time>2021-10-15T06:57:45Z</time>
      </trkpt>
      <trkpt lat="46.51729" lon="5.53633">
        <ele>524</ele>
        <time>2021-10-15T06:58:17Z</time>
      </trkpt>
      <trkpt lat="46.51786" lon="5.53643">
        <ele>527</ele>
        <time>2021-10-15T06:58:28Z</time>
      </trkpt>
      <trkpt lat="46.51819" lon="5.53652">
        <ele>529</ele>
        <time>2021-10-15T06:58:34Z</time>
      </trkpt>
      <trkpt lat="46.51842" lon="5.53665">
        <ele>532</ele>
        <time>2021-10-15T06:58:38Z</time>
      </trkpt>
      <trkpt lat="46.51859" lon="5.53679">
        <ele>535</ele>
        <time>2021-10-15T06:58:41Z</time>
      </trkpt>
      <trkpt lat="46.51866" lon="5.53689">
        <ele>537</ele>
        <time>2021-10-15T06:58:43Z</time>
      </trkpt>
      <trkpt lat="46.51871" lon="5.53701">
        <ele>539</ele>
        <time>2021-10-15T06:58:45Z</time>
      </trkpt>
      <trkpt lat="46.51878" lon="5.53725">
        <ele>543</ele>
        <time>2021-10-15T06:58:48Z</time>
      </trkpt>
      <trkpt lat="46.51879" lon="5.53746">
        <ele>546</ele>
        <time>2021-10-15T06:58:51Z</time>
      </trkpt>
      <trkpt lat="46.51877" lon="5.53765">
        <ele>549</ele>
        <time>2021-10-15T06:58:53Z</time>
      </trkpt>
      <trkpt lat="46.51862" lon="5.53834">
        <ele>557</ele>
        <time>2021-10-15T06:59:02Z</time>
      </trkpt>
      <trkpt lat="46.51858" lon="5.53865">
        <ele>558</ele>
        <time>2021-10-15T06:59:06Z</time>
      </trkpt>
      <trkpt lat="46.51856" lon="5.53923">
        <ele>559</ele>
        <time>2021-10-15T06:59:13Z</time>
      </trkpt>
      <trkpt lat="46.51859" lon="5.53981">
        <ele>556</ele>
        <time>2021-10-15T06:59:20Z</time>
      </trkpt>
      <trkpt lat="46.51867" lon="5.54021">
        <ele>554</ele>
        <time>2021-10-15T06:59:25Z</time>
      </trkpt>
      <trkpt lat="46.51872" lon="5.54042">
        <ele>553</ele>
        <time>2021-10-15T06:59:28Z</time>
      </trkpt>
      <trkpt lat="46.51879" lon="5.5406">
        <ele>552</ele>
        <time>2021-10-15T06:59:30Z</time>
      </trkpt>
      <trkpt lat="46.51899" lon="5.54087">
        <ele>550</ele>
        <time>2021-10-15T06:59:35Z</time>
      </trkpt>
      <trkpt lat="46.51917" lon="5.54105">
        <ele>548</ele>
        <time>2021-10-15T06:59:39Z</time>
      </trkpt>
      <trkpt lat="46.51943" lon="5.54121">
        <ele>546</ele>
        <time>2021-10-15T06:59:44Z</time>
      </trkpt>
      <trkpt lat="46.5203" lon="5.54168">
        <ele>538</ele>
        <time>2021-10-15T07:00:01Z</time>
      </trkpt>
      <trkpt lat="46.52097" lon="5.54208">
        <ele>535</ele>
        <time>2021-10-15T07:00:14Z</time>
      </trkpt>
      <trkpt lat="46.52119" lon="5.54216">
        <ele>535</ele>
        <time>2021-10-15T07:00:18Z</time>
      </trkpt>
      <trkpt lat="46.52147" lon="5.54224">
        <ele>535</ele>
        <time>2021-10-15T07:00:23Z</time>
      </trkpt>
      <trkpt lat="46.52168" lon="5.54237">
        <ele>534</ele>
        <time>2021-10-15T07:00:27Z</time>
      </trkpt>
      <trkpt lat="46.52187" lon="5.54255">
        <ele>533</ele>
        <time>2021-10-15T07:00:31Z</time>
      </trkpt>
      <trkpt lat="46.52222" lon="5.54278">
        <ele>530</ele>
        <time>2021-10-15T07:00:38Z</time>
      </trkpt>
      <trkpt lat="46.52282" lon="5.54301">
        <ele>530</ele>
        <time>2021-10-15T07:00:49Z</time>
      </trkpt>
      <trkpt lat="46.52329" lon="5.54332">
        <ele>528</ele>
        <time>2021-10-15T07:00:58Z</time>
      </trkpt>
      <trkpt lat="46.52367" lon="5.54349">
        <ele>526</ele>
        <time>2021-10-15T07:01:05Z</time>
      </trkpt>
      <trkpt lat="46.52393" lon="5.54358">
        <ele>526</ele>
        <time>2021-10-15T07:01:10Z</time>
      </trkpt>
      <trkpt lat="46.52439" lon="5.54369">
        <ele>527</ele>
        <time>2021-10-15T07:01:18Z</time>
      </trkpt>
      <trkpt lat="46.52457" lon="5.54379">
        <ele>526</ele>
        <time>2021-10-15T07:01:21Z</time>
      </trkpt>
      <trkpt lat="46.52493" lon="5.54417">
        <ele>521</ele>
        <time>2021-10-15T07:01:29Z</time>
      </trkpt>
      <trkpt lat="46.52551" lon="5.54461">
        <ele>515</ele>
        <time>2021-10-15T07:01:41Z</time>
      </trkpt>
      <trkpt lat="46.52571" lon="5.54473">
        <ele>513</ele>
        <time>2021-10-15T07:01:45Z</time>
      </trkpt>
      <trkpt lat="46.52591" lon="5.54478">
        <ele>513</ele>
        <time>2021-10-15T07:01:48Z</time>
      </trkpt>
      <trkpt lat="46.52622" lon="5.54482">
        <ele>513</ele>
        <time>2021-10-15T07:01:54Z</time>
      </trkpt>
      <trkpt lat="46.52638" lon="5.5449">
        <ele>512</ele>
        <time>2021-10-15T07:01:57Z</time>
      </trkpt>
      <trkpt lat="46.52657" lon="5.54508">
        <ele>508</ele>
        <time>2021-10-15T07:02:01Z</time>
      </trkpt>
      <trkpt lat="46.52714" lon="5.54581">
        <ele>499</ele>
        <time>2021-10-15T07:02:14Z</time>
      </trkpt>
      <trkpt lat="46.52724" lon="5.54599">
        <ele>498</ele>
        <time>2021-10-15T07:02:17Z</time>
      </trkpt>
      <trkpt lat="46.52731" lon="5.54618">
        <ele>497</ele>
        <time>2021-10-15T07:02:20Z</time>
      </trkpt>
      <trkpt lat="46.52726" lon="5.54635">
        <ele>495</ele>
        <time>2021-10-15T07:02:22Z</time>
      </trkpt>
      <trkpt lat="46.52724" lon="5.54651">
        <ele>494</ele>
        <time>2021-10-15T07:02:24Z</time>
      </trkpt>
      <trkpt lat="46.52711" lon="5.54835">
        <ele>490</ele>
        <time>2021-10-15T07:02:47Z</time>
      </trkpt>
      <trkpt lat="46.52611" lon="5.56115">
        <ele>482</ele>
        <time>2021-10-15T07:05:25Z</time>
      </trkpt>
      <trkpt lat="46.52294" lon="5.60256">
        <ele>497</ele>
        <time>2021-10-15T07:13:55Z</time>
      </trkpt>
      <trkpt lat="46.52262" lon="5.60658">
        <ele>504</ele>
        <time>2021-10-15T07:14:44Z</time>
      </trkpt>
      <trkpt lat="46.5226" lon="5.60668">
        <ele>505</ele>
        <time>2021-10-15T07:14:45Z</time>
      </trkpt>
      <trkpt lat="46.52253" lon="5.60683">
        <ele>506</ele>
        <time>2021-10-15T07:14:48Z</time>
      </trkpt>
      <trkpt lat="46.52241" lon="5.60697">
        <ele>507</ele>
        <time>2021-10-15T07:14:50Z</time>
      </trkpt>
      <trkpt lat="46.52232" lon="5.60704">
        <ele>508</ele>
        <time>2021-10-15T07:14:52Z</time>
      </trkpt>
      <trkpt lat="46.52185" lon="5.60715">
        <ele>508</ele>
        <time>2021-10-15T07:15:01Z</time>
      </trkpt>
      <trkpt lat="46.52169" lon="5.60722">
        <ele>508</ele>
        <time>2021-10-15T07:15:04Z</time>
      </trkpt>
      <trkpt lat="46.52162" lon="5.60729">
        <ele>509</ele>
        <time>2021-10-15T07:15:05Z</time>
      </trkpt>
      <trkpt lat="46.52157" lon="5.60745">
        <ele>509</ele>
        <time>2021-10-15T07:15:07Z</time>
      </trkpt>
      <trkpt lat="46.52156" lon="5.60761">
        <ele>510</ele>
        <time>2021-10-15T07:15:09Z</time>
      </trkpt>
      <trkpt lat="46.5216" lon="5.60801">
        <ele>511</ele>
        <time>2021-10-15T07:15:14Z</time>
      </trkpt>
      <trkpt lat="46.52159" lon="5.60817">
        <ele>511</ele>
        <time>2021-10-15T07:15:16Z</time>
      </trkpt>
      <trkpt lat="46.5215" lon="5.60867">
        <ele>510</ele>
        <time>2021-10-15T07:15:23Z</time>
      </trkpt>
      <trkpt lat="46.52142" lon="5.60945">
        <ele>508</ele>
        <time>2021-10-15T07:15:32Z</time>
      </trkpt>
      <trkpt lat="46.52134" lon="5.60979">
        <ele>508</ele>
        <time>2021-10-15T07:15:37Z</time>
      </trkpt>
      <trkpt lat="46.52126" lon="5.60993">
        <ele>507</ele>
        <time>2021-10-15T07:15:39Z</time>
      </trkpt>
      <trkpt lat="46.52096" lon="5.61027">
        <ele>507</ele>
        <time>2021-10-15T07:15:46Z</time>
      </trkpt>
      <trkpt lat="46.52088" lon="5.61046">
        <ele>507</ele>
        <time>2021-10-15T07:15:48Z</time>
      </trkpt>
      <trkpt lat="46.52081" lon="5.61052">
        <ele>507</ele>
        <time>2021-10-15T07:15:50Z</time>
      </trkpt>
      <trkpt lat="46.52078" lon="5.61062">
        <ele>506</ele>
        <time>2021-10-15T07:15:51Z</time>
      </trkpt>
      <trkpt lat="46.52079" lon="5.61067">
        <ele>507</ele>
        <time>2021-10-15T07:15:52Z</time>
      </trkpt>
      <trkpt lat="46.52084" lon="5.61079">
        <ele>507</ele>
        <time>2021-10-15T07:15:53Z</time>
      </trkpt>
      <trkpt lat="46.52087" lon="5.61081">
        <ele>507</ele>
        <time>2021-10-15T07:15:54Z</time>
      </trkpt>
      <trkpt lat="46.5209" lon="5.61092">
        <ele>507</ele>
        <time>2021-10-15T07:15:55Z</time>
      </trkpt>
      <trkpt lat="46.52094" lon="5.61151">
        <ele>508</ele>
        <time>2021-10-15T07:16:03Z</time>
      </trkpt>
      <trkpt lat="46.52098" lon="5.61192">
        <ele>508</ele>
        <time>2021-10-15T07:16:08Z</time>
      </trkpt>
      <trkpt lat="46.52099" lon="5.61215">
        <ele>507</ele>
        <time>2021-10-15T07:16:11Z</time>
      </trkpt>
      <trkpt lat="46.52096" lon="5.61287">
        <ele>503</ele>
        <time>2021-10-15T07:16:19Z</time>
      </trkpt>
      <trkpt lat="46.52107" lon="5.61358">
        <ele>500</ele>
        <time>2021-10-15T07:16:28Z</time>
      </trkpt>
      <trkpt lat="46.52113" lon="5.6139">
        <ele>499</ele>
        <time>2021-10-15T07:16:32Z</time>
      </trkpt>
      <trkpt lat="46.52124" lon="5.61411">
        <ele>499</ele>
        <time>2021-10-15T07:16:36Z</time>
      </trkpt>
      <trkpt lat="46.52131" lon="5.6142">
        <ele>499</ele>
        <time>2021-10-15T07:16:37Z</time>
      </trkpt>
      <trkpt lat="46.52217" lon="5.61516">
        <ele>501</ele>
        <time>2021-10-15T07:16:57Z</time>
      </trkpt>
      <trkpt lat="46.5228" lon="5.61582">
        <ele>500</ele>
        <time>2021-10-15T07:17:10Z</time>
      </trkpt>
      <trkpt lat="46.52328" lon="5.6162">
        <ele>501</ele>
        <time>2021-10-15T07:17:20Z</time>
      </trkpt>
      <trkpt lat="46.52344" lon="5.61636">
        <ele>500</ele>
        <time>2021-10-15T07:17:24Z</time>
      </trkpt>
      <trkpt lat="46.52351" lon="5.61648">
        <ele>499</ele>
        <time>2021-10-15T07:17:26Z</time>
      </trkpt>
      <trkpt lat="46.5236" lon="5.61682">
        <ele>496</ele>
        <time>2021-10-15T07:17:30Z</time>
      </trkpt>
      <trkpt lat="46.52392" lon="5.61845">
        <ele>488</ele>
        <time>2021-10-15T07:17:51Z</time>
      </trkpt>
      <trkpt lat="46.52394" lon="5.61869">
        <ele>487</ele>
        <time>2021-10-15T07:17:54Z</time>
      </trkpt>
      <trkpt lat="46.52393" lon="5.61912">
        <ele>486</ele>
        <time>2021-10-15T07:17:59Z</time>
      </trkpt>
      <trkpt lat="46.52376" lon="5.62187">
        <ele>486</ele>
        <time>2021-10-15T07:18:33Z</time>
      </trkpt>
      <trkpt lat="46.52369" lon="5.62322">
        <ele>488</ele>
        <time>2021-10-15T07:18:49Z</time>
      </trkpt>
      <trkpt lat="46.52373" lon="5.62365">
        <ele>490</ele>
        <time>2021-10-15T07:18:55Z</time>
      </trkpt>
      <trkpt lat="46.52378" lon="5.62391">
        <ele>491</ele>
        <time>2021-10-15T07:18:58Z</time>
      </trkpt>
      <trkpt lat="46.52387" lon="5.62421">
        <ele>492</ele>
        <time>2021-10-15T07:19:02Z</time>
      </trkpt>
      <trkpt lat="46.52401" lon="5.62459">
        <ele>493</ele>
        <time>2021-10-15T07:19:07Z</time>
      </trkpt>
      <trkpt lat="46.52411" lon="5.62478">
        <ele>493</ele>
        <time>2021-10-15T07:19:10Z</time>
      </trkpt>
      <trkpt lat="46.52465" lon="5.62562">
        <ele>499</ele>
        <time>2021-10-15T07:19:24Z</time>
      </trkpt>
      <trkpt lat="46.52479" lon="5.62591">
        <ele>502</ele>
        <time>2021-10-15T07:19:29Z</time>
      </trkpt>
      <trkpt lat="46.52492" lon="5.62629">
        <ele>503</ele>
        <time>2021-10-15T07:19:34Z</time>
      </trkpt>
      <trkpt lat="46.52556" lon="5.62841">
        <ele>510</ele>
        <time>2021-10-15T07:20:02Z</time>
      </trkpt>
      <trkpt lat="46.52576" lon="5.62914">
        <ele>511</ele>
        <time>2021-10-15T07:20:12Z</time>
      </trkpt>
      <trkpt lat="46.52626" lon="5.63115">
        <ele>513</ele>
        <time>2021-10-15T07:20:38Z</time>
      </trkpt>
      <trkpt lat="46.52636" lon="5.63172">
        <ele>513</ele>
        <time>2021-10-15T07:20:45Z</time>
      </trkpt>
      <trkpt lat="46.52645" lon="5.63212">
        <ele>512</ele>
        <time>2021-10-15T07:20:50Z</time>
      </trkpt>
      <trkpt lat="46.52643" lon="5.63227">
        <ele>512</ele>
        <time>2021-10-15T07:20:52Z</time>
      </trkpt>
      <trkpt lat="46.5264" lon="5.63233">
        <ele>511</ele>
        <time>2021-10-15T07:20:53Z</time>
      </trkpt>
      <trkpt lat="46.5263" lon="5.6324">
        <ele>511</ele>
        <time>2021-10-15T07:20:55Z</time>
      </trkpt>
      <trkpt lat="46.52645" lon="5.63243">
        <ele>511</ele>
        <time>2021-10-15T07:20:58Z</time>
      </trkpt>
      <trkpt lat="46.52652" lon="5.63251">
        <ele>511</ele>
        <time>2021-10-15T07:20:59Z</time>
      </trkpt>
      <trkpt lat="46.52665" lon="5.633">
        <ele>511</ele>
        <time>2021-10-15T07:21:06Z</time>
      </trkpt>
      <trkpt lat="46.52679" lon="5.63395">
        <ele>512</ele>
        <time>2021-10-15T07:21:18Z</time>
      </trkpt>
      <trkpt lat="46.52688" lon="5.63473">
        <ele>515</ele>
        <time>2021-10-15T07:21:27Z</time>
      </trkpt>
      <trkpt lat="46.52686" lon="5.6353">
        <ele>518</ele>
        <time>2021-10-15T07:21:34Z</time>
      </trkpt>
      <trkpt lat="46.52681" lon="5.63583">
        <ele>520</ele>
        <time>2021-10-15T07:21:41Z</time>
      </trkpt>
      <trkpt lat="46.52673" lon="5.63627">
        <ele>522</ele>
        <time>2021-10-15T07:21:46Z</time>
      </trkpt>
      <trkpt lat="46.52649" lon="5.63725">
        <ele>534</ele>
        <time>2021-10-15T07:21:59Z</time>
      </trkpt>
      <trkpt lat="46.52645" lon="5.63754">
        <ele>538</ele>
        <time>2021-10-15T07:22:03Z</time>
      </trkpt>
      <trkpt lat="46.52644" lon="5.63774">
        <ele>540</ele>
        <time>2021-10-15T07:22:05Z</time>
      </trkpt>
      <trkpt lat="46.52645" lon="5.63812">
        <ele>543</ele>
        <time>2021-10-15T07:22:10Z</time>
      </trkpt>
      <trkpt lat="46.52647" lon="5.63829">
        <ele>544</ele>
        <time>2021-10-15T07:22:12Z</time>
      </trkpt>
      <trkpt lat="46.52655" lon="5.63871">
        <ele>539</ele>
        <time>2021-10-15T07:22:17Z</time>
      </trkpt>
      <trkpt lat="46.52661" lon="5.63891">
        <ele>535</ele>
        <time>2021-10-15T07:22:20Z</time>
      </trkpt>
      <trkpt lat="46.52675" lon="5.63927">
        <ele>530</ele>
        <time>2021-10-15T07:22:25Z</time>
      </trkpt>
      <trkpt lat="46.52686" lon="5.63947">
        <ele>528</ele>
        <time>2021-10-15T07:22:28Z</time>
      </trkpt>
      <trkpt lat="46.5273" lon="5.64012">
        <ele>522</ele>
        <time>2021-10-15T07:22:39Z</time>
      </trkpt>
      <trkpt lat="46.52753" lon="5.64055">
        <ele>524</ele>
        <time>2021-10-15T07:22:46Z</time>
      </trkpt>
      <trkpt lat="46.52759" lon="5.64043">
        <ele>525</ele>
        <time>2021-10-15T07:22:48Z</time>
      </trkpt>
      <trkpt lat="46.5277" lon="5.6403">
        <ele>526</ele>
        <time>2021-10-15T07:22:50Z</time>
      </trkpt>
      <trkpt lat="46.52779" lon="5.64025">
        <ele>528</ele>
        <time>2021-10-15T07:22:52Z</time>
      </trkpt>
      <trkpt lat="46.52798" lon="5.64022">
        <ele>531</ele>
        <time>2021-10-15T07:22:55Z</time>
      </trkpt>
      <trkpt lat="46.52811" lon="5.64028">
        <ele>532</ele>
        <time>2021-10-15T07:22:58Z</time>
      </trkpt>
      <trkpt lat="46.52885" lon="5.64077">
        <ele>536</ele>
        <time>2021-10-15T07:23:12Z</time>
      </trkpt>
      <trkpt lat="46.53093" lon="5.64192">
        <ele>542</ele>
        <time>2021-10-15T07:23:52Z</time>
      </trkpt>
      <trkpt lat="46.53209" lon="5.64283">
        <ele>543</ele>
        <time>2021-10-15T07:24:15Z</time>
      </trkpt>
      <trkpt lat="46.534" lon="5.64437">
        <ele>543</ele>
        <time>2021-10-15T07:24:54Z</time>
      </trkpt>
      <trkpt lat="46.53643" lon="5.64644">
        <ele>542</ele>
        <time>2021-10-15T07:25:44Z</time>
      </trkpt>
      <trkpt lat="46.54051" lon="5.65002">
        <ele>544</ele>
        <time>2021-10-15T07:27:09Z</time>
      </trkpt>
      <trkpt lat="46.54094" lon="5.65036">
        <ele>545</ele>
        <time>2021-10-15T07:27:18Z</time>
      </trkpt>
      <trkpt lat="46.54143" lon="5.65078">
        <ele>546</ele>
        <time>2021-10-15T07:27:28Z</time>
      </trkpt>
      <trkpt lat="46.54185" lon="5.65128">
        <ele>545</ele>
        <time>2021-10-15T07:27:38Z</time>
      </trkpt>
      <trkpt lat="46.54246" lon="5.65212">
        <ele>547</ele>
        <time>2021-10-15T07:27:53Z</time>
      </trkpt>
      <trkpt lat="46.5427" lon="5.65242">
        <ele>547</ele>
        <time>2021-10-15T07:27:58Z</time>
      </trkpt>
      <trkpt lat="46.54379" lon="5.65367">
        <ele>540</ele>
        <time>2021-10-15T07:28:23Z</time>
      </trkpt>
      <trkpt lat="46.54419" lon="5.65398">
        <ele>538</ele>
        <time>2021-10-15T07:28:31Z</time>
      </trkpt>
      <trkpt lat="46.54575" lon="5.65511">
        <ele>537</ele>
        <time>2021-10-15T07:29:02Z</time>
      </trkpt>
      <trkpt lat="46.54593" lon="5.6552">
        <ele>537</ele>
        <time>2021-10-15T07:29:05Z</time>
      </trkpt>
      <trkpt lat="46.54616" lon="5.65526">
        <ele>537</ele>
        <time>2021-10-15T07:29:10Z</time>
      </trkpt>
      <trkpt lat="46.5465" lon="5.65521">
        <ele>537</ele>
        <time>2021-10-15T07:29:16Z</time>
      </trkpt>
      <trkpt lat="46.5475" lon="5.65492">
        <ele>537</ele>
        <time>2021-10-15T07:29:34Z</time>
      </trkpt>
      <trkpt lat="46.54782" lon="5.65486">
        <ele>536</ele>
        <time>2021-10-15T07:29:40Z</time>
      </trkpt>
      <trkpt lat="46.54977" lon="5.65481">
        <ele>533</ele>
        <time>2021-10-15T07:30:14Z</time>
      </trkpt>
      <trkpt lat="46.55015" lon="5.65486">
        <ele>532</ele>
        <time>2021-10-15T07:30:21Z</time>
      </trkpt>
      <trkpt lat="46.55158" lon="5.65514">
        <ele>528</ele>
        <time>2021-10-15T07:30:47Z</time>
      </trkpt>
      <trkpt lat="46.55179" lon="5.65522">
        <ele>529</ele>
        <time>2021-10-15T07:30:51Z</time>
      </trkpt>
      <trkpt lat="46.55217" lon="5.65545">
        <ele>529</ele>
        <time>2021-10-15T07:30:58Z</time>
      </trkpt>
      <trkpt lat="46.55291" lon="5.65595">
        <ele>527</ele>
        <time>2021-10-15T07:31:12Z</time>
      </trkpt>
      <trkpt lat="46.55394" lon="5.65656">
        <ele>518</ele>
        <time>2021-10-15T07:31:32Z</time>
      </trkpt>
      <trkpt lat="46.55551" lon="5.65765">
        <ele>512</ele>
        <time>2021-10-15T07:32:03Z</time>
      </trkpt>
      <trkpt lat="46.55636" lon="5.65816">
        <ele>508</ele>
        <time>2021-10-15T07:32:20Z</time>
      </trkpt>
      <trkpt lat="46.55655" lon="5.65831">
        <ele>507</ele>
        <time>2021-10-15T07:32:23Z</time>
      </trkpt>
      <trkpt lat="46.55664" lon="5.65842">
        <ele>506</ele>
        <time>2021-10-15T07:32:25Z</time>
      </trkpt>
      <trkpt lat="46.55672" lon="5.65856">
        <ele>504</ele>
        <time>2021-10-15T07:32:28Z</time>
      </trkpt>
      <trkpt lat="46.55679" lon="5.65878">
        <ele>502</ele>
        <time>2021-10-15T07:32:31Z</time>
      </trkpt>
      <trkpt lat="46.55681" lon="5.65904">
        <ele>500</ele>
        <time>2021-10-15T07:32:34Z</time>
      </trkpt>
      <trkpt lat="46.55678" lon="5.65927">
        <ele>499</ele>
        <time>2021-10-15T07:32:37Z</time>
      </trkpt>
      <trkpt lat="46.55648" lon="5.66005">
        <ele>494</ele>
        <time>2021-10-15T07:32:48Z</time>
      </trkpt>
      <trkpt lat="46.55644" lon="5.66022">
        <ele>494</ele>
        <time>2021-10-15T07:32:50Z</time>
      </trkpt>
      <trkpt lat="46.55642" lon="5.6604">
        <ele>494</ele>
        <time>2021-10-15T07:32:52Z</time>
      </trkpt>
      <trkpt lat="46.55643" lon="5.66065">
        <ele>494</ele>
        <time>2021-10-15T07:32:55Z</time>
      </trkpt>
      <trkpt lat="46.55646" lon="5.66086">
        <ele>494</ele>
        <time>2021-10-15T07:32:58Z</time>
      </trkpt>
      <trkpt lat="46.55649" lon="5.66095">
        <ele>494</ele>
        <time>2021-10-15T07:32:59Z</time>
      </trkpt>
      <trkpt lat="46.55659" lon="5.66116">
        <ele>494</ele>
        <time>2021-10-15T07:33:02Z</time>
      </trkpt>
      <trkpt lat="46.55671" lon="5.66133">
        <ele>495</ele>
        <time>2021-10-15T07:33:05Z</time>
      </trkpt>
      <trkpt lat="46.55916" lon="5.66384">
        <ele>489</ele>
        <time>2021-10-15T07:33:58Z</time>
      </trkpt>
      <trkpt lat="46.55935" lon="5.66411">
        <ele>492</ele>
        <time>2021-10-15T07:34:03Z</time>
      </trkpt>
      <trkpt lat="46.5595" lon="5.66444">
        <ele>494</ele>
        <time>2021-10-15T07:34:08Z</time>
      </trkpt>
      <trkpt lat="46.55968" lon="5.66496">
        <ele>496</ele>
        <time>2021-10-15T07:34:15Z</time>
      </trkpt>
      <trkpt lat="46.55992" lon="5.66549">
        <ele>494</ele>
        <time>2021-10-15T07:34:23Z</time>
      </trkpt>
      <trkpt lat="46.56056" lon="5.66687">
        <ele>491</ele>
        <time>2021-10-15T07:34:43Z</time>
      </trkpt>
      <trkpt lat="46.5607" lon="5.66708">
        <ele>491</ele>
        <time>2021-10-15T07:34:47Z</time>
      </trkpt>
      <trkpt lat="46.56085" lon="5.66727">
        <ele>491</ele>
        <time>2021-10-15T07:34:50Z</time>
      </trkpt>
      <trkpt lat="46.56108" lon="5.66748">
        <ele>491</ele>
        <time>2021-10-15T07:34:55Z</time>
      </trkpt>
      <trkpt lat="46.56147" lon="5.66775">
        <ele>491</ele>
        <time>2021-10-15T07:35:03Z</time>
      </trkpt>
      <trkpt lat="46.56256" lon="5.66832">
        <ele>488</ele>
        <time>2021-10-15T07:35:23Z</time>
      </trkpt>
      <trkpt lat="46.56281" lon="5.66849">
        <ele>487</ele>
        <time>2021-10-15T07:35:28Z</time>
      </trkpt>
      <trkpt lat="46.56298" lon="5.66865">
        <ele>486</ele>
        <time>2021-10-15T07:35:32Z</time>
      </trkpt>
      <trkpt lat="46.56319" lon="5.66887">
        <ele>484</ele>
        <time>2021-10-15T07:35:37Z</time>
      </trkpt>
      <trkpt lat="46.56341" lon="5.66916">
        <ele>481</ele>
        <time>2021-10-15T07:35:42Z</time>
      </trkpt>
      <trkpt lat="46.56559" lon="5.67221">
        <ele>479</ele>
        <time>2021-10-15T07:36:36Z</time>
      </trkpt>
      <trkpt lat="46.56605" lon="5.67275">
        <ele>479</ele>
        <time>2021-10-15T07:36:46Z</time>
      </trkpt>
      <trkpt lat="46.56704" lon="5.67371">
        <ele>478</ele>
        <time>2021-10-15T07:37:07Z</time>
      </trkpt>
      <trkpt lat="46.56731" lon="5.67401">
        <ele>478</ele>
        <time>2021-10-15T07:37:13Z</time>
      </trkpt>
      <trkpt lat="46.56932" lon="5.67675">
        <ele>474</ele>
        <time>2021-10-15T07:38:02Z</time>
      </trkpt>
      <trkpt lat="46.57162" lon="5.67994">
        <ele>471</ele>
        <time>2021-10-15T07:38:59Z</time>
      </trkpt>
      <trkpt lat="46.57337" lon="5.68226">
        <ele>471</ele>
        <time>2021-10-15T07:39:41Z</time>
      </trkpt>
      <trkpt lat="46.57655" lon="5.68622">
        <ele>464</ele>
        <time>2021-10-15T07:40:56Z</time>
      </trkpt>
      <trkpt lat="46.57713" lon="5.68698">
        <ele>465</ele>
        <time>2021-10-15T07:41:09Z</time>
      </trkpt>
      <trkpt lat="46.58181" lon="5.69276">
        <ele>459</ele>
        <time>2021-10-15T07:42:59Z</time>
      </trkpt>
      <trkpt lat="46.5819" lon="5.69294">
        <ele>458</ele>
        <time>2021-10-15T07:43:01Z</time>
      </trkpt>
      <trkpt lat="46.58193" lon="5.6931">
        <ele>457</ele>
        <time>2021-10-15T07:43:03Z</time>
      </trkpt>
      <trkpt lat="46.58193" lon="5.69317">
        <ele>457</ele>
        <time>2021-10-15T07:43:04Z</time>
      </trkpt>
      <trkpt lat="46.58195" lon="5.69323">
        <ele>457</ele>
        <time>2021-10-15T07:43:05Z</time>
      </trkpt>
      <trkpt lat="46.58199" lon="5.69326">
        <ele>457</ele>
        <time>2021-10-15T07:43:06Z</time>
      </trkpt>
      <trkpt lat="46.58205" lon="5.69324">
        <ele>457</ele>
        <time>2021-10-15T07:43:07Z</time>
      </trkpt>
      <trkpt lat="46.58221" lon="5.69327">
        <ele>457</ele>
        <time>2021-10-15T07:43:10Z</time>
      </trkpt>
      <trkpt lat="46.58561" lon="5.69725">
        <ele>440</ele>
        <time>2021-10-15T07:44:28Z</time>
      </trkpt>
      <trkpt lat="46.58497" lon="5.6994">
        <ele>438</ele>
        <time>2021-10-15T07:44:56Z</time>
      </trkpt>
      <trkpt lat="46.58496" lon="5.69952">
        <ele>438</ele>
        <time>2021-10-15T07:44:58Z</time>
      </trkpt>
      <trkpt lat="46.585" lon="5.70016">
        <ele>437</ele>
        <time>2021-10-15T07:45:06Z</time>
      </trkpt>
      <trkpt lat="46.58509" lon="5.70111">
        <ele>440</ele>
        <time>2021-10-15T07:45:17Z</time>
      </trkpt>
      <trkpt lat="46.58515" lon="5.70147">
        <ele>441</ele>
        <time>2021-10-15T07:45:22Z</time>
      </trkpt>
      <trkpt lat="46.58524" lon="5.70174">
        <ele>443</ele>
        <time>2021-10-15T07:45:25Z</time>
      </trkpt>
      <trkpt lat="46.58543" lon="5.70186">
        <ele>444</ele>
        <time>2021-10-15T07:45:29Z</time>
      </trkpt>
      <trkpt lat="46.58576" lon="5.70199">
        <ele>445</ele>
        <time>2021-10-15T07:45:35Z</time>
      </trkpt>
      <trkpt lat="46.58587" lon="5.70208">
        <ele>446</ele>
        <time>2021-10-15T07:45:37Z</time>
      </trkpt>
      <trkpt lat="46.58595" lon="5.70221">
        <ele>448</ele>
        <time>2021-10-15T07:45:40Z</time>
      </trkpt>
      <trkpt lat="46.586" lon="5.70233">
        <ele>449</ele>
        <time>2021-10-15T07:45:41Z</time>
      </trkpt>
      <trkpt lat="46.58604" lon="5.70256">
        <ele>451</ele>
        <time>2021-10-15T07:45:44Z</time>
      </trkpt>
      <trkpt lat="46.58599" lon="5.70369">
        <ele>457</ele>
        <time>2021-10-15T07:45:58Z</time>
      </trkpt>
      <trkpt lat="46.58599" lon="5.70384">
        <ele>458</ele>
        <time>2021-10-15T07:46:00Z</time>
      </trkpt>
      <trkpt lat="46.58603" lon="5.70403">
        <ele>459</ele>
        <time>2021-10-15T07:46:02Z</time>
      </trkpt>
      <trkpt lat="46.58587" lon="5.70401">
        <ele>458</ele>
        <time>2021-10-15T07:46:05Z</time>
      </trkpt>
      <trkpt lat="46.58605" lon="5.70439">
        <ele>460</ele>
        <time>2021-10-15T07:46:11Z</time>
      </trkpt>
      <trkpt lat="46.58616" lon="5.70481">
        <ele>461</ele>
        <time>2021-10-15T07:46:16Z</time>
      </trkpt>
      <trkpt lat="46.5862" lon="5.70548">
        <ele>462</ele>
        <time>2021-10-15T07:46:25Z</time>
      </trkpt>
      <trkpt lat="46.58612" lon="5.70621">
        <ele>463</ele>
        <time>2021-10-15T07:46:34Z</time>
      </trkpt>
      <trkpt lat="46.58595" lon="5.70707">
        <ele>464</ele>
        <time>2021-10-15T07:46:45Z</time>
      </trkpt>
      <trkpt lat="46.58463" lon="5.71308">
        <ele>472</ele>
        <time>2021-10-15T07:48:02Z</time>
      </trkpt>
      <trkpt lat="46.58211" lon="5.72379">
        <ele>488</ele>
        <time>2021-10-15T07:50:20Z</time>
      </trkpt>
      <trkpt lat="46.58101" lon="5.72832">
        <ele>495</ele>
        <time>2021-10-15T07:51:19Z</time>
      </trkpt>
      <trkpt lat="46.58048" lon="5.73072">
        <ele>504</ele>
        <time>2021-10-15T07:51:50Z</time>
      </trkpt>
      <trkpt lat="46.5801" lon="5.73182">
        <ele>510</ele>
        <time>2021-10-15T07:52:05Z</time>
      </trkpt>
      <trkpt lat="46.57989" lon="5.73237">
        <ele>514</ele>
        <time>2021-10-15T07:52:12Z</time>
      </trkpt>
      <trkpt lat="46.57963" lon="5.73291">
        <ele>517</ele>
        <time>2021-10-15T07:52:21Z</time>
      </trkpt>
      <trkpt lat="46.57904" lon="5.73399">
        <ele>524</ele>
        <time>2021-10-15T07:52:37Z</time>
      </trkpt>
      <trkpt lat="46.57819" lon="5.73549">
        <ele>536</ele>
        <time>2021-10-15T07:53:01Z</time>
      </trkpt>
      <trkpt lat="46.57809" lon="5.7357">
        <ele>538</ele>
        <time>2021-10-15T07:53:04Z</time>
      </trkpt>
      <trkpt lat="46.57775" lon="5.73659">
        <ele>545</ele>
        <time>2021-10-15T07:53:17Z</time>
      </trkpt>
      <trkpt lat="46.57757" lon="5.73715">
        <ele>549</ele>
        <time>2021-10-15T07:53:24Z</time>
      </trkpt>
      <trkpt lat="46.57742" lon="5.73747">
        <ele>551</ele>
        <time>2021-10-15T07:53:29Z</time>
      </trkpt>
      <trkpt lat="46.57727" lon="5.73768">
        <ele>552</ele>
        <time>2021-10-15T07:53:33Z</time>
      </trkpt>
      <trkpt lat="46.57671" lon="5.73817">
        <ele>554</ele>
        <time>2021-10-15T07:53:44Z</time>
      </trkpt>
      <trkpt lat="46.57644" lon="5.73846">
        <ele>555</ele>
        <time>2021-10-15T07:53:50Z</time>
      </trkpt>
      <trkpt lat="46.57527" lon="5.73998">
        <ele>565</ele>
        <time>2021-10-15T07:54:18Z</time>
      </trkpt>
      <trkpt lat="46.57539" lon="5.74019">
        <ele>565</ele>
        <time>2021-10-15T07:54:22Z</time>
      </trkpt>
      <trkpt lat="46.57548" lon="5.74019">
        <ele>566</ele>
        <time>2021-10-15T07:54:23Z</time>
      </trkpt>
      <trkpt lat="46.57586" lon="5.7404">
        <ele>566</ele>
        <time>2021-10-15T07:54:30Z</time>
      </trkpt>
      <trkpt lat="46.57598" lon="5.7405">
        <ele>566</ele>
        <time>2021-10-15T07:54:33Z</time>
      </trkpt>
      <trkpt lat="46.57604" lon="5.74062">
        <ele>566</ele>
        <time>2021-10-15T07:54:35Z</time>
      </trkpt>
      <trkpt lat="46.57605" lon="5.74078">
        <ele>566</ele>
        <time>2021-10-15T07:54:37Z</time>
      </trkpt>
      <trkpt lat="46.57597" lon="5.74104">
        <ele>563</ele>
        <time>2021-10-15T07:54:40Z</time>
      </trkpt>
      <trkpt lat="46.57595" lon="5.74125">
        <ele>560</ele>
        <time>2021-10-15T07:54:43Z</time>
      </trkpt>
      <trkpt lat="46.57599" lon="5.74154">
        <ele>557</ele>
        <time>2021-10-15T07:54:46Z</time>
      </trkpt>
      <trkpt lat="46.57606" lon="5.74188">
        <ele>554</ele>
        <time>2021-10-15T07:54:51Z</time>
      </trkpt>
      <trkpt lat="46.57609" lon="5.74229">
        <ele>551</ele>
        <time>2021-10-15T07:54:56Z</time>
      </trkpt>
      <trkpt lat="46.57608" lon="5.74267">
        <ele>548</ele>
        <time>2021-10-15T07:55:00Z</time>
      </trkpt>
      <trkpt lat="46.57593" lon="5.74361">
        <ele>543</ele>
        <time>2021-10-15T07:55:12Z</time>
      </trkpt>
    </trkseg>
  </trk>
</gpx>